<?xml version="1.0" encoding="UTF-8" standalone="no" ?>
<gpx xmlns="http://www.topografix.com/GPX/1/1" xmlns:xsi="http://www.w3.org/2001/XMLSchema-instance" xsi:schemaLocation="http://www.topografix.com/GPX/1/1 http://www.topografix.com/GPX/1/1/gpx.xsd" version="1.1" creator="VisuGPX - https://www.visugpx.com">
  <metadata>
    <name>La Journiac'oise 2022</name>
  </metadata>
  <trk>
    <name><![CDATA[La Journiac'oise 2022_1]]></name>
    <trkseg>
      <trkpt lat="44.96563" lon="0.88384">
        <ele>136.1</ele>
        <time>2022-08-13T06:55:22Z</time>
      </trkpt>
      <trkpt lat="44.96556" lon="0.88397">
        <ele>136.6</ele>
        <time>2022-08-13T06:55:27Z</time>
      </trkpt>
      <trkpt lat="44.96558" lon="0.88414">
        <ele>134</ele>
        <time>2022-08-13T06:55:31Z</time>
      </trkpt>
      <trkpt lat="44.96559" lon="0.88418">
        <ele>133.3</ele>
        <time>2022-08-13T06:55:32Z</time>
      </trkpt>
      <trkpt lat="44.96565" lon="0.88435">
        <ele>130.4</ele>
        <time>2022-08-13T06:55:35Z</time>
      </trkpt>
      <trkpt lat="44.9657" lon="0.88447">
        <ele>128.8</ele>
        <time>2022-08-13T06:55:38Z</time>
      </trkpt>
      <trkpt lat="44.96572" lon="0.8845">
        <ele>128.4</ele>
        <time>2022-08-13T06:55:40Z</time>
      </trkpt>
      <trkpt lat="44.96567" lon="0.88456">
        <ele>128.3</ele>
        <time>2022-08-13T06:55:43Z</time>
      </trkpt>
      <trkpt lat="44.96571" lon="0.88478">
        <ele>129.2</ele>
        <time>2022-08-13T06:55:49Z</time>
      </trkpt>
      <trkpt lat="44.96577" lon="0.88494">
        <ele>130.2</ele>
        <time>2022-08-13T06:55:54Z</time>
      </trkpt>
      <trkpt lat="44.96592" lon="0.885">
        <ele>130.7</ele>
        <time>2022-08-13T06:55:59Z</time>
      </trkpt>
      <trkpt lat="44.96593" lon="0.885">
        <ele>130.7</ele>
        <time>2022-08-13T06:56:03Z</time>
      </trkpt>
      <trkpt lat="44.96618" lon="0.88532">
        <ele>130.8</ele>
        <time>2022-08-13T06:56:09Z</time>
      </trkpt>
      <trkpt lat="44.96624" lon="0.88546">
        <ele>130.8</ele>
        <time>2022-08-13T06:56:14Z</time>
      </trkpt>
      <trkpt lat="44.96625" lon="0.88548">
        <ele>130.8</ele>
        <time>2022-08-13T06:56:15Z</time>
      </trkpt>
      <trkpt lat="44.96626" lon="0.88548">
        <ele>130.8</ele>
        <time>2022-08-13T06:56:16Z</time>
      </trkpt>
      <trkpt lat="44.96632" lon="0.88548">
        <ele>130.8</ele>
        <time>2022-08-13T06:56:20Z</time>
      </trkpt>
      <trkpt lat="44.96633" lon="0.88547">
        <ele>130.8</ele>
        <time>2022-08-13T06:56:21Z</time>
      </trkpt>
      <trkpt lat="44.96638" lon="0.88544">
        <ele>130.8</ele>
        <time>2022-08-13T06:56:25Z</time>
      </trkpt>
      <trkpt lat="44.96641" lon="0.88542">
        <ele>130.8</ele>
        <time>2022-08-13T06:56:29Z</time>
      </trkpt>
      <trkpt lat="44.96638" lon="0.88543">
        <ele>130.8</ele>
        <time>2022-08-13T06:56:49Z</time>
      </trkpt>
      <trkpt lat="44.96628" lon="0.88544">
        <ele>130.8</ele>
        <time>2022-08-13T06:56:54Z</time>
      </trkpt>
      <trkpt lat="44.96625" lon="0.88541">
        <ele>130.8</ele>
        <time>2022-08-13T06:56:56Z</time>
      </trkpt>
      <trkpt lat="44.96621" lon="0.8853">
        <ele>130.8</ele>
        <time>2022-08-13T06:56:58Z</time>
      </trkpt>
      <trkpt lat="44.96617" lon="0.88523">
        <ele>130.8</ele>
        <time>2022-08-13T06:56:59Z</time>
      </trkpt>
      <trkpt lat="44.96604" lon="0.88504">
        <ele>130.7</ele>
        <time>2022-08-13T06:57:02Z</time>
      </trkpt>
      <trkpt lat="44.96593" lon="0.885">
        <ele>130.2</ele>
        <time>2022-08-13T06:57:04Z</time>
      </trkpt>
      <trkpt lat="44.96592" lon="0.88499">
        <ele>130.2</ele>
        <time>2022-08-13T06:57:05Z</time>
      </trkpt>
      <trkpt lat="44.9659" lon="0.88494">
        <ele>130.2</ele>
        <time>2022-08-13T06:57:06Z</time>
      </trkpt>
      <trkpt lat="44.96583" lon="0.88477">
        <ele>128.2</ele>
        <time>2022-08-13T06:57:09Z</time>
      </trkpt>
      <trkpt lat="44.96567" lon="0.88472">
        <ele>128</ele>
        <time>2022-08-13T06:57:12Z</time>
      </trkpt>
      <trkpt lat="44.96565" lon="0.88469">
        <ele>127.9</ele>
        <time>2022-08-13T06:57:13Z</time>
      </trkpt>
      <trkpt lat="44.96554" lon="0.88483">
        <ele>127.7</ele>
        <time>2022-08-13T06:57:17Z</time>
      </trkpt>
      <trkpt lat="44.9654" lon="0.88512">
        <ele>127.4</ele>
        <time>2022-08-13T06:57:24Z</time>
      </trkpt>
      <trkpt lat="44.96527" lon="0.88538">
        <ele>127.3</ele>
        <time>2022-08-13T06:57:32Z</time>
      </trkpt>
      <trkpt lat="44.96514" lon="0.88565">
        <ele>127.4</ele>
        <time>2022-08-13T06:57:39Z</time>
      </trkpt>
      <trkpt lat="44.96496" lon="0.88591">
        <ele>127.5</ele>
        <time>2022-08-13T06:57:46Z</time>
      </trkpt>
      <trkpt lat="44.96469" lon="0.88619">
        <ele>127.4</ele>
        <time>2022-08-13T06:57:55Z</time>
      </trkpt>
      <trkpt lat="44.96449" lon="0.88634">
        <ele>127.2</ele>
        <time>2022-08-13T06:58:01Z</time>
      </trkpt>
      <trkpt lat="44.9642" lon="0.88655">
        <ele>127.1</ele>
        <time>2022-08-13T06:58:09Z</time>
      </trkpt>
      <trkpt lat="44.96402" lon="0.88669">
        <ele>126.8</ele>
        <time>2022-08-13T06:58:14Z</time>
      </trkpt>
      <trkpt lat="44.96395" lon="0.88675">
        <ele>126.6</ele>
        <time>2022-08-13T06:58:16Z</time>
      </trkpt>
      <trkpt lat="44.96369" lon="0.88696">
        <ele>126.2</ele>
        <time>2022-08-13T06:58:23Z</time>
      </trkpt>
      <trkpt lat="44.96337" lon="0.8872">
        <ele>125.7</ele>
        <time>2022-08-13T06:58:32Z</time>
      </trkpt>
      <trkpt lat="44.96318" lon="0.88729">
        <ele>125.6</ele>
        <time>2022-08-13T06:58:38Z</time>
      </trkpt>
      <trkpt lat="44.96319" lon="0.88748">
        <ele>126.3</ele>
        <time>2022-08-13T06:58:41Z</time>
      </trkpt>
      <trkpt lat="44.96332" lon="0.88771">
        <ele>130</ele>
        <time>2022-08-13T06:58:47Z</time>
      </trkpt>
      <trkpt lat="44.96346" lon="0.88797">
        <ele>132.3</ele>
        <time>2022-08-13T06:58:54Z</time>
      </trkpt>
      <trkpt lat="44.96362" lon="0.88824">
        <ele>135.2</ele>
        <time>2022-08-13T06:59:02Z</time>
      </trkpt>
      <trkpt lat="44.96375" lon="0.88843">
        <ele>135.8</ele>
        <time>2022-08-13T06:59:09Z</time>
      </trkpt>
      <trkpt lat="44.96385" lon="0.88862">
        <ele>136</ele>
        <time>2022-08-13T06:59:16Z</time>
      </trkpt>
      <trkpt lat="44.96387" lon="0.88878">
        <ele>134.9</ele>
        <time>2022-08-13T06:59:21Z</time>
      </trkpt>
      <trkpt lat="44.96388" lon="0.88881">
        <ele>134.8</ele>
        <time>2022-08-13T06:59:22Z</time>
      </trkpt>
      <trkpt lat="44.9639" lon="0.88884">
        <ele>134.7</ele>
        <time>2022-08-13T06:59:24Z</time>
      </trkpt>
      <trkpt lat="44.9639" lon="0.88888">
        <ele>133.7</ele>
        <time>2022-08-13T06:59:25Z</time>
      </trkpt>
      <trkpt lat="44.96398" lon="0.88904">
        <ele>133.1</ele>
        <time>2022-08-13T06:59:31Z</time>
      </trkpt>
      <trkpt lat="44.96409" lon="0.8892">
        <ele>133.6</ele>
        <time>2022-08-13T06:59:39Z</time>
      </trkpt>
      <trkpt lat="44.96419" lon="0.88941">
        <ele>131.5</ele>
        <time>2022-08-13T06:59:47Z</time>
      </trkpt>
      <trkpt lat="44.96424" lon="0.88959">
        <ele>131.5</ele>
        <time>2022-08-13T06:59:53Z</time>
      </trkpt>
      <trkpt lat="44.96429" lon="0.8896">
        <ele>131.4</ele>
        <time>2022-08-13T06:59:56Z</time>
      </trkpt>
      <trkpt lat="44.9643" lon="0.88955">
        <ele>131.3</ele>
        <time>2022-08-13T06:59:58Z</time>
      </trkpt>
      <trkpt lat="44.96425" lon="0.88959">
        <ele>131.2</ele>
        <time>2022-08-13T07:00:02Z</time>
      </trkpt>
      <trkpt lat="44.96404" lon="0.88953">
        <ele>130.7</ele>
        <time>2022-08-13T07:00:11Z</time>
      </trkpt>
      <trkpt lat="44.96392" lon="0.88949">
        <ele>130.4</ele>
        <time>2022-08-13T07:00:16Z</time>
      </trkpt>
      <trkpt lat="44.96376" lon="0.8895">
        <ele>130.4</ele>
        <time>2022-08-13T07:00:21Z</time>
      </trkpt>
      <trkpt lat="44.9637" lon="0.88973">
        <ele>131.7</ele>
        <time>2022-08-13T07:00:28Z</time>
      </trkpt>
      <trkpt lat="44.96364" lon="0.88982">
        <ele>132.3</ele>
        <time>2022-08-13T07:00:30Z</time>
      </trkpt>
      <trkpt lat="44.96356" lon="0.8898">
        <ele>132.9</ele>
        <time>2022-08-13T07:00:32Z</time>
      </trkpt>
      <trkpt lat="44.96347" lon="0.88975">
        <ele>133.6</ele>
        <time>2022-08-13T07:00:37Z</time>
      </trkpt>
      <trkpt lat="44.96334" lon="0.88967">
        <ele>134.6</ele>
        <time>2022-08-13T07:00:45Z</time>
      </trkpt>
      <trkpt lat="44.96333" lon="0.88966">
        <ele>134.7</ele>
        <time>2022-08-13T07:00:46Z</time>
      </trkpt>
      <trkpt lat="44.96328" lon="0.88963">
        <ele>135.1</ele>
        <time>2022-08-13T07:00:49Z</time>
      </trkpt>
      <trkpt lat="44.96318" lon="0.88957">
        <ele>135.9</ele>
        <time>2022-08-13T07:00:54Z</time>
      </trkpt>
      <trkpt lat="44.96309" lon="0.88951">
        <ele>136.6</ele>
        <time>2022-08-13T07:00:59Z</time>
      </trkpt>
      <trkpt lat="44.96305" lon="0.88949">
        <ele>136.9</ele>
        <time>2022-08-13T07:01:01Z</time>
      </trkpt>
      <trkpt lat="44.9629" lon="0.8894">
        <ele>138.1</ele>
        <time>2022-08-13T07:01:09Z</time>
      </trkpt>
      <trkpt lat="44.96274" lon="0.88931">
        <ele>139.3</ele>
        <time>2022-08-13T07:01:16Z</time>
      </trkpt>
      <trkpt lat="44.96262" lon="0.88924">
        <ele>140.2</ele>
        <time>2022-08-13T07:01:22Z</time>
      </trkpt>
      <trkpt lat="44.96251" lon="0.88919">
        <ele>141.1</ele>
        <time>2022-08-13T07:01:28Z</time>
      </trkpt>
      <trkpt lat="44.96238" lon="0.88914">
        <ele>142.1</ele>
        <time>2022-08-13T07:01:34Z</time>
      </trkpt>
      <trkpt lat="44.96224" lon="0.88908">
        <ele>143.1</ele>
        <time>2022-08-13T07:01:41Z</time>
      </trkpt>
      <trkpt lat="44.96208" lon="0.88912">
        <ele>144.3</ele>
        <time>2022-08-13T07:01:49Z</time>
      </trkpt>
      <trkpt lat="44.96199" lon="0.8892">
        <ele>145.1</ele>
        <time>2022-08-13T07:01:55Z</time>
      </trkpt>
      <trkpt lat="44.96198" lon="0.88923">
        <ele>147.7</ele>
        <time>2022-08-13T07:02:01Z</time>
      </trkpt>
      <trkpt lat="44.96198" lon="0.88923">
        <ele>147.6</ele>
        <time>2022-08-13T07:02:09Z</time>
      </trkpt>
      <trkpt lat="44.96198" lon="0.88923">
        <ele>147.6</ele>
        <time>2022-08-13T07:02:15Z</time>
      </trkpt>
      <trkpt lat="44.96162" lon="0.88969">
        <ele>152.7</ele>
        <time>2022-08-13T07:02:22Z</time>
      </trkpt>
      <trkpt lat="44.96154" lon="0.88976">
        <ele>155.6</ele>
        <time>2022-08-13T07:02:28Z</time>
      </trkpt>
      <trkpt lat="44.96148" lon="0.88982">
        <ele>155.4</ele>
        <time>2022-08-13T07:02:33Z</time>
      </trkpt>
      <trkpt lat="44.96142" lon="0.88988">
        <ele>155.4</ele>
        <time>2022-08-13T07:02:39Z</time>
      </trkpt>
      <trkpt lat="44.96134" lon="0.88999">
        <ele>157.4</ele>
        <time>2022-08-13T07:02:46Z</time>
      </trkpt>
      <trkpt lat="44.96127" lon="0.89009">
        <ele>159.3</ele>
        <time>2022-08-13T07:02:52Z</time>
      </trkpt>
      <trkpt lat="44.96119" lon="0.89018">
        <ele>159.2</ele>
        <time>2022-08-13T07:02:58Z</time>
      </trkpt>
      <trkpt lat="44.96114" lon="0.89023">
        <ele>158.7</ele>
        <time>2022-08-13T07:03:02Z</time>
      </trkpt>
      <trkpt lat="44.96113" lon="0.89024">
        <ele>160.9</ele>
        <time>2022-08-13T07:03:04Z</time>
      </trkpt>
      <trkpt lat="44.9611" lon="0.89027">
        <ele>160.9</ele>
        <time>2022-08-13T07:03:06Z</time>
      </trkpt>
      <trkpt lat="44.96105" lon="0.8903">
        <ele>160.9</ele>
        <time>2022-08-13T07:03:08Z</time>
      </trkpt>
      <trkpt lat="44.96093" lon="0.89039">
        <ele>160.1</ele>
        <time>2022-08-13T07:03:16Z</time>
      </trkpt>
      <trkpt lat="44.9608" lon="0.89051">
        <ele>161.5</ele>
        <time>2022-08-13T07:03:23Z</time>
      </trkpt>
      <trkpt lat="44.96074" lon="0.89058">
        <ele>160.6</ele>
        <time>2022-08-13T07:03:28Z</time>
      </trkpt>
      <trkpt lat="44.96074" lon="0.8906">
        <ele>162.8</ele>
        <time>2022-08-13T07:03:29Z</time>
      </trkpt>
      <trkpt lat="44.96079" lon="0.8907">
        <ele>163.7</ele>
        <time>2022-08-13T07:03:36Z</time>
      </trkpt>
      <trkpt lat="44.96084" lon="0.89081">
        <ele>166</ele>
        <time>2022-08-13T07:03:44Z</time>
      </trkpt>
      <trkpt lat="44.96089" lon="0.89096">
        <ele>168.2</ele>
        <time>2022-08-13T07:03:53Z</time>
      </trkpt>
      <trkpt lat="44.96093" lon="0.89109">
        <ele>169.1</ele>
        <time>2022-08-13T07:04:00Z</time>
      </trkpt>
      <trkpt lat="44.96096" lon="0.89118">
        <ele>171.7</ele>
        <time>2022-08-13T07:04:07Z</time>
      </trkpt>
      <trkpt lat="44.96098" lon="0.89125">
        <ele>171.7</ele>
        <time>2022-08-13T07:04:12Z</time>
      </trkpt>
      <trkpt lat="44.96099" lon="0.89131">
        <ele>174.1</ele>
        <time>2022-08-13T07:04:15Z</time>
      </trkpt>
      <trkpt lat="44.96099" lon="0.8914">
        <ele>174.1</ele>
        <time>2022-08-13T07:04:22Z</time>
      </trkpt>
      <trkpt lat="44.96101" lon="0.8915">
        <ele>176.6</ele>
        <time>2022-08-13T07:04:29Z</time>
      </trkpt>
      <trkpt lat="44.961" lon="0.89161">
        <ele>176.5</ele>
        <time>2022-08-13T07:04:36Z</time>
      </trkpt>
      <trkpt lat="44.96101" lon="0.8917">
        <ele>178.5</ele>
        <time>2022-08-13T07:04:43Z</time>
      </trkpt>
      <trkpt lat="44.96101" lon="0.89182">
        <ele>179.8</ele>
        <time>2022-08-13T07:04:51Z</time>
      </trkpt>
      <trkpt lat="44.96103" lon="0.89192">
        <ele>179.8</ele>
        <time>2022-08-13T07:04:58Z</time>
      </trkpt>
      <trkpt lat="44.96102" lon="0.89199">
        <ele>181.2</ele>
        <time>2022-08-13T07:05:02Z</time>
      </trkpt>
      <trkpt lat="44.96102" lon="0.89205">
        <ele>181.1</ele>
        <time>2022-08-13T07:05:06Z</time>
      </trkpt>
      <trkpt lat="44.96102" lon="0.8922">
        <ele>182.6</ele>
        <time>2022-08-13T07:05:15Z</time>
      </trkpt>
      <trkpt lat="44.96102" lon="0.89233">
        <ele>184.3</ele>
        <time>2022-08-13T07:05:23Z</time>
      </trkpt>
      <trkpt lat="44.96103" lon="0.89247">
        <ele>184.3</ele>
        <time>2022-08-13T07:05:31Z</time>
      </trkpt>
      <trkpt lat="44.96106" lon="0.89263">
        <ele>186.5</ele>
        <time>2022-08-13T07:05:41Z</time>
      </trkpt>
      <trkpt lat="44.96108" lon="0.89277">
        <ele>187.7</ele>
        <time>2022-08-13T07:05:49Z</time>
      </trkpt>
      <trkpt lat="44.96108" lon="0.89292">
        <ele>189.1</ele>
        <time>2022-08-13T07:05:58Z</time>
      </trkpt>
      <trkpt lat="44.9611" lon="0.89306">
        <ele>190.4</ele>
        <time>2022-08-13T07:06:06Z</time>
      </trkpt>
      <trkpt lat="44.96111" lon="0.89309">
        <ele>190.4</ele>
        <time>2022-08-13T07:06:08Z</time>
      </trkpt>
      <trkpt lat="44.96116" lon="0.89315">
        <ele>190.8</ele>
        <time>2022-08-13T07:06:13Z</time>
      </trkpt>
      <trkpt lat="44.96117" lon="0.89317">
        <ele>191.9</ele>
        <time>2022-08-13T07:06:14Z</time>
      </trkpt>
      <trkpt lat="44.96121" lon="0.89322">
        <ele>191.9</ele>
        <time>2022-08-13T07:06:18Z</time>
      </trkpt>
      <trkpt lat="44.96122" lon="0.89324">
        <ele>191.9</ele>
        <time>2022-08-13T07:06:19Z</time>
      </trkpt>
      <trkpt lat="44.96127" lon="0.89335">
        <ele>193</ele>
        <time>2022-08-13T07:06:26Z</time>
      </trkpt>
      <trkpt lat="44.96129" lon="0.89348">
        <ele>193.2</ele>
        <time>2022-08-13T07:06:34Z</time>
      </trkpt>
      <trkpt lat="44.9613" lon="0.89364">
        <ele>194.2</ele>
        <time>2022-08-13T07:06:42Z</time>
      </trkpt>
      <trkpt lat="44.96131" lon="0.89373">
        <ele>194.2</ele>
        <time>2022-08-13T07:06:46Z</time>
      </trkpt>
      <trkpt lat="44.96121" lon="0.89386">
        <ele>194.4</ele>
        <time>2022-08-13T07:06:49Z</time>
      </trkpt>
      <trkpt lat="44.96128" lon="0.89382">
        <ele>194.5</ele>
        <time>2022-08-13T07:06:53Z</time>
      </trkpt>
      <trkpt lat="44.96114" lon="0.89387">
        <ele>195.4</ele>
        <time>2022-08-13T07:07:02Z</time>
      </trkpt>
      <trkpt lat="44.96102" lon="0.89388">
        <ele>196.1</ele>
        <time>2022-08-13T07:07:09Z</time>
      </trkpt>
      <trkpt lat="44.96099" lon="0.89388">
        <ele>196.2</ele>
        <time>2022-08-13T07:07:12Z</time>
      </trkpt>
      <trkpt lat="44.96097" lon="0.89388">
        <ele>196.2</ele>
        <time>2022-08-13T07:07:14Z</time>
      </trkpt>
      <trkpt lat="44.96097" lon="0.89388">
        <ele>196.2</ele>
        <time>2022-08-13T07:07:15Z</time>
      </trkpt>
      <trkpt lat="44.96095" lon="0.89388">
        <ele>196.2</ele>
        <time>2022-08-13T07:07:17Z</time>
      </trkpt>
      <trkpt lat="44.96093" lon="0.89387">
        <ele>196.2</ele>
        <time>2022-08-13T07:07:21Z</time>
      </trkpt>
      <trkpt lat="44.9609" lon="0.89385">
        <ele>196.1</ele>
        <time>2022-08-13T07:07:26Z</time>
      </trkpt>
      <trkpt lat="44.96089" lon="0.89384">
        <ele>196</ele>
        <time>2022-08-13T07:07:32Z</time>
      </trkpt>
      <trkpt lat="44.96085" lon="0.89382">
        <ele>195.8</ele>
        <time>2022-08-13T07:07:34Z</time>
      </trkpt>
      <trkpt lat="44.96073" lon="0.89374">
        <ele>194.9</ele>
        <time>2022-08-13T07:07:38Z</time>
      </trkpt>
      <trkpt lat="44.96064" lon="0.89372">
        <ele>194.6</ele>
        <time>2022-08-13T07:07:40Z</time>
      </trkpt>
      <trkpt lat="44.96056" lon="0.89373">
        <ele>194.6</ele>
        <time>2022-08-13T07:07:42Z</time>
      </trkpt>
      <trkpt lat="44.96045" lon="0.89376">
        <ele>195.2</ele>
        <time>2022-08-13T07:07:46Z</time>
      </trkpt>
      <trkpt lat="44.9603" lon="0.89381">
        <ele>196.3</ele>
        <time>2022-08-13T07:07:54Z</time>
      </trkpt>
      <trkpt lat="44.96019" lon="0.89385">
        <ele>197.2</ele>
        <time>2022-08-13T07:08:01Z</time>
      </trkpt>
      <trkpt lat="44.96002" lon="0.8939">
        <ele>198</ele>
        <time>2022-08-13T07:08:09Z</time>
      </trkpt>
      <trkpt lat="44.95987" lon="0.89394">
        <ele>198.8</ele>
        <time>2022-08-13T07:08:16Z</time>
      </trkpt>
      <trkpt lat="44.95969" lon="0.89398">
        <ele>200.1</ele>
        <time>2022-08-13T07:08:24Z</time>
      </trkpt>
      <trkpt lat="44.95949" lon="0.89399">
        <ele>201</ele>
        <time>2022-08-13T07:08:33Z</time>
      </trkpt>
      <trkpt lat="44.95935" lon="0.894">
        <ele>201.3</ele>
        <time>2022-08-13T07:08:39Z</time>
      </trkpt>
      <trkpt lat="44.95919" lon="0.89403">
        <ele>201.7</ele>
        <time>2022-08-13T07:08:46Z</time>
      </trkpt>
      <trkpt lat="44.959" lon="0.89406">
        <ele>201.5</ele>
        <time>2022-08-13T07:08:54Z</time>
      </trkpt>
      <trkpt lat="44.9588" lon="0.89407">
        <ele>200.7</ele>
        <time>2022-08-13T07:09:02Z</time>
      </trkpt>
      <trkpt lat="44.95869" lon="0.8942">
        <ele>200.4</ele>
        <time>2022-08-13T07:09:07Z</time>
      </trkpt>
      <trkpt lat="44.95866" lon="0.89439">
        <ele>200.4</ele>
        <time>2022-08-13T07:09:12Z</time>
      </trkpt>
      <trkpt lat="44.9586" lon="0.89465">
        <ele>200.4</ele>
        <time>2022-08-13T07:09:19Z</time>
      </trkpt>
      <trkpt lat="44.95849" lon="0.89493">
        <ele>200.4</ele>
        <time>2022-08-13T07:09:26Z</time>
      </trkpt>
      <trkpt lat="44.95841" lon="0.89511">
        <ele>200.4</ele>
        <time>2022-08-13T07:09:30Z</time>
      </trkpt>
      <trkpt lat="44.95838" lon="0.89515">
        <ele>200.4</ele>
        <time>2022-08-13T07:09:31Z</time>
      </trkpt>
      <trkpt lat="44.95832" lon="0.89524">
        <ele>200.5</ele>
        <time>2022-08-13T07:09:33Z</time>
      </trkpt>
      <trkpt lat="44.95824" lon="0.89534">
        <ele>200.5</ele>
        <time>2022-08-13T07:09:35Z</time>
      </trkpt>
      <trkpt lat="44.95807" lon="0.89542">
        <ele>198.5</ele>
        <time>2022-08-13T07:09:37Z</time>
      </trkpt>
      <trkpt lat="44.95789" lon="0.89551">
        <ele>197.5</ele>
        <time>2022-08-13T07:09:39Z</time>
      </trkpt>
      <trkpt lat="44.95771" lon="0.89559">
        <ele>196.3</ele>
        <time>2022-08-13T07:09:42Z</time>
      </trkpt>
      <trkpt lat="44.95757" lon="0.89565">
        <ele>195.3</ele>
        <time>2022-08-13T07:09:44Z</time>
      </trkpt>
      <trkpt lat="44.95732" lon="0.89577">
        <ele>194</ele>
        <time>2022-08-13T07:09:48Z</time>
      </trkpt>
      <trkpt lat="44.9572" lon="0.89586">
        <ele>193.3</ele>
        <time>2022-08-13T07:09:51Z</time>
      </trkpt>
      <trkpt lat="44.95715" lon="0.89588">
        <ele>193.4</ele>
        <time>2022-08-13T07:09:52Z</time>
      </trkpt>
      <trkpt lat="44.9571" lon="0.89589">
        <ele>192.7</ele>
        <time>2022-08-13T07:09:53Z</time>
      </trkpt>
      <trkpt lat="44.95705" lon="0.89593">
        <ele>192.6</ele>
        <time>2022-08-13T07:09:55Z</time>
      </trkpt>
      <trkpt lat="44.95704" lon="0.89599">
        <ele>192.7</ele>
        <time>2022-08-13T07:09:57Z</time>
      </trkpt>
      <trkpt lat="44.95706" lon="0.89601">
        <ele>192.7</ele>
        <time>2022-08-13T07:09:58Z</time>
      </trkpt>
      <trkpt lat="44.95718" lon="0.89615">
        <ele>193.4</ele>
        <time>2022-08-13T07:10:03Z</time>
      </trkpt>
      <trkpt lat="44.95724" lon="0.89627">
        <ele>194</ele>
        <time>2022-08-13T07:10:07Z</time>
      </trkpt>
      <trkpt lat="44.9574" lon="0.89633">
        <ele>195</ele>
        <time>2022-08-13T07:10:12Z</time>
      </trkpt>
      <trkpt lat="44.95756" lon="0.89636">
        <ele>195.9</ele>
        <time>2022-08-13T07:10:17Z</time>
      </trkpt>
      <trkpt lat="44.95758" lon="0.89636">
        <ele>196</ele>
        <time>2022-08-13T07:10:18Z</time>
      </trkpt>
      <trkpt lat="44.95763" lon="0.89636">
        <ele>196.3</ele>
        <time>2022-08-13T07:10:20Z</time>
      </trkpt>
      <trkpt lat="44.95764" lon="0.89636">
        <ele>196.3</ele>
        <time>2022-08-13T07:10:23Z</time>
      </trkpt>
      <trkpt lat="44.95769" lon="0.89636">
        <ele>196.6</ele>
        <time>2022-08-13T07:12:53Z</time>
      </trkpt>
      <trkpt lat="44.95771" lon="0.89636">
        <ele>196.8</ele>
        <time>2022-08-13T07:12:54Z</time>
      </trkpt>
      <trkpt lat="44.95783" lon="0.89637">
        <ele>197.5</ele>
        <time>2022-08-13T07:12:59Z</time>
      </trkpt>
      <trkpt lat="44.95796" lon="0.89634">
        <ele>198.3</ele>
        <time>2022-08-13T07:13:04Z</time>
      </trkpt>
      <trkpt lat="44.9581" lon="0.89631">
        <ele>199.1</ele>
        <time>2022-08-13T07:13:09Z</time>
      </trkpt>
      <trkpt lat="44.95821" lon="0.89628">
        <ele>199.7</ele>
        <time>2022-08-13T07:13:13Z</time>
      </trkpt>
      <trkpt lat="44.95834" lon="0.89635">
        <ele>200.5</ele>
        <time>2022-08-13T07:13:14Z</time>
      </trkpt>
      <trkpt lat="44.95834" lon="0.8964">
        <ele>199.2</ele>
        <time>2022-08-13T07:13:15Z</time>
      </trkpt>
      <trkpt lat="44.95834" lon="0.89664">
        <ele>197.1</ele>
        <time>2022-08-13T07:13:18Z</time>
      </trkpt>
      <trkpt lat="44.95832" lon="0.8969">
        <ele>194.7</ele>
        <time>2022-08-13T07:13:22Z</time>
      </trkpt>
      <trkpt lat="44.95829" lon="0.89704">
        <ele>193.5</ele>
        <time>2022-08-13T07:13:24Z</time>
      </trkpt>
      <trkpt lat="44.95823" lon="0.89715">
        <ele>192.2</ele>
        <time>2022-08-13T07:13:26Z</time>
      </trkpt>
      <trkpt lat="44.95814" lon="0.89729">
        <ele>190.5</ele>
        <time>2022-08-13T07:13:28Z</time>
      </trkpt>
      <trkpt lat="44.95805" lon="0.89737">
        <ele>189.3</ele>
        <time>2022-08-13T07:13:30Z</time>
      </trkpt>
      <trkpt lat="44.9578" lon="0.89755">
        <ele>185.7</ele>
        <time>2022-08-13T07:13:34Z</time>
      </trkpt>
      <trkpt lat="44.9575" lon="0.89767">
        <ele>181.8</ele>
        <time>2022-08-13T07:13:38Z</time>
      </trkpt>
      <trkpt lat="44.95739" lon="0.89769">
        <ele>180.4</ele>
        <time>2022-08-13T07:13:40Z</time>
      </trkpt>
      <trkpt lat="44.95731" lon="0.8977">
        <ele>179.3</ele>
        <time>2022-08-13T07:13:42Z</time>
      </trkpt>
      <trkpt lat="44.95719" lon="0.89778">
        <ele>177.7</ele>
        <time>2022-08-13T07:13:45Z</time>
      </trkpt>
      <trkpt lat="44.95711" lon="0.89786">
        <ele>176.5</ele>
        <time>2022-08-13T07:13:47Z</time>
      </trkpt>
      <trkpt lat="44.95707" lon="0.89796">
        <ele>175.4</ele>
        <time>2022-08-13T07:13:49Z</time>
      </trkpt>
      <trkpt lat="44.95695" lon="0.89832">
        <ele>171.9</ele>
        <time>2022-08-13T07:13:53Z</time>
      </trkpt>
      <trkpt lat="44.95693" lon="0.89842">
        <ele>171.1</ele>
        <time>2022-08-13T07:13:54Z</time>
      </trkpt>
      <trkpt lat="44.95689" lon="0.89866">
        <ele>168.9</ele>
        <time>2022-08-13T07:13:57Z</time>
      </trkpt>
      <trkpt lat="44.95687" lon="0.89883">
        <ele>167.3</ele>
        <time>2022-08-13T07:13:59Z</time>
      </trkpt>
      <trkpt lat="44.95681" lon="0.89915">
        <ele>164.4</ele>
        <time>2022-08-13T07:14:03Z</time>
      </trkpt>
      <trkpt lat="44.95675" lon="0.89955">
        <ele>160.8</ele>
        <time>2022-08-13T07:14:09Z</time>
      </trkpt>
      <trkpt lat="44.95678" lon="0.89972">
        <ele>159.2</ele>
        <time>2022-08-13T07:14:13Z</time>
      </trkpt>
      <trkpt lat="44.95678" lon="0.89972">
        <ele>159.2</ele>
        <time>2022-08-13T07:14:14Z</time>
      </trkpt>
      <trkpt lat="44.95678" lon="0.89973">
        <ele>159.1</ele>
        <time>2022-08-13T07:14:29Z</time>
      </trkpt>
      <trkpt lat="44.95679" lon="0.89975">
        <ele>158.9</ele>
        <time>2022-08-13T07:14:30Z</time>
      </trkpt>
      <trkpt lat="44.95681" lon="0.89981">
        <ele>158.3</ele>
        <time>2022-08-13T07:14:32Z</time>
      </trkpt>
      <trkpt lat="44.95683" lon="0.89986">
        <ele>157.8</ele>
        <time>2022-08-13T07:14:33Z</time>
      </trkpt>
      <trkpt lat="44.95694" lon="0.90009">
        <ele>155.4</ele>
        <time>2022-08-13T07:14:36Z</time>
      </trkpt>
      <trkpt lat="44.95699" lon="0.90017">
        <ele>154.5</ele>
        <time>2022-08-13T07:14:37Z</time>
      </trkpt>
      <trkpt lat="44.95704" lon="0.90026">
        <ele>153.3</ele>
        <time>2022-08-13T07:14:39Z</time>
      </trkpt>
      <trkpt lat="44.95702" lon="0.90033">
        <ele>151.8</ele>
        <time>2022-08-13T07:14:41Z</time>
      </trkpt>
      <trkpt lat="44.95698" lon="0.90032">
        <ele>151.5</ele>
        <time>2022-08-13T07:14:43Z</time>
      </trkpt>
      <trkpt lat="44.95696" lon="0.90031">
        <ele>151.2</ele>
        <time>2022-08-13T07:14:44Z</time>
      </trkpt>
      <trkpt lat="44.95688" lon="0.90029">
        <ele>150.5</ele>
        <time>2022-08-13T07:14:46Z</time>
      </trkpt>
      <trkpt lat="44.95684" lon="0.90028">
        <ele>150.1</ele>
        <time>2022-08-13T07:14:47Z</time>
      </trkpt>
      <trkpt lat="44.95667" lon="0.90023">
        <ele>148.5</ele>
        <time>2022-08-13T07:14:51Z</time>
      </trkpt>
      <trkpt lat="44.95652" lon="0.90017">
        <ele>147</ele>
        <time>2022-08-13T07:14:55Z</time>
      </trkpt>
      <trkpt lat="44.95649" lon="0.90016">
        <ele>146.7</ele>
        <time>2022-08-13T07:14:58Z</time>
      </trkpt>
      <trkpt lat="44.95649" lon="0.90015">
        <ele>146.7</ele>
        <time>2022-08-13T07:15:09Z</time>
      </trkpt>
      <trkpt lat="44.95636" lon="0.90011">
        <ele>145.5</ele>
        <time>2022-08-13T07:15:14Z</time>
      </trkpt>
      <trkpt lat="44.95616" lon="0.90002">
        <ele>143.5</ele>
        <time>2022-08-13T07:15:20Z</time>
      </trkpt>
      <trkpt lat="44.95606" lon="0.89998">
        <ele>142.5</ele>
        <time>2022-08-13T07:15:24Z</time>
      </trkpt>
      <trkpt lat="44.95589" lon="0.89992">
        <ele>140.9</ele>
        <time>2022-08-13T07:15:28Z</time>
      </trkpt>
      <trkpt lat="44.95578" lon="0.89987">
        <ele>139.8</ele>
        <time>2022-08-13T07:15:30Z</time>
      </trkpt>
      <trkpt lat="44.95567" lon="0.89983">
        <ele>138.7</ele>
        <time>2022-08-13T07:15:32Z</time>
      </trkpt>
      <trkpt lat="44.95525" lon="0.89965">
        <ele>134.6</ele>
        <time>2022-08-13T07:15:39Z</time>
      </trkpt>
      <trkpt lat="44.95503" lon="0.89954">
        <ele>132.4</ele>
        <time>2022-08-13T07:15:43Z</time>
      </trkpt>
      <trkpt lat="44.95498" lon="0.89951">
        <ele>131.9</ele>
        <time>2022-08-13T07:15:44Z</time>
      </trkpt>
      <trkpt lat="44.95462" lon="0.89936">
        <ele>128.4</ele>
        <time>2022-08-13T07:15:51Z</time>
      </trkpt>
      <trkpt lat="44.9542" lon="0.8992">
        <ele>124.2</ele>
        <time>2022-08-13T07:15:58Z</time>
      </trkpt>
      <trkpt lat="44.95387" lon="0.89908">
        <ele>121.1</ele>
        <time>2022-08-13T07:16:03Z</time>
      </trkpt>
      <trkpt lat="44.95342" lon="0.89893">
        <ele>116.7</ele>
        <time>2022-08-13T07:16:09Z</time>
      </trkpt>
      <trkpt lat="44.95304" lon="0.89881">
        <ele>113.1</ele>
        <time>2022-08-13T07:16:14Z</time>
      </trkpt>
      <trkpt lat="44.95274" lon="0.89878">
        <ele>110.2</ele>
        <time>2022-08-13T07:16:18Z</time>
      </trkpt>
      <trkpt lat="44.95261" lon="0.89878">
        <ele>109</ele>
        <time>2022-08-13T07:16:20Z</time>
      </trkpt>
      <trkpt lat="44.9525" lon="0.89868">
        <ele>108.7</ele>
        <time>2022-08-13T07:16:22Z</time>
      </trkpt>
      <trkpt lat="44.95224" lon="0.89836">
        <ele>107.9</ele>
        <time>2022-08-13T07:16:27Z</time>
      </trkpt>
      <trkpt lat="44.95214" lon="0.89821">
        <ele>107.5</ele>
        <time>2022-08-13T07:16:29Z</time>
      </trkpt>
      <trkpt lat="44.95206" lon="0.89806">
        <ele>107.2</ele>
        <time>2022-08-13T07:16:31Z</time>
      </trkpt>
      <trkpt lat="44.95198" lon="0.89788">
        <ele>106.8</ele>
        <time>2022-08-13T07:16:34Z</time>
      </trkpt>
      <trkpt lat="44.95198" lon="0.89774">
        <ele>106.6</ele>
        <time>2022-08-13T07:16:36Z</time>
      </trkpt>
      <trkpt lat="44.95202" lon="0.89771">
        <ele>106.6</ele>
        <time>2022-08-13T07:16:37Z</time>
      </trkpt>
      <trkpt lat="44.95227" lon="0.89743">
        <ele>106.7</ele>
        <time>2022-08-13T07:16:45Z</time>
      </trkpt>
      <trkpt lat="44.95235" lon="0.89734">
        <ele>106.7</ele>
        <time>2022-08-13T07:16:48Z</time>
      </trkpt>
      <trkpt lat="44.95238" lon="0.8973">
        <ele>106.7</ele>
        <time>2022-08-13T07:16:49Z</time>
      </trkpt>
      <trkpt lat="44.95242" lon="0.89726">
        <ele>106.7</ele>
        <time>2022-08-13T07:16:50Z</time>
      </trkpt>
      <trkpt lat="44.95243" lon="0.89715">
        <ele>107.2</ele>
        <time>2022-08-13T07:16:52Z</time>
      </trkpt>
      <trkpt lat="44.95239" lon="0.8971">
        <ele>107.8</ele>
        <time>2022-08-13T07:16:54Z</time>
      </trkpt>
      <trkpt lat="44.95238" lon="0.8971">
        <ele>107.9</ele>
        <time>2022-08-13T07:16:55Z</time>
      </trkpt>
      <trkpt lat="44.95236" lon="0.8971">
        <ele>108</ele>
        <time>2022-08-13T07:16:56Z</time>
      </trkpt>
      <trkpt lat="44.95232" lon="0.89716">
        <ele>108.6</ele>
        <time>2022-08-13T07:17:00Z</time>
      </trkpt>
      <trkpt lat="44.95221" lon="0.89729">
        <ele>109.9</ele>
        <time>2022-08-13T07:17:07Z</time>
      </trkpt>
      <trkpt lat="44.95206" lon="0.89743">
        <ele>111.5</ele>
        <time>2022-08-13T07:17:16Z</time>
      </trkpt>
      <trkpt lat="44.95194" lon="0.89745">
        <ele>112.7</ele>
        <time>2022-08-13T07:17:23Z</time>
      </trkpt>
      <trkpt lat="44.95186" lon="0.89733">
        <ele>113.8</ele>
        <time>2022-08-13T07:17:30Z</time>
      </trkpt>
      <trkpt lat="44.95179" lon="0.89718">
        <ele>115</ele>
        <time>2022-08-13T07:17:37Z</time>
      </trkpt>
      <trkpt lat="44.95173" lon="0.897">
        <ele>116.3</ele>
        <time>2022-08-13T07:17:45Z</time>
      </trkpt>
      <trkpt lat="44.95165" lon="0.89679">
        <ele>117.9</ele>
        <time>2022-08-13T07:17:54Z</time>
      </trkpt>
      <trkpt lat="44.95159" lon="0.89662">
        <ele>119.1</ele>
        <time>2022-08-13T07:18:01Z</time>
      </trkpt>
      <trkpt lat="44.95154" lon="0.89644">
        <ele>120.4</ele>
        <time>2022-08-13T07:18:09Z</time>
      </trkpt>
      <trkpt lat="44.95148" lon="0.89629">
        <ele>121.5</ele>
        <time>2022-08-13T07:18:16Z</time>
      </trkpt>
      <trkpt lat="44.9514" lon="0.89612">
        <ele>122.9</ele>
        <time>2022-08-13T07:18:25Z</time>
      </trkpt>
      <trkpt lat="44.95133" lon="0.89602">
        <ele>123.9</ele>
        <time>2022-08-13T07:18:31Z</time>
      </trkpt>
      <trkpt lat="44.95123" lon="0.89592">
        <ele>125</ele>
        <time>2022-08-13T07:18:37Z</time>
      </trkpt>
      <trkpt lat="44.95111" lon="0.8958">
        <ele>126.5</ele>
        <time>2022-08-13T07:18:46Z</time>
      </trkpt>
      <trkpt lat="44.95098" lon="0.89566">
        <ele>128.1</ele>
        <time>2022-08-13T07:18:55Z</time>
      </trkpt>
      <trkpt lat="44.95091" lon="0.89562">
        <ele>128.9</ele>
        <time>2022-08-13T07:19:00Z</time>
      </trkpt>
      <trkpt lat="44.95082" lon="0.89574">
        <ele>129.7</ele>
        <time>2022-08-13T07:19:06Z</time>
      </trkpt>
      <trkpt lat="44.95068" lon="0.89594">
        <ele>131.1</ele>
        <time>2022-08-13T07:19:16Z</time>
      </trkpt>
      <trkpt lat="44.95055" lon="0.896">
        <ele>132</ele>
        <time>2022-08-13T07:19:23Z</time>
      </trkpt>
      <trkpt lat="44.95043" lon="0.89602">
        <ele>132.8</ele>
        <time>2022-08-13T07:19:30Z</time>
      </trkpt>
      <trkpt lat="44.95035" lon="0.89611">
        <ele>133.5</ele>
        <time>2022-08-13T07:19:36Z</time>
      </trkpt>
      <trkpt lat="44.95021" lon="0.89624">
        <ele>131.8</ele>
        <time>2022-08-13T07:19:45Z</time>
      </trkpt>
      <trkpt lat="44.9502" lon="0.89626">
        <ele>131.7</ele>
        <time>2022-08-13T07:19:46Z</time>
      </trkpt>
      <trkpt lat="44.95013" lon="0.89631">
        <ele>130.9</ele>
        <time>2022-08-13T07:19:50Z</time>
      </trkpt>
      <trkpt lat="44.95003" lon="0.89639">
        <ele>129.7</ele>
        <time>2022-08-13T07:19:56Z</time>
      </trkpt>
      <trkpt lat="44.95001" lon="0.8964">
        <ele>129.6</ele>
        <time>2022-08-13T07:19:57Z</time>
      </trkpt>
      <trkpt lat="44.94995" lon="0.89645">
        <ele>128.9</ele>
        <time>2022-08-13T07:20:00Z</time>
      </trkpt>
      <trkpt lat="44.94993" lon="0.89647">
        <ele>128.6</ele>
        <time>2022-08-13T07:20:01Z</time>
      </trkpt>
      <trkpt lat="44.94988" lon="0.89633">
        <ele>130.3</ele>
        <time>2022-08-13T07:20:05Z</time>
      </trkpt>
      <trkpt lat="44.94986" lon="0.89629">
        <ele>130.3</ele>
        <time>2022-08-13T07:20:07Z</time>
      </trkpt>
      <trkpt lat="44.94983" lon="0.89624">
        <ele>132.5</ele>
        <time>2022-08-13T07:20:10Z</time>
      </trkpt>
      <trkpt lat="44.94978" lon="0.89616">
        <ele>132.5</ele>
        <time>2022-08-13T07:20:15Z</time>
      </trkpt>
      <trkpt lat="44.9497" lon="0.89606">
        <ele>135.1</ele>
        <time>2022-08-13T07:20:21Z</time>
      </trkpt>
      <trkpt lat="44.94962" lon="0.89596">
        <ele>135.1</ele>
        <time>2022-08-13T07:20:28Z</time>
      </trkpt>
      <trkpt lat="44.94952" lon="0.89585">
        <ele>137.3</ele>
        <time>2022-08-13T07:20:35Z</time>
      </trkpt>
      <trkpt lat="44.94942" lon="0.89573">
        <ele>138.5</ele>
        <time>2022-08-13T07:20:43Z</time>
      </trkpt>
      <trkpt lat="44.94932" lon="0.89562">
        <ele>141.1</ele>
        <time>2022-08-13T07:20:51Z</time>
      </trkpt>
      <trkpt lat="44.94923" lon="0.89555">
        <ele>143.4</ele>
        <time>2022-08-13T07:20:58Z</time>
      </trkpt>
      <trkpt lat="44.94917" lon="0.89547">
        <ele>143.4</ele>
        <time>2022-08-13T07:21:03Z</time>
      </trkpt>
      <trkpt lat="44.94908" lon="0.89539">
        <ele>144.8</ele>
        <time>2022-08-13T07:21:10Z</time>
      </trkpt>
      <trkpt lat="44.94901" lon="0.8953">
        <ele>145.7</ele>
        <time>2022-08-13T07:21:17Z</time>
      </trkpt>
      <trkpt lat="44.94896" lon="0.89525">
        <ele>147.2</ele>
        <time>2022-08-13T07:21:21Z</time>
      </trkpt>
      <trkpt lat="44.94886" lon="0.89519">
        <ele>150.1</ele>
        <time>2022-08-13T07:21:27Z</time>
      </trkpt>
      <trkpt lat="44.94878" lon="0.89516">
        <ele>150.1</ele>
        <time>2022-08-13T07:21:33Z</time>
      </trkpt>
      <trkpt lat="44.94869" lon="0.89512">
        <ele>151.6</ele>
        <time>2022-08-13T07:21:39Z</time>
      </trkpt>
      <trkpt lat="44.94868" lon="0.89513">
        <ele>151.6</ele>
        <time>2022-08-13T07:21:40Z</time>
      </trkpt>
      <trkpt lat="44.94862" lon="0.8951">
        <ele>153.4</ele>
        <time>2022-08-13T07:21:43Z</time>
      </trkpt>
      <trkpt lat="44.9486" lon="0.8951">
        <ele>153.4</ele>
        <time>2022-08-13T07:21:45Z</time>
      </trkpt>
      <trkpt lat="44.94855" lon="0.89509">
        <ele>153.4</ele>
        <time>2022-08-13T07:21:48Z</time>
      </trkpt>
      <trkpt lat="44.94844" lon="0.89507">
        <ele>154.9</ele>
        <time>2022-08-13T07:21:54Z</time>
      </trkpt>
      <trkpt lat="44.94835" lon="0.89506">
        <ele>156.6</ele>
        <time>2022-08-13T07:21:59Z</time>
      </trkpt>
      <trkpt lat="44.94824" lon="0.89507">
        <ele>158.5</ele>
        <time>2022-08-13T07:22:06Z</time>
      </trkpt>
      <trkpt lat="44.94816" lon="0.89509">
        <ele>158.6</ele>
        <time>2022-08-13T07:22:11Z</time>
      </trkpt>
      <trkpt lat="44.94814" lon="0.89509">
        <ele>160.5</ele>
        <time>2022-08-13T07:22:13Z</time>
      </trkpt>
      <trkpt lat="44.94809" lon="0.89511">
        <ele>160.5</ele>
        <time>2022-08-13T07:22:16Z</time>
      </trkpt>
      <trkpt lat="44.94803" lon="0.89514">
        <ele>162.7</ele>
        <time>2022-08-13T07:22:22Z</time>
      </trkpt>
      <trkpt lat="44.94801" lon="0.89514">
        <ele>162.7</ele>
        <time>2022-08-13T07:22:23Z</time>
      </trkpt>
      <trkpt lat="44.94796" lon="0.89515">
        <ele>162.7</ele>
        <time>2022-08-13T07:22:26Z</time>
      </trkpt>
      <trkpt lat="44.94795" lon="0.89516">
        <ele>162.7</ele>
        <time>2022-08-13T07:22:27Z</time>
      </trkpt>
      <trkpt lat="44.94785" lon="0.89522">
        <ele>163.1</ele>
        <time>2022-08-13T07:22:34Z</time>
      </trkpt>
      <trkpt lat="44.94778" lon="0.89529">
        <ele>164.8</ele>
        <time>2022-08-13T07:22:39Z</time>
      </trkpt>
      <trkpt lat="44.94777" lon="0.8953">
        <ele>164.9</ele>
        <time>2022-08-13T07:22:40Z</time>
      </trkpt>
      <trkpt lat="44.94767" lon="0.89543">
        <ele>163.8</ele>
        <time>2022-08-13T07:22:47Z</time>
      </trkpt>
      <trkpt lat="44.94762" lon="0.89555">
        <ele>165.1</ele>
        <time>2022-08-13T07:22:52Z</time>
      </trkpt>
      <trkpt lat="44.94758" lon="0.89562">
        <ele>164.1</ele>
        <time>2022-08-13T07:22:56Z</time>
      </trkpt>
      <trkpt lat="44.94757" lon="0.89563">
        <ele>164.1</ele>
        <time>2022-08-13T07:22:57Z</time>
      </trkpt>
      <trkpt lat="44.94755" lon="0.89566">
        <ele>164.2</ele>
        <time>2022-08-13T07:22:59Z</time>
      </trkpt>
      <trkpt lat="44.94753" lon="0.8957">
        <ele>165.8</ele>
        <time>2022-08-13T07:23:01Z</time>
      </trkpt>
      <trkpt lat="44.94752" lon="0.89578">
        <ele>164.9</ele>
        <time>2022-08-13T07:23:04Z</time>
      </trkpt>
      <trkpt lat="44.9475" lon="0.89581">
        <ele>164.9</ele>
        <time>2022-08-13T07:23:05Z</time>
      </trkpt>
      <trkpt lat="44.94747" lon="0.89595">
        <ele>163.9</ele>
        <time>2022-08-13T07:23:10Z</time>
      </trkpt>
      <trkpt lat="44.94746" lon="0.89597">
        <ele>163.9</ele>
        <time>2022-08-13T07:23:11Z</time>
      </trkpt>
      <trkpt lat="44.94738" lon="0.89609">
        <ele>164.9</ele>
        <time>2022-08-13T07:23:17Z</time>
      </trkpt>
      <trkpt lat="44.94731" lon="0.89619">
        <ele>164.9</ele>
        <time>2022-08-13T07:23:22Z</time>
      </trkpt>
      <trkpt lat="44.94725" lon="0.89624">
        <ele>166.7</ele>
        <time>2022-08-13T07:23:26Z</time>
      </trkpt>
      <trkpt lat="44.94722" lon="0.89626">
        <ele>166</ele>
        <time>2022-08-13T07:23:28Z</time>
      </trkpt>
      <trkpt lat="44.94721" lon="0.89627">
        <ele>166.1</ele>
        <time>2022-08-13T07:23:29Z</time>
      </trkpt>
      <trkpt lat="44.94716" lon="0.89629">
        <ele>167.8</ele>
        <time>2022-08-13T07:23:32Z</time>
      </trkpt>
      <trkpt lat="44.94704" lon="0.89634">
        <ele>169</ele>
        <time>2022-08-13T07:23:38Z</time>
      </trkpt>
      <trkpt lat="44.94691" lon="0.8964">
        <ele>170.4</ele>
        <time>2022-08-13T07:23:45Z</time>
      </trkpt>
      <trkpt lat="44.94683" lon="0.89642">
        <ele>169.5</ele>
        <time>2022-08-13T07:23:49Z</time>
      </trkpt>
      <trkpt lat="44.94669" lon="0.89644">
        <ele>171.8</ele>
        <time>2022-08-13T07:23:56Z</time>
      </trkpt>
      <trkpt lat="44.94657" lon="0.89645">
        <ele>172.9</ele>
        <time>2022-08-13T07:24:02Z</time>
      </trkpt>
      <trkpt lat="44.94649" lon="0.89647">
        <ele>172.9</ele>
        <time>2022-08-13T07:24:06Z</time>
      </trkpt>
      <trkpt lat="44.94645" lon="0.89647">
        <ele>174.2</ele>
        <time>2022-08-13T07:24:08Z</time>
      </trkpt>
      <trkpt lat="44.94628" lon="0.8965">
        <ele>175.3</ele>
        <time>2022-08-13T07:24:16Z</time>
      </trkpt>
      <trkpt lat="44.94619" lon="0.89644">
        <ele>176.3</ele>
        <time>2022-08-13T07:24:21Z</time>
      </trkpt>
      <trkpt lat="44.9462" lon="0.89637">
        <ele>177.4</ele>
        <time>2022-08-13T07:24:24Z</time>
      </trkpt>
      <trkpt lat="44.9462" lon="0.89636">
        <ele>177.4</ele>
        <time>2022-08-13T07:24:25Z</time>
      </trkpt>
      <trkpt lat="44.9462" lon="0.89633">
        <ele>177.4</ele>
        <time>2022-08-13T07:24:26Z</time>
      </trkpt>
      <trkpt lat="44.94621" lon="0.89628">
        <ele>176.3</ele>
        <time>2022-08-13T07:24:28Z</time>
      </trkpt>
      <trkpt lat="44.94623" lon="0.89623">
        <ele>177.1</ele>
        <time>2022-08-13T07:24:30Z</time>
      </trkpt>
      <trkpt lat="44.9462" lon="0.89612">
        <ele>178.2</ele>
        <time>2022-08-13T07:24:33Z</time>
      </trkpt>
      <trkpt lat="44.94619" lon="0.89605">
        <ele>178.8</ele>
        <time>2022-08-13T07:24:35Z</time>
      </trkpt>
      <trkpt lat="44.94614" lon="0.89591">
        <ele>178.8</ele>
        <time>2022-08-13T07:24:41Z</time>
      </trkpt>
      <trkpt lat="44.94606" lon="0.89575">
        <ele>179.7</ele>
        <time>2022-08-13T07:24:48Z</time>
      </trkpt>
      <trkpt lat="44.94597" lon="0.89559">
        <ele>179.3</ele>
        <time>2022-08-13T07:24:55Z</time>
      </trkpt>
      <trkpt lat="44.94591" lon="0.89546">
        <ele>179.1</ele>
        <time>2022-08-13T07:25:01Z</time>
      </trkpt>
      <trkpt lat="44.94583" lon="0.8953">
        <ele>178.3</ele>
        <time>2022-08-13T07:25:07Z</time>
      </trkpt>
      <trkpt lat="44.94573" lon="0.89515">
        <ele>177.3</ele>
        <time>2022-08-13T07:25:13Z</time>
      </trkpt>
      <trkpt lat="44.9457" lon="0.89506">
        <ele>177.2</ele>
        <time>2022-08-13T07:25:15Z</time>
      </trkpt>
      <trkpt lat="44.94573" lon="0.89497">
        <ele>176.4</ele>
        <time>2022-08-13T07:25:17Z</time>
      </trkpt>
      <trkpt lat="44.94576" lon="0.89492">
        <ele>176.4</ele>
        <time>2022-08-13T07:25:18Z</time>
      </trkpt>
      <trkpt lat="44.94581" lon="0.89484">
        <ele>175.4</ele>
        <time>2022-08-13T07:25:20Z</time>
      </trkpt>
      <trkpt lat="44.9459" lon="0.89471">
        <ele>176</ele>
        <time>2022-08-13T07:25:23Z</time>
      </trkpt>
      <trkpt lat="44.94593" lon="0.89465">
        <ele>175</ele>
        <time>2022-08-13T07:25:24Z</time>
      </trkpt>
      <trkpt lat="44.94594" lon="0.89459">
        <ele>175</ele>
        <time>2022-08-13T07:25:25Z</time>
      </trkpt>
      <trkpt lat="44.94601" lon="0.89449">
        <ele>174.8</ele>
        <time>2022-08-13T07:25:27Z</time>
      </trkpt>
      <trkpt lat="44.94613" lon="0.89434">
        <ele>175.2</ele>
        <time>2022-08-13T07:25:30Z</time>
      </trkpt>
      <trkpt lat="44.94618" lon="0.8942">
        <ele>175.2</ele>
        <time>2022-08-13T07:25:32Z</time>
      </trkpt>
      <trkpt lat="44.9462" lon="0.89413">
        <ele>174.9</ele>
        <time>2022-08-13T07:25:33Z</time>
      </trkpt>
      <trkpt lat="44.94622" lon="0.89405">
        <ele>175.9</ele>
        <time>2022-08-13T07:25:34Z</time>
      </trkpt>
      <trkpt lat="44.94628" lon="0.89381">
        <ele>175.3</ele>
        <time>2022-08-13T07:25:37Z</time>
      </trkpt>
      <trkpt lat="44.94631" lon="0.89374">
        <ele>175.3</ele>
        <time>2022-08-13T07:25:38Z</time>
      </trkpt>
      <trkpt lat="44.94637" lon="0.8936">
        <ele>176.4</ele>
        <time>2022-08-13T07:25:40Z</time>
      </trkpt>
      <trkpt lat="44.94641" lon="0.89352">
        <ele>176.5</ele>
        <time>2022-08-13T07:25:41Z</time>
      </trkpt>
      <trkpt lat="44.94648" lon="0.89337">
        <ele>177.6</ele>
        <time>2022-08-13T07:25:43Z</time>
      </trkpt>
      <trkpt lat="44.94654" lon="0.89323">
        <ele>177.3</ele>
        <time>2022-08-13T07:25:45Z</time>
      </trkpt>
      <trkpt lat="44.94656" lon="0.89315">
        <ele>176.7</ele>
        <time>2022-08-13T07:25:46Z</time>
      </trkpt>
      <trkpt lat="44.94659" lon="0.89299">
        <ele>177.3</ele>
        <time>2022-08-13T07:25:48Z</time>
      </trkpt>
      <trkpt lat="44.9466" lon="0.89291">
        <ele>176.6</ele>
        <time>2022-08-13T07:25:49Z</time>
      </trkpt>
      <trkpt lat="44.94663" lon="0.89275">
        <ele>176.1</ele>
        <time>2022-08-13T07:25:51Z</time>
      </trkpt>
      <trkpt lat="44.94668" lon="0.89264">
        <ele>176.1</ele>
        <time>2022-08-13T07:25:53Z</time>
      </trkpt>
      <trkpt lat="44.94675" lon="0.89246">
        <ele>175.8</ele>
        <time>2022-08-13T07:25:56Z</time>
      </trkpt>
      <trkpt lat="44.94679" lon="0.89234">
        <ele>175.8</ele>
        <time>2022-08-13T07:25:58Z</time>
      </trkpt>
      <trkpt lat="44.94685" lon="0.89215">
        <ele>176</ele>
        <time>2022-08-13T07:26:02Z</time>
      </trkpt>
      <trkpt lat="44.94691" lon="0.89191">
        <ele>175.4</ele>
        <time>2022-08-13T07:26:07Z</time>
      </trkpt>
      <trkpt lat="44.94696" lon="0.8917">
        <ele>176.3</ele>
        <time>2022-08-13T07:26:12Z</time>
      </trkpt>
      <trkpt lat="44.947" lon="0.89147">
        <ele>176.5</ele>
        <time>2022-08-13T07:26:17Z</time>
      </trkpt>
      <trkpt lat="44.94704" lon="0.89126">
        <ele>177.2</ele>
        <time>2022-08-13T07:26:22Z</time>
      </trkpt>
      <trkpt lat="44.94708" lon="0.89095">
        <ele>179.1</ele>
        <time>2022-08-13T07:26:29Z</time>
      </trkpt>
      <trkpt lat="44.94712" lon="0.89076">
        <ele>180.4</ele>
        <time>2022-08-13T07:26:34Z</time>
      </trkpt>
      <trkpt lat="44.94716" lon="0.89057">
        <ele>183.1</ele>
        <time>2022-08-13T07:26:39Z</time>
      </trkpt>
      <trkpt lat="44.94718" lon="0.89039">
        <ele>184.4</ele>
        <time>2022-08-13T07:26:44Z</time>
      </trkpt>
      <trkpt lat="44.94721" lon="0.89019">
        <ele>187.1</ele>
        <time>2022-08-13T07:26:49Z</time>
      </trkpt>
      <trkpt lat="44.94725" lon="0.88999">
        <ele>188.2</ele>
        <time>2022-08-13T07:26:54Z</time>
      </trkpt>
      <trkpt lat="44.94728" lon="0.88985">
        <ele>189</ele>
        <time>2022-08-13T07:26:58Z</time>
      </trkpt>
      <trkpt lat="44.94731" lon="0.88967">
        <ele>190.7</ele>
        <time>2022-08-13T07:27:03Z</time>
      </trkpt>
      <trkpt lat="44.94735" lon="0.88947">
        <ele>191.6</ele>
        <time>2022-08-13T07:27:09Z</time>
      </trkpt>
      <trkpt lat="44.94739" lon="0.88925">
        <ele>192.5</ele>
        <time>2022-08-13T07:27:15Z</time>
      </trkpt>
      <trkpt lat="44.94745" lon="0.88908">
        <ele>193.8</ele>
        <time>2022-08-13T07:27:20Z</time>
      </trkpt>
      <trkpt lat="44.94749" lon="0.88893">
        <ele>194.2</ele>
        <time>2022-08-13T07:27:25Z</time>
      </trkpt>
      <trkpt lat="44.94749" lon="0.88889">
        <ele>194.2</ele>
        <time>2022-08-13T07:27:26Z</time>
      </trkpt>
      <trkpt lat="44.94752" lon="0.88876">
        <ele>194.6</ele>
        <time>2022-08-13T07:27:29Z</time>
      </trkpt>
      <trkpt lat="44.94754" lon="0.8885">
        <ele>195.3</ele>
        <time>2022-08-13T07:27:35Z</time>
      </trkpt>
      <trkpt lat="44.94758" lon="0.88832">
        <ele>195.9</ele>
        <time>2022-08-13T07:27:40Z</time>
      </trkpt>
      <trkpt lat="44.9476" lon="0.88813">
        <ele>196.7</ele>
        <time>2022-08-13T07:27:45Z</time>
      </trkpt>
      <trkpt lat="44.94759" lon="0.88799">
        <ele>197.3</ele>
        <time>2022-08-13T07:27:49Z</time>
      </trkpt>
      <trkpt lat="44.94759" lon="0.88794">
        <ele>197.4</ele>
        <time>2022-08-13T07:27:50Z</time>
      </trkpt>
      <trkpt lat="44.94759" lon="0.88788">
        <ele>197.4</ele>
        <time>2022-08-13T07:27:52Z</time>
      </trkpt>
      <trkpt lat="44.9476" lon="0.88786">
        <ele>197.4</ele>
        <time>2022-08-13T07:27:53Z</time>
      </trkpt>
      <trkpt lat="44.94761" lon="0.88783">
        <ele>197.8</ele>
        <time>2022-08-13T07:27:54Z</time>
      </trkpt>
      <trkpt lat="44.94764" lon="0.88776">
        <ele>197.8</ele>
        <time>2022-08-13T07:27:57Z</time>
      </trkpt>
      <trkpt lat="44.94766" lon="0.88761">
        <ele>197.9</ele>
        <time>2022-08-13T07:28:02Z</time>
      </trkpt>
      <trkpt lat="44.94767" lon="0.88743">
        <ele>198</ele>
        <time>2022-08-13T07:28:06Z</time>
      </trkpt>
      <trkpt lat="44.94776" lon="0.88731">
        <ele>197.8</ele>
        <time>2022-08-13T07:28:10Z</time>
      </trkpt>
      <trkpt lat="44.94777" lon="0.88729">
        <ele>197.9</ele>
        <time>2022-08-13T07:28:11Z</time>
      </trkpt>
      <trkpt lat="44.94781" lon="0.88723">
        <ele>197.9</ele>
        <time>2022-08-13T07:28:13Z</time>
      </trkpt>
      <trkpt lat="44.94784" lon="0.88718">
        <ele>197.9</ele>
        <time>2022-08-13T07:28:15Z</time>
      </trkpt>
      <trkpt lat="44.94787" lon="0.88714">
        <ele>197.4</ele>
        <time>2022-08-13T07:28:17Z</time>
      </trkpt>
      <trkpt lat="44.9479" lon="0.88714">
        <ele>197.5</ele>
        <time>2022-08-13T07:28:18Z</time>
      </trkpt>
      <trkpt lat="44.94794" lon="0.88714">
        <ele>197.2</ele>
        <time>2022-08-13T07:28:19Z</time>
      </trkpt>
      <trkpt lat="44.94801" lon="0.88709">
        <ele>197.2</ele>
        <time>2022-08-13T07:28:21Z</time>
      </trkpt>
      <trkpt lat="44.94815" lon="0.88697">
        <ele>195.6</ele>
        <time>2022-08-13T07:28:25Z</time>
      </trkpt>
      <trkpt lat="44.94817" lon="0.88688">
        <ele>194.8</ele>
        <time>2022-08-13T07:28:26Z</time>
      </trkpt>
      <trkpt lat="44.94821" lon="0.88671">
        <ele>194.2</ele>
        <time>2022-08-13T07:28:28Z</time>
      </trkpt>
      <trkpt lat="44.94828" lon="0.88656">
        <ele>193.5</ele>
        <time>2022-08-13T07:28:30Z</time>
      </trkpt>
      <trkpt lat="44.94832" lon="0.8864">
        <ele>191.8</ele>
        <time>2022-08-13T07:28:31Z</time>
      </trkpt>
      <trkpt lat="44.94845" lon="0.88568">
        <ele>189.7</ele>
        <time>2022-08-13T07:28:34Z</time>
      </trkpt>
      <trkpt lat="44.94858" lon="0.88523">
        <ele>189.4</ele>
        <time>2022-08-13T07:28:37Z</time>
      </trkpt>
      <trkpt lat="44.94862" lon="0.88512">
        <ele>189.4</ele>
        <time>2022-08-13T07:28:38Z</time>
      </trkpt>
      <trkpt lat="44.94866" lon="0.88503">
        <ele>189.6</ele>
        <time>2022-08-13T07:28:39Z</time>
      </trkpt>
      <trkpt lat="44.94877" lon="0.88484">
        <ele>189.9</ele>
        <time>2022-08-13T07:28:42Z</time>
      </trkpt>
      <trkpt lat="44.94878" lon="0.88476">
        <ele>189.9</ele>
        <time>2022-08-13T07:28:44Z</time>
      </trkpt>
      <trkpt lat="44.94877" lon="0.88473">
        <ele>190.7</ele>
        <time>2022-08-13T07:28:45Z</time>
      </trkpt>
      <trkpt lat="44.94865" lon="0.88468">
        <ele>191.2</ele>
        <time>2022-08-13T07:28:50Z</time>
      </trkpt>
      <trkpt lat="44.94855" lon="0.88461">
        <ele>191.9</ele>
        <time>2022-08-13T07:28:55Z</time>
      </trkpt>
      <trkpt lat="44.94846" lon="0.88457">
        <ele>193.6</ele>
        <time>2022-08-13T07:29:00Z</time>
      </trkpt>
      <trkpt lat="44.94838" lon="0.88452">
        <ele>194.8</ele>
        <time>2022-08-13T07:29:05Z</time>
      </trkpt>
      <trkpt lat="44.94825" lon="0.88446">
        <ele>195.8</ele>
        <time>2022-08-13T07:29:12Z</time>
      </trkpt>
      <trkpt lat="44.9482" lon="0.88445">
        <ele>195.9</ele>
        <time>2022-08-13T07:29:15Z</time>
      </trkpt>
      <trkpt lat="44.94817" lon="0.88445">
        <ele>195.9</ele>
        <time>2022-08-13T07:29:17Z</time>
      </trkpt>
      <trkpt lat="44.94811" lon="0.88442">
        <ele>196.6</ele>
        <time>2022-08-13T07:29:22Z</time>
      </trkpt>
      <trkpt lat="44.94807" lon="0.88427">
        <ele>197.4</ele>
        <time>2022-08-13T07:29:28Z</time>
      </trkpt>
      <trkpt lat="44.94807" lon="0.8842">
        <ele>198</ele>
        <time>2022-08-13T07:29:31Z</time>
      </trkpt>
      <trkpt lat="44.94809" lon="0.88416">
        <ele>198</ele>
        <time>2022-08-13T07:29:33Z</time>
      </trkpt>
      <trkpt lat="44.9481" lon="0.88403">
        <ele>198.5</ele>
        <time>2022-08-13T07:29:37Z</time>
      </trkpt>
      <trkpt lat="44.94813" lon="0.88391">
        <ele>198.5</ele>
        <time>2022-08-13T07:29:41Z</time>
      </trkpt>
      <trkpt lat="44.94814" lon="0.88388">
        <ele>198.6</ele>
        <time>2022-08-13T07:29:42Z</time>
      </trkpt>
      <trkpt lat="44.94815" lon="0.88386">
        <ele>198.6</ele>
        <time>2022-08-13T07:29:43Z</time>
      </trkpt>
      <trkpt lat="44.9482" lon="0.88381">
        <ele>198.7</ele>
        <time>2022-08-13T07:29:46Z</time>
      </trkpt>
      <trkpt lat="44.94822" lon="0.88379">
        <ele>198.7</ele>
        <time>2022-08-13T07:29:47Z</time>
      </trkpt>
      <trkpt lat="44.9483" lon="0.88371">
        <ele>198.9</ele>
        <time>2022-08-13T07:29:52Z</time>
      </trkpt>
      <trkpt lat="44.94831" lon="0.88368">
        <ele>199</ele>
        <time>2022-08-13T07:29:53Z</time>
      </trkpt>
      <trkpt lat="44.94842" lon="0.8835">
        <ele>199.3</ele>
        <time>2022-08-13T07:30:00Z</time>
      </trkpt>
      <trkpt lat="44.94846" lon="0.88311">
        <ele>199.8</ele>
        <time>2022-08-13T07:30:09Z</time>
      </trkpt>
      <trkpt lat="44.94861" lon="0.88295">
        <ele>200.1</ele>
        <time>2022-08-13T07:30:15Z</time>
      </trkpt>
      <trkpt lat="44.94878" lon="0.88277">
        <ele>200.5</ele>
        <time>2022-08-13T07:30:21Z</time>
      </trkpt>
      <trkpt lat="44.94894" lon="0.88259">
        <ele>200.8</ele>
        <time>2022-08-13T07:30:26Z</time>
      </trkpt>
      <trkpt lat="44.94908" lon="0.88243">
        <ele>201.2</ele>
        <time>2022-08-13T07:30:32Z</time>
      </trkpt>
      <trkpt lat="44.9491" lon="0.8824">
        <ele>201.2</ele>
        <time>2022-08-13T07:30:34Z</time>
      </trkpt>
      <trkpt lat="44.94915" lon="0.88234">
        <ele>201.3</ele>
        <time>2022-08-13T07:30:36Z</time>
      </trkpt>
      <trkpt lat="44.94929" lon="0.88218">
        <ele>201.7</ele>
        <time>2022-08-13T07:30:41Z</time>
      </trkpt>
      <trkpt lat="44.94943" lon="0.88201">
        <ele>202</ele>
        <time>2022-08-13T07:30:46Z</time>
      </trkpt>
      <trkpt lat="44.94954" lon="0.88189">
        <ele>202.2</ele>
        <time>2022-08-13T07:30:50Z</time>
      </trkpt>
      <trkpt lat="44.94964" lon="0.88177">
        <ele>202.5</ele>
        <time>2022-08-13T07:30:54Z</time>
      </trkpt>
      <trkpt lat="44.94979" lon="0.88154">
        <ele>202.9</ele>
        <time>2022-08-13T07:31:00Z</time>
      </trkpt>
      <trkpt lat="44.94984" lon="0.88146">
        <ele>203</ele>
        <time>2022-08-13T07:31:02Z</time>
      </trkpt>
      <trkpt lat="44.94986" lon="0.88142">
        <ele>203.1</ele>
        <time>2022-08-13T07:31:03Z</time>
      </trkpt>
      <trkpt lat="44.94987" lon="0.8814">
        <ele>203.1</ele>
        <time>2022-08-13T07:31:04Z</time>
      </trkpt>
      <trkpt lat="44.94984" lon="0.88131">
        <ele>203.3</ele>
        <time>2022-08-13T07:31:06Z</time>
      </trkpt>
      <trkpt lat="44.94969" lon="0.8813">
        <ele>203.2</ele>
        <time>2022-08-13T07:31:12Z</time>
      </trkpt>
      <trkpt lat="44.94948" lon="0.88128">
        <ele>202.8</ele>
        <time>2022-08-13T07:31:18Z</time>
      </trkpt>
      <trkpt lat="44.94939" lon="0.88128">
        <ele>202.6</ele>
        <time>2022-08-13T07:31:20Z</time>
      </trkpt>
      <trkpt lat="44.94929" lon="0.88127">
        <ele>202.4</ele>
        <time>2022-08-13T07:31:22Z</time>
      </trkpt>
      <trkpt lat="44.94906" lon="0.88126">
        <ele>202.1</ele>
        <time>2022-08-13T07:31:26Z</time>
      </trkpt>
      <trkpt lat="44.949" lon="0.88125">
        <ele>202</ele>
        <time>2022-08-13T07:31:27Z</time>
      </trkpt>
      <trkpt lat="44.94894" lon="0.88125">
        <ele>202</ele>
        <time>2022-08-13T07:31:28Z</time>
      </trkpt>
      <trkpt lat="44.94881" lon="0.88126">
        <ele>201.7</ele>
        <time>2022-08-13T07:31:30Z</time>
      </trkpt>
      <trkpt lat="44.94875" lon="0.88128">
        <ele>201.6</ele>
        <time>2022-08-13T07:31:31Z</time>
      </trkpt>
      <trkpt lat="44.94863" lon="0.88132">
        <ele>201.4</ele>
        <time>2022-08-13T07:31:33Z</time>
      </trkpt>
      <trkpt lat="44.94848" lon="0.88137">
        <ele>200.9</ele>
        <time>2022-08-13T07:31:36Z</time>
      </trkpt>
      <trkpt lat="44.94843" lon="0.88138">
        <ele>200.8</ele>
        <time>2022-08-13T07:31:37Z</time>
      </trkpt>
      <trkpt lat="44.94824" lon="0.88144">
        <ele>200.3</ele>
        <time>2022-08-13T07:31:40Z</time>
      </trkpt>
      <trkpt lat="44.94813" lon="0.88148">
        <ele>200.1</ele>
        <time>2022-08-13T07:31:42Z</time>
      </trkpt>
      <trkpt lat="44.94799" lon="0.88155">
        <ele>199.9</ele>
        <time>2022-08-13T07:31:45Z</time>
      </trkpt>
      <trkpt lat="44.94794" lon="0.88157">
        <ele>199.8</ele>
        <time>2022-08-13T07:31:46Z</time>
      </trkpt>
      <trkpt lat="44.94784" lon="0.88162">
        <ele>199.2</ele>
        <time>2022-08-13T07:31:48Z</time>
      </trkpt>
      <trkpt lat="44.9476" lon="0.88174">
        <ele>195.7</ele>
        <time>2022-08-13T07:31:53Z</time>
      </trkpt>
      <trkpt lat="44.94747" lon="0.88165">
        <ele>190.7</ele>
        <time>2022-08-13T07:31:54Z</time>
      </trkpt>
      <trkpt lat="44.94721" lon="0.88147">
        <ele>185</ele>
        <time>2022-08-13T07:31:56Z</time>
      </trkpt>
      <trkpt lat="44.947" lon="0.8815">
        <ele>180.6</ele>
        <time>2022-08-13T07:31:59Z</time>
      </trkpt>
      <trkpt lat="44.94694" lon="0.88151">
        <ele>179.2</ele>
        <time>2022-08-13T07:32:00Z</time>
      </trkpt>
      <trkpt lat="44.94684" lon="0.88148">
        <ele>176.6</ele>
        <time>2022-08-13T07:32:03Z</time>
      </trkpt>
      <trkpt lat="44.94678" lon="0.88142">
        <ele>175</ele>
        <time>2022-08-13T07:32:05Z</time>
      </trkpt>
      <trkpt lat="44.94672" lon="0.88135">
        <ele>173.2</ele>
        <time>2022-08-13T07:32:07Z</time>
      </trkpt>
      <trkpt lat="44.94663" lon="0.88109">
        <ele>169.6</ele>
        <time>2022-08-13T07:32:10Z</time>
      </trkpt>
      <trkpt lat="44.94655" lon="0.88082">
        <ele>166.2</ele>
        <time>2022-08-13T07:32:13Z</time>
      </trkpt>
      <trkpt lat="44.94647" lon="0.88066">
        <ele>163.9</ele>
        <time>2022-08-13T07:32:15Z</time>
      </trkpt>
      <trkpt lat="44.94635" lon="0.88053">
        <ele>161.4</ele>
        <time>2022-08-13T07:32:17Z</time>
      </trkpt>
      <trkpt lat="44.94628" lon="0.88044">
        <ele>160</ele>
        <time>2022-08-13T07:32:18Z</time>
      </trkpt>
      <trkpt lat="44.9462" lon="0.88031">
        <ele>158.2</ele>
        <time>2022-08-13T07:32:20Z</time>
      </trkpt>
      <trkpt lat="44.94619" lon="0.88027">
        <ele>157.7</ele>
        <time>2022-08-13T07:32:21Z</time>
      </trkpt>
      <trkpt lat="44.94615" lon="0.88021">
        <ele>156.9</ele>
        <time>2022-08-13T07:32:22Z</time>
      </trkpt>
      <trkpt lat="44.94612" lon="0.88017">
        <ele>156.2</ele>
        <time>2022-08-13T07:32:23Z</time>
      </trkpt>
      <trkpt lat="44.94611" lon="0.88013">
        <ele>155.8</ele>
        <time>2022-08-13T07:32:25Z</time>
      </trkpt>
      <trkpt lat="44.94612" lon="0.88007">
        <ele>155</ele>
        <time>2022-08-13T07:32:28Z</time>
      </trkpt>
      <trkpt lat="44.9461" lon="0.88001">
        <ele>154.2</ele>
        <time>2022-08-13T07:32:29Z</time>
      </trkpt>
      <trkpt lat="44.94608" lon="0.87994">
        <ele>153.1</ele>
        <time>2022-08-13T07:32:31Z</time>
      </trkpt>
      <trkpt lat="44.94606" lon="0.8799">
        <ele>152.6</ele>
        <time>2022-08-13T07:32:32Z</time>
      </trkpt>
      <trkpt lat="44.94604" lon="0.87986">
        <ele>151.9</ele>
        <time>2022-08-13T07:32:35Z</time>
      </trkpt>
      <trkpt lat="44.94603" lon="0.87984">
        <ele>151.8</ele>
        <time>2022-08-13T07:32:37Z</time>
      </trkpt>
      <trkpt lat="44.94602" lon="0.8798">
        <ele>151.2</ele>
        <time>2022-08-13T07:32:39Z</time>
      </trkpt>
      <trkpt lat="44.946" lon="0.87971">
        <ele>150.3</ele>
        <time>2022-08-13T07:32:41Z</time>
      </trkpt>
      <trkpt lat="44.94598" lon="0.87972">
        <ele>145.2</ele>
        <time>2022-08-13T07:33:32Z</time>
      </trkpt>
      <trkpt lat="44.94591" lon="0.87976">
        <ele>144.3</ele>
        <time>2022-08-13T07:33:36Z</time>
      </trkpt>
      <trkpt lat="44.94585" lon="0.87979">
        <ele>143.5</ele>
        <time>2022-08-13T07:33:38Z</time>
      </trkpt>
      <trkpt lat="44.94581" lon="0.8798">
        <ele>143</ele>
        <time>2022-08-13T07:33:39Z</time>
      </trkpt>
      <trkpt lat="44.94578" lon="0.87982">
        <ele>142.5</ele>
        <time>2022-08-13T07:33:40Z</time>
      </trkpt>
      <trkpt lat="44.94568" lon="0.87987">
        <ele>141.1</ele>
        <time>2022-08-13T07:33:42Z</time>
      </trkpt>
      <trkpt lat="44.94559" lon="0.87992">
        <ele>139.8</ele>
        <time>2022-08-13T07:33:44Z</time>
      </trkpt>
      <trkpt lat="44.94551" lon="0.88001">
        <ele>138.9</ele>
        <time>2022-08-13T07:33:46Z</time>
      </trkpt>
      <trkpt lat="44.94544" lon="0.8801">
        <ele>138.4</ele>
        <time>2022-08-13T07:33:48Z</time>
      </trkpt>
      <trkpt lat="44.94539" lon="0.88022">
        <ele>137.9</ele>
        <time>2022-08-13T07:33:50Z</time>
      </trkpt>
      <trkpt lat="44.94533" lon="0.88039">
        <ele>137.4</ele>
        <time>2022-08-13T07:33:53Z</time>
      </trkpt>
      <trkpt lat="44.94526" lon="0.88061">
        <ele>136.7</ele>
        <time>2022-08-13T07:33:57Z</time>
      </trkpt>
      <trkpt lat="44.94515" lon="0.88089">
        <ele>135.3</ele>
        <time>2022-08-13T07:34:03Z</time>
      </trkpt>
      <trkpt lat="44.94504" lon="0.88122">
        <ele>133.9</ele>
        <time>2022-08-13T07:34:10Z</time>
      </trkpt>
      <trkpt lat="44.94495" lon="0.88148">
        <ele>132.8</ele>
        <time>2022-08-13T07:34:16Z</time>
      </trkpt>
      <trkpt lat="44.9449" lon="0.88161">
        <ele>132.3</ele>
        <time>2022-08-13T07:34:20Z</time>
      </trkpt>
      <trkpt lat="44.94488" lon="0.88163">
        <ele>132.2</ele>
        <time>2022-08-13T07:34:21Z</time>
      </trkpt>
      <trkpt lat="44.94483" lon="0.88172">
        <ele>131.9</ele>
        <time>2022-08-13T07:34:24Z</time>
      </trkpt>
      <trkpt lat="44.94468" lon="0.88178">
        <ele>131.1</ele>
        <time>2022-08-13T07:34:29Z</time>
      </trkpt>
      <trkpt lat="44.94451" lon="0.88184">
        <ele>129.4</ele>
        <time>2022-08-13T07:34:35Z</time>
      </trkpt>
      <trkpt lat="44.94449" lon="0.88178">
        <ele>129.5</ele>
        <time>2022-08-13T07:34:36Z</time>
      </trkpt>
      <trkpt lat="44.94449" lon="0.88175">
        <ele>129.5</ele>
        <time>2022-08-13T07:34:37Z</time>
      </trkpt>
      <trkpt lat="44.94449" lon="0.8817">
        <ele>129.5</ele>
        <time>2022-08-13T07:34:40Z</time>
      </trkpt>
      <trkpt lat="44.94449" lon="0.88153">
        <ele>129.6</ele>
        <time>2022-08-13T07:34:45Z</time>
      </trkpt>
      <trkpt lat="44.94449" lon="0.88132">
        <ele>129.7</ele>
        <time>2022-08-13T07:34:52Z</time>
      </trkpt>
      <trkpt lat="44.94449" lon="0.88111">
        <ele>129.9</ele>
        <time>2022-08-13T07:35:00Z</time>
      </trkpt>
      <trkpt lat="44.94449" lon="0.8811">
        <ele>129.9</ele>
        <time>2022-08-13T07:35:01Z</time>
      </trkpt>
      <trkpt lat="44.94449" lon="0.8811">
        <ele>129.9</ele>
        <time>2022-08-13T07:35:04Z</time>
      </trkpt>
      <trkpt lat="44.94449" lon="0.88115">
        <ele>129.9</ele>
        <time>2022-08-13T07:35:05Z</time>
      </trkpt>
      <trkpt lat="44.94449" lon="0.8813">
        <ele>130.1</ele>
        <time>2022-08-13T07:35:10Z</time>
      </trkpt>
      <trkpt lat="44.94449" lon="0.88148">
        <ele>130.3</ele>
        <time>2022-08-13T07:35:16Z</time>
      </trkpt>
      <trkpt lat="44.94449" lon="0.88148">
        <ele>130.3</ele>
        <time>2022-08-13T07:35:18Z</time>
      </trkpt>
      <trkpt lat="44.94449" lon="0.88147">
        <ele>130.3</ele>
        <time>2022-08-13T07:36:13Z</time>
      </trkpt>
      <trkpt lat="44.94449" lon="0.88144">
        <ele>130.3</ele>
        <time>2022-08-13T07:36:14Z</time>
      </trkpt>
      <trkpt lat="44.94449" lon="0.88119">
        <ele>130.7</ele>
        <time>2022-08-13T07:36:20Z</time>
      </trkpt>
      <trkpt lat="44.94452" lon="0.88088">
        <ele>131.4</ele>
        <time>2022-08-13T07:36:28Z</time>
      </trkpt>
      <trkpt lat="44.94457" lon="0.8806">
        <ele>132.3</ele>
        <time>2022-08-13T07:36:35Z</time>
      </trkpt>
      <trkpt lat="44.94465" lon="0.88036">
        <ele>133.5</ele>
        <time>2022-08-13T07:36:41Z</time>
      </trkpt>
      <trkpt lat="44.94474" lon="0.88008">
        <ele>135</ele>
        <time>2022-08-13T07:36:48Z</time>
      </trkpt>
      <trkpt lat="44.94483" lon="0.87982">
        <ele>136.4</ele>
        <time>2022-08-13T07:36:55Z</time>
      </trkpt>
      <trkpt lat="44.94492" lon="0.87942">
        <ele>138.6</ele>
        <time>2022-08-13T07:37:05Z</time>
      </trkpt>
      <trkpt lat="44.94493" lon="0.87938">
        <ele>138.8</ele>
        <time>2022-08-13T07:37:06Z</time>
      </trkpt>
      <trkpt lat="44.94495" lon="0.87928">
        <ele>139.3</ele>
        <time>2022-08-13T07:37:09Z</time>
      </trkpt>
      <trkpt lat="44.94496" lon="0.87916">
        <ele>139.9</ele>
        <time>2022-08-13T07:37:13Z</time>
      </trkpt>
      <trkpt lat="44.94498" lon="0.87897">
        <ele>140.9</ele>
        <time>2022-08-13T07:37:18Z</time>
      </trkpt>
      <trkpt lat="44.94498" lon="0.8789">
        <ele>141.3</ele>
        <time>2022-08-13T07:37:20Z</time>
      </trkpt>
      <trkpt lat="44.94498" lon="0.87883">
        <ele>141.6</ele>
        <time>2022-08-13T07:37:22Z</time>
      </trkpt>
      <trkpt lat="44.94498" lon="0.87881">
        <ele>141.7</ele>
        <time>2022-08-13T07:37:23Z</time>
      </trkpt>
      <trkpt lat="44.94498" lon="0.87872">
        <ele>142.1</ele>
        <time>2022-08-13T07:37:25Z</time>
      </trkpt>
      <trkpt lat="44.94498" lon="0.87852">
        <ele>143.1</ele>
        <time>2022-08-13T07:37:29Z</time>
      </trkpt>
      <trkpt lat="44.94498" lon="0.87824">
        <ele>144.4</ele>
        <time>2022-08-13T07:37:34Z</time>
      </trkpt>
      <trkpt lat="44.94495" lon="0.87797">
        <ele>145.7</ele>
        <time>2022-08-13T07:37:39Z</time>
      </trkpt>
      <trkpt lat="44.94495" lon="0.87793">
        <ele>145.9</ele>
        <time>2022-08-13T07:37:40Z</time>
      </trkpt>
      <trkpt lat="44.94493" lon="0.87778">
        <ele>146.5</ele>
        <time>2022-08-13T07:37:43Z</time>
      </trkpt>
      <trkpt lat="44.94491" lon="0.87762">
        <ele>147.3</ele>
        <time>2022-08-13T07:37:47Z</time>
      </trkpt>
      <trkpt lat="44.94491" lon="0.87758">
        <ele>147.5</ele>
        <time>2022-08-13T07:37:48Z</time>
      </trkpt>
      <trkpt lat="44.94489" lon="0.87749">
        <ele>147.9</ele>
        <time>2022-08-13T07:37:50Z</time>
      </trkpt>
      <trkpt lat="44.94485" lon="0.87727">
        <ele>148.9</ele>
        <time>2022-08-13T07:37:55Z</time>
      </trkpt>
      <trkpt lat="44.94483" lon="0.87715">
        <ele>149.4</ele>
        <time>2022-08-13T07:37:58Z</time>
      </trkpt>
      <trkpt lat="44.94481" lon="0.87708">
        <ele>149.8</ele>
        <time>2022-08-13T07:38:00Z</time>
      </trkpt>
      <trkpt lat="44.94473" lon="0.87687">
        <ele>150.9</ele>
        <time>2022-08-13T07:38:05Z</time>
      </trkpt>
      <trkpt lat="44.94499" lon="0.8767">
        <ele>152.7</ele>
        <time>2022-08-13T07:38:09Z</time>
      </trkpt>
      <trkpt lat="44.94498" lon="0.87661">
        <ele>153.1</ele>
        <time>2022-08-13T07:38:11Z</time>
      </trkpt>
      <trkpt lat="44.94498" lon="0.87652">
        <ele>153.5</ele>
        <time>2022-08-13T07:38:13Z</time>
      </trkpt>
      <trkpt lat="44.94498" lon="0.87644">
        <ele>153.8</ele>
        <time>2022-08-13T07:38:15Z</time>
      </trkpt>
      <trkpt lat="44.94497" lon="0.87635">
        <ele>154.2</ele>
        <time>2022-08-13T07:38:17Z</time>
      </trkpt>
      <trkpt lat="44.94495" lon="0.87623">
        <ele>154.7</ele>
        <time>2022-08-13T07:38:19Z</time>
      </trkpt>
      <trkpt lat="44.94491" lon="0.87604">
        <ele>155.3</ele>
        <time>2022-08-13T07:38:24Z</time>
      </trkpt>
      <trkpt lat="44.9449" lon="0.87598">
        <ele>155.5</ele>
        <time>2022-08-13T07:38:29Z</time>
      </trkpt>
      <trkpt lat="44.94489" lon="0.87586">
        <ele>155.8</ele>
        <time>2022-08-13T07:38:54Z</time>
      </trkpt>
      <trkpt lat="44.94489" lon="0.87577">
        <ele>156</ele>
        <time>2022-08-13T07:38:56Z</time>
      </trkpt>
      <trkpt lat="44.9449" lon="0.87566">
        <ele>156.2</ele>
        <time>2022-08-13T07:38:59Z</time>
      </trkpt>
      <trkpt lat="44.9449" lon="0.87562">
        <ele>156.3</ele>
        <time>2022-08-13T07:39:00Z</time>
      </trkpt>
      <trkpt lat="44.94488" lon="0.87552">
        <ele>156.4</ele>
        <time>2022-08-13T07:39:02Z</time>
      </trkpt>
      <trkpt lat="44.94486" lon="0.87541">
        <ele>156.6</ele>
        <time>2022-08-13T07:39:04Z</time>
      </trkpt>
      <trkpt lat="44.94487" lon="0.87537">
        <ele>156.7</ele>
        <time>2022-08-13T07:39:05Z</time>
      </trkpt>
      <trkpt lat="44.94485" lon="0.87529">
        <ele>156.9</ele>
        <time>2022-08-13T07:39:07Z</time>
      </trkpt>
      <trkpt lat="44.94485" lon="0.87507">
        <ele>157.2</ele>
        <time>2022-08-13T07:39:13Z</time>
      </trkpt>
      <trkpt lat="44.94485" lon="0.87501">
        <ele>157.3</ele>
        <time>2022-08-13T07:39:15Z</time>
      </trkpt>
      <trkpt lat="44.94485" lon="0.87496">
        <ele>157.3</ele>
        <time>2022-08-13T07:39:17Z</time>
      </trkpt>
      <trkpt lat="44.94484" lon="0.87492">
        <ele>157.4</ele>
        <time>2022-08-13T07:39:18Z</time>
      </trkpt>
      <trkpt lat="44.94483" lon="0.8748">
        <ele>157.5</ele>
        <time>2022-08-13T07:39:21Z</time>
      </trkpt>
      <trkpt lat="44.94481" lon="0.87459">
        <ele>157.8</ele>
        <time>2022-08-13T07:39:27Z</time>
      </trkpt>
      <trkpt lat="44.9448" lon="0.87451">
        <ele>157.9</ele>
        <time>2022-08-13T07:39:29Z</time>
      </trkpt>
      <trkpt lat="44.9448" lon="0.87445">
        <ele>158</ele>
        <time>2022-08-13T07:39:31Z</time>
      </trkpt>
      <trkpt lat="44.94481" lon="0.87442">
        <ele>158.1</ele>
        <time>2022-08-13T07:39:32Z</time>
      </trkpt>
      <trkpt lat="44.94481" lon="0.87431">
        <ele>158</ele>
        <time>2022-08-13T07:39:35Z</time>
      </trkpt>
      <trkpt lat="44.94481" lon="0.8742">
        <ele>158.7</ele>
        <time>2022-08-13T07:39:38Z</time>
      </trkpt>
      <trkpt lat="44.94483" lon="0.87412">
        <ele>158.7</ele>
        <time>2022-08-13T07:39:40Z</time>
      </trkpt>
      <trkpt lat="44.94485" lon="0.87409">
        <ele>159.9</ele>
        <time>2022-08-13T07:39:41Z</time>
      </trkpt>
      <trkpt lat="44.94493" lon="0.87402">
        <ele>159.5</ele>
        <time>2022-08-13T07:39:44Z</time>
      </trkpt>
      <trkpt lat="44.94512" lon="0.87385">
        <ele>161.3</ele>
        <time>2022-08-13T07:39:52Z</time>
      </trkpt>
      <trkpt lat="44.94528" lon="0.87376">
        <ele>161.5</ele>
        <time>2022-08-13T07:39:59Z</time>
      </trkpt>
      <trkpt lat="44.94535" lon="0.87371">
        <ele>162.4</ele>
        <time>2022-08-13T07:40:03Z</time>
      </trkpt>
      <trkpt lat="44.94548" lon="0.87361">
        <ele>162.4</ele>
        <time>2022-08-13T07:40:09Z</time>
      </trkpt>
      <trkpt lat="44.94561" lon="0.87353">
        <ele>164.1</ele>
        <time>2022-08-13T07:40:15Z</time>
      </trkpt>
      <trkpt lat="44.94572" lon="0.87345">
        <ele>164</ele>
        <time>2022-08-13T07:40:20Z</time>
      </trkpt>
      <trkpt lat="44.94582" lon="0.87336">
        <ele>164.5</ele>
        <time>2022-08-13T07:40:25Z</time>
      </trkpt>
      <trkpt lat="44.94594" lon="0.87325">
        <ele>164.4</ele>
        <time>2022-08-13T07:40:30Z</time>
      </trkpt>
      <trkpt lat="44.94607" lon="0.87314">
        <ele>164.9</ele>
        <time>2022-08-13T07:40:36Z</time>
      </trkpt>
      <trkpt lat="44.94619" lon="0.87305">
        <ele>165.6</ele>
        <time>2022-08-13T07:40:41Z</time>
      </trkpt>
      <trkpt lat="44.94632" lon="0.87295">
        <ele>166.3</ele>
        <time>2022-08-13T07:40:46Z</time>
      </trkpt>
      <trkpt lat="44.94634" lon="0.87291">
        <ele>167</ele>
        <time>2022-08-13T07:40:47Z</time>
      </trkpt>
      <trkpt lat="44.94641" lon="0.87281">
        <ele>166.5</ele>
        <time>2022-08-13T07:40:50Z</time>
      </trkpt>
      <trkpt lat="44.94648" lon="0.87269">
        <ele>167.5</ele>
        <time>2022-08-13T07:40:54Z</time>
      </trkpt>
      <trkpt lat="44.94651" lon="0.87264">
        <ele>167.5</ele>
        <time>2022-08-13T07:40:56Z</time>
      </trkpt>
      <trkpt lat="44.94655" lon="0.87258">
        <ele>167.4</ele>
        <time>2022-08-13T07:40:58Z</time>
      </trkpt>
      <trkpt lat="44.94663" lon="0.87246">
        <ele>168.7</ele>
        <time>2022-08-13T07:41:03Z</time>
      </trkpt>
      <trkpt lat="44.94665" lon="0.8724">
        <ele>168.7</ele>
        <time>2022-08-13T07:41:05Z</time>
      </trkpt>
      <trkpt lat="44.94667" lon="0.87235">
        <ele>168.7</ele>
        <time>2022-08-13T07:41:07Z</time>
      </trkpt>
      <trkpt lat="44.94672" lon="0.87223">
        <ele>169.9</ele>
        <time>2022-08-13T07:41:12Z</time>
      </trkpt>
      <trkpt lat="44.94678" lon="0.87204">
        <ele>170.7</ele>
        <time>2022-08-13T07:41:18Z</time>
      </trkpt>
      <trkpt lat="44.9468" lon="0.87196">
        <ele>170.6</ele>
        <time>2022-08-13T07:41:21Z</time>
      </trkpt>
      <trkpt lat="44.94681" lon="0.8719">
        <ele>170.6</ele>
        <time>2022-08-13T07:41:23Z</time>
      </trkpt>
      <trkpt lat="44.94683" lon="0.87181">
        <ele>172</ele>
        <time>2022-08-13T07:41:27Z</time>
      </trkpt>
      <trkpt lat="44.94685" lon="0.87172">
        <ele>171.9</ele>
        <time>2022-08-13T07:41:31Z</time>
      </trkpt>
      <trkpt lat="44.94685" lon="0.87169">
        <ele>172.6</ele>
        <time>2022-08-13T07:41:32Z</time>
      </trkpt>
      <trkpt lat="44.94686" lon="0.87163">
        <ele>172.5</ele>
        <time>2022-08-13T07:41:34Z</time>
      </trkpt>
      <trkpt lat="44.94687" lon="0.87156">
        <ele>172.5</ele>
        <time>2022-08-13T07:41:36Z</time>
      </trkpt>
      <trkpt lat="44.94689" lon="0.87135">
        <ele>174.4</ele>
        <time>2022-08-13T07:41:43Z</time>
      </trkpt>
      <trkpt lat="44.9469" lon="0.87119">
        <ele>174.4</ele>
        <time>2022-08-13T07:41:49Z</time>
      </trkpt>
      <trkpt lat="44.94691" lon="0.87105">
        <ele>175.5</ele>
        <time>2022-08-13T07:41:54Z</time>
      </trkpt>
      <trkpt lat="44.94693" lon="0.87094">
        <ele>176.7</ele>
        <time>2022-08-13T07:41:57Z</time>
      </trkpt>
      <trkpt lat="44.94694" lon="0.87089">
        <ele>175.9</ele>
        <time>2022-08-13T07:41:59Z</time>
      </trkpt>
      <trkpt lat="44.94699" lon="0.87071">
        <ele>177.2</ele>
        <time>2022-08-13T07:42:04Z</time>
      </trkpt>
      <trkpt lat="44.94706" lon="0.87053">
        <ele>178.4</ele>
        <time>2022-08-13T07:42:10Z</time>
      </trkpt>
      <trkpt lat="44.94707" lon="0.8705">
        <ele>178.1</ele>
        <time>2022-08-13T07:42:11Z</time>
      </trkpt>
      <trkpt lat="44.9471" lon="0.87041">
        <ele>179.4</ele>
        <time>2022-08-13T07:42:14Z</time>
      </trkpt>
      <trkpt lat="44.94716" lon="0.87024">
        <ele>180.9</ele>
        <time>2022-08-13T07:42:21Z</time>
      </trkpt>
      <trkpt lat="44.94721" lon="0.87011">
        <ele>182.1</ele>
        <time>2022-08-13T07:42:27Z</time>
      </trkpt>
      <trkpt lat="44.94723" lon="0.87005">
        <ele>182.1</ele>
        <time>2022-08-13T07:42:31Z</time>
      </trkpt>
      <trkpt lat="44.94727" lon="0.86994">
        <ele>183</ele>
        <time>2022-08-13T07:42:34Z</time>
      </trkpt>
      <trkpt lat="44.94728" lon="0.86991">
        <ele>183</ele>
        <time>2022-08-13T07:42:35Z</time>
      </trkpt>
      <trkpt lat="44.94733" lon="0.86979">
        <ele>184.2</ele>
        <time>2022-08-13T07:42:41Z</time>
      </trkpt>
      <trkpt lat="44.94737" lon="0.8697">
        <ele>184.2</ele>
        <time>2022-08-13T07:42:45Z</time>
      </trkpt>
      <trkpt lat="44.94739" lon="0.86965">
        <ele>184.1</ele>
        <time>2022-08-13T07:42:47Z</time>
      </trkpt>
      <trkpt lat="44.94742" lon="0.86952">
        <ele>185</ele>
        <time>2022-08-13T07:42:52Z</time>
      </trkpt>
      <trkpt lat="44.94742" lon="0.86948">
        <ele>184.9</ele>
        <time>2022-08-13T07:42:57Z</time>
      </trkpt>
      <trkpt lat="44.94743" lon="0.86944">
        <ele>186.2</ele>
        <time>2022-08-13T07:43:02Z</time>
      </trkpt>
      <trkpt lat="44.94743" lon="0.8694">
        <ele>186.2</ele>
        <time>2022-08-13T07:43:07Z</time>
      </trkpt>
      <trkpt lat="44.94743" lon="0.86937">
        <ele>186.2</ele>
        <time>2022-08-13T07:43:11Z</time>
      </trkpt>
      <trkpt lat="44.94743" lon="0.86933">
        <ele>186.1</ele>
        <time>2022-08-13T07:43:12Z</time>
      </trkpt>
      <trkpt lat="44.94744" lon="0.86929">
        <ele>187.2</ele>
        <time>2022-08-13T07:43:17Z</time>
      </trkpt>
      <trkpt lat="44.94744" lon="0.86925">
        <ele>187.1</ele>
        <time>2022-08-13T07:43:18Z</time>
      </trkpt>
      <trkpt lat="44.94744" lon="0.86921">
        <ele>187.1</ele>
        <time>2022-08-13T07:43:20Z</time>
      </trkpt>
      <trkpt lat="44.94744" lon="0.86918">
        <ele>187</ele>
        <time>2022-08-13T07:43:42Z</time>
      </trkpt>
      <trkpt lat="44.94745" lon="0.86914">
        <ele>187</ele>
        <time>2022-08-13T07:43:43Z</time>
      </trkpt>
      <trkpt lat="44.94743" lon="0.86936">
        <ele>185.8</ele>
        <time>2022-08-13T07:43:46Z</time>
      </trkpt>
      <trkpt lat="44.94732" lon="0.86974">
        <ele>183.4</ele>
        <time>2022-08-13T07:43:50Z</time>
      </trkpt>
      <trkpt lat="44.94729" lon="0.86987">
        <ele>182.1</ele>
        <time>2022-08-13T07:43:53Z</time>
      </trkpt>
      <trkpt lat="44.94732" lon="0.86991">
        <ele>182.5</ele>
        <time>2022-08-13T07:43:56Z</time>
      </trkpt>
      <trkpt lat="44.94736" lon="0.8699">
        <ele>182.5</ele>
        <time>2022-08-13T07:43:58Z</time>
      </trkpt>
      <trkpt lat="44.94745" lon="0.86983">
        <ele>183.5</ele>
        <time>2022-08-13T07:44:03Z</time>
      </trkpt>
      <trkpt lat="44.94745" lon="0.86981">
        <ele>183.9</ele>
        <time>2022-08-13T07:44:04Z</time>
      </trkpt>
      <trkpt lat="44.94749" lon="0.86978">
        <ele>183.9</ele>
        <time>2022-08-13T07:44:06Z</time>
      </trkpt>
      <trkpt lat="44.94757" lon="0.86971">
        <ele>185.2</ele>
        <time>2022-08-13T07:44:10Z</time>
      </trkpt>
      <trkpt lat="44.94761" lon="0.86967">
        <ele>185.2</ele>
        <time>2022-08-13T07:44:12Z</time>
      </trkpt>
      <trkpt lat="44.94767" lon="0.86959">
        <ele>185.3</ele>
        <time>2022-08-13T07:44:15Z</time>
      </trkpt>
      <trkpt lat="44.94776" lon="0.86952">
        <ele>186.9</ele>
        <time>2022-08-13T07:44:19Z</time>
      </trkpt>
      <trkpt lat="44.94778" lon="0.8695">
        <ele>186.9</ele>
        <time>2022-08-13T07:44:20Z</time>
      </trkpt>
      <trkpt lat="44.94782" lon="0.86946">
        <ele>189.5</ele>
        <time>2022-08-13T07:44:22Z</time>
      </trkpt>
      <trkpt lat="44.94785" lon="0.86941">
        <ele>189.4</ele>
        <time>2022-08-13T07:44:24Z</time>
      </trkpt>
      <trkpt lat="44.94792" lon="0.86937">
        <ele>191.4</ele>
        <time>2022-08-13T07:44:27Z</time>
      </trkpt>
      <trkpt lat="44.94795" lon="0.86935">
        <ele>191.3</ele>
        <time>2022-08-13T07:44:28Z</time>
      </trkpt>
      <trkpt lat="44.94797" lon="0.86933">
        <ele>191.3</ele>
        <time>2022-08-13T07:44:29Z</time>
      </trkpt>
      <trkpt lat="44.94801" lon="0.86927">
        <ele>191.1</ele>
        <time>2022-08-13T07:44:32Z</time>
      </trkpt>
      <trkpt lat="44.94808" lon="0.8692">
        <ele>193.3</ele>
        <time>2022-08-13T07:44:36Z</time>
      </trkpt>
      <trkpt lat="44.94819" lon="0.8691">
        <ele>195.4</ele>
        <time>2022-08-13T07:44:41Z</time>
      </trkpt>
      <trkpt lat="44.94823" lon="0.86905">
        <ele>195.3</ele>
        <time>2022-08-13T07:44:43Z</time>
      </trkpt>
      <trkpt lat="44.94829" lon="0.86902">
        <ele>197.4</ele>
        <time>2022-08-13T07:44:46Z</time>
      </trkpt>
      <trkpt lat="44.94839" lon="0.86891">
        <ele>197.1</ele>
        <time>2022-08-13T07:44:51Z</time>
      </trkpt>
      <trkpt lat="44.9484" lon="0.86887">
        <ele>199.3</ele>
        <time>2022-08-13T07:44:52Z</time>
      </trkpt>
      <trkpt lat="44.94845" lon="0.86879">
        <ele>199.3</ele>
        <time>2022-08-13T07:44:55Z</time>
      </trkpt>
      <trkpt lat="44.94847" lon="0.86877">
        <ele>198.9</ele>
        <time>2022-08-13T07:44:56Z</time>
      </trkpt>
      <trkpt lat="44.94849" lon="0.86874">
        <ele>198.8</ele>
        <time>2022-08-13T07:44:58Z</time>
      </trkpt>
      <trkpt lat="44.94852" lon="0.86868">
        <ele>198.8</ele>
        <time>2022-08-13T07:45:00Z</time>
      </trkpt>
      <trkpt lat="44.94853" lon="0.86861">
        <ele>200.5</ele>
        <time>2022-08-13T07:45:02Z</time>
      </trkpt>
      <trkpt lat="44.94853" lon="0.86855">
        <ele>200.4</ele>
        <time>2022-08-13T07:45:04Z</time>
      </trkpt>
      <trkpt lat="44.94853" lon="0.86855">
        <ele>200.4</ele>
        <time>2022-08-13T07:45:05Z</time>
      </trkpt>
      <trkpt lat="44.94855" lon="0.86843">
        <ele>199.7</ele>
        <time>2022-08-13T07:45:09Z</time>
      </trkpt>
      <trkpt lat="44.94856" lon="0.86836">
        <ele>199.7</ele>
        <time>2022-08-13T07:45:11Z</time>
      </trkpt>
      <trkpt lat="44.94856" lon="0.86819">
        <ele>199.1</ele>
        <time>2022-08-13T07:45:16Z</time>
      </trkpt>
      <trkpt lat="44.94856" lon="0.86808">
        <ele>198.7</ele>
        <time>2022-08-13T07:45:19Z</time>
      </trkpt>
      <trkpt lat="44.94855" lon="0.86801">
        <ele>198.6</ele>
        <time>2022-08-13T07:45:21Z</time>
      </trkpt>
      <trkpt lat="44.94855" lon="0.8678">
        <ele>198.2</ele>
        <time>2022-08-13T07:45:26Z</time>
      </trkpt>
      <trkpt lat="44.94857" lon="0.8676">
        <ele>197.8</ele>
        <time>2022-08-13T07:45:32Z</time>
      </trkpt>
      <trkpt lat="44.94858" lon="0.86757">
        <ele>197.6</ele>
        <time>2022-08-13T07:45:33Z</time>
      </trkpt>
      <trkpt lat="44.94859" lon="0.86751">
        <ele>197.6</ele>
        <time>2022-08-13T07:45:35Z</time>
      </trkpt>
      <trkpt lat="44.94859" lon="0.86749">
        <ele>197.5</ele>
        <time>2022-08-13T07:45:36Z</time>
      </trkpt>
      <trkpt lat="44.94859" lon="0.86747">
        <ele>197.5</ele>
        <time>2022-08-13T07:45:37Z</time>
      </trkpt>
      <trkpt lat="44.94859" lon="0.8674">
        <ele>197.2</ele>
        <time>2022-08-13T07:45:40Z</time>
      </trkpt>
      <trkpt lat="44.9486" lon="0.86735">
        <ele>197.2</ele>
        <time>2022-08-13T07:45:42Z</time>
      </trkpt>
      <trkpt lat="44.94862" lon="0.86728">
        <ele>197.1</ele>
        <time>2022-08-13T07:45:44Z</time>
      </trkpt>
      <trkpt lat="44.94862" lon="0.86723">
        <ele>196.7</ele>
        <time>2022-08-13T07:45:45Z</time>
      </trkpt>
      <trkpt lat="44.94864" lon="0.86715">
        <ele>196.7</ele>
        <time>2022-08-13T07:45:47Z</time>
      </trkpt>
      <trkpt lat="44.94866" lon="0.86704">
        <ele>197.5</ele>
        <time>2022-08-13T07:45:50Z</time>
      </trkpt>
      <trkpt lat="44.94869" lon="0.867">
        <ele>197.4</ele>
        <time>2022-08-13T07:45:52Z</time>
      </trkpt>
      <trkpt lat="44.94873" lon="0.86695">
        <ele>197.4</ele>
        <time>2022-08-13T07:45:55Z</time>
      </trkpt>
      <trkpt lat="44.94879" lon="0.86683">
        <ele>198.1</ele>
        <time>2022-08-13T07:46:00Z</time>
      </trkpt>
      <trkpt lat="44.94881" lon="0.86678">
        <ele>198</ele>
        <time>2022-08-13T07:46:02Z</time>
      </trkpt>
      <trkpt lat="44.94885" lon="0.86671">
        <ele>197.3</ele>
        <time>2022-08-13T07:46:05Z</time>
      </trkpt>
      <trkpt lat="44.94889" lon="0.86666">
        <ele>198.4</ele>
        <time>2022-08-13T07:46:07Z</time>
      </trkpt>
      <trkpt lat="44.94893" lon="0.8666">
        <ele>198.3</ele>
        <time>2022-08-13T07:46:10Z</time>
      </trkpt>
      <trkpt lat="44.94897" lon="0.86653">
        <ele>197.3</ele>
        <time>2022-08-13T07:46:13Z</time>
      </trkpt>
      <trkpt lat="44.94901" lon="0.86642">
        <ele>198</ele>
        <time>2022-08-13T07:46:15Z</time>
      </trkpt>
      <trkpt lat="44.94908" lon="0.86633">
        <ele>197.3</ele>
        <time>2022-08-13T07:46:18Z</time>
      </trkpt>
      <trkpt lat="44.94911" lon="0.86629">
        <ele>197.2</ele>
        <time>2022-08-13T07:46:20Z</time>
      </trkpt>
      <trkpt lat="44.94915" lon="0.86624">
        <ele>197.7</ele>
        <time>2022-08-13T07:46:23Z</time>
      </trkpt>
      <trkpt lat="44.94916" lon="0.86622">
        <ele>197.7</ele>
        <time>2022-08-13T07:46:24Z</time>
      </trkpt>
      <trkpt lat="44.94921" lon="0.86615">
        <ele>197.1</ele>
        <time>2022-08-13T07:46:27Z</time>
      </trkpt>
      <trkpt lat="44.94923" lon="0.86614">
        <ele>197.1</ele>
        <time>2022-08-13T07:46:28Z</time>
      </trkpt>
      <trkpt lat="44.94928" lon="0.86604">
        <ele>197.5</ele>
        <time>2022-08-13T07:46:32Z</time>
      </trkpt>
      <trkpt lat="44.94931" lon="0.86596">
        <ele>197.3</ele>
        <time>2022-08-13T07:46:35Z</time>
      </trkpt>
      <trkpt lat="44.94933" lon="0.8659">
        <ele>197.3</ele>
        <time>2022-08-13T07:46:37Z</time>
      </trkpt>
      <trkpt lat="44.94937" lon="0.8658">
        <ele>197.6</ele>
        <time>2022-08-13T07:46:41Z</time>
      </trkpt>
      <trkpt lat="44.94945" lon="0.8656">
        <ele>197.9</ele>
        <time>2022-08-13T07:46:46Z</time>
      </trkpt>
      <trkpt lat="44.9495" lon="0.8655">
        <ele>198.2</ele>
        <time>2022-08-13T07:46:51Z</time>
      </trkpt>
      <trkpt lat="44.94954" lon="0.86541">
        <ele>198.1</ele>
        <time>2022-08-13T07:46:55Z</time>
      </trkpt>
      <trkpt lat="44.94959" lon="0.8653">
        <ele>198.6</ele>
        <time>2022-08-13T07:46:59Z</time>
      </trkpt>
      <trkpt lat="44.9496" lon="0.86527">
        <ele>198.6</ele>
        <time>2022-08-13T07:47:00Z</time>
      </trkpt>
      <trkpt lat="44.94965" lon="0.86517">
        <ele>198.6</ele>
        <time>2022-08-13T07:47:04Z</time>
      </trkpt>
      <trkpt lat="44.94967" lon="0.86514">
        <ele>198.6</ele>
        <time>2022-08-13T07:47:05Z</time>
      </trkpt>
      <trkpt lat="44.94973" lon="0.86494">
        <ele>199.2</ele>
        <time>2022-08-13T07:47:11Z</time>
      </trkpt>
      <trkpt lat="44.94974" lon="0.86492">
        <ele>198.7</ele>
        <time>2022-08-13T07:47:12Z</time>
      </trkpt>
      <trkpt lat="44.94976" lon="0.86487">
        <ele>198.7</ele>
        <time>2022-08-13T07:47:14Z</time>
      </trkpt>
      <trkpt lat="44.94977" lon="0.86483">
        <ele>198.6</ele>
        <time>2022-08-13T07:47:15Z</time>
      </trkpt>
      <trkpt lat="44.94984" lon="0.86474">
        <ele>199.3</ele>
        <time>2022-08-13T07:47:19Z</time>
      </trkpt>
      <trkpt lat="44.94986" lon="0.86472">
        <ele>199.2</ele>
        <time>2022-08-13T07:47:20Z</time>
      </trkpt>
      <trkpt lat="44.9499" lon="0.86462">
        <ele>199.9</ele>
        <time>2022-08-13T07:47:24Z</time>
      </trkpt>
      <trkpt lat="44.9499" lon="0.8646">
        <ele>199.9</ele>
        <time>2022-08-13T07:47:25Z</time>
      </trkpt>
      <trkpt lat="44.94982" lon="0.86455">
        <ele>199.8</ele>
        <time>2022-08-13T07:47:30Z</time>
      </trkpt>
      <trkpt lat="44.94971" lon="0.86434">
        <ele>200.8</ele>
        <time>2022-08-13T07:47:36Z</time>
      </trkpt>
      <trkpt lat="44.94969" lon="0.86434">
        <ele>200.9</ele>
        <time>2022-08-13T07:47:37Z</time>
      </trkpt>
      <trkpt lat="44.94967" lon="0.86435">
        <ele>201</ele>
        <time>2022-08-13T07:47:39Z</time>
      </trkpt>
      <trkpt lat="44.94966" lon="0.86435">
        <ele>201.1</ele>
        <time>2022-08-13T07:47:40Z</time>
      </trkpt>
      <trkpt lat="44.94958" lon="0.86436">
        <ele>201.6</ele>
        <time>2022-08-13T07:47:45Z</time>
      </trkpt>
      <trkpt lat="44.94957" lon="0.86437">
        <ele>201.7</ele>
        <time>2022-08-13T07:47:46Z</time>
      </trkpt>
      <trkpt lat="44.94951" lon="0.86438">
        <ele>202.1</ele>
        <time>2022-08-13T07:47:50Z</time>
      </trkpt>
      <trkpt lat="44.94949" lon="0.86438">
        <ele>202.2</ele>
        <time>2022-08-13T07:47:53Z</time>
      </trkpt>
      <trkpt lat="44.94946" lon="0.86439">
        <ele>202.4</ele>
        <time>2022-08-13T07:47:55Z</time>
      </trkpt>
      <trkpt lat="44.94942" lon="0.86439">
        <ele>202.7</ele>
        <time>2022-08-13T07:47:58Z</time>
      </trkpt>
      <trkpt lat="44.94941" lon="0.8644">
        <ele>202.8</ele>
        <time>2022-08-13T07:47:59Z</time>
      </trkpt>
      <trkpt lat="44.9493" lon="0.86441">
        <ele>203.4</ele>
        <time>2022-08-13T07:48:05Z</time>
      </trkpt>
      <trkpt lat="44.94925" lon="0.86442">
        <ele>203.8</ele>
        <time>2022-08-13T07:48:08Z</time>
      </trkpt>
      <trkpt lat="44.94921" lon="0.86443">
        <ele>204</ele>
        <time>2022-08-13T07:48:10Z</time>
      </trkpt>
      <trkpt lat="44.94906" lon="0.86446">
        <ele>205.1</ele>
        <time>2022-08-13T07:48:18Z</time>
      </trkpt>
      <trkpt lat="44.94894" lon="0.86447">
        <ele>206</ele>
        <time>2022-08-13T07:48:24Z</time>
      </trkpt>
      <trkpt lat="44.94882" lon="0.86448">
        <ele>206.7</ele>
        <time>2022-08-13T07:48:31Z</time>
      </trkpt>
      <trkpt lat="44.94867" lon="0.8645">
        <ele>207.2</ele>
        <time>2022-08-13T07:48:37Z</time>
      </trkpt>
      <trkpt lat="44.94858" lon="0.86451">
        <ele>207.4</ele>
        <time>2022-08-13T07:48:42Z</time>
      </trkpt>
      <trkpt lat="44.94846" lon="0.86441">
        <ele>207.7</ele>
        <time>2022-08-13T07:48:48Z</time>
      </trkpt>
      <trkpt lat="44.94839" lon="0.86426">
        <ele>208.1</ele>
        <time>2022-08-13T07:48:53Z</time>
      </trkpt>
      <trkpt lat="44.94833" lon="0.8641">
        <ele>208.5</ele>
        <time>2022-08-13T07:48:59Z</time>
      </trkpt>
      <trkpt lat="44.94817" lon="0.86409">
        <ele>208.7</ele>
        <time>2022-08-13T07:49:05Z</time>
      </trkpt>
      <trkpt lat="44.94801" lon="0.8641">
        <ele>208.7</ele>
        <time>2022-08-13T07:49:11Z</time>
      </trkpt>
      <trkpt lat="44.94779" lon="0.86413">
        <ele>208.6</ele>
        <time>2022-08-13T07:49:19Z</time>
      </trkpt>
      <trkpt lat="44.94761" lon="0.86427">
        <ele>208.5</ele>
        <time>2022-08-13T07:49:27Z</time>
      </trkpt>
      <trkpt lat="44.9476" lon="0.86429">
        <ele>208.4</ele>
        <time>2022-08-13T07:49:34Z</time>
      </trkpt>
      <trkpt lat="44.94722" lon="0.86451">
        <ele>207.5</ele>
        <time>2022-08-13T07:49:39Z</time>
      </trkpt>
      <trkpt lat="44.94706" lon="0.86464">
        <ele>208.8</ele>
        <time>2022-08-13T07:49:45Z</time>
      </trkpt>
      <trkpt lat="44.94694" lon="0.86476">
        <ele>208.3</ele>
        <time>2022-08-13T07:49:50Z</time>
      </trkpt>
      <trkpt lat="44.94678" lon="0.86494">
        <ele>208</ele>
        <time>2022-08-13T07:49:55Z</time>
      </trkpt>
      <trkpt lat="44.94661" lon="0.86514">
        <ele>207.8</ele>
        <time>2022-08-13T07:50:01Z</time>
      </trkpt>
      <trkpt lat="44.94639" lon="0.86539">
        <ele>207.2</ele>
        <time>2022-08-13T07:50:08Z</time>
      </trkpt>
      <trkpt lat="44.94617" lon="0.86559">
        <ele>207.3</ele>
        <time>2022-08-13T07:50:15Z</time>
      </trkpt>
      <trkpt lat="44.94594" lon="0.86568">
        <ele>208.2</ele>
        <time>2022-08-13T07:50:21Z</time>
      </trkpt>
      <trkpt lat="44.94587" lon="0.86572">
        <ele>207.5</ele>
        <time>2022-08-13T07:50:23Z</time>
      </trkpt>
      <trkpt lat="44.94577" lon="0.86576">
        <ele>207.6</ele>
        <time>2022-08-13T07:50:26Z</time>
      </trkpt>
      <trkpt lat="44.94574" lon="0.86579">
        <ele>207.4</ele>
        <time>2022-08-13T07:50:27Z</time>
      </trkpt>
      <trkpt lat="44.94569" lon="0.86587">
        <ele>206.6</ele>
        <time>2022-08-13T07:50:29Z</time>
      </trkpt>
      <trkpt lat="44.94567" lon="0.86607">
        <ele>206.3</ele>
        <time>2022-08-13T07:50:33Z</time>
      </trkpt>
      <trkpt lat="44.94564" lon="0.86621">
        <ele>205.9</ele>
        <time>2022-08-13T07:50:37Z</time>
      </trkpt>
      <trkpt lat="44.94563" lon="0.86624">
        <ele>205.8</ele>
        <time>2022-08-13T07:50:38Z</time>
      </trkpt>
      <trkpt lat="44.94559" lon="0.86633">
        <ele>204.9</ele>
        <time>2022-08-13T07:50:41Z</time>
      </trkpt>
      <trkpt lat="44.9455" lon="0.86637">
        <ele>204.8</ele>
        <time>2022-08-13T07:50:43Z</time>
      </trkpt>
      <trkpt lat="44.94549" lon="0.86634">
        <ele>204.6</ele>
        <time>2022-08-13T07:50:44Z</time>
      </trkpt>
      <trkpt lat="44.94545" lon="0.86622">
        <ele>203.9</ele>
        <time>2022-08-13T07:50:47Z</time>
      </trkpt>
      <trkpt lat="44.94542" lon="0.86618">
        <ele>203.5</ele>
        <time>2022-08-13T07:50:48Z</time>
      </trkpt>
      <trkpt lat="44.94539" lon="0.86614">
        <ele>203.1</ele>
        <time>2022-08-13T07:50:49Z</time>
      </trkpt>
      <trkpt lat="44.94531" lon="0.86604">
        <ele>202.1</ele>
        <time>2022-08-13T07:50:51Z</time>
      </trkpt>
      <trkpt lat="44.94526" lon="0.86601">
        <ele>201.6</ele>
        <time>2022-08-13T07:50:52Z</time>
      </trkpt>
      <trkpt lat="44.94519" lon="0.86597">
        <ele>201</ele>
        <time>2022-08-13T07:50:53Z</time>
      </trkpt>
      <trkpt lat="44.94494" lon="0.86592">
        <ele>198.5</ele>
        <time>2022-08-13T07:50:57Z</time>
      </trkpt>
      <trkpt lat="44.94457" lon="0.86585">
        <ele>194.5</ele>
        <time>2022-08-13T07:51:02Z</time>
      </trkpt>
      <trkpt lat="44.94397" lon="0.86574">
        <ele>190.8</ele>
        <time>2022-08-13T07:51:09Z</time>
      </trkpt>
      <trkpt lat="44.94388" lon="0.86573">
        <ele>190.8</ele>
        <time>2022-08-13T07:51:10Z</time>
      </trkpt>
      <trkpt lat="44.94356" lon="0.86568">
        <ele>192.7</ele>
        <time>2022-08-13T07:51:15Z</time>
      </trkpt>
      <trkpt lat="44.94353" lon="0.86568">
        <ele>192.9</ele>
        <time>2022-08-13T07:51:16Z</time>
      </trkpt>
      <trkpt lat="44.94353" lon="0.86567">
        <ele>193</ele>
        <time>2022-08-13T07:51:18Z</time>
      </trkpt>
      <trkpt lat="44.94353" lon="0.86567">
        <ele>193</ele>
        <time>2022-08-13T07:51:19Z</time>
      </trkpt>
      <trkpt lat="44.94351" lon="0.86556">
        <ele>193.4</ele>
        <time>2022-08-13T07:51:31Z</time>
      </trkpt>
      <trkpt lat="44.94352" lon="0.8655">
        <ele>193.5</ele>
        <time>2022-08-13T07:51:33Z</time>
      </trkpt>
      <trkpt lat="44.94355" lon="0.86534">
        <ele>193.5</ele>
        <time>2022-08-13T07:51:38Z</time>
      </trkpt>
      <trkpt lat="44.94361" lon="0.8651">
        <ele>193.8</ele>
        <time>2022-08-13T07:51:45Z</time>
      </trkpt>
      <trkpt lat="44.94354" lon="0.86497">
        <ele>196</ele>
        <time>2022-08-13T07:51:50Z</time>
      </trkpt>
      <trkpt lat="44.94347" lon="0.8649">
        <ele>196</ele>
        <time>2022-08-13T07:51:55Z</time>
      </trkpt>
      <trkpt lat="44.94337" lon="0.86478">
        <ele>197.8</ele>
        <time>2022-08-13T07:52:00Z</time>
      </trkpt>
      <trkpt lat="44.94326" lon="0.86466">
        <ele>197.8</ele>
        <time>2022-08-13T07:52:06Z</time>
      </trkpt>
      <trkpt lat="44.94313" lon="0.86451">
        <ele>199.7</ele>
        <time>2022-08-13T07:52:13Z</time>
      </trkpt>
      <trkpt lat="44.94304" lon="0.86442">
        <ele>201.5</ele>
        <time>2022-08-13T07:52:18Z</time>
      </trkpt>
      <trkpt lat="44.94293" lon="0.86428">
        <ele>202.8</ele>
        <time>2022-08-13T07:52:24Z</time>
      </trkpt>
      <trkpt lat="44.94276" lon="0.86408">
        <ele>204.5</ele>
        <time>2022-08-13T07:52:32Z</time>
      </trkpt>
      <trkpt lat="44.94265" lon="0.86395">
        <ele>206</ele>
        <time>2022-08-13T07:52:38Z</time>
      </trkpt>
      <trkpt lat="44.94256" lon="0.86382">
        <ele>205.5</ele>
        <time>2022-08-13T07:52:43Z</time>
      </trkpt>
      <trkpt lat="44.94247" lon="0.86367">
        <ele>207</ele>
        <time>2022-08-13T07:52:49Z</time>
      </trkpt>
      <trkpt lat="44.94238" lon="0.86352">
        <ele>207.9</ele>
        <time>2022-08-13T07:52:55Z</time>
      </trkpt>
      <trkpt lat="44.94231" lon="0.86341">
        <ele>208.6</ele>
        <time>2022-08-13T07:53:00Z</time>
      </trkpt>
      <trkpt lat="44.94226" lon="0.86328">
        <ele>210.1</ele>
        <time>2022-08-13T07:53:05Z</time>
      </trkpt>
      <trkpt lat="44.94215" lon="0.8631">
        <ele>210.5</ele>
        <time>2022-08-13T07:53:12Z</time>
      </trkpt>
      <trkpt lat="44.94209" lon="0.86296">
        <ele>210.5</ele>
        <time>2022-08-13T07:53:17Z</time>
      </trkpt>
      <trkpt lat="44.94204" lon="0.86281">
        <ele>211.1</ele>
        <time>2022-08-13T07:53:22Z</time>
      </trkpt>
      <trkpt lat="44.94195" lon="0.86261">
        <ele>211.3</ele>
        <time>2022-08-13T07:53:29Z</time>
      </trkpt>
      <trkpt lat="44.94186" lon="0.86246">
        <ele>213.1</ele>
        <time>2022-08-13T07:53:35Z</time>
      </trkpt>
      <trkpt lat="44.94178" lon="0.86231">
        <ele>213.9</ele>
        <time>2022-08-13T07:53:41Z</time>
      </trkpt>
      <trkpt lat="44.94171" lon="0.86218">
        <ele>215</ele>
        <time>2022-08-13T07:53:47Z</time>
      </trkpt>
      <trkpt lat="44.94162" lon="0.86202">
        <ele>216.2</ele>
        <time>2022-08-13T07:53:53Z</time>
      </trkpt>
      <trkpt lat="44.94151" lon="0.86181">
        <ele>216.2</ele>
        <time>2022-08-13T07:54:01Z</time>
      </trkpt>
      <trkpt lat="44.94144" lon="0.86164">
        <ele>215.1</ele>
        <time>2022-08-13T07:54:07Z</time>
      </trkpt>
      <trkpt lat="44.94134" lon="0.86152">
        <ele>213.4</ele>
        <time>2022-08-13T07:54:12Z</time>
      </trkpt>
      <trkpt lat="44.94121" lon="0.86144">
        <ele>213.2</ele>
        <time>2022-08-13T07:54:17Z</time>
      </trkpt>
      <trkpt lat="44.94097" lon="0.86135">
        <ele>212.3</ele>
        <time>2022-08-13T07:54:25Z</time>
      </trkpt>
      <trkpt lat="44.94079" lon="0.86128">
        <ele>212.4</ele>
        <time>2022-08-13T07:54:31Z</time>
      </trkpt>
      <trkpt lat="44.9406" lon="0.86117">
        <ele>212.5</ele>
        <time>2022-08-13T07:54:38Z</time>
      </trkpt>
      <trkpt lat="44.94041" lon="0.86094">
        <ele>213.2</ele>
        <time>2022-08-13T07:54:46Z</time>
      </trkpt>
      <trkpt lat="44.94031" lon="0.86062">
        <ele>214.1</ele>
        <time>2022-08-13T07:54:53Z</time>
      </trkpt>
      <trkpt lat="44.94026" lon="0.86036">
        <ele>215.2</ele>
        <time>2022-08-13T07:54:59Z</time>
      </trkpt>
      <trkpt lat="44.94021" lon="0.86005">
        <ele>214.7</ele>
        <time>2022-08-13T07:55:05Z</time>
      </trkpt>
      <trkpt lat="44.94019" lon="0.85982">
        <ele>212.4</ele>
        <time>2022-08-13T07:55:10Z</time>
      </trkpt>
      <trkpt lat="44.9402" lon="0.85964">
        <ele>211.2</ele>
        <time>2022-08-13T07:55:14Z</time>
      </trkpt>
      <trkpt lat="44.94016" lon="0.85936">
        <ele>210.3</ele>
        <time>2022-08-13T07:55:19Z</time>
      </trkpt>
      <trkpt lat="44.94013" lon="0.85931">
        <ele>210.2</ele>
        <time>2022-08-13T07:55:20Z</time>
      </trkpt>
      <trkpt lat="44.94007" lon="0.8592">
        <ele>210.3</ele>
        <time>2022-08-13T07:55:22Z</time>
      </trkpt>
      <trkpt lat="44.94003" lon="0.85915">
        <ele>209.2</ele>
        <time>2022-08-13T07:55:23Z</time>
      </trkpt>
      <trkpt lat="44.93983" lon="0.85889">
        <ele>209.2</ele>
        <time>2022-08-13T07:55:29Z</time>
      </trkpt>
      <trkpt lat="44.93984" lon="0.85881">
        <ele>209.1</ele>
        <time>2022-08-13T07:55:31Z</time>
      </trkpt>
      <trkpt lat="44.93978" lon="0.85868">
        <ele>208.9</ele>
        <time>2022-08-13T07:55:33Z</time>
      </trkpt>
      <trkpt lat="44.93985" lon="0.85849">
        <ele>208.6</ele>
        <time>2022-08-13T07:55:39Z</time>
      </trkpt>
      <trkpt lat="44.93991" lon="0.85825">
        <ele>208.5</ele>
        <time>2022-08-13T07:55:45Z</time>
      </trkpt>
      <trkpt lat="44.93993" lon="0.85795">
        <ele>208.1</ele>
        <time>2022-08-13T07:55:51Z</time>
      </trkpt>
      <trkpt lat="44.93988" lon="0.85759">
        <ele>207.5</ele>
        <time>2022-08-13T07:55:58Z</time>
      </trkpt>
      <trkpt lat="44.93983" lon="0.85729">
        <ele>207.1</ele>
        <time>2022-08-13T07:56:04Z</time>
      </trkpt>
      <trkpt lat="44.93972" lon="0.85695">
        <ele>206.6</ele>
        <time>2022-08-13T07:56:11Z</time>
      </trkpt>
      <trkpt lat="44.93962" lon="0.85668">
        <ele>206.2</ele>
        <time>2022-08-13T07:56:17Z</time>
      </trkpt>
      <trkpt lat="44.93948" lon="0.85643">
        <ele>205.5</ele>
        <time>2022-08-13T07:56:23Z</time>
      </trkpt>
      <trkpt lat="44.93927" lon="0.85612">
        <ele>204.1</ele>
        <time>2022-08-13T07:56:30Z</time>
      </trkpt>
      <trkpt lat="44.93915" lon="0.85593">
        <ele>203.3</ele>
        <time>2022-08-13T07:56:34Z</time>
      </trkpt>
      <trkpt lat="44.93911" lon="0.85581">
        <ele>203</ele>
        <time>2022-08-13T07:56:36Z</time>
      </trkpt>
      <trkpt lat="44.93905" lon="0.85571">
        <ele>202.8</ele>
        <time>2022-08-13T07:56:38Z</time>
      </trkpt>
      <trkpt lat="44.93896" lon="0.85555">
        <ele>202.3</ele>
        <time>2022-08-13T07:56:41Z</time>
      </trkpt>
      <trkpt lat="44.93883" lon="0.85522">
        <ele>201</ele>
        <time>2022-08-13T07:56:46Z</time>
      </trkpt>
      <trkpt lat="44.93881" lon="0.85516">
        <ele>200.8</ele>
        <time>2022-08-13T07:56:47Z</time>
      </trkpt>
      <trkpt lat="44.93879" lon="0.85511">
        <ele>200.5</ele>
        <time>2022-08-13T07:56:48Z</time>
      </trkpt>
      <trkpt lat="44.93871" lon="0.85499">
        <ele>199.6</ele>
        <time>2022-08-13T07:56:50Z</time>
      </trkpt>
      <trkpt lat="44.93843" lon="0.85464">
        <ele>196.6</ele>
        <time>2022-08-13T07:56:55Z</time>
      </trkpt>
      <trkpt lat="44.93839" lon="0.85458">
        <ele>196.1</ele>
        <time>2022-08-13T07:56:56Z</time>
      </trkpt>
      <trkpt lat="44.93831" lon="0.85445">
        <ele>195</ele>
        <time>2022-08-13T07:56:58Z</time>
      </trkpt>
      <trkpt lat="44.93831" lon="0.8543">
        <ele>193.7</ele>
        <time>2022-08-13T07:57:01Z</time>
      </trkpt>
      <trkpt lat="44.93831" lon="0.85417">
        <ele>192.3</ele>
        <time>2022-08-13T07:57:04Z</time>
      </trkpt>
      <trkpt lat="44.93821" lon="0.85409">
        <ele>190.5</ele>
        <time>2022-08-13T07:57:07Z</time>
      </trkpt>
      <trkpt lat="44.93817" lon="0.85407">
        <ele>189.9</ele>
        <time>2022-08-13T07:57:08Z</time>
      </trkpt>
      <trkpt lat="44.93809" lon="0.85404">
        <ele>188.8</ele>
        <time>2022-08-13T07:57:10Z</time>
      </trkpt>
      <trkpt lat="44.93801" lon="0.854">
        <ele>187.8</ele>
        <time>2022-08-13T07:57:12Z</time>
      </trkpt>
      <trkpt lat="44.93781" lon="0.85398">
        <ele>184.7</ele>
        <time>2022-08-13T07:57:16Z</time>
      </trkpt>
      <trkpt lat="44.93767" lon="0.85395">
        <ele>181.9</ele>
        <time>2022-08-13T07:57:19Z</time>
      </trkpt>
      <trkpt lat="44.93763" lon="0.85393">
        <ele>180.9</ele>
        <time>2022-08-13T07:57:20Z</time>
      </trkpt>
      <trkpt lat="44.93759" lon="0.85389">
        <ele>179.9</ele>
        <time>2022-08-13T07:57:21Z</time>
      </trkpt>
      <trkpt lat="44.93749" lon="0.85371">
        <ele>176.7</ele>
        <time>2022-08-13T07:57:24Z</time>
      </trkpt>
      <trkpt lat="44.93734" lon="0.85341">
        <ele>172.5</ele>
        <time>2022-08-13T07:57:28Z</time>
      </trkpt>
      <trkpt lat="44.93709" lon="0.85306">
        <ele>167.8</ele>
        <time>2022-08-13T07:57:32Z</time>
      </trkpt>
      <trkpt lat="44.93671" lon="0.85244">
        <ele>163.3</ele>
        <time>2022-08-13T07:57:38Z</time>
      </trkpt>
      <trkpt lat="44.93638" lon="0.85186">
        <ele>161</ele>
        <time>2022-08-13T07:57:44Z</time>
      </trkpt>
      <trkpt lat="44.93611" lon="0.85132">
        <ele>159.6</ele>
        <time>2022-08-13T07:57:50Z</time>
      </trkpt>
      <trkpt lat="44.93599" lon="0.85107">
        <ele>159.2</ele>
        <time>2022-08-13T07:57:53Z</time>
      </trkpt>
      <trkpt lat="44.93589" lon="0.85093">
        <ele>158.8</ele>
        <time>2022-08-13T07:57:55Z</time>
      </trkpt>
      <trkpt lat="44.93555" lon="0.85043">
        <ele>157.3</ele>
        <time>2022-08-13T07:58:02Z</time>
      </trkpt>
      <trkpt lat="44.93542" lon="0.8502">
        <ele>156.8</ele>
        <time>2022-08-13T07:58:06Z</time>
      </trkpt>
      <trkpt lat="44.93529" lon="0.84998">
        <ele>156.3</ele>
        <time>2022-08-13T07:58:08Z</time>
      </trkpt>
      <trkpt lat="44.93496" lon="0.8494">
        <ele>155.1</ele>
        <time>2022-08-13T07:58:16Z</time>
      </trkpt>
      <trkpt lat="44.93479" lon="0.8491">
        <ele>154.3</ele>
        <time>2022-08-13T07:58:20Z</time>
      </trkpt>
      <trkpt lat="44.93469" lon="0.84888">
        <ele>153.8</ele>
        <time>2022-08-13T07:58:23Z</time>
      </trkpt>
      <trkpt lat="44.93441" lon="0.84827">
        <ele>152.4</ele>
        <time>2022-08-13T07:58:31Z</time>
      </trkpt>
      <trkpt lat="44.93409" lon="0.84759">
        <ele>150.7</ele>
        <time>2022-08-13T07:58:40Z</time>
      </trkpt>
      <trkpt lat="44.93392" lon="0.84724">
        <ele>150.3</ele>
        <time>2022-08-13T07:58:45Z</time>
      </trkpt>
      <trkpt lat="44.93389" lon="0.84718">
        <ele>150.4</ele>
        <time>2022-08-13T07:58:46Z</time>
      </trkpt>
      <trkpt lat="44.93387" lon="0.84713">
        <ele>150.4</ele>
        <time>2022-08-13T07:58:47Z</time>
      </trkpt>
      <trkpt lat="44.9339" lon="0.84702">
        <ele>150.2</ele>
        <time>2022-08-13T07:58:49Z</time>
      </trkpt>
      <trkpt lat="44.934" lon="0.84666">
        <ele>150.3</ele>
        <time>2022-08-13T07:58:55Z</time>
      </trkpt>
      <trkpt lat="44.93409" lon="0.84632">
        <ele>151.4</ele>
        <time>2022-08-13T07:59:02Z</time>
      </trkpt>
      <trkpt lat="44.93416" lon="0.84607">
        <ele>152.5</ele>
        <time>2022-08-13T07:59:08Z</time>
      </trkpt>
      <trkpt lat="44.93421" lon="0.84586">
        <ele>153.5</ele>
        <time>2022-08-13T07:59:14Z</time>
      </trkpt>
      <trkpt lat="44.93427" lon="0.84571">
        <ele>154.3</ele>
        <time>2022-08-13T07:59:19Z</time>
      </trkpt>
      <trkpt lat="44.93434" lon="0.84556">
        <ele>155.3</ele>
        <time>2022-08-13T07:59:24Z</time>
      </trkpt>
      <trkpt lat="44.93438" lon="0.84546">
        <ele>156</ele>
        <time>2022-08-13T07:59:28Z</time>
      </trkpt>
      <trkpt lat="44.93445" lon="0.84529">
        <ele>157.6</ele>
        <time>2022-08-13T07:59:34Z</time>
      </trkpt>
      <trkpt lat="44.93446" lon="0.84524">
        <ele>157.3</ele>
        <time>2022-08-13T07:59:36Z</time>
      </trkpt>
      <trkpt lat="44.93446" lon="0.84523">
        <ele>157.2</ele>
        <time>2022-08-13T07:59:38Z</time>
      </trkpt>
      <trkpt lat="44.93447" lon="0.8452">
        <ele>157.1</ele>
        <time>2022-08-13T07:59:39Z</time>
      </trkpt>
      <trkpt lat="44.93441" lon="0.84519">
        <ele>156.6</ele>
        <time>2022-08-13T07:59:42Z</time>
      </trkpt>
      <trkpt lat="44.93447" lon="0.8452">
        <ele>156.1</ele>
        <time>2022-08-13T07:59:43Z</time>
      </trkpt>
      <trkpt lat="44.9344" lon="0.84519">
        <ele>155.4</ele>
        <time>2022-08-13T07:59:45Z</time>
      </trkpt>
      <trkpt lat="44.9343" lon="0.84518">
        <ele>154.3</ele>
        <time>2022-08-13T07:59:49Z</time>
      </trkpt>
      <trkpt lat="44.93418" lon="0.84518">
        <ele>153</ele>
        <time>2022-08-13T07:59:52Z</time>
      </trkpt>
      <trkpt lat="44.93413" lon="0.84517">
        <ele>152.4</ele>
        <time>2022-08-13T07:59:53Z</time>
      </trkpt>
      <trkpt lat="44.934" lon="0.84516">
        <ele>150.9</ele>
        <time>2022-08-13T07:59:55Z</time>
      </trkpt>
      <trkpt lat="44.93386" lon="0.84514">
        <ele>149.2</ele>
        <time>2022-08-13T07:59:57Z</time>
      </trkpt>
      <trkpt lat="44.93379" lon="0.84511">
        <ele>148.4</ele>
        <time>2022-08-13T07:59:58Z</time>
      </trkpt>
      <trkpt lat="44.93365" lon="0.84504">
        <ele>146.6</ele>
        <time>2022-08-13T08:00:00Z</time>
      </trkpt>
      <trkpt lat="44.93358" lon="0.845">
        <ele>145.7</ele>
        <time>2022-08-13T08:00:01Z</time>
      </trkpt>
      <trkpt lat="44.93328" lon="0.84477">
        <ele>143.1</ele>
        <time>2022-08-13T08:00:05Z</time>
      </trkpt>
      <trkpt lat="44.93318" lon="0.84466">
        <ele>142.2</ele>
        <time>2022-08-13T08:00:07Z</time>
      </trkpt>
      <trkpt lat="44.93315" lon="0.84461">
        <ele>141.9</ele>
        <time>2022-08-13T08:00:08Z</time>
      </trkpt>
      <trkpt lat="44.93312" lon="0.84457">
        <ele>141.5</ele>
        <time>2022-08-13T08:00:09Z</time>
      </trkpt>
      <trkpt lat="44.93309" lon="0.84445">
        <ele>140.8</ele>
        <time>2022-08-13T08:00:11Z</time>
      </trkpt>
      <trkpt lat="44.93308" lon="0.84436">
        <ele>140.5</ele>
        <time>2022-08-13T08:00:13Z</time>
      </trkpt>
      <trkpt lat="44.93307" lon="0.84429">
        <ele>140.2</ele>
        <time>2022-08-13T08:00:14Z</time>
      </trkpt>
      <trkpt lat="44.93305" lon="0.84404">
        <ele>139.6</ele>
        <time>2022-08-13T08:00:18Z</time>
      </trkpt>
      <trkpt lat="44.93298" lon="0.84386">
        <ele>139.5</ele>
        <time>2022-08-13T08:00:22Z</time>
      </trkpt>
      <trkpt lat="44.9329" lon="0.84379">
        <ele>139.9</ele>
        <time>2022-08-13T08:00:26Z</time>
      </trkpt>
      <trkpt lat="44.93278" lon="0.8437">
        <ele>140.8</ele>
        <time>2022-08-13T08:00:30Z</time>
      </trkpt>
      <trkpt lat="44.93267" lon="0.84363">
        <ele>141.7</ele>
        <time>2022-08-13T08:00:35Z</time>
      </trkpt>
      <trkpt lat="44.93263" lon="0.84361">
        <ele>142</ele>
        <time>2022-08-13T08:00:37Z</time>
      </trkpt>
      <trkpt lat="44.93257" lon="0.84357">
        <ele>142.4</ele>
        <time>2022-08-13T08:00:39Z</time>
      </trkpt>
      <trkpt lat="44.93245" lon="0.84351">
        <ele>143.1</ele>
        <time>2022-08-13T08:00:43Z</time>
      </trkpt>
      <trkpt lat="44.93232" lon="0.84342">
        <ele>143.7</ele>
        <time>2022-08-13T08:00:48Z</time>
      </trkpt>
      <trkpt lat="44.93224" lon="0.84337">
        <ele>144.2</ele>
        <time>2022-08-13T08:00:51Z</time>
      </trkpt>
      <trkpt lat="44.9322" lon="0.84333">
        <ele>144.4</ele>
        <time>2022-08-13T08:00:53Z</time>
      </trkpt>
      <trkpt lat="44.93209" lon="0.84324">
        <ele>145</ele>
        <time>2022-08-13T08:00:58Z</time>
      </trkpt>
      <trkpt lat="44.93199" lon="0.84315">
        <ele>145.5</ele>
        <time>2022-08-13T08:01:02Z</time>
      </trkpt>
      <trkpt lat="44.93184" lon="0.84305">
        <ele>145.9</ele>
        <time>2022-08-13T08:01:07Z</time>
      </trkpt>
      <trkpt lat="44.93181" lon="0.84302">
        <ele>146</ele>
        <time>2022-08-13T08:01:08Z</time>
      </trkpt>
      <trkpt lat="44.93171" lon="0.84296">
        <ele>146.2</ele>
        <time>2022-08-13T08:01:11Z</time>
      </trkpt>
      <trkpt lat="44.93155" lon="0.8428">
        <ele>146.7</ele>
        <time>2022-08-13T08:01:17Z</time>
      </trkpt>
      <trkpt lat="44.93139" lon="0.84265">
        <ele>147.2</ele>
        <time>2022-08-13T08:01:22Z</time>
      </trkpt>
      <trkpt lat="44.93121" lon="0.8425">
        <ele>147.3</ele>
        <time>2022-08-13T08:01:28Z</time>
      </trkpt>
      <trkpt lat="44.93106" lon="0.8424">
        <ele>147.2</ele>
        <time>2022-08-13T08:01:33Z</time>
      </trkpt>
      <trkpt lat="44.93081" lon="0.84225">
        <ele>147.1</ele>
        <time>2022-08-13T08:01:40Z</time>
      </trkpt>
      <trkpt lat="44.93057" lon="0.8422">
        <ele>147.4</ele>
        <time>2022-08-13T08:01:46Z</time>
      </trkpt>
      <trkpt lat="44.93035" lon="0.84208">
        <ele>147.5</ele>
        <time>2022-08-13T08:01:52Z</time>
      </trkpt>
      <trkpt lat="44.93007" lon="0.84198">
        <ele>147.8</ele>
        <time>2022-08-13T08:01:59Z</time>
      </trkpt>
      <trkpt lat="44.92993" lon="0.84193">
        <ele>148.1</ele>
        <time>2022-08-13T08:02:03Z</time>
      </trkpt>
      <trkpt lat="44.92978" lon="0.84184">
        <ele>148.5</ele>
        <time>2022-08-13T08:02:07Z</time>
      </trkpt>
      <trkpt lat="44.92953" lon="0.84166">
        <ele>148.5</ele>
        <time>2022-08-13T08:02:14Z</time>
      </trkpt>
      <trkpt lat="44.9293" lon="0.84149">
        <ele>148</ele>
        <time>2022-08-13T08:02:20Z</time>
      </trkpt>
      <trkpt lat="44.92916" lon="0.84138">
        <ele>146.9</ele>
        <time>2022-08-13T08:02:24Z</time>
      </trkpt>
      <trkpt lat="44.929" lon="0.84131">
        <ele>145.1</ele>
        <time>2022-08-13T08:02:27Z</time>
      </trkpt>
      <trkpt lat="44.92893" lon="0.8413">
        <ele>144.3</ele>
        <time>2022-08-13T08:02:28Z</time>
      </trkpt>
      <trkpt lat="44.92886" lon="0.84129">
        <ele>143.5</ele>
        <time>2022-08-13T08:02:29Z</time>
      </trkpt>
      <trkpt lat="44.9287" lon="0.84123">
        <ele>142.3</ele>
        <time>2022-08-13T08:02:31Z</time>
      </trkpt>
      <trkpt lat="44.92845" lon="0.84113">
        <ele>142</ele>
        <time>2022-08-13T08:02:35Z</time>
      </trkpt>
      <trkpt lat="44.92835" lon="0.84112">
        <ele>142.2</ele>
        <time>2022-08-13T08:02:37Z</time>
      </trkpt>
      <trkpt lat="44.92831" lon="0.84113">
        <ele>142.4</ele>
        <time>2022-08-13T08:02:38Z</time>
      </trkpt>
      <trkpt lat="44.92806" lon="0.84119">
        <ele>143.4</ele>
        <time>2022-08-13T08:02:45Z</time>
      </trkpt>
      <trkpt lat="44.92789" lon="0.84122">
        <ele>144.2</ele>
        <time>2022-08-13T08:02:50Z</time>
      </trkpt>
      <trkpt lat="44.92772" lon="0.84126">
        <ele>144.6</ele>
        <time>2022-08-13T08:02:56Z</time>
      </trkpt>
      <trkpt lat="44.92756" lon="0.8413">
        <ele>144.9</ele>
        <time>2022-08-13T08:03:01Z</time>
      </trkpt>
      <trkpt lat="44.92744" lon="0.84133">
        <ele>144.9</ele>
        <time>2022-08-13T08:03:05Z</time>
      </trkpt>
      <trkpt lat="44.92741" lon="0.84127">
        <ele>144.8</ele>
        <time>2022-08-13T08:03:06Z</time>
      </trkpt>
      <trkpt lat="44.92741" lon="0.84123">
        <ele>144.7</ele>
        <time>2022-08-13T08:03:07Z</time>
      </trkpt>
      <trkpt lat="44.92741" lon="0.84114">
        <ele>144.5</ele>
        <time>2022-08-13T08:03:09Z</time>
      </trkpt>
      <trkpt lat="44.92745" lon="0.84083">
        <ele>143.9</ele>
        <time>2022-08-13T08:03:15Z</time>
      </trkpt>
      <trkpt lat="44.92749" lon="0.84051">
        <ele>143.6</ele>
        <time>2022-08-13T08:03:21Z</time>
      </trkpt>
      <trkpt lat="44.9275" lon="0.84046">
        <ele>143.6</ele>
        <time>2022-08-13T08:03:22Z</time>
      </trkpt>
      <trkpt lat="44.92756" lon="0.84012">
        <ele>144.1</ele>
        <time>2022-08-13T08:03:29Z</time>
      </trkpt>
      <trkpt lat="44.92759" lon="0.83985">
        <ele>145.2</ele>
        <time>2022-08-13T08:03:35Z</time>
      </trkpt>
      <trkpt lat="44.92762" lon="0.83963">
        <ele>146.6</ele>
        <time>2022-08-13T08:03:40Z</time>
      </trkpt>
      <trkpt lat="44.92766" lon="0.83936">
        <ele>148.9</ele>
        <time>2022-08-13T08:03:47Z</time>
      </trkpt>
      <trkpt lat="44.92771" lon="0.83912">
        <ele>151.5</ele>
        <time>2022-08-13T08:03:54Z</time>
      </trkpt>
      <trkpt lat="44.92771" lon="0.83909">
        <ele>151.8</ele>
        <time>2022-08-13T08:03:55Z</time>
      </trkpt>
      <trkpt lat="44.92773" lon="0.83898">
        <ele>153.1</ele>
        <time>2022-08-13T08:03:59Z</time>
      </trkpt>
      <trkpt lat="44.92775" lon="0.83883">
        <ele>155</ele>
        <time>2022-08-13T08:04:06Z</time>
      </trkpt>
      <trkpt lat="44.92776" lon="0.83868">
        <ele>157.1</ele>
        <time>2022-08-13T08:04:14Z</time>
      </trkpt>
      <trkpt lat="44.92778" lon="0.83852">
        <ele>159.1</ele>
        <time>2022-08-13T08:04:22Z</time>
      </trkpt>
      <trkpt lat="44.9278" lon="0.83837">
        <ele>160.7</ele>
        <time>2022-08-13T08:04:29Z</time>
      </trkpt>
      <trkpt lat="44.92782" lon="0.83819">
        <ele>162</ele>
        <time>2022-08-13T08:04:36Z</time>
      </trkpt>
      <trkpt lat="44.92781" lon="0.83798">
        <ele>162.7</ele>
        <time>2022-08-13T08:04:44Z</time>
      </trkpt>
      <trkpt lat="44.92779" lon="0.83778">
        <ele>162.3</ele>
        <time>2022-08-13T08:04:50Z</time>
      </trkpt>
      <trkpt lat="44.92779" lon="0.8375">
        <ele>160.2</ele>
        <time>2022-08-13T08:04:56Z</time>
      </trkpt>
      <trkpt lat="44.92782" lon="0.83719">
        <ele>156.9</ele>
        <time>2022-08-13T08:05:00Z</time>
      </trkpt>
      <trkpt lat="44.92787" lon="0.83674">
        <ele>152.7</ele>
        <time>2022-08-13T08:05:04Z</time>
      </trkpt>
      <trkpt lat="44.92792" lon="0.83619">
        <ele>149.1</ele>
        <time>2022-08-13T08:05:08Z</time>
      </trkpt>
      <trkpt lat="44.92797" lon="0.8355">
        <ele>145.2</ele>
        <time>2022-08-13T08:05:13Z</time>
      </trkpt>
      <trkpt lat="44.92801" lon="0.83492">
        <ele>140.1</ele>
        <time>2022-08-13T08:05:18Z</time>
      </trkpt>
      <trkpt lat="44.92802" lon="0.83472">
        <ele>137.6</ele>
        <time>2022-08-13T08:05:20Z</time>
      </trkpt>
      <trkpt lat="44.92803" lon="0.83465">
        <ele>136.6</ele>
        <time>2022-08-13T08:05:21Z</time>
      </trkpt>
      <trkpt lat="44.92803" lon="0.83457">
        <ele>136</ele>
        <time>2022-08-13T08:05:22Z</time>
      </trkpt>
      <trkpt lat="44.92807" lon="0.83452">
        <ele>136</ele>
        <time>2022-08-13T08:05:23Z</time>
      </trkpt>
      <trkpt lat="44.92812" lon="0.83454">
        <ele>136.1</ele>
        <time>2022-08-13T08:05:24Z</time>
      </trkpt>
      <trkpt lat="44.92821" lon="0.83454">
        <ele>136.2</ele>
        <time>2022-08-13T08:05:26Z</time>
      </trkpt>
      <trkpt lat="44.92833" lon="0.83448">
        <ele>136.4</ele>
        <time>2022-08-13T08:05:30Z</time>
      </trkpt>
      <trkpt lat="44.92846" lon="0.83442">
        <ele>136.9</ele>
        <time>2022-08-13T08:05:36Z</time>
      </trkpt>
      <trkpt lat="44.92857" lon="0.83442">
        <ele>137.4</ele>
        <time>2022-08-13T08:05:41Z</time>
      </trkpt>
      <trkpt lat="44.92872" lon="0.83442">
        <ele>138.1</ele>
        <time>2022-08-13T08:05:47Z</time>
      </trkpt>
      <trkpt lat="44.92874" lon="0.83442">
        <ele>138.2</ele>
        <time>2022-08-13T08:05:48Z</time>
      </trkpt>
      <trkpt lat="44.92881" lon="0.83442">
        <ele>138.4</ele>
        <time>2022-08-13T08:05:51Z</time>
      </trkpt>
      <trkpt lat="44.92883" lon="0.83442">
        <ele>138.5</ele>
        <time>2022-08-13T08:05:52Z</time>
      </trkpt>
      <trkpt lat="44.92889" lon="0.83445">
        <ele>138.9</ele>
        <time>2022-08-13T08:05:55Z</time>
      </trkpt>
      <trkpt lat="44.92892" lon="0.83446">
        <ele>139</ele>
        <time>2022-08-13T08:05:56Z</time>
      </trkpt>
      <trkpt lat="44.92902" lon="0.83448">
        <ele>139.7</ele>
        <time>2022-08-13T08:06:00Z</time>
      </trkpt>
      <trkpt lat="44.92917" lon="0.83447">
        <ele>140.9</ele>
        <time>2022-08-13T08:06:06Z</time>
      </trkpt>
      <trkpt lat="44.92919" lon="0.83447">
        <ele>141.1</ele>
        <time>2022-08-13T08:06:07Z</time>
      </trkpt>
      <trkpt lat="44.92926" lon="0.83443">
        <ele>141.9</ele>
        <time>2022-08-13T08:06:11Z</time>
      </trkpt>
      <trkpt lat="44.92939" lon="0.83437">
        <ele>143.1</ele>
        <time>2022-08-13T08:06:17Z</time>
      </trkpt>
      <trkpt lat="44.92947" lon="0.83432">
        <ele>143.8</ele>
        <time>2022-08-13T08:06:21Z</time>
      </trkpt>
      <trkpt lat="44.92948" lon="0.83431">
        <ele>144</ele>
        <time>2022-08-13T08:06:22Z</time>
      </trkpt>
      <trkpt lat="44.9295" lon="0.83429">
        <ele>144.1</ele>
        <time>2022-08-13T08:06:23Z</time>
      </trkpt>
      <trkpt lat="44.92957" lon="0.83424">
        <ele>144.8</ele>
        <time>2022-08-13T08:06:27Z</time>
      </trkpt>
      <trkpt lat="44.92966" lon="0.83417">
        <ele>145.7</ele>
        <time>2022-08-13T08:06:32Z</time>
      </trkpt>
      <trkpt lat="44.92969" lon="0.83415">
        <ele>145.9</ele>
        <time>2022-08-13T08:06:33Z</time>
      </trkpt>
      <trkpt lat="44.92973" lon="0.83412">
        <ele>146.3</ele>
        <time>2022-08-13T08:06:35Z</time>
      </trkpt>
      <trkpt lat="44.92979" lon="0.83407">
        <ele>146.9</ele>
        <time>2022-08-13T08:06:38Z</time>
      </trkpt>
      <trkpt lat="44.92983" lon="0.83404">
        <ele>147.3</ele>
        <time>2022-08-13T08:06:40Z</time>
      </trkpt>
      <trkpt lat="44.92987" lon="0.83401">
        <ele>147.7</ele>
        <time>2022-08-13T08:06:42Z</time>
      </trkpt>
      <trkpt lat="44.92991" lon="0.83397">
        <ele>148.2</ele>
        <time>2022-08-13T08:06:44Z</time>
      </trkpt>
      <trkpt lat="44.92997" lon="0.83392">
        <ele>148.9</ele>
        <time>2022-08-13T08:06:47Z</time>
      </trkpt>
      <trkpt lat="44.93" lon="0.83389">
        <ele>149.3</ele>
        <time>2022-08-13T08:06:49Z</time>
      </trkpt>
      <trkpt lat="44.93012" lon="0.83383">
        <ele>150.5</ele>
        <time>2022-08-13T08:06:55Z</time>
      </trkpt>
      <trkpt lat="44.93027" lon="0.83378">
        <ele>152</ele>
        <time>2022-08-13T08:07:02Z</time>
      </trkpt>
      <trkpt lat="44.93032" lon="0.83376">
        <ele>152.5</ele>
        <time>2022-08-13T08:07:05Z</time>
      </trkpt>
      <trkpt lat="44.93036" lon="0.83375">
        <ele>152.9</ele>
        <time>2022-08-13T08:07:07Z</time>
      </trkpt>
      <trkpt lat="44.93043" lon="0.83372">
        <ele>153.6</ele>
        <time>2022-08-13T08:07:11Z</time>
      </trkpt>
      <trkpt lat="44.93048" lon="0.83371">
        <ele>154</ele>
        <time>2022-08-13T08:07:14Z</time>
      </trkpt>
      <trkpt lat="44.93051" lon="0.8337">
        <ele>154.3</ele>
        <time>2022-08-13T08:07:16Z</time>
      </trkpt>
      <trkpt lat="44.93058" lon="0.83368">
        <ele>154.9</ele>
        <time>2022-08-13T08:07:20Z</time>
      </trkpt>
      <trkpt lat="44.9306" lon="0.83367">
        <ele>155</ele>
        <time>2022-08-13T08:07:21Z</time>
      </trkpt>
      <trkpt lat="44.93073" lon="0.83363">
        <ele>156</ele>
        <time>2022-08-13T08:07:28Z</time>
      </trkpt>
      <trkpt lat="44.93075" lon="0.83362">
        <ele>156.1</ele>
        <time>2022-08-13T08:07:29Z</time>
      </trkpt>
      <trkpt lat="44.93085" lon="0.83359">
        <ele>156.8</ele>
        <time>2022-08-13T08:07:34Z</time>
      </trkpt>
      <trkpt lat="44.93087" lon="0.83358">
        <ele>157</ele>
        <time>2022-08-13T08:07:35Z</time>
      </trkpt>
      <trkpt lat="44.93096" lon="0.83355">
        <ele>157.6</ele>
        <time>2022-08-13T08:07:40Z</time>
      </trkpt>
      <trkpt lat="44.93106" lon="0.8335">
        <ele>158</ele>
        <time>2022-08-13T08:07:45Z</time>
      </trkpt>
      <trkpt lat="44.93119" lon="0.83345">
        <ele>158.5</ele>
        <time>2022-08-13T08:07:52Z</time>
      </trkpt>
      <trkpt lat="44.93132" lon="0.83337">
        <ele>159.1</ele>
        <time>2022-08-13T08:07:58Z</time>
      </trkpt>
      <trkpt lat="44.93146" lon="0.83327">
        <ele>159.8</ele>
        <time>2022-08-13T08:08:04Z</time>
      </trkpt>
      <trkpt lat="44.93165" lon="0.83315">
        <ele>160.7</ele>
        <time>2022-08-13T08:08:12Z</time>
      </trkpt>
      <trkpt lat="44.93183" lon="0.83306">
        <ele>161.6</ele>
        <time>2022-08-13T08:08:20Z</time>
      </trkpt>
      <trkpt lat="44.93197" lon="0.83299">
        <ele>162.3</ele>
        <time>2022-08-13T08:08:27Z</time>
      </trkpt>
      <trkpt lat="44.9321" lon="0.83293">
        <ele>163.1</ele>
        <time>2022-08-13T08:08:33Z</time>
      </trkpt>
      <trkpt lat="44.93212" lon="0.83292">
        <ele>163.2</ele>
        <time>2022-08-13T08:08:34Z</time>
      </trkpt>
      <trkpt lat="44.9322" lon="0.8329">
        <ele>163.8</ele>
        <time>2022-08-13T08:08:38Z</time>
      </trkpt>
      <trkpt lat="44.93233" lon="0.83287">
        <ele>164.6</ele>
        <time>2022-08-13T08:08:44Z</time>
      </trkpt>
      <trkpt lat="44.93253" lon="0.83282">
        <ele>166.3</ele>
        <time>2022-08-13T08:08:53Z</time>
      </trkpt>
      <trkpt lat="44.93269" lon="0.83277">
        <ele>167.8</ele>
        <time>2022-08-13T08:09:00Z</time>
      </trkpt>
      <trkpt lat="44.93285" lon="0.83272">
        <ele>169.2</ele>
        <time>2022-08-13T08:09:08Z</time>
      </trkpt>
      <trkpt lat="44.93289" lon="0.8327">
        <ele>169.7</ele>
        <time>2022-08-13T08:09:11Z</time>
      </trkpt>
      <trkpt lat="44.93294" lon="0.83269">
        <ele>170.2</ele>
        <time>2022-08-13T08:09:14Z</time>
      </trkpt>
      <trkpt lat="44.93302" lon="0.83266">
        <ele>171.1</ele>
        <time>2022-08-13T08:09:19Z</time>
      </trkpt>
      <trkpt lat="44.93313" lon="0.83262">
        <ele>172.2</ele>
        <time>2022-08-13T08:09:25Z</time>
      </trkpt>
      <trkpt lat="44.93317" lon="0.8326">
        <ele>172.7</ele>
        <time>2022-08-13T08:09:27Z</time>
      </trkpt>
      <trkpt lat="44.93322" lon="0.83258">
        <ele>173.4</ele>
        <time>2022-08-13T08:09:30Z</time>
      </trkpt>
      <trkpt lat="44.93334" lon="0.83253">
        <ele>174.9</ele>
        <time>2022-08-13T08:09:36Z</time>
      </trkpt>
      <trkpt lat="44.93344" lon="0.83247">
        <ele>176.2</ele>
        <time>2022-08-13T08:09:42Z</time>
      </trkpt>
      <trkpt lat="44.93347" lon="0.83244">
        <ele>176.6</ele>
        <time>2022-08-13T08:09:44Z</time>
      </trkpt>
      <trkpt lat="44.93351" lon="0.8324">
        <ele>177.2</ele>
        <time>2022-08-13T08:09:47Z</time>
      </trkpt>
      <trkpt lat="44.93359" lon="0.83231">
        <ele>178.4</ele>
        <time>2022-08-13T08:09:52Z</time>
      </trkpt>
      <trkpt lat="44.93361" lon="0.83228">
        <ele>178.8</ele>
        <time>2022-08-13T08:09:54Z</time>
      </trkpt>
      <trkpt lat="44.93366" lon="0.83223">
        <ele>179.5</ele>
        <time>2022-08-13T08:09:57Z</time>
      </trkpt>
      <trkpt lat="44.93367" lon="0.83222">
        <ele>179.7</ele>
        <time>2022-08-13T08:09:58Z</time>
      </trkpt>
      <trkpt lat="44.93371" lon="0.83218">
        <ele>180.2</ele>
        <time>2022-08-13T08:10:01Z</time>
      </trkpt>
      <trkpt lat="44.93374" lon="0.83215">
        <ele>180.5</ele>
        <time>2022-08-13T08:10:03Z</time>
      </trkpt>
      <trkpt lat="44.93376" lon="0.83213">
        <ele>180.8</ele>
        <time>2022-08-13T08:10:05Z</time>
      </trkpt>
      <trkpt lat="44.93379" lon="0.83209">
        <ele>181.3</ele>
        <time>2022-08-13T08:10:08Z</time>
      </trkpt>
      <trkpt lat="44.93382" lon="0.83206">
        <ele>181.6</ele>
        <time>2022-08-13T08:10:10Z</time>
      </trkpt>
      <trkpt lat="44.93383" lon="0.83204">
        <ele>181.8</ele>
        <time>2022-08-13T08:10:11Z</time>
      </trkpt>
      <trkpt lat="44.93389" lon="0.83199">
        <ele>182.4</ele>
        <time>2022-08-13T08:10:15Z</time>
      </trkpt>
      <trkpt lat="44.93393" lon="0.83194">
        <ele>183</ele>
        <time>2022-08-13T08:10:18Z</time>
      </trkpt>
      <trkpt lat="44.93395" lon="0.83192">
        <ele>183.2</ele>
        <time>2022-08-13T08:10:20Z</time>
      </trkpt>
      <trkpt lat="44.93396" lon="0.83191">
        <ele>183.3</ele>
        <time>2022-08-13T08:10:21Z</time>
      </trkpt>
      <trkpt lat="44.93399" lon="0.83189">
        <ele>183.5</ele>
        <time>2022-08-13T08:10:23Z</time>
      </trkpt>
      <trkpt lat="44.93402" lon="0.83186">
        <ele>183.8</ele>
        <time>2022-08-13T08:10:25Z</time>
      </trkpt>
      <trkpt lat="44.93409" lon="0.83179">
        <ele>184.5</ele>
        <time>2022-08-13T08:10:29Z</time>
      </trkpt>
      <trkpt lat="44.93423" lon="0.83167">
        <ele>185.6</ele>
        <time>2022-08-13T08:10:36Z</time>
      </trkpt>
      <trkpt lat="44.93435" lon="0.83156">
        <ele>186.5</ele>
        <time>2022-08-13T08:10:42Z</time>
      </trkpt>
      <trkpt lat="44.93447" lon="0.83143">
        <ele>187.1</ele>
        <time>2022-08-13T08:10:48Z</time>
      </trkpt>
      <trkpt lat="44.9345" lon="0.8314">
        <ele>187.2</ele>
        <time>2022-08-13T08:10:50Z</time>
      </trkpt>
      <trkpt lat="44.93458" lon="0.83131">
        <ele>187.5</ele>
        <time>2022-08-13T08:10:54Z</time>
      </trkpt>
      <trkpt lat="44.93467" lon="0.83117">
        <ele>187.7</ele>
        <time>2022-08-13T08:11:00Z</time>
      </trkpt>
      <trkpt lat="44.93474" lon="0.83105">
        <ele>187.7</ele>
        <time>2022-08-13T08:11:05Z</time>
      </trkpt>
      <trkpt lat="44.93484" lon="0.83092">
        <ele>187.6</ele>
        <time>2022-08-13T08:11:10Z</time>
      </trkpt>
      <trkpt lat="44.935" lon="0.83074">
        <ele>187.5</ele>
        <time>2022-08-13T08:11:17Z</time>
      </trkpt>
      <trkpt lat="44.93518" lon="0.83057">
        <ele>187.6</ele>
        <time>2022-08-13T08:11:25Z</time>
      </trkpt>
      <trkpt lat="44.9353" lon="0.83047">
        <ele>187.7</ele>
        <time>2022-08-13T08:11:30Z</time>
      </trkpt>
      <trkpt lat="44.93551" lon="0.83028">
        <ele>188.1</ele>
        <time>2022-08-13T08:11:39Z</time>
      </trkpt>
      <trkpt lat="44.93562" lon="0.83014">
        <ele>188.3</ele>
        <time>2022-08-13T08:11:44Z</time>
      </trkpt>
      <trkpt lat="44.93571" lon="0.82992">
        <ele>188.5</ele>
        <time>2022-08-13T08:11:49Z</time>
      </trkpt>
      <trkpt lat="44.93579" lon="0.82971">
        <ele>188.9</ele>
        <time>2022-08-13T08:11:54Z</time>
      </trkpt>
      <trkpt lat="44.9359" lon="0.82955">
        <ele>189.4</ele>
        <time>2022-08-13T08:11:59Z</time>
      </trkpt>
      <trkpt lat="44.936" lon="0.8294">
        <ele>190.1</ele>
        <time>2022-08-13T08:12:04Z</time>
      </trkpt>
      <trkpt lat="44.93609" lon="0.82923">
        <ele>190.6</ele>
        <time>2022-08-13T08:12:09Z</time>
      </trkpt>
      <trkpt lat="44.93616" lon="0.8291">
        <ele>190.8</ele>
        <time>2022-08-13T08:12:13Z</time>
      </trkpt>
      <trkpt lat="44.93628" lon="0.82892">
        <ele>191.1</ele>
        <time>2022-08-13T08:12:18Z</time>
      </trkpt>
      <trkpt lat="44.93641" lon="0.82875">
        <ele>191.7</ele>
        <time>2022-08-13T08:12:23Z</time>
      </trkpt>
      <trkpt lat="44.93653" lon="0.82858">
        <ele>192.7</ele>
        <time>2022-08-13T08:12:28Z</time>
      </trkpt>
      <trkpt lat="44.93665" lon="0.82842">
        <ele>193.8</ele>
        <time>2022-08-13T08:12:33Z</time>
      </trkpt>
      <trkpt lat="44.93678" lon="0.82826">
        <ele>194.6</ele>
        <time>2022-08-13T08:12:39Z</time>
      </trkpt>
      <trkpt lat="44.93688" lon="0.82815">
        <ele>195.2</ele>
        <time>2022-08-13T08:12:43Z</time>
      </trkpt>
      <trkpt lat="44.937" lon="0.828">
        <ele>195.3</ele>
        <time>2022-08-13T08:12:48Z</time>
      </trkpt>
      <trkpt lat="44.93713" lon="0.82785">
        <ele>195.4</ele>
        <time>2022-08-13T08:12:53Z</time>
      </trkpt>
      <trkpt lat="44.93729" lon="0.82766">
        <ele>195.3</ele>
        <time>2022-08-13T08:12:58Z</time>
      </trkpt>
      <trkpt lat="44.93745" lon="0.82746">
        <ele>195.2</ele>
        <time>2022-08-13T08:13:03Z</time>
      </trkpt>
      <trkpt lat="44.9376" lon="0.82726">
        <ele>195</ele>
        <time>2022-08-13T08:13:08Z</time>
      </trkpt>
      <trkpt lat="44.93768" lon="0.82715">
        <ele>194.8</ele>
        <time>2022-08-13T08:13:11Z</time>
      </trkpt>
      <trkpt lat="44.93784" lon="0.82694">
        <ele>194.5</ele>
        <time>2022-08-13T08:13:16Z</time>
      </trkpt>
      <trkpt lat="44.93803" lon="0.82675">
        <ele>194.2</ele>
        <time>2022-08-13T08:13:21Z</time>
      </trkpt>
      <trkpt lat="44.93828" lon="0.82655">
        <ele>194.3</ele>
        <time>2022-08-13T08:13:27Z</time>
      </trkpt>
      <trkpt lat="44.93853" lon="0.82629">
        <ele>195</ele>
        <time>2022-08-13T08:13:33Z</time>
      </trkpt>
      <trkpt lat="44.93866" lon="0.82604">
        <ele>196.3</ele>
        <time>2022-08-13T08:13:38Z</time>
      </trkpt>
      <trkpt lat="44.93869" lon="0.82599">
        <ele>196.6</ele>
        <time>2022-08-13T08:13:39Z</time>
      </trkpt>
      <trkpt lat="44.93872" lon="0.82593">
        <ele>196.9</ele>
        <time>2022-08-13T08:13:40Z</time>
      </trkpt>
      <trkpt lat="44.93882" lon="0.82579">
        <ele>197.7</ele>
        <time>2022-08-13T08:13:43Z</time>
      </trkpt>
      <trkpt lat="44.93895" lon="0.82563">
        <ele>198.2</ele>
        <time>2022-08-13T08:13:47Z</time>
      </trkpt>
      <trkpt lat="44.93904" lon="0.82551">
        <ele>198.1</ele>
        <time>2022-08-13T08:13:50Z</time>
      </trkpt>
      <trkpt lat="44.93911" lon="0.82543">
        <ele>198</ele>
        <time>2022-08-13T08:13:52Z</time>
      </trkpt>
      <trkpt lat="44.93923" lon="0.82532">
        <ele>197.8</ele>
        <time>2022-08-13T08:13:55Z</time>
      </trkpt>
      <trkpt lat="44.93946" lon="0.82513">
        <ele>197.4</ele>
        <time>2022-08-13T08:14:00Z</time>
      </trkpt>
      <trkpt lat="44.93966" lon="0.82486">
        <ele>198.3</ele>
        <time>2022-08-13T08:14:05Z</time>
      </trkpt>
      <trkpt lat="44.93977" lon="0.82467">
        <ele>199.6</ele>
        <time>2022-08-13T08:14:09Z</time>
      </trkpt>
      <trkpt lat="44.93985" lon="0.82454">
        <ele>200.7</ele>
        <time>2022-08-13T08:14:12Z</time>
      </trkpt>
      <trkpt lat="44.93987" lon="0.8245">
        <ele>201.1</ele>
        <time>2022-08-13T08:14:13Z</time>
      </trkpt>
      <trkpt lat="44.9399" lon="0.82446">
        <ele>201.4</ele>
        <time>2022-08-13T08:14:14Z</time>
      </trkpt>
      <trkpt lat="44.94" lon="0.82431">
        <ele>202.5</ele>
        <time>2022-08-13T08:14:17Z</time>
      </trkpt>
      <trkpt lat="44.94018" lon="0.82405">
        <ele>204</ele>
        <time>2022-08-13T08:14:22Z</time>
      </trkpt>
      <trkpt lat="44.94021" lon="0.824">
        <ele>204.1</ele>
        <time>2022-08-13T08:14:23Z</time>
      </trkpt>
      <trkpt lat="44.9403" lon="0.82387">
        <ele>203.9</ele>
        <time>2022-08-13T08:14:26Z</time>
      </trkpt>
      <trkpt lat="44.94035" lon="0.82378">
        <ele>203.7</ele>
        <time>2022-08-13T08:14:28Z</time>
      </trkpt>
      <trkpt lat="44.94045" lon="0.82362">
        <ele>202.9</ele>
        <time>2022-08-13T08:14:31Z</time>
      </trkpt>
      <trkpt lat="44.94052" lon="0.82348">
        <ele>202.5</ele>
        <time>2022-08-13T08:14:34Z</time>
      </trkpt>
      <trkpt lat="44.94055" lon="0.82335">
        <ele>202.5</ele>
        <time>2022-08-13T08:14:36Z</time>
      </trkpt>
      <trkpt lat="44.94058" lon="0.82309">
        <ele>203.3</ele>
        <time>2022-08-13T08:14:41Z</time>
      </trkpt>
      <trkpt lat="44.94058" lon="0.82295">
        <ele>204.2</ele>
        <time>2022-08-13T08:14:45Z</time>
      </trkpt>
      <trkpt lat="44.94058" lon="0.82281">
        <ele>205.3</ele>
        <time>2022-08-13T08:14:51Z</time>
      </trkpt>
      <trkpt lat="44.94058" lon="0.82275">
        <ele>205.8</ele>
        <time>2022-08-13T08:14:55Z</time>
      </trkpt>
      <trkpt lat="44.9406" lon="0.82267">
        <ele>206.3</ele>
        <time>2022-08-13T08:14:59Z</time>
      </trkpt>
      <trkpt lat="44.9406" lon="0.82265">
        <ele>206.4</ele>
        <time>2022-08-13T08:15:00Z</time>
      </trkpt>
      <trkpt lat="44.94064" lon="0.82249">
        <ele>207.2</ele>
        <time>2022-08-13T08:15:07Z</time>
      </trkpt>
      <trkpt lat="44.94067" lon="0.82239">
        <ele>207.4</ele>
        <time>2022-08-13T08:15:11Z</time>
      </trkpt>
      <trkpt lat="44.94073" lon="0.82225">
        <ele>207.3</ele>
        <time>2022-08-13T08:15:16Z</time>
      </trkpt>
      <trkpt lat="44.94076" lon="0.82217">
        <ele>207.1</ele>
        <time>2022-08-13T08:15:19Z</time>
      </trkpt>
      <trkpt lat="44.94077" lon="0.82215">
        <ele>207</ele>
        <time>2022-08-13T08:15:20Z</time>
      </trkpt>
      <trkpt lat="44.94084" lon="0.82197">
        <ele>205.9</ele>
        <time>2022-08-13T08:15:24Z</time>
      </trkpt>
      <trkpt lat="44.94095" lon="0.8217">
        <ele>204.2</ele>
        <time>2022-08-13T08:15:29Z</time>
      </trkpt>
      <trkpt lat="44.94108" lon="0.82162">
        <ele>203.9</ele>
        <time>2022-08-13T08:15:31Z</time>
      </trkpt>
      <trkpt lat="44.94108" lon="0.82163">
        <ele>203.9</ele>
        <time>2022-08-13T08:15:32Z</time>
      </trkpt>
      <trkpt lat="44.94109" lon="0.82164">
        <ele>204</ele>
        <time>2022-08-13T08:15:33Z</time>
      </trkpt>
      <trkpt lat="44.9411" lon="0.82168">
        <ele>204.2</ele>
        <time>2022-08-13T08:15:37Z</time>
      </trkpt>
      <trkpt lat="44.94111" lon="0.82171">
        <ele>204.3</ele>
        <time>2022-08-13T08:15:39Z</time>
      </trkpt>
      <trkpt lat="44.94113" lon="0.82175">
        <ele>204.6</ele>
        <time>2022-08-13T08:15:41Z</time>
      </trkpt>
      <trkpt lat="44.94115" lon="0.82182">
        <ele>205.1</ele>
        <time>2022-08-13T08:15:45Z</time>
      </trkpt>
      <trkpt lat="44.94116" lon="0.82184">
        <ele>205.2</ele>
        <time>2022-08-13T08:15:46Z</time>
      </trkpt>
      <trkpt lat="44.9412" lon="0.82195">
        <ele>206</ele>
        <time>2022-08-13T08:15:51Z</time>
      </trkpt>
      <trkpt lat="44.94123" lon="0.82203">
        <ele>206.6</ele>
        <time>2022-08-13T08:15:54Z</time>
      </trkpt>
      <trkpt lat="44.94124" lon="0.82208">
        <ele>206.9</ele>
        <time>2022-08-13T08:15:56Z</time>
      </trkpt>
      <trkpt lat="44.94126" lon="0.82212">
        <ele>207.2</ele>
        <time>2022-08-13T08:15:58Z</time>
      </trkpt>
      <trkpt lat="44.94128" lon="0.82217">
        <ele>207.5</ele>
        <time>2022-08-13T08:16:00Z</time>
      </trkpt>
      <trkpt lat="44.94128" lon="0.82219">
        <ele>207.6</ele>
        <time>2022-08-13T08:16:01Z</time>
      </trkpt>
      <trkpt lat="44.9413" lon="0.82223">
        <ele>207.9</ele>
        <time>2022-08-13T08:16:03Z</time>
      </trkpt>
      <trkpt lat="44.94131" lon="0.82226">
        <ele>208</ele>
        <time>2022-08-13T08:16:04Z</time>
      </trkpt>
      <trkpt lat="44.94137" lon="0.82242">
        <ele>208.7</ele>
        <time>2022-08-13T08:16:10Z</time>
      </trkpt>
      <trkpt lat="44.94138" lon="0.82245">
        <ele>208.8</ele>
        <time>2022-08-13T08:16:11Z</time>
      </trkpt>
      <trkpt lat="44.94142" lon="0.82256">
        <ele>209</ele>
        <time>2022-08-13T08:16:14Z</time>
      </trkpt>
      <trkpt lat="44.94148" lon="0.82274">
        <ele>208.8</ele>
        <time>2022-08-13T08:16:18Z</time>
      </trkpt>
      <trkpt lat="44.94157" lon="0.82298">
        <ele>207.7</ele>
        <time>2022-08-13T08:16:22Z</time>
      </trkpt>
      <trkpt lat="44.94159" lon="0.82303">
        <ele>207.5</ele>
        <time>2022-08-13T08:16:23Z</time>
      </trkpt>
      <trkpt lat="44.94164" lon="0.82319">
        <ele>206.8</ele>
        <time>2022-08-13T08:16:26Z</time>
      </trkpt>
      <trkpt lat="44.94166" lon="0.82325">
        <ele>206.7</ele>
        <time>2022-08-13T08:16:27Z</time>
      </trkpt>
      <trkpt lat="44.94175" lon="0.8235">
        <ele>206.2</ele>
        <time>2022-08-13T08:16:32Z</time>
      </trkpt>
      <trkpt lat="44.94183" lon="0.82373">
        <ele>206.5</ele>
        <time>2022-08-13T08:16:38Z</time>
      </trkpt>
      <trkpt lat="44.94191" lon="0.82392">
        <ele>207</ele>
        <time>2022-08-13T08:16:43Z</time>
      </trkpt>
      <trkpt lat="44.94202" lon="0.82417">
        <ele>208</ele>
        <time>2022-08-13T08:16:49Z</time>
      </trkpt>
      <trkpt lat="44.94203" lon="0.8242">
        <ele>208.2</ele>
        <time>2022-08-13T08:16:50Z</time>
      </trkpt>
      <trkpt lat="44.94208" lon="0.82431">
        <ele>208.8</ele>
        <time>2022-08-13T08:16:53Z</time>
      </trkpt>
      <trkpt lat="44.94219" lon="0.82459">
        <ele>210.6</ele>
        <time>2022-08-13T08:17:00Z</time>
      </trkpt>
      <trkpt lat="44.94226" lon="0.82476">
        <ele>211.8</ele>
        <time>2022-08-13T08:17:06Z</time>
      </trkpt>
      <trkpt lat="44.94231" lon="0.82488">
        <ele>212.5</ele>
        <time>2022-08-13T08:17:10Z</time>
      </trkpt>
      <trkpt lat="44.94233" lon="0.82491">
        <ele>212.4</ele>
        <time>2022-08-13T08:17:12Z</time>
      </trkpt>
      <trkpt lat="44.94234" lon="0.82495">
        <ele>212.3</ele>
        <time>2022-08-13T08:17:13Z</time>
      </trkpt>
      <trkpt lat="44.94235" lon="0.82497">
        <ele>212.1</ele>
        <time>2022-08-13T08:17:17Z</time>
      </trkpt>
      <trkpt lat="44.94251" lon="0.82486">
        <ele>212.1</ele>
        <time>2022-08-13T08:17:23Z</time>
      </trkpt>
      <trkpt lat="44.94262" lon="0.82479">
        <ele>212.4</ele>
        <time>2022-08-13T08:17:27Z</time>
      </trkpt>
      <trkpt lat="44.94284" lon="0.82467">
        <ele>212.7</ele>
        <time>2022-08-13T08:17:33Z</time>
      </trkpt>
      <trkpt lat="44.94285" lon="0.82452">
        <ele>213</ele>
        <time>2022-08-13T08:17:37Z</time>
      </trkpt>
      <trkpt lat="44.94292" lon="0.82425">
        <ele>213.5</ele>
        <time>2022-08-13T08:17:44Z</time>
      </trkpt>
      <trkpt lat="44.94296" lon="0.82408">
        <ele>213.9</ele>
        <time>2022-08-13T08:17:49Z</time>
      </trkpt>
      <trkpt lat="44.94299" lon="0.82399">
        <ele>214.1</ele>
        <time>2022-08-13T08:17:52Z</time>
      </trkpt>
      <trkpt lat="44.943" lon="0.82392">
        <ele>214.3</ele>
        <time>2022-08-13T08:17:54Z</time>
      </trkpt>
      <trkpt lat="44.9431" lon="0.82371">
        <ele>215</ele>
        <time>2022-08-13T08:17:59Z</time>
      </trkpt>
      <trkpt lat="44.94318" lon="0.82351">
        <ele>215.7</ele>
        <time>2022-08-13T08:18:05Z</time>
      </trkpt>
      <trkpt lat="44.94323" lon="0.82325">
        <ele>216.8</ele>
        <time>2022-08-13T08:18:11Z</time>
      </trkpt>
      <trkpt lat="44.94326" lon="0.82294">
        <ele>218.1</ele>
        <time>2022-08-13T08:18:19Z</time>
      </trkpt>
      <trkpt lat="44.94329" lon="0.82268">
        <ele>219.6</ele>
        <time>2022-08-13T08:18:26Z</time>
      </trkpt>
      <trkpt lat="44.94332" lon="0.82241">
        <ele>220.9</ele>
        <time>2022-08-13T08:18:33Z</time>
      </trkpt>
      <trkpt lat="44.94335" lon="0.8221">
        <ele>222.1</ele>
        <time>2022-08-13T08:18:41Z</time>
      </trkpt>
      <trkpt lat="44.94339" lon="0.82197">
        <ele>222.8</ele>
        <time>2022-08-13T08:18:45Z</time>
      </trkpt>
      <trkpt lat="44.94345" lon="0.82193">
        <ele>223.3</ele>
        <time>2022-08-13T08:18:47Z</time>
      </trkpt>
      <trkpt lat="44.94354" lon="0.82202">
        <ele>223.6</ele>
        <time>2022-08-13T08:18:52Z</time>
      </trkpt>
      <trkpt lat="44.94368" lon="0.82215">
        <ele>224.1</ele>
        <time>2022-08-13T08:18:59Z</time>
      </trkpt>
      <trkpt lat="44.94386" lon="0.82231">
        <ele>224.5</ele>
        <time>2022-08-13T08:19:07Z</time>
      </trkpt>
      <trkpt lat="44.94398" lon="0.82234">
        <ele>224.4</ele>
        <time>2022-08-13T08:19:12Z</time>
      </trkpt>
      <trkpt lat="44.94405" lon="0.82222">
        <ele>224.2</ele>
        <time>2022-08-13T08:19:17Z</time>
      </trkpt>
      <trkpt lat="44.94417" lon="0.82203">
        <ele>224.5</ele>
        <time>2022-08-13T08:19:24Z</time>
      </trkpt>
      <trkpt lat="44.94433" lon="0.82181">
        <ele>224.6</ele>
        <time>2022-08-13T08:19:32Z</time>
      </trkpt>
      <trkpt lat="44.94448" lon="0.8217">
        <ele>224.3</ele>
        <time>2022-08-13T08:19:39Z</time>
      </trkpt>
      <trkpt lat="44.9446" lon="0.82162">
        <ele>224.4</ele>
        <time>2022-08-13T08:19:44Z</time>
      </trkpt>
      <trkpt lat="44.94467" lon="0.82156">
        <ele>224.5</ele>
        <time>2022-08-13T08:19:47Z</time>
      </trkpt>
      <trkpt lat="44.94472" lon="0.82153">
        <ele>224.5</ele>
        <time>2022-08-13T08:19:49Z</time>
      </trkpt>
      <trkpt lat="44.94493" lon="0.82136">
        <ele>224.8</ele>
        <time>2022-08-13T08:19:58Z</time>
      </trkpt>
      <trkpt lat="44.94502" lon="0.82125">
        <ele>225.4</ele>
        <time>2022-08-13T08:20:03Z</time>
      </trkpt>
      <trkpt lat="44.94512" lon="0.82113">
        <ele>225.7</ele>
        <time>2022-08-13T08:20:08Z</time>
      </trkpt>
      <trkpt lat="44.94523" lon="0.82088">
        <ele>226</ele>
        <time>2022-08-13T08:20:16Z</time>
      </trkpt>
      <trkpt lat="44.94535" lon="0.82062">
        <ele>226.1</ele>
        <time>2022-08-13T08:20:25Z</time>
      </trkpt>
      <trkpt lat="44.94544" lon="0.82043">
        <ele>225.8</ele>
        <time>2022-08-13T08:20:32Z</time>
      </trkpt>
      <trkpt lat="44.94554" lon="0.82026">
        <ele>225.1</ele>
        <time>2022-08-13T08:20:38Z</time>
      </trkpt>
      <trkpt lat="44.94557" lon="0.82022">
        <ele>225</ele>
        <time>2022-08-13T08:20:42Z</time>
      </trkpt>
      <trkpt lat="44.94564" lon="0.82014">
        <ele>224.5</ele>
        <time>2022-08-13T08:24:49Z</time>
      </trkpt>
      <trkpt lat="44.94573" lon="0.82001">
        <ele>223.7</ele>
        <time>2022-08-13T08:24:55Z</time>
      </trkpt>
      <trkpt lat="44.94585" lon="0.81983">
        <ele>222.3</ele>
        <time>2022-08-13T08:25:01Z</time>
      </trkpt>
      <trkpt lat="44.94592" lon="0.81957">
        <ele>221</ele>
        <time>2022-08-13T08:25:08Z</time>
      </trkpt>
      <trkpt lat="44.94609" lon="0.81939">
        <ele>220</ele>
        <time>2022-08-13T08:25:14Z</time>
      </trkpt>
      <trkpt lat="44.94624" lon="0.81904">
        <ele>217.8</ele>
        <time>2022-08-13T08:25:22Z</time>
      </trkpt>
      <trkpt lat="44.94631" lon="0.81888">
        <ele>216.9</ele>
        <time>2022-08-13T08:25:25Z</time>
      </trkpt>
      <trkpt lat="44.94637" lon="0.81872">
        <ele>216</ele>
        <time>2022-08-13T08:25:28Z</time>
      </trkpt>
      <trkpt lat="44.9464" lon="0.81866">
        <ele>215.8</ele>
        <time>2022-08-13T08:25:29Z</time>
      </trkpt>
      <trkpt lat="44.94652" lon="0.81838">
        <ele>215.1</ele>
        <time>2022-08-13T08:25:34Z</time>
      </trkpt>
      <trkpt lat="44.94654" lon="0.81835">
        <ele>215</ele>
        <time>2022-08-13T08:25:35Z</time>
      </trkpt>
      <trkpt lat="44.9466" lon="0.81838">
        <ele>214.8</ele>
        <time>2022-08-13T08:25:37Z</time>
      </trkpt>
      <trkpt lat="44.94662" lon="0.81842">
        <ele>214.7</ele>
        <time>2022-08-13T08:25:38Z</time>
      </trkpt>
      <trkpt lat="44.94666" lon="0.81849">
        <ele>214.4</ele>
        <time>2022-08-13T08:25:40Z</time>
      </trkpt>
      <trkpt lat="44.94675" lon="0.81866">
        <ele>213.3</ele>
        <time>2022-08-13T08:25:45Z</time>
      </trkpt>
      <trkpt lat="44.94678" lon="0.81871">
        <ele>213</ele>
        <time>2022-08-13T08:25:46Z</time>
      </trkpt>
      <trkpt lat="44.94682" lon="0.81881">
        <ele>212.2</ele>
        <time>2022-08-13T08:25:48Z</time>
      </trkpt>
      <trkpt lat="44.94688" lon="0.81905">
        <ele>211.8</ele>
        <time>2022-08-13T08:25:52Z</time>
      </trkpt>
      <trkpt lat="44.94689" lon="0.81911">
        <ele>211.8</ele>
        <time>2022-08-13T08:25:53Z</time>
      </trkpt>
      <trkpt lat="44.94691" lon="0.81918">
        <ele>211.8</ele>
        <time>2022-08-13T08:25:54Z</time>
      </trkpt>
      <trkpt lat="44.94691" lon="0.81934">
        <ele>211.6</ele>
        <time>2022-08-13T08:25:56Z</time>
      </trkpt>
      <trkpt lat="44.9469" lon="0.81957">
        <ele>211.6</ele>
        <time>2022-08-13T08:26:00Z</time>
      </trkpt>
      <trkpt lat="44.9469" lon="0.81977">
        <ele>211.8</ele>
        <time>2022-08-13T08:26:03Z</time>
      </trkpt>
      <trkpt lat="44.9469" lon="0.81983">
        <ele>211.7</ele>
        <time>2022-08-13T08:26:04Z</time>
      </trkpt>
      <trkpt lat="44.94689" lon="0.82003">
        <ele>211.1</ele>
        <time>2022-08-13T08:26:07Z</time>
      </trkpt>
      <trkpt lat="44.94698" lon="0.82018">
        <ele>210.2</ele>
        <time>2022-08-13T08:26:08Z</time>
      </trkpt>
      <trkpt lat="44.94698" lon="0.8204">
        <ele>210.9</ele>
        <time>2022-08-13T08:26:11Z</time>
      </trkpt>
      <trkpt lat="44.94698" lon="0.82047">
        <ele>211.1</ele>
        <time>2022-08-13T08:26:12Z</time>
      </trkpt>
      <trkpt lat="44.94703" lon="0.82072">
        <ele>211.8</ele>
        <time>2022-08-13T08:26:17Z</time>
      </trkpt>
      <trkpt lat="44.9471" lon="0.82091">
        <ele>212.3</ele>
        <time>2022-08-13T08:26:22Z</time>
      </trkpt>
      <trkpt lat="44.94714" lon="0.821">
        <ele>212.4</ele>
        <time>2022-08-13T08:26:25Z</time>
      </trkpt>
      <trkpt lat="44.94717" lon="0.8211">
        <ele>212.4</ele>
        <time>2022-08-13T08:26:28Z</time>
      </trkpt>
      <trkpt lat="44.9472" lon="0.82113">
        <ele>212.4</ele>
        <time>2022-08-13T08:26:29Z</time>
      </trkpt>
      <trkpt lat="44.94729" lon="0.82124">
        <ele>212.3</ele>
        <time>2022-08-13T08:26:32Z</time>
      </trkpt>
      <trkpt lat="44.94742" lon="0.82139">
        <ele>211.7</ele>
        <time>2022-08-13T08:26:37Z</time>
      </trkpt>
      <trkpt lat="44.94756" lon="0.82157">
        <ele>210.9</ele>
        <time>2022-08-13T08:26:42Z</time>
      </trkpt>
      <trkpt lat="44.94762" lon="0.82165">
        <ele>210.6</ele>
        <time>2022-08-13T08:26:44Z</time>
      </trkpt>
      <trkpt lat="44.94773" lon="0.82178">
        <ele>210</ele>
        <time>2022-08-13T08:26:47Z</time>
      </trkpt>
      <trkpt lat="44.94793" lon="0.82202">
        <ele>209</ele>
        <time>2022-08-13T08:26:53Z</time>
      </trkpt>
      <trkpt lat="44.94806" lon="0.82218">
        <ele>208.4</ele>
        <time>2022-08-13T08:26:58Z</time>
      </trkpt>
      <trkpt lat="44.94815" lon="0.82234">
        <ele>207.9</ele>
        <time>2022-08-13T08:27:02Z</time>
      </trkpt>
      <trkpt lat="44.94831" lon="0.8226">
        <ele>207.1</ele>
        <time>2022-08-13T08:27:07Z</time>
      </trkpt>
      <trkpt lat="44.94839" lon="0.82278">
        <ele>206.8</ele>
        <time>2022-08-13T08:27:10Z</time>
      </trkpt>
      <trkpt lat="44.94841" lon="0.82284">
        <ele>206.7</ele>
        <time>2022-08-13T08:27:11Z</time>
      </trkpt>
      <trkpt lat="44.94846" lon="0.82307">
        <ele>206.3</ele>
        <time>2022-08-13T08:27:14Z</time>
      </trkpt>
      <trkpt lat="44.94848" lon="0.82321">
        <ele>206.2</ele>
        <time>2022-08-13T08:27:16Z</time>
      </trkpt>
      <trkpt lat="44.94851" lon="0.82351">
        <ele>206</ele>
        <time>2022-08-13T08:27:20Z</time>
      </trkpt>
      <trkpt lat="44.94851" lon="0.82358">
        <ele>206.1</ele>
        <time>2022-08-13T08:27:21Z</time>
      </trkpt>
      <trkpt lat="44.94852" lon="0.82364">
        <ele>206.1</ele>
        <time>2022-08-13T08:27:22Z</time>
      </trkpt>
      <trkpt lat="44.94852" lon="0.82375">
        <ele>206.1</ele>
        <time>2022-08-13T08:27:24Z</time>
      </trkpt>
      <trkpt lat="44.94852" lon="0.82381">
        <ele>206.2</ele>
        <time>2022-08-13T08:27:25Z</time>
      </trkpt>
      <trkpt lat="44.94852" lon="0.82384">
        <ele>206.2</ele>
        <time>2022-08-13T08:27:26Z</time>
      </trkpt>
      <trkpt lat="44.94851" lon="0.82404">
        <ele>206.2</ele>
        <time>2022-08-13T08:27:30Z</time>
      </trkpt>
      <trkpt lat="44.94846" lon="0.82437">
        <ele>206.6</ele>
        <time>2022-08-13T08:27:37Z</time>
      </trkpt>
      <trkpt lat="44.9484" lon="0.82463">
        <ele>207.1</ele>
        <time>2022-08-13T08:27:44Z</time>
      </trkpt>
      <trkpt lat="44.94831" lon="0.82494">
        <ele>207.6</ele>
        <time>2022-08-13T08:27:53Z</time>
      </trkpt>
      <trkpt lat="44.94872" lon="0.82544">
        <ele>209.9</ele>
        <time>2022-08-13T08:28:00Z</time>
      </trkpt>
      <trkpt lat="44.94875" lon="0.82574">
        <ele>209.7</ele>
        <time>2022-08-13T08:28:08Z</time>
      </trkpt>
      <trkpt lat="44.9488" lon="0.82596">
        <ele>209.3</ele>
        <time>2022-08-13T08:28:14Z</time>
      </trkpt>
      <trkpt lat="44.94889" lon="0.82617">
        <ele>208.7</ele>
        <time>2022-08-13T08:28:21Z</time>
      </trkpt>
      <trkpt lat="44.94893" lon="0.82629">
        <ele>207.9</ele>
        <time>2022-08-13T08:28:26Z</time>
      </trkpt>
      <trkpt lat="44.94895" lon="0.8263">
        <ele>207</ele>
        <time>2022-08-13T08:28:27Z</time>
      </trkpt>
      <trkpt lat="44.949" lon="0.8264">
        <ele>206.2</ele>
        <time>2022-08-13T08:28:29Z</time>
      </trkpt>
      <trkpt lat="44.94906" lon="0.82624">
        <ele>206</ele>
        <time>2022-08-13T08:28:32Z</time>
      </trkpt>
      <trkpt lat="44.94913" lon="0.82607">
        <ele>205.7</ele>
        <time>2022-08-13T08:28:37Z</time>
      </trkpt>
      <trkpt lat="44.9492" lon="0.82592">
        <ele>205.5</ele>
        <time>2022-08-13T08:28:41Z</time>
      </trkpt>
      <trkpt lat="44.94936" lon="0.82572">
        <ele>205</ele>
        <time>2022-08-13T08:28:46Z</time>
      </trkpt>
      <trkpt lat="44.94957" lon="0.82557">
        <ele>204.6</ele>
        <time>2022-08-13T08:28:52Z</time>
      </trkpt>
      <trkpt lat="44.9496" lon="0.82556">
        <ele>204.5</ele>
        <time>2022-08-13T08:28:53Z</time>
      </trkpt>
      <trkpt lat="44.94963" lon="0.82559">
        <ele>204.5</ele>
        <time>2022-08-13T08:28:55Z</time>
      </trkpt>
      <trkpt lat="44.94972" lon="0.82567">
        <ele>204.2</ele>
        <time>2022-08-13T08:28:59Z</time>
      </trkpt>
      <trkpt lat="44.94982" lon="0.82576">
        <ele>204</ele>
        <time>2022-08-13T08:29:02Z</time>
      </trkpt>
      <trkpt lat="44.94988" lon="0.82583">
        <ele>203.9</ele>
        <time>2022-08-13T08:29:04Z</time>
      </trkpt>
      <trkpt lat="44.94993" lon="0.82587">
        <ele>203.8</ele>
        <time>2022-08-13T08:29:05Z</time>
      </trkpt>
      <trkpt lat="44.95008" lon="0.82599">
        <ele>203.4</ele>
        <time>2022-08-13T08:29:08Z</time>
      </trkpt>
      <trkpt lat="44.95013" lon="0.82603">
        <ele>203.3</ele>
        <time>2022-08-13T08:29:09Z</time>
      </trkpt>
      <trkpt lat="44.95042" lon="0.8262">
        <ele>202.7</ele>
        <time>2022-08-13T08:29:13Z</time>
      </trkpt>
      <trkpt lat="44.95065" lon="0.82634">
        <ele>202.2</ele>
        <time>2022-08-13T08:29:16Z</time>
      </trkpt>
      <trkpt lat="44.95069" lon="0.82636">
        <ele>202.1</ele>
        <time>2022-08-13T08:29:18Z</time>
      </trkpt>
      <trkpt lat="44.95069" lon="0.82636">
        <ele>202.1</ele>
        <time>2022-08-13T08:29:19Z</time>
      </trkpt>
      <trkpt lat="44.95076" lon="0.8264">
        <ele>202</ele>
        <time>2022-08-13T08:29:24Z</time>
      </trkpt>
      <trkpt lat="44.95076" lon="0.8264">
        <ele>202</ele>
        <time>2022-08-13T08:29:25Z</time>
      </trkpt>
      <trkpt lat="44.95072" lon="0.82661">
        <ele>201</ele>
        <time>2022-08-13T08:29:27Z</time>
      </trkpt>
      <trkpt lat="44.95072" lon="0.82668">
        <ele>201</ele>
        <time>2022-08-13T08:29:29Z</time>
      </trkpt>
      <trkpt lat="44.95072" lon="0.8268">
        <ele>199.8</ele>
        <time>2022-08-13T08:29:31Z</time>
      </trkpt>
      <trkpt lat="44.95069" lon="0.82682">
        <ele>201</ele>
        <time>2022-08-13T08:29:32Z</time>
      </trkpt>
      <trkpt lat="44.95069" lon="0.82689">
        <ele>201</ele>
        <time>2022-08-13T08:29:34Z</time>
      </trkpt>
      <trkpt lat="44.9507" lon="0.82702">
        <ele>199.8</ele>
        <time>2022-08-13T08:29:37Z</time>
      </trkpt>
      <trkpt lat="44.95078" lon="0.82722">
        <ele>197.1</ele>
        <time>2022-08-13T08:29:41Z</time>
      </trkpt>
      <trkpt lat="44.95082" lon="0.8273">
        <ele>196.1</ele>
        <time>2022-08-13T08:29:42Z</time>
      </trkpt>
      <trkpt lat="44.95088" lon="0.82739">
        <ele>194</ele>
        <time>2022-08-13T08:29:44Z</time>
      </trkpt>
      <trkpt lat="44.95106" lon="0.8276">
        <ele>190.5</ele>
        <time>2022-08-13T08:29:48Z</time>
      </trkpt>
      <trkpt lat="44.95115" lon="0.82773">
        <ele>189.1</ele>
        <time>2022-08-13T08:29:51Z</time>
      </trkpt>
      <trkpt lat="44.95119" lon="0.82777">
        <ele>188.6</ele>
        <time>2022-08-13T08:29:52Z</time>
      </trkpt>
      <trkpt lat="44.95128" lon="0.82786">
        <ele>187.4</ele>
        <time>2022-08-13T08:29:54Z</time>
      </trkpt>
      <trkpt lat="44.95129" lon="0.82786">
        <ele>187.4</ele>
        <time>2022-08-13T08:29:56Z</time>
      </trkpt>
      <trkpt lat="44.95146" lon="0.828">
        <ele>185.9</ele>
        <time>2022-08-13T08:30:36Z</time>
      </trkpt>
      <trkpt lat="44.95152" lon="0.82805">
        <ele>185.9</ele>
        <time>2022-08-13T08:30:38Z</time>
      </trkpt>
      <trkpt lat="44.95156" lon="0.8281">
        <ele>185.7</ele>
        <time>2022-08-13T08:30:41Z</time>
      </trkpt>
      <trkpt lat="44.95157" lon="0.82812">
        <ele>185.7</ele>
        <time>2022-08-13T08:30:42Z</time>
      </trkpt>
      <trkpt lat="44.95161" lon="0.82815">
        <ele>185.7</ele>
        <time>2022-08-13T08:30:45Z</time>
      </trkpt>
      <trkpt lat="44.95155" lon="0.82825">
        <ele>185.6</ele>
        <time>2022-08-13T08:30:48Z</time>
      </trkpt>
      <trkpt lat="44.95153" lon="0.82831">
        <ele>185.3</ele>
        <time>2022-08-13T08:30:50Z</time>
      </trkpt>
      <trkpt lat="44.95156" lon="0.82834">
        <ele>185.3</ele>
        <time>2022-08-13T08:30:51Z</time>
      </trkpt>
      <trkpt lat="44.95157" lon="0.82844">
        <ele>185.1</ele>
        <time>2022-08-13T08:30:54Z</time>
      </trkpt>
      <trkpt lat="44.95157" lon="0.82853">
        <ele>185</ele>
        <time>2022-08-13T08:30:56Z</time>
      </trkpt>
      <trkpt lat="44.95157" lon="0.82867">
        <ele>184.9</ele>
        <time>2022-08-13T08:31:00Z</time>
      </trkpt>
      <trkpt lat="44.95157" lon="0.82877">
        <ele>184.8</ele>
        <time>2022-08-13T08:31:03Z</time>
      </trkpt>
      <trkpt lat="44.95156" lon="0.8288">
        <ele>184.9</ele>
        <time>2022-08-13T08:31:04Z</time>
      </trkpt>
      <trkpt lat="44.95157" lon="0.82885">
        <ele>184.9</ele>
        <time>2022-08-13T08:31:05Z</time>
      </trkpt>
      <trkpt lat="44.95159" lon="0.8289">
        <ele>184.8</ele>
        <time>2022-08-13T08:31:07Z</time>
      </trkpt>
      <trkpt lat="44.9516" lon="0.82899">
        <ele>185</ele>
        <time>2022-08-13T08:31:10Z</time>
      </trkpt>
      <trkpt lat="44.9516" lon="0.82902">
        <ele>185</ele>
        <time>2022-08-13T08:31:11Z</time>
      </trkpt>
      <trkpt lat="44.95156" lon="0.82915">
        <ele>185.3</ele>
        <time>2022-08-13T08:31:15Z</time>
      </trkpt>
      <trkpt lat="44.9516" lon="0.82924">
        <ele>185.3</ele>
        <time>2022-08-13T08:31:17Z</time>
      </trkpt>
      <trkpt lat="44.95164" lon="0.82936">
        <ele>185.6</ele>
        <time>2022-08-13T08:31:19Z</time>
      </trkpt>
      <trkpt lat="44.9517" lon="0.82952">
        <ele>186.5</ele>
        <time>2022-08-13T08:31:22Z</time>
      </trkpt>
      <trkpt lat="44.95171" lon="0.82962">
        <ele>186.5</ele>
        <time>2022-08-13T08:31:24Z</time>
      </trkpt>
      <trkpt lat="44.9518" lon="0.82975">
        <ele>186.8</ele>
        <time>2022-08-13T08:31:27Z</time>
      </trkpt>
      <trkpt lat="44.95177" lon="0.82978">
        <ele>186.8</ele>
        <time>2022-08-13T08:31:28Z</time>
      </trkpt>
      <trkpt lat="44.95188" lon="0.82988">
        <ele>187.3</ele>
        <time>2022-08-13T08:31:31Z</time>
      </trkpt>
      <trkpt lat="44.95191" lon="0.8299">
        <ele>187.3</ele>
        <time>2022-08-13T08:31:32Z</time>
      </trkpt>
      <trkpt lat="44.95194" lon="0.82996">
        <ele>187.6</ele>
        <time>2022-08-13T08:31:35Z</time>
      </trkpt>
      <trkpt lat="44.95203" lon="0.83001">
        <ele>188.1</ele>
        <time>2022-08-13T08:31:38Z</time>
      </trkpt>
      <trkpt lat="44.95205" lon="0.83006">
        <ele>188.5</ele>
        <time>2022-08-13T08:31:39Z</time>
      </trkpt>
      <trkpt lat="44.95206" lon="0.8301">
        <ele>188.5</ele>
        <time>2022-08-13T08:31:41Z</time>
      </trkpt>
      <trkpt lat="44.95207" lon="0.83019">
        <ele>188.6</ele>
        <time>2022-08-13T08:31:45Z</time>
      </trkpt>
      <trkpt lat="44.95209" lon="0.83025">
        <ele>188.6</ele>
        <time>2022-08-13T08:31:47Z</time>
      </trkpt>
      <trkpt lat="44.95208" lon="0.83031">
        <ele>188.6</ele>
        <time>2022-08-13T08:31:49Z</time>
      </trkpt>
      <trkpt lat="44.95208" lon="0.83047">
        <ele>188.8</ele>
        <time>2022-08-13T08:31:54Z</time>
      </trkpt>
      <trkpt lat="44.95208" lon="0.83055">
        <ele>189.5</ele>
        <time>2022-08-13T08:31:57Z</time>
      </trkpt>
      <trkpt lat="44.95208" lon="0.83058">
        <ele>189.5</ele>
        <time>2022-08-13T08:31:58Z</time>
      </trkpt>
      <trkpt lat="44.95209" lon="0.83061">
        <ele>189.5</ele>
        <time>2022-08-13T08:31:59Z</time>
      </trkpt>
      <trkpt lat="44.9521" lon="0.83067">
        <ele>190.5</ele>
        <time>2022-08-13T08:32:01Z</time>
      </trkpt>
      <trkpt lat="44.9521" lon="0.8308">
        <ele>190.5</ele>
        <time>2022-08-13T08:32:05Z</time>
      </trkpt>
      <trkpt lat="44.95211" lon="0.83091">
        <ele>191.6</ele>
        <time>2022-08-13T08:32:09Z</time>
      </trkpt>
      <trkpt lat="44.95212" lon="0.83097">
        <ele>191.6</ele>
        <time>2022-08-13T08:32:11Z</time>
      </trkpt>
      <trkpt lat="44.95212" lon="0.83104">
        <ele>192.4</ele>
        <time>2022-08-13T08:32:13Z</time>
      </trkpt>
      <trkpt lat="44.95213" lon="0.83113">
        <ele>192.4</ele>
        <time>2022-08-13T08:32:17Z</time>
      </trkpt>
      <trkpt lat="44.95215" lon="0.83122">
        <ele>192.7</ele>
        <time>2022-08-13T08:32:20Z</time>
      </trkpt>
      <trkpt lat="44.95219" lon="0.83129">
        <ele>193.3</ele>
        <time>2022-08-13T08:32:22Z</time>
      </trkpt>
      <trkpt lat="44.9522" lon="0.83133">
        <ele>193.3</ele>
        <time>2022-08-13T08:32:23Z</time>
      </trkpt>
      <trkpt lat="44.95222" lon="0.83145">
        <ele>193.3</ele>
        <time>2022-08-13T08:32:26Z</time>
      </trkpt>
      <trkpt lat="44.95226" lon="0.83162">
        <ele>193.1</ele>
        <time>2022-08-13T08:32:30Z</time>
      </trkpt>
      <trkpt lat="44.95228" lon="0.83164">
        <ele>193.1</ele>
        <time>2022-08-13T08:32:31Z</time>
      </trkpt>
      <trkpt lat="44.95236" lon="0.83172">
        <ele>193.9</ele>
        <time>2022-08-13T08:32:34Z</time>
      </trkpt>
      <trkpt lat="44.95239" lon="0.83177">
        <ele>193.9</ele>
        <time>2022-08-13T08:32:37Z</time>
      </trkpt>
      <trkpt lat="44.95245" lon="0.83178">
        <ele>195.1</ele>
        <time>2022-08-13T08:32:39Z</time>
      </trkpt>
      <trkpt lat="44.95247" lon="0.83186">
        <ele>195.1</ele>
        <time>2022-08-13T08:32:40Z</time>
      </trkpt>
      <trkpt lat="44.9525" lon="0.83194">
        <ele>194.6</ele>
        <time>2022-08-13T08:32:42Z</time>
      </trkpt>
      <trkpt lat="44.9525" lon="0.83196">
        <ele>194.6</ele>
        <time>2022-08-13T08:32:43Z</time>
      </trkpt>
      <trkpt lat="44.95254" lon="0.83199">
        <ele>195.7</ele>
        <time>2022-08-13T08:32:44Z</time>
      </trkpt>
      <trkpt lat="44.95254" lon="0.83202">
        <ele>195.7</ele>
        <time>2022-08-13T08:32:45Z</time>
      </trkpt>
      <trkpt lat="44.9526" lon="0.83213">
        <ele>194.9</ele>
        <time>2022-08-13T08:32:49Z</time>
      </trkpt>
      <trkpt lat="44.95261" lon="0.83216">
        <ele>194.9</ele>
        <time>2022-08-13T08:32:50Z</time>
      </trkpt>
      <trkpt lat="44.95274" lon="0.8323">
        <ele>194.7</ele>
        <time>2022-08-13T08:32:54Z</time>
      </trkpt>
      <trkpt lat="44.95276" lon="0.83238">
        <ele>194.6</ele>
        <time>2022-08-13T08:32:56Z</time>
      </trkpt>
      <trkpt lat="44.95277" lon="0.83242">
        <ele>193.7</ele>
        <time>2022-08-13T08:32:57Z</time>
      </trkpt>
      <trkpt lat="44.95283" lon="0.83258">
        <ele>192.9</ele>
        <time>2022-08-13T08:33:01Z</time>
      </trkpt>
      <trkpt lat="44.95287" lon="0.83259">
        <ele>192.8</ele>
        <time>2022-08-13T08:33:02Z</time>
      </trkpt>
      <trkpt lat="44.95291" lon="0.83262">
        <ele>193</ele>
        <time>2022-08-13T08:33:04Z</time>
      </trkpt>
      <trkpt lat="44.95299" lon="0.8327">
        <ele>193</ele>
        <time>2022-08-13T08:33:07Z</time>
      </trkpt>
      <trkpt lat="44.95303" lon="0.83276">
        <ele>192.5</ele>
        <time>2022-08-13T08:33:08Z</time>
      </trkpt>
      <trkpt lat="44.95303" lon="0.8328">
        <ele>192.4</ele>
        <time>2022-08-13T08:33:09Z</time>
      </trkpt>
      <trkpt lat="44.95305" lon="0.83287">
        <ele>192.4</ele>
        <time>2022-08-13T08:33:11Z</time>
      </trkpt>
      <trkpt lat="44.95308" lon="0.8329">
        <ele>192.4</ele>
        <time>2022-08-13T08:33:12Z</time>
      </trkpt>
      <trkpt lat="44.95313" lon="0.83298">
        <ele>191.4</ele>
        <time>2022-08-13T08:33:14Z</time>
      </trkpt>
      <trkpt lat="44.95313" lon="0.83302">
        <ele>191.4</ele>
        <time>2022-08-13T08:33:15Z</time>
      </trkpt>
      <trkpt lat="44.95317" lon="0.83311">
        <ele>190.8</ele>
        <time>2022-08-13T08:33:17Z</time>
      </trkpt>
      <trkpt lat="44.95323" lon="0.83319">
        <ele>190.8</ele>
        <time>2022-08-13T08:33:19Z</time>
      </trkpt>
      <trkpt lat="44.95322" lon="0.83323">
        <ele>190.8</ele>
        <time>2022-08-13T08:33:20Z</time>
      </trkpt>
      <trkpt lat="44.95329" lon="0.83343">
        <ele>189.8</ele>
        <time>2022-08-13T08:33:24Z</time>
      </trkpt>
      <trkpt lat="44.95331" lon="0.83347">
        <ele>189.8</ele>
        <time>2022-08-13T08:33:25Z</time>
      </trkpt>
      <trkpt lat="44.95334" lon="0.83354">
        <ele>189.8</ele>
        <time>2022-08-13T08:33:27Z</time>
      </trkpt>
      <trkpt lat="44.95338" lon="0.83361">
        <ele>190</ele>
        <time>2022-08-13T08:33:30Z</time>
      </trkpt>
      <trkpt lat="44.95343" lon="0.83362">
        <ele>189.4</ele>
        <time>2022-08-13T08:33:31Z</time>
      </trkpt>
      <trkpt lat="44.95351" lon="0.83358">
        <ele>190.1</ele>
        <time>2022-08-13T08:33:34Z</time>
      </trkpt>
      <trkpt lat="44.95364" lon="0.83353">
        <ele>190.8</ele>
        <time>2022-08-13T08:33:37Z</time>
      </trkpt>
      <trkpt lat="44.95368" lon="0.83355">
        <ele>190.8</ele>
        <time>2022-08-13T08:33:39Z</time>
      </trkpt>
      <trkpt lat="44.95381" lon="0.83369">
        <ele>190.3</ele>
        <time>2022-08-13T08:33:46Z</time>
      </trkpt>
      <trkpt lat="44.95392" lon="0.8338">
        <ele>189.9</ele>
        <time>2022-08-13T08:33:52Z</time>
      </trkpt>
      <trkpt lat="44.95401" lon="0.83387">
        <ele>190.5</ele>
        <time>2022-08-13T08:33:57Z</time>
      </trkpt>
      <trkpt lat="44.95409" lon="0.83396">
        <ele>189.9</ele>
        <time>2022-08-13T08:34:03Z</time>
      </trkpt>
      <trkpt lat="44.95418" lon="0.83409">
        <ele>190.6</ele>
        <time>2022-08-13T08:34:09Z</time>
      </trkpt>
      <trkpt lat="44.95429" lon="0.83428">
        <ele>190.8</ele>
        <time>2022-08-13T08:34:17Z</time>
      </trkpt>
      <trkpt lat="44.95438" lon="0.83443">
        <ele>191.7</ele>
        <time>2022-08-13T08:34:24Z</time>
      </trkpt>
      <trkpt lat="44.95445" lon="0.83454">
        <ele>191.7</ele>
        <time>2022-08-13T08:34:29Z</time>
      </trkpt>
      <trkpt lat="44.95455" lon="0.8346">
        <ele>192.6</ele>
        <time>2022-08-13T08:34:35Z</time>
      </trkpt>
      <trkpt lat="44.95458" lon="0.8346">
        <ele>192.6</ele>
        <time>2022-08-13T08:34:37Z</time>
      </trkpt>
      <trkpt lat="44.95463" lon="0.83459">
        <ele>193.3</ele>
        <time>2022-08-13T08:34:40Z</time>
      </trkpt>
      <trkpt lat="44.95474" lon="0.83459">
        <ele>193.8</ele>
        <time>2022-08-13T08:34:47Z</time>
      </trkpt>
      <trkpt lat="44.95488" lon="0.8346">
        <ele>194.1</ele>
        <time>2022-08-13T08:34:55Z</time>
      </trkpt>
      <trkpt lat="44.95496" lon="0.83461">
        <ele>194.1</ele>
        <time>2022-08-13T08:35:00Z</time>
      </trkpt>
      <trkpt lat="44.95508" lon="0.83464">
        <ele>194.6</ele>
        <time>2022-08-13T08:35:08Z</time>
      </trkpt>
      <trkpt lat="44.95519" lon="0.83467">
        <ele>195.6</ele>
        <time>2022-08-13T08:35:15Z</time>
      </trkpt>
      <trkpt lat="44.9553" lon="0.83472">
        <ele>196.8</ele>
        <time>2022-08-13T08:35:23Z</time>
      </trkpt>
      <trkpt lat="44.95541" lon="0.83477">
        <ele>198.3</ele>
        <time>2022-08-13T08:35:30Z</time>
      </trkpt>
      <trkpt lat="44.95551" lon="0.83482">
        <ele>199.8</ele>
        <time>2022-08-13T08:35:38Z</time>
      </trkpt>
      <trkpt lat="44.95564" lon="0.83488">
        <ele>202.1</ele>
        <time>2022-08-13T08:35:48Z</time>
      </trkpt>
      <trkpt lat="44.95575" lon="0.83495">
        <ele>204.2</ele>
        <time>2022-08-13T08:35:56Z</time>
      </trkpt>
      <trkpt lat="44.95584" lon="0.835">
        <ele>206.9</ele>
        <time>2022-08-13T08:36:03Z</time>
      </trkpt>
      <trkpt lat="44.95592" lon="0.83505">
        <ele>206.8</ele>
        <time>2022-08-13T08:36:09Z</time>
      </trkpt>
      <trkpt lat="44.95604" lon="0.83512">
        <ele>209</ele>
        <time>2022-08-13T08:36:18Z</time>
      </trkpt>
      <trkpt lat="44.95613" lon="0.83518">
        <ele>211.2</ele>
        <time>2022-08-13T08:36:25Z</time>
      </trkpt>
      <trkpt lat="44.95624" lon="0.83522">
        <ele>213.4</ele>
        <time>2022-08-13T08:36:33Z</time>
      </trkpt>
      <trkpt lat="44.95635" lon="0.83525">
        <ele>215.4</ele>
        <time>2022-08-13T08:36:41Z</time>
      </trkpt>
      <trkpt lat="44.95647" lon="0.8353">
        <ele>217.4</ele>
        <time>2022-08-13T08:36:50Z</time>
      </trkpt>
      <trkpt lat="44.95656" lon="0.83536">
        <ele>218.7</ele>
        <time>2022-08-13T08:36:57Z</time>
      </trkpt>
      <trkpt lat="44.95667" lon="0.83543">
        <ele>220.5</ele>
        <time>2022-08-13T08:37:04Z</time>
      </trkpt>
      <trkpt lat="44.95678" lon="0.83548">
        <ele>219.9</ele>
        <time>2022-08-13T08:37:12Z</time>
      </trkpt>
      <trkpt lat="44.95689" lon="0.83551">
        <ele>221.1</ele>
        <time>2022-08-13T08:37:20Z</time>
      </trkpt>
      <trkpt lat="44.95694" lon="0.83553">
        <ele>222.1</ele>
        <time>2022-08-13T08:37:26Z</time>
      </trkpt>
      <trkpt lat="44.95694" lon="0.83553">
        <ele>222</ele>
        <time>2022-08-13T08:37:27Z</time>
      </trkpt>
      <trkpt lat="44.95699" lon="0.83555">
        <ele>222</ele>
        <time>2022-08-13T08:37:40Z</time>
      </trkpt>
      <trkpt lat="44.95701" lon="0.83557">
        <ele>222</ele>
        <time>2022-08-13T08:37:42Z</time>
      </trkpt>
      <trkpt lat="44.95715" lon="0.83573">
        <ele>222.9</ele>
        <time>2022-08-13T08:37:47Z</time>
      </trkpt>
      <trkpt lat="44.95717" lon="0.83573">
        <ele>222.9</ele>
        <time>2022-08-13T08:37:50Z</time>
      </trkpt>
      <trkpt lat="44.95718" lon="0.83572">
        <ele>222.9</ele>
        <time>2022-08-13T08:37:52Z</time>
      </trkpt>
      <trkpt lat="44.95725" lon="0.83568">
        <ele>222.9</ele>
        <time>2022-08-13T08:37:58Z</time>
      </trkpt>
      <trkpt lat="44.95735" lon="0.83557">
        <ele>225</ele>
        <time>2022-08-13T08:38:06Z</time>
      </trkpt>
      <trkpt lat="44.9574" lon="0.83548">
        <ele>225.9</ele>
        <time>2022-08-13T08:38:11Z</time>
      </trkpt>
      <trkpt lat="44.95741" lon="0.83545">
        <ele>226.8</ele>
        <time>2022-08-13T08:38:16Z</time>
      </trkpt>
      <trkpt lat="44.95752" lon="0.83535">
        <ele>227.6</ele>
        <time>2022-08-13T08:38:22Z</time>
      </trkpt>
      <trkpt lat="44.95758" lon="0.83523">
        <ele>228.3</ele>
        <time>2022-08-13T08:38:27Z</time>
      </trkpt>
      <trkpt lat="44.9576" lon="0.8352">
        <ele>228.3</ele>
        <time>2022-08-13T08:38:34Z</time>
      </trkpt>
      <trkpt lat="44.95769" lon="0.83513">
        <ele>228.9</ele>
        <time>2022-08-13T08:38:41Z</time>
      </trkpt>
      <trkpt lat="44.95776" lon="0.83511">
        <ele>230</ele>
        <time>2022-08-13T08:38:45Z</time>
      </trkpt>
      <trkpt lat="44.95776" lon="0.83454">
        <ele>230.4</ele>
        <time>2022-08-13T08:38:51Z</time>
      </trkpt>
      <trkpt lat="44.9577" lon="0.834">
        <ele>229.2</ele>
        <time>2022-08-13T08:38:54Z</time>
      </trkpt>
      <trkpt lat="44.95775" lon="0.83392">
        <ele>229</ele>
        <time>2022-08-13T08:38:56Z</time>
      </trkpt>
      <trkpt lat="44.9579" lon="0.83364">
        <ele>228.4</ele>
        <time>2022-08-13T08:39:02Z</time>
      </trkpt>
      <trkpt lat="44.95793" lon="0.83353">
        <ele>228.4</ele>
        <time>2022-08-13T08:39:04Z</time>
      </trkpt>
      <trkpt lat="44.95794" lon="0.8333">
        <ele>228.6</ele>
        <time>2022-08-13T08:39:08Z</time>
      </trkpt>
      <trkpt lat="44.95794" lon="0.83319">
        <ele>228.8</ele>
        <time>2022-08-13T08:39:10Z</time>
      </trkpt>
      <trkpt lat="44.95793" lon="0.83303">
        <ele>229.1</ele>
        <time>2022-08-13T08:39:13Z</time>
      </trkpt>
      <trkpt lat="44.95793" lon="0.83287">
        <ele>229.6</ele>
        <time>2022-08-13T08:39:16Z</time>
      </trkpt>
      <trkpt lat="44.95797" lon="0.83283">
        <ele>230.2</ele>
        <time>2022-08-13T08:39:17Z</time>
      </trkpt>
      <trkpt lat="44.95809" lon="0.83283">
        <ele>231.7</ele>
        <time>2022-08-13T08:39:22Z</time>
      </trkpt>
      <trkpt lat="44.95825" lon="0.8329">
        <ele>233.3</ele>
        <time>2022-08-13T08:39:28Z</time>
      </trkpt>
      <trkpt lat="44.95845" lon="0.83305">
        <ele>235.2</ele>
        <time>2022-08-13T08:39:36Z</time>
      </trkpt>
      <trkpt lat="44.9586" lon="0.83322">
        <ele>236.6</ele>
        <time>2022-08-13T08:39:43Z</time>
      </trkpt>
      <trkpt lat="44.9587" lon="0.83345">
        <ele>237.7</ele>
        <time>2022-08-13T08:39:50Z</time>
      </trkpt>
      <trkpt lat="44.95878" lon="0.83374">
        <ele>238.3</ele>
        <time>2022-08-13T08:39:58Z</time>
      </trkpt>
      <trkpt lat="44.95886" lon="0.83394">
        <ele>237.9</ele>
        <time>2022-08-13T08:40:04Z</time>
      </trkpt>
      <trkpt lat="44.95895" lon="0.83399">
        <ele>237.6</ele>
        <time>2022-08-13T08:40:07Z</time>
      </trkpt>
      <trkpt lat="44.95899" lon="0.834">
        <ele>237.4</ele>
        <time>2022-08-13T08:40:08Z</time>
      </trkpt>
      <trkpt lat="44.95904" lon="0.83401">
        <ele>237.3</ele>
        <time>2022-08-13T08:40:09Z</time>
      </trkpt>
      <trkpt lat="44.95918" lon="0.83402">
        <ele>237</ele>
        <time>2022-08-13T08:40:12Z</time>
      </trkpt>
      <trkpt lat="44.95938" lon="0.83402">
        <ele>237.1</ele>
        <time>2022-08-13T08:40:16Z</time>
      </trkpt>
      <trkpt lat="44.95947" lon="0.83402">
        <ele>237.3</ele>
        <time>2022-08-13T08:40:18Z</time>
      </trkpt>
      <trkpt lat="44.95961" lon="0.834">
        <ele>237.7</ele>
        <time>2022-08-13T08:40:22Z</time>
      </trkpt>
      <trkpt lat="44.95987" lon="0.83397">
        <ele>238.4</ele>
        <time>2022-08-13T08:40:28Z</time>
      </trkpt>
      <trkpt lat="44.95995" lon="0.83394">
        <ele>238.6</ele>
        <time>2022-08-13T08:40:30Z</time>
      </trkpt>
      <trkpt lat="44.96004" lon="0.83394">
        <ele>238.7</ele>
        <time>2022-08-13T08:40:32Z</time>
      </trkpt>
      <trkpt lat="44.96036" lon="0.83403">
        <ele>239.2</ele>
        <time>2022-08-13T08:40:40Z</time>
      </trkpt>
      <trkpt lat="44.96051" lon="0.8341">
        <ele>239.3</ele>
        <time>2022-08-13T08:40:44Z</time>
      </trkpt>
      <trkpt lat="44.96056" lon="0.83411">
        <ele>239.3</ele>
        <time>2022-08-13T08:40:45Z</time>
      </trkpt>
      <trkpt lat="44.96071" lon="0.83412">
        <ele>239.2</ele>
        <time>2022-08-13T08:40:48Z</time>
      </trkpt>
      <trkpt lat="44.9608" lon="0.83413">
        <ele>239.2</ele>
        <time>2022-08-13T08:40:50Z</time>
      </trkpt>
      <trkpt lat="44.96099" lon="0.83415">
        <ele>239.1</ele>
        <time>2022-08-13T08:40:54Z</time>
      </trkpt>
      <trkpt lat="44.96099" lon="0.83415">
        <ele>239</ele>
        <time>2022-08-13T08:40:55Z</time>
      </trkpt>
      <trkpt lat="44.96099" lon="0.83415">
        <ele>238.9</ele>
        <time>2022-08-13T08:40:57Z</time>
      </trkpt>
      <trkpt lat="44.96099" lon="0.83415">
        <ele>238.8</ele>
        <time>2022-08-13T08:41:00Z</time>
      </trkpt>
      <trkpt lat="44.9615" lon="0.83424">
        <ele>238.7</ele>
        <time>2022-08-13T08:41:04Z</time>
      </trkpt>
      <trkpt lat="44.96158" lon="0.83429">
        <ele>238.4</ele>
        <time>2022-08-13T08:41:06Z</time>
      </trkpt>
      <trkpt lat="44.96167" lon="0.83433">
        <ele>238.3</ele>
        <time>2022-08-13T08:41:08Z</time>
      </trkpt>
      <trkpt lat="44.96179" lon="0.8344">
        <ele>238.2</ele>
        <time>2022-08-13T08:41:11Z</time>
      </trkpt>
      <trkpt lat="44.96187" lon="0.83444">
        <ele>238.1</ele>
        <time>2022-08-13T08:41:13Z</time>
      </trkpt>
      <trkpt lat="44.96191" lon="0.83446">
        <ele>237.9</ele>
        <time>2022-08-13T08:41:14Z</time>
      </trkpt>
      <trkpt lat="44.96216" lon="0.83453">
        <ele>237.9</ele>
        <time>2022-08-13T08:41:20Z</time>
      </trkpt>
      <trkpt lat="44.96233" lon="0.83459">
        <ele>237.8</ele>
        <time>2022-08-13T08:41:24Z</time>
      </trkpt>
      <trkpt lat="44.96241" lon="0.83464">
        <ele>237.5</ele>
        <time>2022-08-13T08:41:26Z</time>
      </trkpt>
      <trkpt lat="44.96257" lon="0.83482">
        <ele>237</ele>
        <time>2022-08-13T08:41:31Z</time>
      </trkpt>
      <trkpt lat="44.9627" lon="0.83498">
        <ele>236.4</ele>
        <time>2022-08-13T08:41:35Z</time>
      </trkpt>
      <trkpt lat="44.96278" lon="0.83506">
        <ele>235.9</ele>
        <time>2022-08-13T08:41:37Z</time>
      </trkpt>
      <trkpt lat="44.96303" lon="0.83531">
        <ele>233.5</ele>
        <time>2022-08-13T08:41:43Z</time>
      </trkpt>
      <trkpt lat="44.96321" lon="0.83549">
        <ele>232.2</ele>
        <time>2022-08-13T08:41:47Z</time>
      </trkpt>
      <trkpt lat="44.96323" lon="0.83555">
        <ele>231.3</ele>
        <time>2022-08-13T08:41:48Z</time>
      </trkpt>
      <trkpt lat="44.9633" lon="0.83573">
        <ele>231.1</ele>
        <time>2022-08-13T08:41:51Z</time>
      </trkpt>
      <trkpt lat="44.96334" lon="0.83588">
        <ele>230</ele>
        <time>2022-08-13T08:41:53Z</time>
      </trkpt>
      <trkpt lat="44.96336" lon="0.83606">
        <ele>229.5</ele>
        <time>2022-08-13T08:41:55Z</time>
      </trkpt>
      <trkpt lat="44.96336" lon="0.83625">
        <ele>228.8</ele>
        <time>2022-08-13T08:41:57Z</time>
      </trkpt>
      <trkpt lat="44.96333" lon="0.8366">
        <ele>227.9</ele>
        <time>2022-08-13T08:42:01Z</time>
      </trkpt>
      <trkpt lat="44.96329" lon="0.83674">
        <ele>227.4</ele>
        <time>2022-08-13T08:42:03Z</time>
      </trkpt>
      <trkpt lat="44.96321" lon="0.837">
        <ele>227.1</ele>
        <time>2022-08-13T08:42:07Z</time>
      </trkpt>
      <trkpt lat="44.96315" lon="0.83711">
        <ele>227.1</ele>
        <time>2022-08-13T08:42:09Z</time>
      </trkpt>
      <trkpt lat="44.96306" lon="0.83726">
        <ele>227.4</ele>
        <time>2022-08-13T08:42:12Z</time>
      </trkpt>
      <trkpt lat="44.96302" lon="0.83739">
        <ele>227.6</ele>
        <time>2022-08-13T08:42:14Z</time>
      </trkpt>
      <trkpt lat="44.96301" lon="0.83752">
        <ele>227.5</ele>
        <time>2022-08-13T08:42:16Z</time>
      </trkpt>
      <trkpt lat="44.96299" lon="0.83762">
        <ele>227.8</ele>
        <time>2022-08-13T08:42:18Z</time>
      </trkpt>
      <trkpt lat="44.96302" lon="0.83782">
        <ele>228.1</ele>
        <time>2022-08-13T08:42:22Z</time>
      </trkpt>
      <trkpt lat="44.96306" lon="0.83811">
        <ele>229.3</ele>
        <time>2022-08-13T08:42:27Z</time>
      </trkpt>
      <trkpt lat="44.9631" lon="0.83835">
        <ele>229</ele>
        <time>2022-08-13T08:42:32Z</time>
      </trkpt>
      <trkpt lat="44.9631" lon="0.8384">
        <ele>229.9</ele>
        <time>2022-08-13T08:42:33Z</time>
      </trkpt>
      <trkpt lat="44.96311" lon="0.83848">
        <ele>229.7</ele>
        <time>2022-08-13T08:42:35Z</time>
      </trkpt>
      <trkpt lat="44.96314" lon="0.83856">
        <ele>229.6</ele>
        <time>2022-08-13T08:42:37Z</time>
      </trkpt>
      <trkpt lat="44.96322" lon="0.83865">
        <ele>229.4</ele>
        <time>2022-08-13T08:42:39Z</time>
      </trkpt>
      <trkpt lat="44.9632" lon="0.83871">
        <ele>229.6</ele>
        <time>2022-08-13T08:42:41Z</time>
      </trkpt>
      <trkpt lat="44.96318" lon="0.83878">
        <ele>229.9</ele>
        <time>2022-08-13T08:42:43Z</time>
      </trkpt>
      <trkpt lat="44.96311" lon="0.83899">
        <ele>230.8</ele>
        <time>2022-08-13T08:42:49Z</time>
      </trkpt>
      <trkpt lat="44.96307" lon="0.83909">
        <ele>231.3</ele>
        <time>2022-08-13T08:42:53Z</time>
      </trkpt>
      <trkpt lat="44.96305" lon="0.83915">
        <ele>231.5</ele>
        <time>2022-08-13T08:42:55Z</time>
      </trkpt>
      <trkpt lat="44.96303" lon="0.83923">
        <ele>231.9</ele>
        <time>2022-08-13T08:42:58Z</time>
      </trkpt>
      <trkpt lat="44.96301" lon="0.83927">
        <ele>232</ele>
        <time>2022-08-13T08:43:00Z</time>
      </trkpt>
      <trkpt lat="44.96297" lon="0.83939">
        <ele>232.6</ele>
        <time>2022-08-13T08:43:06Z</time>
      </trkpt>
      <trkpt lat="44.96296" lon="0.83943">
        <ele>232.7</ele>
        <time>2022-08-13T08:43:08Z</time>
      </trkpt>
      <trkpt lat="44.96294" lon="0.83947">
        <ele>232.9</ele>
        <time>2022-08-13T08:43:10Z</time>
      </trkpt>
      <trkpt lat="44.96292" lon="0.83954">
        <ele>233.2</ele>
        <time>2022-08-13T08:43:13Z</time>
      </trkpt>
      <trkpt lat="44.96291" lon="0.83958">
        <ele>233.4</ele>
        <time>2022-08-13T08:43:15Z</time>
      </trkpt>
      <trkpt lat="44.96287" lon="0.83972">
        <ele>234</ele>
        <time>2022-08-13T08:43:21Z</time>
      </trkpt>
      <trkpt lat="44.96283" lon="0.83986">
        <ele>234.6</ele>
        <time>2022-08-13T08:43:27Z</time>
      </trkpt>
      <trkpt lat="44.96276" lon="0.84006">
        <ele>235.4</ele>
        <time>2022-08-13T08:43:35Z</time>
      </trkpt>
      <trkpt lat="44.96271" lon="0.84021">
        <ele>236.1</ele>
        <time>2022-08-13T08:43:41Z</time>
      </trkpt>
      <trkpt lat="44.96265" lon="0.84037">
        <ele>236.8</ele>
        <time>2022-08-13T08:43:48Z</time>
      </trkpt>
      <trkpt lat="44.96258" lon="0.84051">
        <ele>237.4</ele>
        <time>2022-08-13T08:43:54Z</time>
      </trkpt>
      <trkpt lat="44.9625" lon="0.84064">
        <ele>238.1</ele>
        <time>2022-08-13T08:44:00Z</time>
      </trkpt>
      <trkpt lat="44.96242" lon="0.84077">
        <ele>238.8</ele>
        <time>2022-08-13T08:44:06Z</time>
      </trkpt>
      <trkpt lat="44.96233" lon="0.84093">
        <ele>239.6</ele>
        <time>2022-08-13T08:44:13Z</time>
      </trkpt>
      <trkpt lat="44.96225" lon="0.84106">
        <ele>240.3</ele>
        <time>2022-08-13T08:44:19Z</time>
      </trkpt>
      <trkpt lat="44.96224" lon="0.84108">
        <ele>240.3</ele>
        <time>2022-08-13T08:44:20Z</time>
      </trkpt>
      <trkpt lat="44.9622" lon="0.84116">
        <ele>240.7</ele>
        <time>2022-08-13T08:44:23Z</time>
      </trkpt>
      <trkpt lat="44.96213" lon="0.84128">
        <ele>241.3</ele>
        <time>2022-08-13T08:44:28Z</time>
      </trkpt>
      <trkpt lat="44.96206" lon="0.84141">
        <ele>242</ele>
        <time>2022-08-13T08:44:32Z</time>
      </trkpt>
      <trkpt lat="44.96198" lon="0.84154">
        <ele>242.6</ele>
        <time>2022-08-13T08:44:35Z</time>
      </trkpt>
      <trkpt lat="44.96196" lon="0.84158">
        <ele>242.8</ele>
        <time>2022-08-13T08:44:36Z</time>
      </trkpt>
      <trkpt lat="44.96193" lon="0.84163">
        <ele>243.1</ele>
        <time>2022-08-13T08:44:37Z</time>
      </trkpt>
      <trkpt lat="44.96186" lon="0.84174">
        <ele>243.6</ele>
        <time>2022-08-13T08:44:39Z</time>
      </trkpt>
      <trkpt lat="44.96183" lon="0.84178">
        <ele>243.9</ele>
        <time>2022-08-13T08:44:40Z</time>
      </trkpt>
      <trkpt lat="44.96173" lon="0.84196">
        <ele>244.7</ele>
        <time>2022-08-13T08:44:44Z</time>
      </trkpt>
      <trkpt lat="44.9617" lon="0.84201">
        <ele>245</ele>
        <time>2022-08-13T08:44:46Z</time>
      </trkpt>
      <trkpt lat="44.96168" lon="0.84207">
        <ele>245.8</ele>
        <time>2022-08-13T08:44:48Z</time>
      </trkpt>
      <trkpt lat="44.96173" lon="0.84217">
        <ele>246.6</ele>
        <time>2022-08-13T08:44:49Z</time>
      </trkpt>
      <trkpt lat="44.96184" lon="0.84239">
        <ele>247.3</ele>
        <time>2022-08-13T08:44:51Z</time>
      </trkpt>
      <trkpt lat="44.96192" lon="0.84253">
        <ele>247.3</ele>
        <time>2022-08-13T08:44:56Z</time>
      </trkpt>
      <trkpt lat="44.96198" lon="0.84267">
        <ele>247.2</ele>
        <time>2022-08-13T08:45:00Z</time>
      </trkpt>
      <trkpt lat="44.96207" lon="0.84295">
        <ele>247.3</ele>
        <time>2022-08-13T08:45:06Z</time>
      </trkpt>
      <trkpt lat="44.9622" lon="0.84312">
        <ele>247.9</ele>
        <time>2022-08-13T08:45:11Z</time>
      </trkpt>
      <trkpt lat="44.96237" lon="0.84329">
        <ele>248.7</ele>
        <time>2022-08-13T08:45:18Z</time>
      </trkpt>
      <trkpt lat="44.9625" lon="0.84343">
        <ele>249.4</ele>
        <time>2022-08-13T08:45:23Z</time>
      </trkpt>
      <trkpt lat="44.96263" lon="0.84357">
        <ele>250</ele>
        <time>2022-08-13T08:45:28Z</time>
      </trkpt>
      <trkpt lat="44.96276" lon="0.84369">
        <ele>250.4</ele>
        <time>2022-08-13T08:45:33Z</time>
      </trkpt>
      <trkpt lat="44.96278" lon="0.84371">
        <ele>250.4</ele>
        <time>2022-08-13T08:45:36Z</time>
      </trkpt>
      <trkpt lat="44.96288" lon="0.84381">
        <ele>250.6</ele>
        <time>2022-08-13T08:45:43Z</time>
      </trkpt>
      <trkpt lat="44.96294" lon="0.84388">
        <ele>250.6</ele>
        <time>2022-08-13T08:45:46Z</time>
      </trkpt>
      <trkpt lat="44.96308" lon="0.84402">
        <ele>250.5</ele>
        <time>2022-08-13T08:45:52Z</time>
      </trkpt>
      <trkpt lat="44.9632" lon="0.84418">
        <ele>250.4</ele>
        <time>2022-08-13T08:45:57Z</time>
      </trkpt>
      <trkpt lat="44.96331" lon="0.84438">
        <ele>250.3</ele>
        <time>2022-08-13T08:46:02Z</time>
      </trkpt>
      <trkpt lat="44.96343" lon="0.84459">
        <ele>250</ele>
        <time>2022-08-13T08:46:07Z</time>
      </trkpt>
      <trkpt lat="44.96359" lon="0.8448">
        <ele>250</ele>
        <time>2022-08-13T08:46:13Z</time>
      </trkpt>
      <trkpt lat="44.96366" lon="0.8449">
        <ele>250.1</ele>
        <time>2022-08-13T08:46:16Z</time>
      </trkpt>
      <trkpt lat="44.96368" lon="0.84492">
        <ele>250.1</ele>
        <time>2022-08-13T08:46:17Z</time>
      </trkpt>
      <trkpt lat="44.96377" lon="0.84508">
        <ele>250</ele>
        <time>2022-08-13T08:46:21Z</time>
      </trkpt>
      <trkpt lat="44.96385" lon="0.84524">
        <ele>249.9</ele>
        <time>2022-08-13T08:46:25Z</time>
      </trkpt>
      <trkpt lat="44.96396" lon="0.84551">
        <ele>249.4</ele>
        <time>2022-08-13T08:46:31Z</time>
      </trkpt>
      <trkpt lat="44.96407" lon="0.84583">
        <ele>248.9</ele>
        <time>2022-08-13T08:46:38Z</time>
      </trkpt>
      <trkpt lat="44.96414" lon="0.84609">
        <ele>248.5</ele>
        <time>2022-08-13T08:46:43Z</time>
      </trkpt>
      <trkpt lat="44.96416" lon="0.84637">
        <ele>247.9</ele>
        <time>2022-08-13T08:46:48Z</time>
      </trkpt>
      <trkpt lat="44.96425" lon="0.84675">
        <ele>247.3</ele>
        <time>2022-08-13T08:46:55Z</time>
      </trkpt>
      <trkpt lat="44.96425" lon="0.84696">
        <ele>246.9</ele>
        <time>2022-08-13T08:46:59Z</time>
      </trkpt>
      <trkpt lat="44.96427" lon="0.84703">
        <ele>246.7</ele>
        <time>2022-08-13T08:47:00Z</time>
      </trkpt>
      <trkpt lat="44.96436" lon="0.84721">
        <ele>246</ele>
        <time>2022-08-13T08:47:04Z</time>
      </trkpt>
      <trkpt lat="44.96445" lon="0.84742">
        <ele>244.8</ele>
        <time>2022-08-13T08:47:08Z</time>
      </trkpt>
      <trkpt lat="44.96447" lon="0.84747">
        <ele>244.5</ele>
        <time>2022-08-13T08:47:09Z</time>
      </trkpt>
      <trkpt lat="44.96448" lon="0.84751">
        <ele>244.2</ele>
        <time>2022-08-13T08:47:10Z</time>
      </trkpt>
      <trkpt lat="44.96452" lon="0.84765">
        <ele>243.3</ele>
        <time>2022-08-13T08:47:12Z</time>
      </trkpt>
      <trkpt lat="44.96448" lon="0.84768">
        <ele>243.1</ele>
        <time>2022-08-13T08:47:14Z</time>
      </trkpt>
      <trkpt lat="44.96444" lon="0.84772">
        <ele>243</ele>
        <time>2022-08-13T08:47:16Z</time>
      </trkpt>
      <trkpt lat="44.96427" lon="0.84791">
        <ele>242.5</ele>
        <time>2022-08-13T08:47:22Z</time>
      </trkpt>
      <trkpt lat="44.96417" lon="0.84805">
        <ele>242.1</ele>
        <time>2022-08-13T08:47:26Z</time>
      </trkpt>
      <trkpt lat="44.96414" lon="0.84816">
        <ele>242.1</ele>
        <time>2022-08-13T08:47:28Z</time>
      </trkpt>
      <trkpt lat="44.96416" lon="0.84828">
        <ele>242.2</ele>
        <time>2022-08-13T08:47:30Z</time>
      </trkpt>
      <trkpt lat="44.9642" lon="0.84854">
        <ele>242</ele>
        <time>2022-08-13T08:47:34Z</time>
      </trkpt>
      <trkpt lat="44.96422" lon="0.84861">
        <ele>241.8</ele>
        <time>2022-08-13T08:47:35Z</time>
      </trkpt>
      <trkpt lat="44.9643" lon="0.84881">
        <ele>241.2</ele>
        <time>2022-08-13T08:47:38Z</time>
      </trkpt>
      <trkpt lat="44.96432" lon="0.84888">
        <ele>241</ele>
        <time>2022-08-13T08:47:39Z</time>
      </trkpt>
      <trkpt lat="44.96435" lon="0.84895">
        <ele>240.8</ele>
        <time>2022-08-13T08:47:40Z</time>
      </trkpt>
      <trkpt lat="44.96441" lon="0.84908">
        <ele>240.4</ele>
        <time>2022-08-13T08:47:42Z</time>
      </trkpt>
      <trkpt lat="44.96446" lon="0.84913">
        <ele>240.3</ele>
        <time>2022-08-13T08:47:43Z</time>
      </trkpt>
      <trkpt lat="44.96454" lon="0.84923">
        <ele>240.1</ele>
        <time>2022-08-13T08:47:45Z</time>
      </trkpt>
      <trkpt lat="44.96466" lon="0.84939">
        <ele>240.2</ele>
        <time>2022-08-13T08:47:48Z</time>
      </trkpt>
      <trkpt lat="44.96486" lon="0.84959">
        <ele>237.9</ele>
        <time>2022-08-13T08:47:52Z</time>
      </trkpt>
      <trkpt lat="44.96511" lon="0.8499">
        <ele>235.3</ele>
        <time>2022-08-13T08:47:58Z</time>
      </trkpt>
      <trkpt lat="44.96524" lon="0.8501">
        <ele>234.1</ele>
        <time>2022-08-13T08:48:03Z</time>
      </trkpt>
      <trkpt lat="44.96539" lon="0.85025">
        <ele>233.2</ele>
        <time>2022-08-13T08:48:08Z</time>
      </trkpt>
      <trkpt lat="44.96543" lon="0.85021">
        <ele>233</ele>
        <time>2022-08-13T08:48:12Z</time>
      </trkpt>
      <trkpt lat="44.96544" lon="0.8502">
        <ele>233</ele>
        <time>2022-08-13T08:48:13Z</time>
      </trkpt>
      <trkpt lat="44.96545" lon="0.85018">
        <ele>232.9</ele>
        <time>2022-08-13T08:48:14Z</time>
      </trkpt>
      <trkpt lat="44.96548" lon="0.85015">
        <ele>232.8</ele>
        <time>2022-08-13T08:48:16Z</time>
      </trkpt>
      <trkpt lat="44.96543" lon="0.85021">
        <ele>232.8</ele>
        <time>2022-08-13T08:48:21Z</time>
      </trkpt>
      <trkpt lat="44.9653" lon="0.85022">
        <ele>232.8</ele>
        <time>2022-08-13T08:48:23Z</time>
      </trkpt>
      <trkpt lat="44.96537" lon="0.85028">
        <ele>232.8</ele>
        <time>2022-08-13T08:48:26Z</time>
      </trkpt>
      <trkpt lat="44.96535" lon="0.85031">
        <ele>232.8</ele>
        <time>2022-08-13T08:48:31Z</time>
      </trkpt>
      <trkpt lat="44.96538" lon="0.85036">
        <ele>232.8</ele>
        <time>2022-08-13T08:48:33Z</time>
      </trkpt>
      <trkpt lat="44.96541" lon="0.85041">
        <ele>232.7</ele>
        <time>2022-08-13T08:48:35Z</time>
      </trkpt>
      <trkpt lat="44.96549" lon="0.85053">
        <ele>232.2</ele>
        <time>2022-08-13T08:48:39Z</time>
      </trkpt>
      <trkpt lat="44.96557" lon="0.8506">
        <ele>231.9</ele>
        <time>2022-08-13T08:48:43Z</time>
      </trkpt>
      <trkpt lat="44.96564" lon="0.85065">
        <ele>231.8</ele>
        <time>2022-08-13T08:48:46Z</time>
      </trkpt>
      <trkpt lat="44.9658" lon="0.85078">
        <ele>231.4</ele>
        <time>2022-08-13T08:48:52Z</time>
      </trkpt>
      <trkpt lat="44.96582" lon="0.8508">
        <ele>231.4</ele>
        <time>2022-08-13T08:48:53Z</time>
      </trkpt>
      <trkpt lat="44.96585" lon="0.85084">
        <ele>231.3</ele>
        <time>2022-08-13T08:48:55Z</time>
      </trkpt>
      <trkpt lat="44.96588" lon="0.85087">
        <ele>231.2</ele>
        <time>2022-08-13T08:48:56Z</time>
      </trkpt>
      <trkpt lat="44.96591" lon="0.85091">
        <ele>231.1</ele>
        <time>2022-08-13T08:48:58Z</time>
      </trkpt>
      <trkpt lat="44.96597" lon="0.85102">
        <ele>230.7</ele>
        <time>2022-08-13T08:49:02Z</time>
      </trkpt>
      <trkpt lat="44.96598" lon="0.85105">
        <ele>230.7</ele>
        <time>2022-08-13T08:49:03Z</time>
      </trkpt>
      <trkpt lat="44.96604" lon="0.85122">
        <ele>230</ele>
        <time>2022-08-13T08:49:08Z</time>
      </trkpt>
      <trkpt lat="44.96606" lon="0.85126">
        <ele>229.9</ele>
        <time>2022-08-13T08:49:09Z</time>
      </trkpt>
      <trkpt lat="44.96609" lon="0.85136">
        <ele>229.5</ele>
        <time>2022-08-13T08:49:12Z</time>
      </trkpt>
      <trkpt lat="44.96614" lon="0.85156">
        <ele>228.7</ele>
        <time>2022-08-13T08:49:16Z</time>
      </trkpt>
      <trkpt lat="44.96619" lon="0.85176">
        <ele>227.9</ele>
        <time>2022-08-13T08:49:19Z</time>
      </trkpt>
      <trkpt lat="44.9662" lon="0.85182">
        <ele>227.6</ele>
        <time>2022-08-13T08:49:20Z</time>
      </trkpt>
      <trkpt lat="44.96622" lon="0.85189">
        <ele>227.3</ele>
        <time>2022-08-13T08:49:21Z</time>
      </trkpt>
      <trkpt lat="44.96627" lon="0.8521">
        <ele>226.6</ele>
        <time>2022-08-13T08:49:24Z</time>
      </trkpt>
      <trkpt lat="44.96628" lon="0.85215">
        <ele>226.5</ele>
        <time>2022-08-13T08:49:25Z</time>
      </trkpt>
      <trkpt lat="44.96634" lon="0.85229">
        <ele>226.4</ele>
        <time>2022-08-13T08:49:27Z</time>
      </trkpt>
      <trkpt lat="44.96644" lon="0.85244">
        <ele>226.4</ele>
        <time>2022-08-13T08:49:31Z</time>
      </trkpt>
      <trkpt lat="44.96666" lon="0.85267">
        <ele>227.6</ele>
        <time>2022-08-13T08:49:37Z</time>
      </trkpt>
      <trkpt lat="44.96679" lon="0.85283">
        <ele>229.1</ele>
        <time>2022-08-13T08:49:43Z</time>
      </trkpt>
      <trkpt lat="44.96689" lon="0.85294">
        <ele>230.2</ele>
        <time>2022-08-13T08:49:48Z</time>
      </trkpt>
      <trkpt lat="44.96699" lon="0.85305">
        <ele>231.3</ele>
        <time>2022-08-13T08:49:53Z</time>
      </trkpt>
      <trkpt lat="44.96708" lon="0.85322">
        <ele>232.1</ele>
        <time>2022-08-13T08:49:59Z</time>
      </trkpt>
      <trkpt lat="44.96715" lon="0.85336">
        <ele>232.5</ele>
        <time>2022-08-13T08:50:04Z</time>
      </trkpt>
      <trkpt lat="44.96717" lon="0.85339">
        <ele>232.5</ele>
        <time>2022-08-13T08:50:05Z</time>
      </trkpt>
      <trkpt lat="44.96721" lon="0.85346">
        <ele>232.7</ele>
        <time>2022-08-13T08:50:08Z</time>
      </trkpt>
      <trkpt lat="44.96727" lon="0.85364">
        <ele>232.9</ele>
        <time>2022-08-13T08:50:13Z</time>
      </trkpt>
      <trkpt lat="44.96731" lon="0.85381">
        <ele>233</ele>
        <time>2022-08-13T08:50:18Z</time>
      </trkpt>
      <trkpt lat="44.96735" lon="0.85398">
        <ele>233.2</ele>
        <time>2022-08-13T08:50:23Z</time>
      </trkpt>
      <trkpt lat="44.96739" lon="0.85412">
        <ele>233.4</ele>
        <time>2022-08-13T08:50:27Z</time>
      </trkpt>
      <trkpt lat="44.96746" lon="0.85438">
        <ele>233.8</ele>
        <time>2022-08-13T08:50:33Z</time>
      </trkpt>
      <trkpt lat="44.96747" lon="0.85441">
        <ele>233.8</ele>
        <time>2022-08-13T08:50:34Z</time>
      </trkpt>
      <trkpt lat="44.96754" lon="0.85455">
        <ele>234</ele>
        <time>2022-08-13T08:50:37Z</time>
      </trkpt>
      <trkpt lat="44.96769" lon="0.85466">
        <ele>234.4</ele>
        <time>2022-08-13T08:50:42Z</time>
      </trkpt>
      <trkpt lat="44.96783" lon="0.85472">
        <ele>235.1</ele>
        <time>2022-08-13T08:50:47Z</time>
      </trkpt>
      <trkpt lat="44.96796" lon="0.85478">
        <ele>236.1</ele>
        <time>2022-08-13T08:50:52Z</time>
      </trkpt>
      <trkpt lat="44.96816" lon="0.85488">
        <ele>237.8</ele>
        <time>2022-08-13T08:50:59Z</time>
      </trkpt>
      <trkpt lat="44.96835" lon="0.85498">
        <ele>239.1</ele>
        <time>2022-08-13T08:51:05Z</time>
      </trkpt>
      <trkpt lat="44.96853" lon="0.85509">
        <ele>240</ele>
        <time>2022-08-13T08:51:11Z</time>
      </trkpt>
      <trkpt lat="44.96873" lon="0.85522">
        <ele>240.8</ele>
        <time>2022-08-13T08:51:18Z</time>
      </trkpt>
      <trkpt lat="44.96888" lon="0.85531">
        <ele>241.1</ele>
        <time>2022-08-13T08:51:24Z</time>
      </trkpt>
      <trkpt lat="44.96898" lon="0.85537">
        <ele>241.1</ele>
        <time>2022-08-13T08:51:28Z</time>
      </trkpt>
      <trkpt lat="44.96907" lon="0.85542">
        <ele>241.1</ele>
        <time>2022-08-13T08:51:32Z</time>
      </trkpt>
      <trkpt lat="44.9692" lon="0.85548">
        <ele>241.2</ele>
        <time>2022-08-13T08:51:36Z</time>
      </trkpt>
      <trkpt lat="44.96937" lon="0.85552">
        <ele>241.4</ele>
        <time>2022-08-13T08:51:41Z</time>
      </trkpt>
      <trkpt lat="44.96953" lon="0.85563">
        <ele>241.8</ele>
        <time>2022-08-13T08:51:46Z</time>
      </trkpt>
      <trkpt lat="44.96963" lon="0.8557">
        <ele>242.2</ele>
        <time>2022-08-13T08:51:50Z</time>
      </trkpt>
      <trkpt lat="44.96967" lon="0.85573">
        <ele>242.3</ele>
        <time>2022-08-13T08:51:52Z</time>
      </trkpt>
      <trkpt lat="44.9697" lon="0.85575">
        <ele>242.5</ele>
        <time>2022-08-13T08:51:54Z</time>
      </trkpt>
      <trkpt lat="44.96973" lon="0.85577">
        <ele>242.6</ele>
        <time>2022-08-13T08:51:56Z</time>
      </trkpt>
      <trkpt lat="44.96977" lon="0.8558">
        <ele>242.8</ele>
        <time>2022-08-13T08:51:58Z</time>
      </trkpt>
      <trkpt lat="44.96986" lon="0.85587">
        <ele>243.3</ele>
        <time>2022-08-13T08:52:02Z</time>
      </trkpt>
      <trkpt lat="44.96994" lon="0.85596">
        <ele>243.6</ele>
        <time>2022-08-13T08:52:06Z</time>
      </trkpt>
      <trkpt lat="44.97006" lon="0.85611">
        <ele>244.1</ele>
        <time>2022-08-13T08:52:12Z</time>
      </trkpt>
      <trkpt lat="44.97009" lon="0.85615">
        <ele>244.2</ele>
        <time>2022-08-13T08:52:14Z</time>
      </trkpt>
      <trkpt lat="44.97013" lon="0.8562">
        <ele>244.2</ele>
        <time>2022-08-13T08:52:16Z</time>
      </trkpt>
      <trkpt lat="44.9702" lon="0.85632">
        <ele>244.1</ele>
        <time>2022-08-13T08:52:19Z</time>
      </trkpt>
      <trkpt lat="44.97032" lon="0.85657">
        <ele>242.9</ele>
        <time>2022-08-13T08:52:22Z</time>
      </trkpt>
      <trkpt lat="44.97036" lon="0.85666">
        <ele>242.3</ele>
        <time>2022-08-13T08:52:23Z</time>
      </trkpt>
      <trkpt lat="44.97043" lon="0.85684">
        <ele>241.3</ele>
        <time>2022-08-13T08:52:25Z</time>
      </trkpt>
      <trkpt lat="44.9705" lon="0.85705">
        <ele>239.9</ele>
        <time>2022-08-13T08:52:27Z</time>
      </trkpt>
      <trkpt lat="44.97052" lon="0.85715">
        <ele>239.3</ele>
        <time>2022-08-13T08:52:28Z</time>
      </trkpt>
      <trkpt lat="44.97054" lon="0.85723">
        <ele>238.7</ele>
        <time>2022-08-13T08:52:29Z</time>
      </trkpt>
      <trkpt lat="44.97056" lon="0.85737">
        <ele>237.8</ele>
        <time>2022-08-13T08:52:31Z</time>
      </trkpt>
      <trkpt lat="44.97057" lon="0.85746">
        <ele>237.2</ele>
        <time>2022-08-13T08:52:32Z</time>
      </trkpt>
      <trkpt lat="44.97059" lon="0.85778">
        <ele>235.6</ele>
        <time>2022-08-13T08:52:35Z</time>
      </trkpt>
      <trkpt lat="44.9706" lon="0.85788">
        <ele>235.2</ele>
        <time>2022-08-13T08:52:36Z</time>
      </trkpt>
      <trkpt lat="44.97061" lon="0.85796">
        <ele>234.8</ele>
        <time>2022-08-13T08:52:37Z</time>
      </trkpt>
      <trkpt lat="44.97062" lon="0.85812">
        <ele>234.2</ele>
        <time>2022-08-13T08:52:39Z</time>
      </trkpt>
      <trkpt lat="44.97064" lon="0.85837">
        <ele>233.8</ele>
        <time>2022-08-13T08:52:43Z</time>
      </trkpt>
      <trkpt lat="44.97064" lon="0.85847">
        <ele>233.8</ele>
        <time>2022-08-13T08:52:45Z</time>
      </trkpt>
      <trkpt lat="44.97066" lon="0.85854">
        <ele>233.8</ele>
        <time>2022-08-13T08:52:47Z</time>
      </trkpt>
      <trkpt lat="44.97069" lon="0.8587">
        <ele>234</ele>
        <time>2022-08-13T08:52:51Z</time>
      </trkpt>
      <trkpt lat="44.9707" lon="0.8589">
        <ele>234.4</ele>
        <time>2022-08-13T08:52:56Z</time>
      </trkpt>
      <trkpt lat="44.9707" lon="0.85897">
        <ele>234.6</ele>
        <time>2022-08-13T08:52:58Z</time>
      </trkpt>
      <trkpt lat="44.9707" lon="0.85904">
        <ele>234.8</ele>
        <time>2022-08-13T08:53:00Z</time>
      </trkpt>
      <trkpt lat="44.97072" lon="0.85922">
        <ele>235.6</ele>
        <time>2022-08-13T08:53:04Z</time>
      </trkpt>
      <trkpt lat="44.97074" lon="0.8594">
        <ele>236.3</ele>
        <time>2022-08-13T08:53:08Z</time>
      </trkpt>
      <trkpt lat="44.97082" lon="0.85959">
        <ele>237.2</ele>
        <time>2022-08-13T08:53:13Z</time>
      </trkpt>
      <trkpt lat="44.97096" lon="0.85972">
        <ele>238.8</ele>
        <time>2022-08-13T08:53:19Z</time>
      </trkpt>
      <trkpt lat="44.97106" lon="0.8598">
        <ele>240</ele>
        <time>2022-08-13T08:53:24Z</time>
      </trkpt>
      <trkpt lat="44.97108" lon="0.85982">
        <ele>240.2</ele>
        <time>2022-08-13T08:53:25Z</time>
      </trkpt>
      <trkpt lat="44.9712" lon="0.85993">
        <ele>241.6</ele>
        <time>2022-08-13T08:53:32Z</time>
      </trkpt>
      <trkpt lat="44.97128" lon="0.86005">
        <ele>242.7</ele>
        <time>2022-08-13T08:53:38Z</time>
      </trkpt>
      <trkpt lat="44.97132" lon="0.86011">
        <ele>243.2</ele>
        <time>2022-08-13T08:53:41Z</time>
      </trkpt>
      <trkpt lat="44.97135" lon="0.86018">
        <ele>243.7</ele>
        <time>2022-08-13T08:53:44Z</time>
      </trkpt>
      <trkpt lat="44.97136" lon="0.8602">
        <ele>243.9</ele>
        <time>2022-08-13T08:53:45Z</time>
      </trkpt>
      <trkpt lat="44.97139" lon="0.86026">
        <ele>244.3</ele>
        <time>2022-08-13T08:53:48Z</time>
      </trkpt>
      <trkpt lat="44.97145" lon="0.86038">
        <ele>245</ele>
        <time>2022-08-13T08:53:53Z</time>
      </trkpt>
      <trkpt lat="44.97149" lon="0.86048">
        <ele>245.6</ele>
        <time>2022-08-13T08:53:57Z</time>
      </trkpt>
      <trkpt lat="44.97158" lon="0.86063">
        <ele>246.3</ele>
        <time>2022-08-13T08:54:03Z</time>
      </trkpt>
      <trkpt lat="44.97172" lon="0.8607">
        <ele>246.7</ele>
        <time>2022-08-13T08:54:09Z</time>
      </trkpt>
      <trkpt lat="44.97187" lon="0.86067">
        <ele>246.6</ele>
        <time>2022-08-13T08:54:15Z</time>
      </trkpt>
      <trkpt lat="44.97206" lon="0.86059">
        <ele>246.4</ele>
        <time>2022-08-13T08:54:24Z</time>
      </trkpt>
      <trkpt lat="44.97219" lon="0.86053">
        <ele>246.4</ele>
        <time>2022-08-13T08:54:31Z</time>
      </trkpt>
      <trkpt lat="44.9723" lon="0.86046">
        <ele>246.2</ele>
        <time>2022-08-13T08:54:37Z</time>
      </trkpt>
      <trkpt lat="44.97232" lon="0.86045">
        <ele>246.2</ele>
        <time>2022-08-13T08:54:38Z</time>
      </trkpt>
      <trkpt lat="44.97241" lon="0.86039">
        <ele>245.8</ele>
        <time>2022-08-13T08:54:42Z</time>
      </trkpt>
      <trkpt lat="44.97254" lon="0.86029">
        <ele>245</ele>
        <time>2022-08-13T08:54:48Z</time>
      </trkpt>
      <trkpt lat="44.97268" lon="0.86019">
        <ele>244.2</ele>
        <time>2022-08-13T08:54:54Z</time>
      </trkpt>
      <trkpt lat="44.97278" lon="0.86012">
        <ele>243.7</ele>
        <time>2022-08-13T08:55:00Z</time>
      </trkpt>
      <trkpt lat="44.97293" lon="0.86011">
        <ele>243.2</ele>
        <time>2022-08-13T08:55:06Z</time>
      </trkpt>
      <trkpt lat="44.97311" lon="0.86011">
        <ele>242.8</ele>
        <time>2022-08-13T08:55:13Z</time>
      </trkpt>
      <trkpt lat="44.97335" lon="0.86011">
        <ele>242.5</ele>
        <time>2022-08-13T08:55:21Z</time>
      </trkpt>
      <trkpt lat="44.97354" lon="0.86011">
        <ele>242.8</ele>
        <time>2022-08-13T08:55:27Z</time>
      </trkpt>
      <trkpt lat="44.97376" lon="0.86019">
        <ele>243.5</ele>
        <time>2022-08-13T08:55:34Z</time>
      </trkpt>
      <trkpt lat="44.97399" lon="0.86026">
        <ele>244.7</ele>
        <time>2022-08-13T08:55:41Z</time>
      </trkpt>
      <trkpt lat="44.97421" lon="0.86025">
        <ele>246</ele>
        <time>2022-08-13T08:55:48Z</time>
      </trkpt>
      <trkpt lat="44.97439" lon="0.86024">
        <ele>246.6</ele>
        <time>2022-08-13T08:55:54Z</time>
      </trkpt>
      <trkpt lat="44.9746" lon="0.86025">
        <ele>246.6</ele>
        <time>2022-08-13T08:56:00Z</time>
      </trkpt>
      <trkpt lat="44.9749" lon="0.86026">
        <ele>245.8</ele>
        <time>2022-08-13T08:56:06Z</time>
      </trkpt>
      <trkpt lat="44.97514" lon="0.8603">
        <ele>245.5</ele>
        <time>2022-08-13T08:56:12Z</time>
      </trkpt>
      <trkpt lat="44.97541" lon="0.86038">
        <ele>245.5</ele>
        <time>2022-08-13T08:56:20Z</time>
      </trkpt>
      <trkpt lat="44.97552" lon="0.86042">
        <ele>245.7</ele>
        <time>2022-08-13T08:56:24Z</time>
      </trkpt>
      <trkpt lat="44.97554" lon="0.86043">
        <ele>245.6</ele>
        <time>2022-08-13T08:56:26Z</time>
      </trkpt>
      <trkpt lat="44.97553" lon="0.86047">
        <ele>245.5</ele>
        <time>2022-08-13T08:56:27Z</time>
      </trkpt>
      <trkpt lat="44.97546" lon="0.86067">
        <ele>245</ele>
        <time>2022-08-13T08:56:31Z</time>
      </trkpt>
      <trkpt lat="44.97542" lon="0.86081">
        <ele>244.7</ele>
        <time>2022-08-13T08:56:34Z</time>
      </trkpt>
      <trkpt lat="44.97541" lon="0.86086">
        <ele>244.6</ele>
        <time>2022-08-13T08:56:35Z</time>
      </trkpt>
      <trkpt lat="44.97537" lon="0.86097">
        <ele>244.3</ele>
        <time>2022-08-13T08:56:37Z</time>
      </trkpt>
      <trkpt lat="44.97533" lon="0.86109">
        <ele>244</ele>
        <time>2022-08-13T08:56:39Z</time>
      </trkpt>
      <trkpt lat="44.97525" lon="0.86133">
        <ele>243.4</ele>
        <time>2022-08-13T08:56:42Z</time>
      </trkpt>
      <trkpt lat="44.9752" lon="0.86153">
        <ele>242.9</ele>
        <time>2022-08-13T08:56:44Z</time>
      </trkpt>
      <trkpt lat="44.97521" lon="0.86169">
        <ele>242.5</ele>
        <time>2022-08-13T08:56:46Z</time>
      </trkpt>
      <trkpt lat="44.97521" lon="0.86174">
        <ele>242.4</ele>
        <time>2022-08-13T08:56:47Z</time>
      </trkpt>
      <trkpt lat="44.97523" lon="0.86184">
        <ele>242.2</ele>
        <time>2022-08-13T08:56:49Z</time>
      </trkpt>
      <trkpt lat="44.97525" lon="0.86193">
        <ele>242</ele>
        <time>2022-08-13T08:56:51Z</time>
      </trkpt>
      <trkpt lat="44.97527" lon="0.862">
        <ele>241.8</ele>
        <time>2022-08-13T08:56:52Z</time>
      </trkpt>
      <trkpt lat="44.97529" lon="0.86207">
        <ele>241.7</ele>
        <time>2022-08-13T08:56:53Z</time>
      </trkpt>
      <trkpt lat="44.97533" lon="0.86215">
        <ele>241.4</ele>
        <time>2022-08-13T08:56:55Z</time>
      </trkpt>
      <trkpt lat="44.97552" lon="0.86229">
        <ele>240.7</ele>
        <time>2022-08-13T08:56:59Z</time>
      </trkpt>
      <trkpt lat="44.97565" lon="0.86227">
        <ele>240.3</ele>
        <time>2022-08-13T08:57:01Z</time>
      </trkpt>
      <trkpt lat="44.97571" lon="0.86226">
        <ele>240.1</ele>
        <time>2022-08-13T08:57:02Z</time>
      </trkpt>
      <trkpt lat="44.97577" lon="0.86226">
        <ele>239.9</ele>
        <time>2022-08-13T08:57:03Z</time>
      </trkpt>
      <trkpt lat="44.97589" lon="0.86229">
        <ele>239.6</ele>
        <time>2022-08-13T08:57:05Z</time>
      </trkpt>
      <trkpt lat="44.97593" lon="0.86233">
        <ele>239.4</ele>
        <time>2022-08-13T08:57:06Z</time>
      </trkpt>
      <trkpt lat="44.97604" lon="0.86241">
        <ele>239</ele>
        <time>2022-08-13T08:57:09Z</time>
      </trkpt>
      <trkpt lat="44.97619" lon="0.86247">
        <ele>238.5</ele>
        <time>2022-08-13T08:57:14Z</time>
      </trkpt>
      <trkpt lat="44.97634" lon="0.86254">
        <ele>238</ele>
        <time>2022-08-13T08:57:18Z</time>
      </trkpt>
      <trkpt lat="44.9765" lon="0.86262">
        <ele>237.5</ele>
        <time>2022-08-13T08:57:21Z</time>
      </trkpt>
      <trkpt lat="44.97654" lon="0.86266">
        <ele>237.3</ele>
        <time>2022-08-13T08:57:22Z</time>
      </trkpt>
      <trkpt lat="44.97665" lon="0.86278">
        <ele>236.9</ele>
        <time>2022-08-13T08:57:25Z</time>
      </trkpt>
      <trkpt lat="44.97676" lon="0.86284">
        <ele>236.5</ele>
        <time>2022-08-13T08:57:28Z</time>
      </trkpt>
      <trkpt lat="44.9769" lon="0.86293">
        <ele>236</ele>
        <time>2022-08-13T08:57:32Z</time>
      </trkpt>
      <trkpt lat="44.97713" lon="0.86307">
        <ele>235.2</ele>
        <time>2022-08-13T08:57:37Z</time>
      </trkpt>
      <trkpt lat="44.97733" lon="0.86317">
        <ele>234.5</ele>
        <time>2022-08-13T08:57:41Z</time>
      </trkpt>
      <trkpt lat="44.97753" lon="0.8633">
        <ele>233.9</ele>
        <time>2022-08-13T08:57:45Z</time>
      </trkpt>
      <trkpt lat="44.97773" lon="0.86344">
        <ele>233.1</ele>
        <time>2022-08-13T08:57:48Z</time>
      </trkpt>
      <trkpt lat="44.97788" lon="0.86354">
        <ele>232.6</ele>
        <time>2022-08-13T08:57:50Z</time>
      </trkpt>
      <trkpt lat="44.97803" lon="0.86364">
        <ele>232.1</ele>
        <time>2022-08-13T08:57:52Z</time>
      </trkpt>
      <trkpt lat="44.97825" lon="0.86375">
        <ele>231.3</ele>
        <time>2022-08-13T08:57:55Z</time>
      </trkpt>
      <trkpt lat="44.97833" lon="0.86378">
        <ele>231.1</ele>
        <time>2022-08-13T08:57:56Z</time>
      </trkpt>
      <trkpt lat="44.97872" lon="0.86392">
        <ele>229.8</ele>
        <time>2022-08-13T08:58:01Z</time>
      </trkpt>
      <trkpt lat="44.97881" lon="0.86393">
        <ele>229.5</ele>
        <time>2022-08-13T08:58:02Z</time>
      </trkpt>
      <trkpt lat="44.97898" lon="0.86395">
        <ele>229</ele>
        <time>2022-08-13T08:58:04Z</time>
      </trkpt>
      <trkpt lat="44.97914" lon="0.86395">
        <ele>228.4</ele>
        <time>2022-08-13T08:58:06Z</time>
      </trkpt>
      <trkpt lat="44.97942" lon="0.86394">
        <ele>227.6</ele>
        <time>2022-08-13T08:58:10Z</time>
      </trkpt>
      <trkpt lat="44.97951" lon="0.86393">
        <ele>227.3</ele>
        <time>2022-08-13T08:58:12Z</time>
      </trkpt>
      <trkpt lat="44.97953" lon="0.86401">
        <ele>227.1</ele>
        <time>2022-08-13T08:58:13Z</time>
      </trkpt>
      <trkpt lat="44.97956" lon="0.86426">
        <ele>226.5</ele>
        <time>2022-08-13T08:58:16Z</time>
      </trkpt>
      <trkpt lat="44.9795" lon="0.86432">
        <ele>226.3</ele>
        <time>2022-08-13T08:58:20Z</time>
      </trkpt>
      <trkpt lat="44.9795" lon="0.86432">
        <ele>226.3</ele>
        <time>2022-08-13T08:58:22Z</time>
      </trkpt>
      <trkpt lat="44.97968" lon="0.86412">
        <ele>225.5</ele>
        <time>2022-08-13T08:58:40Z</time>
      </trkpt>
      <trkpt lat="44.97955" lon="0.86427">
        <ele>225</ele>
        <time>2022-08-13T08:58:41Z</time>
      </trkpt>
      <trkpt lat="44.97958" lon="0.86427">
        <ele>224.9</ele>
        <time>2022-08-13T08:58:44Z</time>
      </trkpt>
      <trkpt lat="44.97971" lon="0.86427">
        <ele>224.8</ele>
        <time>2022-08-13T08:59:50Z</time>
      </trkpt>
      <trkpt lat="44.97983" lon="0.86435">
        <ele>224.8</ele>
        <time>2022-08-13T08:59:55Z</time>
      </trkpt>
      <trkpt lat="44.97992" lon="0.8644">
        <ele>225</ele>
        <time>2022-08-13T09:00:00Z</time>
      </trkpt>
      <trkpt lat="44.97996" lon="0.86442">
        <ele>225.1</ele>
        <time>2022-08-13T09:00:02Z</time>
      </trkpt>
      <trkpt lat="44.98001" lon="0.86444">
        <ele>225.2</ele>
        <time>2022-08-13T09:00:05Z</time>
      </trkpt>
      <trkpt lat="44.98003" lon="0.86445">
        <ele>225.2</ele>
        <time>2022-08-13T09:00:06Z</time>
      </trkpt>
      <trkpt lat="44.98009" lon="0.86447">
        <ele>225.3</ele>
        <time>2022-08-13T09:00:09Z</time>
      </trkpt>
      <trkpt lat="44.98014" lon="0.86449">
        <ele>225.3</ele>
        <time>2022-08-13T09:00:12Z</time>
      </trkpt>
      <trkpt lat="44.98016" lon="0.86451">
        <ele>225.3</ele>
        <time>2022-08-13T09:00:13Z</time>
      </trkpt>
      <trkpt lat="44.98025" lon="0.86456">
        <ele>225.4</ele>
        <time>2022-08-13T09:00:17Z</time>
      </trkpt>
      <trkpt lat="44.9803" lon="0.86458">
        <ele>225.5</ele>
        <time>2022-08-13T09:00:19Z</time>
      </trkpt>
      <trkpt lat="44.98044" lon="0.86466">
        <ele>226.2</ele>
        <time>2022-08-13T09:00:25Z</time>
      </trkpt>
      <trkpt lat="44.98068" lon="0.86476">
        <ele>227.3</ele>
        <time>2022-08-13T09:00:32Z</time>
      </trkpt>
      <trkpt lat="44.98071" lon="0.86477">
        <ele>227.4</ele>
        <time>2022-08-13T09:00:33Z</time>
      </trkpt>
      <trkpt lat="44.98074" lon="0.86478">
        <ele>227.4</ele>
        <time>2022-08-13T09:00:35Z</time>
      </trkpt>
      <trkpt lat="44.98086" lon="0.86483">
        <ele>227.7</ele>
        <time>2022-08-13T09:00:40Z</time>
      </trkpt>
      <trkpt lat="44.98101" lon="0.86489">
        <ele>228.2</ele>
        <time>2022-08-13T09:00:46Z</time>
      </trkpt>
      <trkpt lat="44.98114" lon="0.86494">
        <ele>228.7</ele>
        <time>2022-08-13T09:00:52Z</time>
      </trkpt>
      <trkpt lat="44.98133" lon="0.86501">
        <ele>229.7</ele>
        <time>2022-08-13T09:00:59Z</time>
      </trkpt>
      <trkpt lat="44.98148" lon="0.86498">
        <ele>230.7</ele>
        <time>2022-08-13T09:01:06Z</time>
      </trkpt>
      <trkpt lat="44.98159" lon="0.86495">
        <ele>231.7</ele>
        <time>2022-08-13T09:01:11Z</time>
      </trkpt>
      <trkpt lat="44.9817" lon="0.86491">
        <ele>232.8</ele>
        <time>2022-08-13T09:01:16Z</time>
      </trkpt>
      <trkpt lat="44.98191" lon="0.86483">
        <ele>234.7</ele>
        <time>2022-08-13T09:01:25Z</time>
      </trkpt>
      <trkpt lat="44.98199" lon="0.8648">
        <ele>235.3</ele>
        <time>2022-08-13T09:01:29Z</time>
      </trkpt>
      <trkpt lat="44.98212" lon="0.86476">
        <ele>236</ele>
        <time>2022-08-13T09:01:35Z</time>
      </trkpt>
      <trkpt lat="44.98226" lon="0.86471">
        <ele>236.4</ele>
        <time>2022-08-13T09:01:41Z</time>
      </trkpt>
      <trkpt lat="44.98239" lon="0.86465">
        <ele>237</ele>
        <time>2022-08-13T09:01:47Z</time>
      </trkpt>
      <trkpt lat="44.98243" lon="0.86463">
        <ele>237.1</ele>
        <time>2022-08-13T09:01:50Z</time>
      </trkpt>
      <trkpt lat="44.98253" lon="0.86456">
        <ele>237.5</ele>
        <time>2022-08-13T09:01:56Z</time>
      </trkpt>
      <trkpt lat="44.98261" lon="0.86451">
        <ele>237.8</ele>
        <time>2022-08-13T09:02:01Z</time>
      </trkpt>
      <trkpt lat="44.98268" lon="0.86448">
        <ele>238.2</ele>
        <time>2022-08-13T09:02:06Z</time>
      </trkpt>
      <trkpt lat="44.98275" lon="0.86446">
        <ele>238.4</ele>
        <time>2022-08-13T09:02:11Z</time>
      </trkpt>
      <trkpt lat="44.98284" lon="0.86443">
        <ele>238.8</ele>
        <time>2022-08-13T09:02:16Z</time>
      </trkpt>
      <trkpt lat="44.98295" lon="0.8645">
        <ele>239.3</ele>
        <time>2022-08-13T09:02:22Z</time>
      </trkpt>
      <trkpt lat="44.98299" lon="0.86452">
        <ele>239.5</ele>
        <time>2022-08-13T09:02:25Z</time>
      </trkpt>
      <trkpt lat="44.983" lon="0.86454">
        <ele>239.5</ele>
        <time>2022-08-13T09:02:26Z</time>
      </trkpt>
      <trkpt lat="44.98305" lon="0.86457">
        <ele>239.7</ele>
        <time>2022-08-13T09:02:30Z</time>
      </trkpt>
      <trkpt lat="44.98308" lon="0.86464">
        <ele>239.6</ele>
        <time>2022-08-13T09:02:31Z</time>
      </trkpt>
      <trkpt lat="44.98305" lon="0.86457">
        <ele>239.6</ele>
        <time>2022-08-13T09:02:33Z</time>
      </trkpt>
      <trkpt lat="44.98306" lon="0.86461">
        <ele>239.6</ele>
        <time>2022-08-13T09:02:35Z</time>
      </trkpt>
      <trkpt lat="44.98306" lon="0.8646">
        <ele>239.5</ele>
        <time>2022-08-13T09:02:36Z</time>
      </trkpt>
      <trkpt lat="44.98305" lon="0.86457">
        <ele>239.5</ele>
        <time>2022-08-13T09:02:38Z</time>
      </trkpt>
      <trkpt lat="44.98305" lon="0.86457">
        <ele>239.5</ele>
        <time>2022-08-13T09:02:39Z</time>
      </trkpt>
      <trkpt lat="44.98305" lon="0.86457">
        <ele>239.4</ele>
        <time>2022-08-13T09:02:42Z</time>
      </trkpt>
      <trkpt lat="44.98305" lon="0.86457">
        <ele>239.4</ele>
        <time>2022-08-13T09:02:44Z</time>
      </trkpt>
      <trkpt lat="44.98305" lon="0.86457">
        <ele>239.4</ele>
        <time>2022-08-13T09:02:47Z</time>
      </trkpt>
      <trkpt lat="44.98318" lon="0.86416">
        <ele>241.1</ele>
        <time>2022-08-13T09:02:51Z</time>
      </trkpt>
      <trkpt lat="44.98318" lon="0.86405">
        <ele>241.8</ele>
        <time>2022-08-13T09:02:55Z</time>
      </trkpt>
      <trkpt lat="44.98319" lon="0.86388">
        <ele>242.6</ele>
        <time>2022-08-13T09:03:01Z</time>
      </trkpt>
      <trkpt lat="44.98315" lon="0.8637">
        <ele>243.5</ele>
        <time>2022-08-13T09:03:07Z</time>
      </trkpt>
      <trkpt lat="44.98308" lon="0.86349">
        <ele>243.4</ele>
        <time>2022-08-13T09:03:13Z</time>
      </trkpt>
      <trkpt lat="44.983" lon="0.86334">
        <ele>242.7</ele>
        <time>2022-08-13T09:03:18Z</time>
      </trkpt>
      <trkpt lat="44.98287" lon="0.86331">
        <ele>241.6</ele>
        <time>2022-08-13T09:03:23Z</time>
      </trkpt>
      <trkpt lat="44.98274" lon="0.86338">
        <ele>240.6</ele>
        <time>2022-08-13T09:03:29Z</time>
      </trkpt>
      <trkpt lat="44.98273" lon="0.86343">
        <ele>240.6</ele>
        <time>2022-08-13T09:03:31Z</time>
      </trkpt>
      <trkpt lat="44.98273" lon="0.86349">
        <ele>239.5</ele>
        <time>2022-08-13T09:03:33Z</time>
      </trkpt>
      <trkpt lat="44.98279" lon="0.86357">
        <ele>240.7</ele>
        <time>2022-08-13T09:03:37Z</time>
      </trkpt>
      <trkpt lat="44.98281" lon="0.86359">
        <ele>240.7</ele>
        <time>2022-08-13T09:03:38Z</time>
      </trkpt>
      <trkpt lat="44.98293" lon="0.86361">
        <ele>241.9</ele>
        <time>2022-08-13T09:03:43Z</time>
      </trkpt>
      <trkpt lat="44.98296" lon="0.86364">
        <ele>241.1</ele>
        <time>2022-08-13T09:03:46Z</time>
      </trkpt>
      <trkpt lat="44.98297" lon="0.86366">
        <ele>241</ele>
        <time>2022-08-13T09:03:47Z</time>
      </trkpt>
      <trkpt lat="44.98298" lon="0.86368">
        <ele>241</ele>
        <time>2022-08-13T09:03:48Z</time>
      </trkpt>
      <trkpt lat="44.98302" lon="0.86369">
        <ele>242</ele>
        <time>2022-08-13T09:03:50Z</time>
      </trkpt>
      <trkpt lat="44.98305" lon="0.86368">
        <ele>242</ele>
        <time>2022-08-13T09:03:51Z</time>
      </trkpt>
      <trkpt lat="44.98306" lon="0.86366">
        <ele>241.9</ele>
        <time>2022-08-13T09:03:52Z</time>
      </trkpt>
      <trkpt lat="44.98312" lon="0.8636">
        <ele>242.9</ele>
        <time>2022-08-13T09:03:55Z</time>
      </trkpt>
      <trkpt lat="44.98316" lon="0.86355">
        <ele>244.1</ele>
        <time>2022-08-13T09:03:58Z</time>
      </trkpt>
      <trkpt lat="44.9832" lon="0.86344">
        <ele>244.8</ele>
        <time>2022-08-13T09:04:03Z</time>
      </trkpt>
      <trkpt lat="44.98326" lon="0.86329">
        <ele>246</ele>
        <time>2022-08-13T09:04:10Z</time>
      </trkpt>
      <trkpt lat="44.98328" lon="0.86318">
        <ele>246.8</ele>
        <time>2022-08-13T09:04:16Z</time>
      </trkpt>
      <trkpt lat="44.98326" lon="0.86314">
        <ele>246.7</ele>
        <time>2022-08-13T09:04:19Z</time>
      </trkpt>
      <trkpt lat="44.98325" lon="0.86311">
        <ele>246.5</ele>
        <time>2022-08-13T09:04:21Z</time>
      </trkpt>
      <trkpt lat="44.98324" lon="0.8631">
        <ele>246.5</ele>
        <time>2022-08-13T09:04:22Z</time>
      </trkpt>
      <trkpt lat="44.98322" lon="0.86307">
        <ele>246.4</ele>
        <time>2022-08-13T09:04:24Z</time>
      </trkpt>
      <trkpt lat="44.9832" lon="0.86304">
        <ele>246.4</ele>
        <time>2022-08-13T09:04:26Z</time>
      </trkpt>
      <trkpt lat="44.98318" lon="0.86302">
        <ele>246.4</ele>
        <time>2022-08-13T09:04:27Z</time>
      </trkpt>
      <trkpt lat="44.98312" lon="0.86292">
        <ele>246.4</ele>
        <time>2022-08-13T09:04:33Z</time>
      </trkpt>
      <trkpt lat="44.98305" lon="0.86282">
        <ele>246.4</ele>
        <time>2022-08-13T09:04:40Z</time>
      </trkpt>
      <trkpt lat="44.98303" lon="0.86274">
        <ele>248.5</ele>
        <time>2022-08-13T09:04:45Z</time>
      </trkpt>
      <trkpt lat="44.98304" lon="0.86272">
        <ele>248.5</ele>
        <time>2022-08-13T09:04:46Z</time>
      </trkpt>
      <trkpt lat="44.98305" lon="0.8626">
        <ele>248.5</ele>
        <time>2022-08-13T09:04:52Z</time>
      </trkpt>
      <trkpt lat="44.98304" lon="0.86258">
        <ele>250.3</ele>
        <time>2022-08-13T09:04:53Z</time>
      </trkpt>
      <trkpt lat="44.98305" lon="0.86257">
        <ele>250.3</ele>
        <time>2022-08-13T09:04:54Z</time>
      </trkpt>
      <trkpt lat="44.98305" lon="0.86253">
        <ele>250.2</ele>
        <time>2022-08-13T09:04:56Z</time>
      </trkpt>
      <trkpt lat="44.98306" lon="0.86243">
        <ele>251.4</ele>
        <time>2022-08-13T09:05:01Z</time>
      </trkpt>
      <trkpt lat="44.98306" lon="0.8624">
        <ele>251.4</ele>
        <time>2022-08-13T09:05:02Z</time>
      </trkpt>
      <trkpt lat="44.98308" lon="0.86229">
        <ele>251.4</ele>
        <time>2022-08-13T09:05:07Z</time>
      </trkpt>
      <trkpt lat="44.98309" lon="0.86227">
        <ele>251.3</ele>
        <time>2022-08-13T09:05:08Z</time>
      </trkpt>
      <trkpt lat="44.9832" lon="0.86211">
        <ele>252.1</ele>
        <time>2022-08-13T09:05:14Z</time>
      </trkpt>
      <trkpt lat="44.9832" lon="0.86211">
        <ele>252.1</ele>
        <time>2022-08-13T09:05:15Z</time>
      </trkpt>
      <trkpt lat="44.98319" lon="0.8621">
        <ele>252.1</ele>
        <time>2022-08-13T09:05:19Z</time>
      </trkpt>
      <trkpt lat="44.98323" lon="0.86215">
        <ele>251.9</ele>
        <time>2022-08-13T09:05:24Z</time>
      </trkpt>
      <trkpt lat="44.98325" lon="0.86218">
        <ele>251.9</ele>
        <time>2022-08-13T09:05:27Z</time>
      </trkpt>
      <trkpt lat="44.98327" lon="0.8622">
        <ele>251.8</ele>
        <time>2022-08-13T09:05:29Z</time>
      </trkpt>
      <trkpt lat="44.98328" lon="0.86222">
        <ele>251.7</ele>
        <time>2022-08-13T09:05:31Z</time>
      </trkpt>
      <trkpt lat="44.98329" lon="0.86223">
        <ele>251.7</ele>
        <time>2022-08-13T09:05:34Z</time>
      </trkpt>
      <trkpt lat="44.98331" lon="0.86226">
        <ele>251.6</ele>
        <time>2022-08-13T09:05:39Z</time>
      </trkpt>
      <trkpt lat="44.98332" lon="0.86227">
        <ele>251.5</ele>
        <time>2022-08-13T09:05:40Z</time>
      </trkpt>
      <trkpt lat="44.98337" lon="0.86234">
        <ele>251.3</ele>
        <time>2022-08-13T09:05:43Z</time>
      </trkpt>
      <trkpt lat="44.98349" lon="0.86249">
        <ele>250.6</ele>
        <time>2022-08-13T09:05:48Z</time>
      </trkpt>
      <trkpt lat="44.98352" lon="0.86254">
        <ele>250.4</ele>
        <time>2022-08-13T09:05:49Z</time>
      </trkpt>
      <trkpt lat="44.9836" lon="0.86265">
        <ele>249.8</ele>
        <time>2022-08-13T09:05:51Z</time>
      </trkpt>
      <trkpt lat="44.98364" lon="0.8627">
        <ele>249.5</ele>
        <time>2022-08-13T09:05:52Z</time>
      </trkpt>
      <trkpt lat="44.98372" lon="0.86281">
        <ele>249.1</ele>
        <time>2022-08-13T09:05:54Z</time>
      </trkpt>
      <trkpt lat="44.98376" lon="0.86286">
        <ele>248.9</ele>
        <time>2022-08-13T09:05:55Z</time>
      </trkpt>
      <trkpt lat="44.98387" lon="0.86302">
        <ele>248.5</ele>
        <time>2022-08-13T09:05:58Z</time>
      </trkpt>
      <trkpt lat="44.98393" lon="0.86311">
        <ele>248.4</ele>
        <time>2022-08-13T09:06:00Z</time>
      </trkpt>
      <trkpt lat="44.98396" lon="0.86314">
        <ele>248.4</ele>
        <time>2022-08-13T09:06:01Z</time>
      </trkpt>
      <trkpt lat="44.98405" lon="0.86326">
        <ele>248.5</ele>
        <time>2022-08-13T09:06:04Z</time>
      </trkpt>
      <trkpt lat="44.9842" lon="0.86346">
        <ele>248.7</ele>
        <time>2022-08-13T09:06:10Z</time>
      </trkpt>
      <trkpt lat="44.98425" lon="0.86354">
        <ele>248.6</ele>
        <time>2022-08-13T09:06:12Z</time>
      </trkpt>
      <trkpt lat="44.98428" lon="0.86358">
        <ele>248.5</ele>
        <time>2022-08-13T09:06:13Z</time>
      </trkpt>
      <trkpt lat="44.98431" lon="0.86362">
        <ele>248.5</ele>
        <time>2022-08-13T09:06:14Z</time>
      </trkpt>
      <trkpt lat="44.98442" lon="0.86377">
        <ele>248.1</ele>
        <time>2022-08-13T09:06:17Z</time>
      </trkpt>
      <trkpt lat="44.98457" lon="0.86398">
        <ele>247.7</ele>
        <time>2022-08-13T09:06:21Z</time>
      </trkpt>
      <trkpt lat="44.98463" lon="0.86408">
        <ele>247.7</ele>
        <time>2022-08-13T09:06:23Z</time>
      </trkpt>
      <trkpt lat="44.98473" lon="0.86422">
        <ele>247.5</ele>
        <time>2022-08-13T09:06:27Z</time>
      </trkpt>
      <trkpt lat="44.98481" lon="0.86434">
        <ele>247.1</ele>
        <time>2022-08-13T09:06:30Z</time>
      </trkpt>
      <trkpt lat="44.98484" lon="0.86439">
        <ele>246.9</ele>
        <time>2022-08-13T09:06:31Z</time>
      </trkpt>
      <trkpt lat="44.98488" lon="0.86445">
        <ele>246.7</ele>
        <time>2022-08-13T09:06:32Z</time>
      </trkpt>
      <trkpt lat="44.985" lon="0.86462">
        <ele>246.1</ele>
        <time>2022-08-13T09:06:35Z</time>
      </trkpt>
      <trkpt lat="44.98518" lon="0.86475">
        <ele>245.7</ele>
        <time>2022-08-13T09:06:39Z</time>
      </trkpt>
      <trkpt lat="44.98524" lon="0.86471">
        <ele>245.6</ele>
        <time>2022-08-13T09:06:42Z</time>
      </trkpt>
      <trkpt lat="44.98525" lon="0.8647">
        <ele>245.5</ele>
        <time>2022-08-13T09:06:43Z</time>
      </trkpt>
      <trkpt lat="44.98532" lon="0.86466">
        <ele>245.4</ele>
        <time>2022-08-13T09:06:48Z</time>
      </trkpt>
      <trkpt lat="44.98543" lon="0.86459">
        <ele>245.1</ele>
        <time>2022-08-13T09:06:53Z</time>
      </trkpt>
      <trkpt lat="44.98551" lon="0.86454">
        <ele>244.9</ele>
        <time>2022-08-13T09:06:57Z</time>
      </trkpt>
      <trkpt lat="44.9857" lon="0.86422">
        <ele>244.9</ele>
        <time>2022-08-13T09:07:03Z</time>
      </trkpt>
      <trkpt lat="44.98574" lon="0.86401">
        <ele>245.2</ele>
        <time>2022-08-13T09:07:07Z</time>
      </trkpt>
      <trkpt lat="44.98576" lon="0.86361">
        <ele>245.5</ele>
        <time>2022-08-13T09:07:15Z</time>
      </trkpt>
      <trkpt lat="44.98575" lon="0.8635">
        <ele>245.7</ele>
        <time>2022-08-13T09:07:18Z</time>
      </trkpt>
      <trkpt lat="44.98575" lon="0.86329">
        <ele>245.7</ele>
        <time>2022-08-13T09:07:19Z</time>
      </trkpt>
      <trkpt lat="44.98594" lon="0.86321">
        <ele>244.9</ele>
        <time>2022-08-13T09:07:25Z</time>
      </trkpt>
      <trkpt lat="44.98617" lon="0.86321">
        <ele>243.7</ele>
        <time>2022-08-13T09:07:31Z</time>
      </trkpt>
      <trkpt lat="44.98635" lon="0.86331">
        <ele>242.8</ele>
        <time>2022-08-13T09:07:36Z</time>
      </trkpt>
      <trkpt lat="44.98666" lon="0.86338">
        <ele>242.7</ele>
        <time>2022-08-13T09:07:44Z</time>
      </trkpt>
      <trkpt lat="44.98697" lon="0.86336">
        <ele>243.4</ele>
        <time>2022-08-13T09:07:53Z</time>
      </trkpt>
      <trkpt lat="44.9872" lon="0.86335">
        <ele>243.7</ele>
        <time>2022-08-13T09:07:59Z</time>
      </trkpt>
      <trkpt lat="44.98744" lon="0.86333">
        <ele>243.9</ele>
        <time>2022-08-13T09:08:05Z</time>
      </trkpt>
      <trkpt lat="44.98775" lon="0.86335">
        <ele>244</ele>
        <time>2022-08-13T09:08:12Z</time>
      </trkpt>
      <trkpt lat="44.98779" lon="0.86335">
        <ele>244</ele>
        <time>2022-08-13T09:08:13Z</time>
      </trkpt>
      <trkpt lat="44.98795" lon="0.86336">
        <ele>244</ele>
        <time>2022-08-13T09:08:17Z</time>
      </trkpt>
      <trkpt lat="44.98803" lon="0.86336">
        <ele>244</ele>
        <time>2022-08-13T09:08:19Z</time>
      </trkpt>
      <trkpt lat="44.98807" lon="0.86336">
        <ele>244</ele>
        <time>2022-08-13T09:08:20Z</time>
      </trkpt>
      <trkpt lat="44.98813" lon="0.86337">
        <ele>244</ele>
        <time>2022-08-13T09:08:22Z</time>
      </trkpt>
      <trkpt lat="44.98824" lon="0.86353">
        <ele>243.5</ele>
        <time>2022-08-13T09:08:24Z</time>
      </trkpt>
      <trkpt lat="44.98826" lon="0.86359">
        <ele>243.3</ele>
        <time>2022-08-13T09:08:25Z</time>
      </trkpt>
      <trkpt lat="44.98831" lon="0.86371">
        <ele>242.7</ele>
        <time>2022-08-13T09:08:27Z</time>
      </trkpt>
      <trkpt lat="44.98835" lon="0.86382">
        <ele>242</ele>
        <time>2022-08-13T09:08:29Z</time>
      </trkpt>
      <trkpt lat="44.98837" lon="0.86387">
        <ele>241.7</ele>
        <time>2022-08-13T09:08:30Z</time>
      </trkpt>
      <trkpt lat="44.98844" lon="0.86393">
        <ele>240.9</ele>
        <time>2022-08-13T09:08:31Z</time>
      </trkpt>
      <trkpt lat="44.98862" lon="0.86394">
        <ele>239.2</ele>
        <time>2022-08-13T09:08:34Z</time>
      </trkpt>
      <trkpt lat="44.98884" lon="0.86395">
        <ele>237.8</ele>
        <time>2022-08-13T09:08:38Z</time>
      </trkpt>
      <trkpt lat="44.9889" lon="0.86388">
        <ele>237.8</ele>
        <time>2022-08-13T09:08:39Z</time>
      </trkpt>
      <trkpt lat="44.98896" lon="0.8638">
        <ele>237.8</ele>
        <time>2022-08-13T09:08:40Z</time>
      </trkpt>
      <trkpt lat="44.98902" lon="0.86373">
        <ele>237.5</ele>
        <time>2022-08-13T09:08:42Z</time>
      </trkpt>
      <trkpt lat="44.98901" lon="0.86356">
        <ele>238.1</ele>
        <time>2022-08-13T09:08:45Z</time>
      </trkpt>
      <trkpt lat="44.989" lon="0.86343">
        <ele>238.4</ele>
        <time>2022-08-13T09:08:47Z</time>
      </trkpt>
      <trkpt lat="44.98899" lon="0.86336">
        <ele>238.4</ele>
        <time>2022-08-13T09:08:48Z</time>
      </trkpt>
      <trkpt lat="44.98897" lon="0.8631">
        <ele>238.3</ele>
        <time>2022-08-13T09:08:52Z</time>
      </trkpt>
      <trkpt lat="44.98896" lon="0.86296">
        <ele>239.1</ele>
        <time>2022-08-13T09:08:54Z</time>
      </trkpt>
      <trkpt lat="44.98893" lon="0.8627">
        <ele>238.4</ele>
        <time>2022-08-13T09:08:57Z</time>
      </trkpt>
      <trkpt lat="44.98892" lon="0.86225">
        <ele>235.6</ele>
        <time>2022-08-13T09:09:01Z</time>
      </trkpt>
      <trkpt lat="44.98891" lon="0.86201">
        <ele>234.4</ele>
        <time>2022-08-13T09:09:03Z</time>
      </trkpt>
      <trkpt lat="44.98884" lon="0.86169">
        <ele>231.5</ele>
        <time>2022-08-13T09:09:06Z</time>
      </trkpt>
      <trkpt lat="44.98877" lon="0.86135">
        <ele>228.6</ele>
        <time>2022-08-13T09:09:10Z</time>
      </trkpt>
      <trkpt lat="44.98878" lon="0.86119">
        <ele>227.3</ele>
        <time>2022-08-13T09:09:12Z</time>
      </trkpt>
      <trkpt lat="44.98882" lon="0.86113">
        <ele>227.3</ele>
        <time>2022-08-13T09:09:13Z</time>
      </trkpt>
      <trkpt lat="44.98887" lon="0.86108">
        <ele>227</ele>
        <time>2022-08-13T09:09:14Z</time>
      </trkpt>
      <trkpt lat="44.98898" lon="0.86104">
        <ele>225.7</ele>
        <time>2022-08-13T09:09:16Z</time>
      </trkpt>
      <trkpt lat="44.98935" lon="0.86094">
        <ele>224.7</ele>
        <time>2022-08-13T09:09:23Z</time>
      </trkpt>
      <trkpt lat="44.98978" lon="0.86079">
        <ele>223.9</ele>
        <time>2022-08-13T09:09:31Z</time>
      </trkpt>
      <trkpt lat="44.99014" lon="0.86065">
        <ele>223.8</ele>
        <time>2022-08-13T09:09:37Z</time>
      </trkpt>
      <trkpt lat="44.99044" lon="0.86053">
        <ele>225</ele>
        <time>2022-08-13T09:09:43Z</time>
      </trkpt>
      <trkpt lat="44.99057" lon="0.86047">
        <ele>225.9</ele>
        <time>2022-08-13T09:09:46Z</time>
      </trkpt>
      <trkpt lat="44.99067" lon="0.86049">
        <ele>226.8</ele>
        <time>2022-08-13T09:09:48Z</time>
      </trkpt>
      <trkpt lat="44.99072" lon="0.86052">
        <ele>226.8</ele>
        <time>2022-08-13T09:09:49Z</time>
      </trkpt>
      <trkpt lat="44.99076" lon="0.86057">
        <ele>227.5</ele>
        <time>2022-08-13T09:09:50Z</time>
      </trkpt>
      <trkpt lat="44.9908" lon="0.86067">
        <ele>228.2</ele>
        <time>2022-08-13T09:09:52Z</time>
      </trkpt>
      <trkpt lat="44.99084" lon="0.86084">
        <ele>228.6</ele>
        <time>2022-08-13T09:09:55Z</time>
      </trkpt>
      <trkpt lat="44.99086" lon="0.86096">
        <ele>229.1</ele>
        <time>2022-08-13T09:09:57Z</time>
      </trkpt>
      <trkpt lat="44.99092" lon="0.86135">
        <ele>229.7</ele>
        <time>2022-08-13T09:10:04Z</time>
      </trkpt>
      <trkpt lat="44.99095" lon="0.86146">
        <ele>229.8</ele>
        <time>2022-08-13T09:10:06Z</time>
      </trkpt>
      <trkpt lat="44.991" lon="0.86155">
        <ele>229.8</ele>
        <time>2022-08-13T09:10:08Z</time>
      </trkpt>
      <trkpt lat="44.99103" lon="0.86158">
        <ele>229.9</ele>
        <time>2022-08-13T09:10:09Z</time>
      </trkpt>
      <trkpt lat="44.99107" lon="0.86161">
        <ele>229.9</ele>
        <time>2022-08-13T09:10:10Z</time>
      </trkpt>
      <trkpt lat="44.99119" lon="0.86163">
        <ele>229.9</ele>
        <time>2022-08-13T09:10:13Z</time>
      </trkpt>
      <trkpt lat="44.9913" lon="0.86163">
        <ele>229.8</ele>
        <time>2022-08-13T09:10:16Z</time>
      </trkpt>
      <trkpt lat="44.99158" lon="0.86158">
        <ele>229.6</ele>
        <time>2022-08-13T09:10:23Z</time>
      </trkpt>
      <trkpt lat="44.99185" lon="0.86151">
        <ele>229.1</ele>
        <time>2022-08-13T09:10:30Z</time>
      </trkpt>
      <trkpt lat="44.99202" lon="0.86146">
        <ele>228</ele>
        <time>2022-08-13T09:10:33Z</time>
      </trkpt>
      <trkpt lat="44.99208" lon="0.86144">
        <ele>227.9</ele>
        <time>2022-08-13T09:10:34Z</time>
      </trkpt>
      <trkpt lat="44.99237" lon="0.86132">
        <ele>225.4</ele>
        <time>2022-08-13T09:10:39Z</time>
      </trkpt>
      <trkpt lat="44.99242" lon="0.86128">
        <ele>225.3</ele>
        <time>2022-08-13T09:10:40Z</time>
      </trkpt>
      <trkpt lat="44.99268" lon="0.86118">
        <ele>222.9</ele>
        <time>2022-08-13T09:10:44Z</time>
      </trkpt>
      <trkpt lat="44.99284" lon="0.86114">
        <ele>221</ele>
        <time>2022-08-13T09:10:46Z</time>
      </trkpt>
      <trkpt lat="44.99299" lon="0.86115">
        <ele>218.1</ele>
        <time>2022-08-13T09:10:48Z</time>
      </trkpt>
      <trkpt lat="44.99306" lon="0.86116">
        <ele>218</ele>
        <time>2022-08-13T09:10:49Z</time>
      </trkpt>
      <trkpt lat="44.99329" lon="0.86123">
        <ele>217.1</ele>
        <time>2022-08-13T09:10:52Z</time>
      </trkpt>
      <trkpt lat="44.99383" lon="0.86133">
        <ele>216</ele>
        <time>2022-08-13T09:10:58Z</time>
      </trkpt>
      <trkpt lat="44.9944" lon="0.86128">
        <ele>215.6</ele>
        <time>2022-08-13T09:11:04Z</time>
      </trkpt>
      <trkpt lat="44.99497" lon="0.86117">
        <ele>214.7</ele>
        <time>2022-08-13T09:11:10Z</time>
      </trkpt>
      <trkpt lat="44.99548" lon="0.86108">
        <ele>215</ele>
        <time>2022-08-13T09:11:16Z</time>
      </trkpt>
      <trkpt lat="44.99567" lon="0.86105">
        <ele>215.6</ele>
        <time>2022-08-13T09:11:19Z</time>
      </trkpt>
      <trkpt lat="44.99585" lon="0.86104">
        <ele>215.8</ele>
        <time>2022-08-13T09:11:22Z</time>
      </trkpt>
      <trkpt lat="44.99597" lon="0.86103">
        <ele>216.1</ele>
        <time>2022-08-13T09:11:24Z</time>
      </trkpt>
      <trkpt lat="44.99634" lon="0.86093">
        <ele>217.2</ele>
        <time>2022-08-13T09:11:31Z</time>
      </trkpt>
      <trkpt lat="44.99667" lon="0.8608">
        <ele>218.3</ele>
        <time>2022-08-13T09:11:38Z</time>
      </trkpt>
      <trkpt lat="44.99685" lon="0.86073">
        <ele>218.4</ele>
        <time>2022-08-13T09:11:42Z</time>
      </trkpt>
      <trkpt lat="44.99705" lon="0.86069">
        <ele>218.4</ele>
        <time>2022-08-13T09:11:46Z</time>
      </trkpt>
      <trkpt lat="44.9971" lon="0.86069">
        <ele>218.4</ele>
        <time>2022-08-13T09:11:47Z</time>
      </trkpt>
      <trkpt lat="44.99737" lon="0.86067">
        <ele>217.9</ele>
        <time>2022-08-13T09:11:52Z</time>
      </trkpt>
      <trkpt lat="44.99768" lon="0.86064">
        <ele>217</ele>
        <time>2022-08-13T09:11:57Z</time>
      </trkpt>
      <trkpt lat="44.99808" lon="0.86057">
        <ele>215.6</ele>
        <time>2022-08-13T09:12:03Z</time>
      </trkpt>
      <trkpt lat="44.99844" lon="0.86044">
        <ele>213.9</ele>
        <time>2022-08-13T09:12:09Z</time>
      </trkpt>
      <trkpt lat="44.99889" lon="0.86029">
        <ele>212.3</ele>
        <time>2022-08-13T09:12:16Z</time>
      </trkpt>
      <trkpt lat="44.99896" lon="0.86028">
        <ele>212.1</ele>
        <time>2022-08-13T09:12:17Z</time>
      </trkpt>
      <trkpt lat="44.99906" lon="0.86024">
        <ele>212.1</ele>
        <time>2022-08-13T09:12:19Z</time>
      </trkpt>
      <trkpt lat="44.99915" lon="0.86021">
        <ele>212.1</ele>
        <time>2022-08-13T09:12:21Z</time>
      </trkpt>
      <trkpt lat="44.99916" lon="0.86022">
        <ele>212.2</ele>
        <time>2022-08-13T09:12:22Z</time>
      </trkpt>
      <trkpt lat="44.99928" lon="0.8601">
        <ele>212</ele>
        <time>2022-08-13T09:12:26Z</time>
      </trkpt>
      <trkpt lat="44.99943" lon="0.86019">
        <ele>212.6</ele>
        <time>2022-08-13T09:12:32Z</time>
      </trkpt>
      <trkpt lat="44.99954" lon="0.86025">
        <ele>213.1</ele>
        <time>2022-08-13T09:12:36Z</time>
      </trkpt>
      <trkpt lat="44.99973" lon="0.86035">
        <ele>213.5</ele>
        <time>2022-08-13T09:12:42Z</time>
      </trkpt>
      <trkpt lat="45.00006" lon="0.85993">
        <ele>214.5</ele>
        <time>2022-08-13T09:12:47Z</time>
      </trkpt>
      <trkpt lat="45.00033" lon="0.85983">
        <ele>214.8</ele>
        <time>2022-08-13T09:12:54Z</time>
      </trkpt>
      <trkpt lat="45.00055" lon="0.85976">
        <ele>215.4</ele>
        <time>2022-08-13T09:13:00Z</time>
      </trkpt>
      <trkpt lat="45.00079" lon="0.85972">
        <ele>215.8</ele>
        <time>2022-08-13T09:13:07Z</time>
      </trkpt>
      <trkpt lat="45.00101" lon="0.85966">
        <ele>216.1</ele>
        <time>2022-08-13T09:13:13Z</time>
      </trkpt>
      <trkpt lat="45.00126" lon="0.8595">
        <ele>216.1</ele>
        <time>2022-08-13T09:13:19Z</time>
      </trkpt>
      <trkpt lat="45.00154" lon="0.85931">
        <ele>216.2</ele>
        <time>2022-08-13T09:13:26Z</time>
      </trkpt>
      <trkpt lat="45.00158" lon="0.85928">
        <ele>216.2</ele>
        <time>2022-08-13T09:13:27Z</time>
      </trkpt>
      <trkpt lat="45.00184" lon="0.85909">
        <ele>216.4</ele>
        <time>2022-08-13T09:13:34Z</time>
      </trkpt>
      <trkpt lat="45.00204" lon="0.85898">
        <ele>216.2</ele>
        <time>2022-08-13T09:13:40Z</time>
      </trkpt>
      <trkpt lat="45.00223" lon="0.85893">
        <ele>216.7</ele>
        <time>2022-08-13T09:13:46Z</time>
      </trkpt>
      <trkpt lat="45.00249" lon="0.85887">
        <ele>217.7</ele>
        <time>2022-08-13T09:13:53Z</time>
      </trkpt>
      <trkpt lat="45.00277" lon="0.85881">
        <ele>218.4</ele>
        <time>2022-08-13T09:14:01Z</time>
      </trkpt>
      <trkpt lat="45.00299" lon="0.85878">
        <ele>219.2</ele>
        <time>2022-08-13T09:14:08Z</time>
      </trkpt>
      <trkpt lat="45.00324" lon="0.85875">
        <ele>219.6</ele>
        <time>2022-08-13T09:14:16Z</time>
      </trkpt>
      <trkpt lat="45.00346" lon="0.8587">
        <ele>219.3</ele>
        <time>2022-08-13T09:14:23Z</time>
      </trkpt>
      <trkpt lat="45.00371" lon="0.85863">
        <ele>218.6</ele>
        <time>2022-08-13T09:14:29Z</time>
      </trkpt>
      <trkpt lat="45.00402" lon="0.85851">
        <ele>217.6</ele>
        <time>2022-08-13T09:14:35Z</time>
      </trkpt>
      <trkpt lat="45.00441" lon="0.85828">
        <ele>215</ele>
        <time>2022-08-13T09:14:41Z</time>
      </trkpt>
      <trkpt lat="45.00488" lon="0.85809">
        <ele>212</ele>
        <time>2022-08-13T09:14:47Z</time>
      </trkpt>
      <trkpt lat="45.00546" lon="0.85791">
        <ele>211.4</ele>
        <time>2022-08-13T09:14:55Z</time>
      </trkpt>
      <trkpt lat="45.00586" lon="0.85783">
        <ele>213.6</ele>
        <time>2022-08-13T09:15:01Z</time>
      </trkpt>
      <trkpt lat="45.00633" lon="0.85768">
        <ele>217.2</ele>
        <time>2022-08-13T09:15:09Z</time>
      </trkpt>
      <trkpt lat="45.00666" lon="0.85757">
        <ele>218.4</ele>
        <time>2022-08-13T09:15:16Z</time>
      </trkpt>
      <trkpt lat="45.00703" lon="0.85744">
        <ele>219.5</ele>
        <time>2022-08-13T09:15:25Z</time>
      </trkpt>
      <trkpt lat="45.00728" lon="0.85735">
        <ele>220</ele>
        <time>2022-08-13T09:15:32Z</time>
      </trkpt>
      <trkpt lat="45.00757" lon="0.85723">
        <ele>220.4</ele>
        <time>2022-08-13T09:15:40Z</time>
      </trkpt>
      <trkpt lat="45.00785" lon="0.85712">
        <ele>220.2</ele>
        <time>2022-08-13T09:15:47Z</time>
      </trkpt>
      <trkpt lat="45.00816" lon="0.85702">
        <ele>220.6</ele>
        <time>2022-08-13T09:15:54Z</time>
      </trkpt>
      <trkpt lat="45.0085" lon="0.85695">
        <ele>220.9</ele>
        <time>2022-08-13T09:16:02Z</time>
      </trkpt>
      <trkpt lat="45.00875" lon="0.85694">
        <ele>221.4</ele>
        <time>2022-08-13T09:16:08Z</time>
      </trkpt>
      <trkpt lat="45.00902" lon="0.85694">
        <ele>221.9</ele>
        <time>2022-08-13T09:16:15Z</time>
      </trkpt>
      <trkpt lat="45.00931" lon="0.85691">
        <ele>221.8</ele>
        <time>2022-08-13T09:16:23Z</time>
      </trkpt>
      <trkpt lat="45.00966" lon="0.85685">
        <ele>221.3</ele>
        <time>2022-08-13T09:16:32Z</time>
      </trkpt>
      <trkpt lat="45.00998" lon="0.85678">
        <ele>220.3</ele>
        <time>2022-08-13T09:16:40Z</time>
      </trkpt>
      <trkpt lat="45.01031" lon="0.85669">
        <ele>219.5</ele>
        <time>2022-08-13T09:16:49Z</time>
      </trkpt>
      <trkpt lat="45.01034" lon="0.85674">
        <ele>219.2</ele>
        <time>2022-08-13T09:16:53Z</time>
      </trkpt>
      <trkpt lat="45.01056" lon="0.85663">
        <ele>218.9</ele>
        <time>2022-08-13T09:16:58Z</time>
      </trkpt>
      <trkpt lat="45.01081" lon="0.85654">
        <ele>218.4</ele>
        <time>2022-08-13T09:17:04Z</time>
      </trkpt>
      <trkpt lat="45.01086" lon="0.85653">
        <ele>218.4</ele>
        <time>2022-08-13T09:17:05Z</time>
      </trkpt>
      <trkpt lat="45.01096" lon="0.85647">
        <ele>218.4</ele>
        <time>2022-08-13T09:17:08Z</time>
      </trkpt>
      <trkpt lat="45.01117" lon="0.85635">
        <ele>218.4</ele>
        <time>2022-08-13T09:17:14Z</time>
      </trkpt>
      <trkpt lat="45.01126" lon="0.8563">
        <ele>218.4</ele>
        <time>2022-08-13T09:17:16Z</time>
      </trkpt>
      <trkpt lat="45.01144" lon="0.85626">
        <ele>218.5</ele>
        <time>2022-08-13T09:17:19Z</time>
      </trkpt>
      <trkpt lat="45.01184" lon="0.85621">
        <ele>218.6</ele>
        <time>2022-08-13T09:17:25Z</time>
      </trkpt>
      <trkpt lat="45.01218" lon="0.85609">
        <ele>218.2</ele>
        <time>2022-08-13T09:17:31Z</time>
      </trkpt>
      <trkpt lat="45.01226" lon="0.85603">
        <ele>217.2</ele>
        <time>2022-08-13T09:17:33Z</time>
      </trkpt>
      <trkpt lat="45.01238" lon="0.85594">
        <ele>216.8</ele>
        <time>2022-08-13T09:17:36Z</time>
      </trkpt>
      <trkpt lat="45.01257" lon="0.85579">
        <ele>215</ele>
        <time>2022-08-13T09:17:41Z</time>
      </trkpt>
      <trkpt lat="45.01278" lon="0.85573">
        <ele>214.5</ele>
        <time>2022-08-13T09:17:45Z</time>
      </trkpt>
      <trkpt lat="45.01317" lon="0.85559">
        <ele>215.9</ele>
        <time>2022-08-13T09:17:52Z</time>
      </trkpt>
      <trkpt lat="45.01348" lon="0.85551">
        <ele>216.3</ele>
        <time>2022-08-13T09:17:59Z</time>
      </trkpt>
      <trkpt lat="45.01369" lon="0.85544">
        <ele>216.8</ele>
        <time>2022-08-13T09:18:04Z</time>
      </trkpt>
      <trkpt lat="45.01395" lon="0.85527">
        <ele>217.2</ele>
        <time>2022-08-13T09:18:10Z</time>
      </trkpt>
      <trkpt lat="45.01418" lon="0.85514">
        <ele>217.4</ele>
        <time>2022-08-13T09:18:15Z</time>
      </trkpt>
      <trkpt lat="45.01455" lon="0.85486">
        <ele>216.5</ele>
        <time>2022-08-13T09:18:21Z</time>
      </trkpt>
      <trkpt lat="45.01477" lon="0.8547">
        <ele>215.4</ele>
        <time>2022-08-13T09:18:25Z</time>
      </trkpt>
      <trkpt lat="45.01482" lon="0.8547">
        <ele>215.6</ele>
        <time>2022-08-13T09:18:26Z</time>
      </trkpt>
      <trkpt lat="45.01488" lon="0.85469">
        <ele>215.1</ele>
        <time>2022-08-13T09:18:27Z</time>
      </trkpt>
      <trkpt lat="45.01504" lon="0.85468">
        <ele>214.9</ele>
        <time>2022-08-13T09:18:30Z</time>
      </trkpt>
      <trkpt lat="45.01512" lon="0.85469">
        <ele>214.5</ele>
        <time>2022-08-13T09:18:32Z</time>
      </trkpt>
      <trkpt lat="45.01521" lon="0.85468">
        <ele>214.2</ele>
        <time>2022-08-13T09:18:34Z</time>
      </trkpt>
      <trkpt lat="45.01535" lon="0.85461">
        <ele>213.6</ele>
        <time>2022-08-13T09:18:38Z</time>
      </trkpt>
      <trkpt lat="45.01545" lon="0.85456">
        <ele>212.9</ele>
        <time>2022-08-13T09:18:40Z</time>
      </trkpt>
      <trkpt lat="45.01558" lon="0.85452">
        <ele>210.6</ele>
        <time>2022-08-13T09:18:43Z</time>
      </trkpt>
      <trkpt lat="45.01585" lon="0.85453">
        <ele>209.2</ele>
        <time>2022-08-13T09:18:48Z</time>
      </trkpt>
      <trkpt lat="45.01589" lon="0.85452">
        <ele>209.2</ele>
        <time>2022-08-13T09:18:49Z</time>
      </trkpt>
      <trkpt lat="45.0161" lon="0.85452">
        <ele>208</ele>
        <time>2022-08-13T09:18:53Z</time>
      </trkpt>
      <trkpt lat="45.01625" lon="0.85451">
        <ele>207.3</ele>
        <time>2022-08-13T09:18:56Z</time>
      </trkpt>
      <trkpt lat="45.0163" lon="0.85448">
        <ele>206.6</ele>
        <time>2022-08-13T09:18:57Z</time>
      </trkpt>
      <trkpt lat="45.01636" lon="0.85443">
        <ele>206.6</ele>
        <time>2022-08-13T09:18:58Z</time>
      </trkpt>
      <trkpt lat="45.01647" lon="0.85438">
        <ele>205.9</ele>
        <time>2022-08-13T09:19:00Z</time>
      </trkpt>
      <trkpt lat="45.01658" lon="0.85435">
        <ele>205.2</ele>
        <time>2022-08-13T09:19:02Z</time>
      </trkpt>
      <trkpt lat="45.01663" lon="0.85432">
        <ele>205.2</ele>
        <time>2022-08-13T09:19:03Z</time>
      </trkpt>
      <trkpt lat="45.01673" lon="0.85429">
        <ele>204.7</ele>
        <time>2022-08-13T09:19:05Z</time>
      </trkpt>
      <trkpt lat="45.01686" lon="0.85433">
        <ele>204</ele>
        <time>2022-08-13T09:19:07Z</time>
      </trkpt>
      <trkpt lat="45.01711" lon="0.8544">
        <ele>202.1</ele>
        <time>2022-08-13T09:19:10Z</time>
      </trkpt>
      <trkpt lat="45.01721" lon="0.85442">
        <ele>200.8</ele>
        <time>2022-08-13T09:19:11Z</time>
      </trkpt>
      <trkpt lat="45.0173" lon="0.85442">
        <ele>199.5</ele>
        <time>2022-08-13T09:19:12Z</time>
      </trkpt>
      <trkpt lat="45.01749" lon="0.85447">
        <ele>197.4</ele>
        <time>2022-08-13T09:19:14Z</time>
      </trkpt>
      <trkpt lat="45.01756" lon="0.8545">
        <ele>197.4</ele>
        <time>2022-08-13T09:19:15Z</time>
      </trkpt>
      <trkpt lat="45.01769" lon="0.85447">
        <ele>196.7</ele>
        <time>2022-08-13T09:19:18Z</time>
      </trkpt>
      <trkpt lat="45.01771" lon="0.85431">
        <ele>196.4</ele>
        <time>2022-08-13T09:19:20Z</time>
      </trkpt>
      <trkpt lat="45.01771" lon="0.85421">
        <ele>196.4</ele>
        <time>2022-08-13T09:19:21Z</time>
      </trkpt>
      <trkpt lat="45.01772" lon="0.85413">
        <ele>195.9</ele>
        <time>2022-08-13T09:19:23Z</time>
      </trkpt>
      <trkpt lat="45.01775" lon="0.85414">
        <ele>195.8</ele>
        <time>2022-08-13T09:19:24Z</time>
      </trkpt>
      <trkpt lat="45.01779" lon="0.85417">
        <ele>195.7</ele>
        <time>2022-08-13T09:19:25Z</time>
      </trkpt>
      <trkpt lat="45.01794" lon="0.85425">
        <ele>195.9</ele>
        <time>2022-08-13T09:19:29Z</time>
      </trkpt>
      <trkpt lat="45.01806" lon="0.85439">
        <ele>195.9</ele>
        <time>2022-08-13T09:19:34Z</time>
      </trkpt>
      <trkpt lat="45.01806" lon="0.85444">
        <ele>195.9</ele>
        <time>2022-08-13T09:19:36Z</time>
      </trkpt>
      <trkpt lat="45.01805" lon="0.85449">
        <ele>195.8</ele>
        <time>2022-08-13T09:19:38Z</time>
      </trkpt>
      <trkpt lat="45.01795" lon="0.85469">
        <ele>196</ele>
        <time>2022-08-13T09:19:42Z</time>
      </trkpt>
      <trkpt lat="45.01792" lon="0.85472">
        <ele>196</ele>
        <time>2022-08-13T09:19:43Z</time>
      </trkpt>
      <trkpt lat="45.0178" lon="0.85486">
        <ele>196.5</ele>
        <time>2022-08-13T09:19:46Z</time>
      </trkpt>
      <trkpt lat="45.01769" lon="0.85505">
        <ele>197.4</ele>
        <time>2022-08-13T09:19:50Z</time>
      </trkpt>
      <trkpt lat="45.01766" lon="0.85509">
        <ele>197.4</ele>
        <time>2022-08-13T09:19:51Z</time>
      </trkpt>
      <trkpt lat="45.01762" lon="0.85513">
        <ele>197.3</ele>
        <time>2022-08-13T09:19:52Z</time>
      </trkpt>
      <trkpt lat="45.01749" lon="0.85525">
        <ele>197.9</ele>
        <time>2022-08-13T09:19:55Z</time>
      </trkpt>
      <trkpt lat="45.01744" lon="0.85528">
        <ele>198.5</ele>
        <time>2022-08-13T09:19:56Z</time>
      </trkpt>
      <trkpt lat="45.01733" lon="0.8554">
        <ele>198.7</ele>
        <time>2022-08-13T09:19:59Z</time>
      </trkpt>
      <trkpt lat="45.01728" lon="0.85542">
        <ele>198.6</ele>
        <time>2022-08-13T09:20:00Z</time>
      </trkpt>
      <trkpt lat="45.01719" lon="0.85549">
        <ele>199.2</ele>
        <time>2022-08-13T09:20:02Z</time>
      </trkpt>
      <trkpt lat="45.01715" lon="0.85554">
        <ele>199.2</ele>
        <time>2022-08-13T09:20:03Z</time>
      </trkpt>
      <trkpt lat="45.01711" lon="0.85558">
        <ele>199.7</ele>
        <time>2022-08-13T09:20:04Z</time>
      </trkpt>
      <trkpt lat="45.01696" lon="0.85575">
        <ele>200</ele>
        <time>2022-08-13T09:20:08Z</time>
      </trkpt>
      <trkpt lat="45.01689" lon="0.85583">
        <ele>200</ele>
        <time>2022-08-13T09:20:10Z</time>
      </trkpt>
      <trkpt lat="45.01683" lon="0.85593">
        <ele>200.3</ele>
        <time>2022-08-13T09:20:12Z</time>
      </trkpt>
      <trkpt lat="45.01679" lon="0.85598">
        <ele>200.3</ele>
        <time>2022-08-13T09:20:13Z</time>
      </trkpt>
      <trkpt lat="45.01673" lon="0.8561">
        <ele>201.1</ele>
        <time>2022-08-13T09:20:15Z</time>
      </trkpt>
      <trkpt lat="45.01667" lon="0.8562">
        <ele>201.1</ele>
        <time>2022-08-13T09:20:17Z</time>
      </trkpt>
      <trkpt lat="45.0166" lon="0.85629">
        <ele>202</ele>
        <time>2022-08-13T09:20:19Z</time>
      </trkpt>
      <trkpt lat="45.01652" lon="0.85639">
        <ele>202</ele>
        <time>2022-08-13T09:20:21Z</time>
      </trkpt>
      <trkpt lat="45.01645" lon="0.85648">
        <ele>202.5</ele>
        <time>2022-08-13T09:20:23Z</time>
      </trkpt>
      <trkpt lat="45.0164" lon="0.85658">
        <ele>202.5</ele>
        <time>2022-08-13T09:20:25Z</time>
      </trkpt>
      <trkpt lat="45.01637" lon="0.85681">
        <ele>202.8</ele>
        <time>2022-08-13T09:20:29Z</time>
      </trkpt>
      <trkpt lat="45.01636" lon="0.85706">
        <ele>202.7</ele>
        <time>2022-08-13T09:20:34Z</time>
      </trkpt>
      <trkpt lat="45.01641" lon="0.85727">
        <ele>201.7</ele>
        <time>2022-08-13T09:20:38Z</time>
      </trkpt>
      <trkpt lat="45.01643" lon="0.85733">
        <ele>201</ele>
        <time>2022-08-13T09:20:39Z</time>
      </trkpt>
      <trkpt lat="45.01649" lon="0.85755">
        <ele>200</ele>
        <time>2022-08-13T09:20:43Z</time>
      </trkpt>
      <trkpt lat="45.01653" lon="0.85775">
        <ele>198.6</ele>
        <time>2022-08-13T09:20:46Z</time>
      </trkpt>
      <trkpt lat="45.01656" lon="0.85787">
        <ele>197.7</ele>
        <time>2022-08-13T09:20:48Z</time>
      </trkpt>
      <trkpt lat="45.01658" lon="0.858">
        <ele>196.9</ele>
        <time>2022-08-13T09:20:52Z</time>
      </trkpt>
      <trkpt lat="45.01657" lon="0.85806">
        <ele>196.8</ele>
        <time>2022-08-13T09:20:54Z</time>
      </trkpt>
      <trkpt lat="45.01655" lon="0.85813">
        <ele>196.8</ele>
        <time>2022-08-13T09:20:56Z</time>
      </trkpt>
      <trkpt lat="45.01657" lon="0.85826">
        <ele>196</ele>
        <time>2022-08-13T09:20:59Z</time>
      </trkpt>
      <trkpt lat="45.01659" lon="0.85833">
        <ele>195.3</ele>
        <time>2022-08-13T09:21:01Z</time>
      </trkpt>
      <trkpt lat="45.01661" lon="0.8584">
        <ele>195.2</ele>
        <time>2022-08-13T09:21:03Z</time>
      </trkpt>
      <trkpt lat="45.0166" lon="0.85846">
        <ele>195.2</ele>
        <time>2022-08-13T09:21:05Z</time>
      </trkpt>
      <trkpt lat="45.01656" lon="0.85858">
        <ele>194.7</ele>
        <time>2022-08-13T09:21:10Z</time>
      </trkpt>
      <trkpt lat="45.01656" lon="0.85862">
        <ele>194.7</ele>
        <time>2022-08-13T09:21:11Z</time>
      </trkpt>
      <trkpt lat="45.01652" lon="0.85872">
        <ele>194.3</ele>
        <time>2022-08-13T09:21:15Z</time>
      </trkpt>
      <trkpt lat="45.01646" lon="0.85877">
        <ele>194.4</ele>
        <time>2022-08-13T09:21:19Z</time>
      </trkpt>
      <trkpt lat="45.01638" lon="0.85885">
        <ele>194.7</ele>
        <time>2022-08-13T09:21:24Z</time>
      </trkpt>
      <trkpt lat="45.0163" lon="0.85893">
        <ele>194.7</ele>
        <time>2022-08-13T09:21:29Z</time>
      </trkpt>
      <trkpt lat="45.01629" lon="0.85901">
        <ele>194.5</ele>
        <time>2022-08-13T09:21:32Z</time>
      </trkpt>
      <trkpt lat="45.01627" lon="0.85903">
        <ele>195.2</ele>
        <time>2022-08-13T09:21:33Z</time>
      </trkpt>
      <trkpt lat="45.01618" lon="0.8591">
        <ele>195.2</ele>
        <time>2022-08-13T09:21:38Z</time>
      </trkpt>
      <trkpt lat="45.01616" lon="0.85913">
        <ele>195.2</ele>
        <time>2022-08-13T09:21:39Z</time>
      </trkpt>
      <trkpt lat="45.01609" lon="0.85916">
        <ele>196.1</ele>
        <time>2022-08-13T09:21:42Z</time>
      </trkpt>
      <trkpt lat="45.01604" lon="0.85915">
        <ele>196.1</ele>
        <time>2022-08-13T09:21:44Z</time>
      </trkpt>
      <trkpt lat="45.01599" lon="0.85915">
        <ele>197</ele>
        <time>2022-08-13T09:21:46Z</time>
      </trkpt>
      <trkpt lat="45.01592" lon="0.85919">
        <ele>196.8</ele>
        <time>2022-08-13T09:21:50Z</time>
      </trkpt>
      <trkpt lat="45.01589" lon="0.85919">
        <ele>197.5</ele>
        <time>2022-08-13T09:21:51Z</time>
      </trkpt>
      <trkpt lat="45.01581" lon="0.85921">
        <ele>197.5</ele>
        <time>2022-08-13T09:21:54Z</time>
      </trkpt>
      <trkpt lat="45.01576" lon="0.85924">
        <ele>198.1</ele>
        <time>2022-08-13T09:21:56Z</time>
      </trkpt>
      <trkpt lat="45.01566" lon="0.85939">
        <ele>198</ele>
        <time>2022-08-13T09:22:02Z</time>
      </trkpt>
      <trkpt lat="45.01559" lon="0.85954">
        <ele>197.4</ele>
        <time>2022-08-13T09:22:07Z</time>
      </trkpt>
      <trkpt lat="45.0156" lon="0.85956">
        <ele>197.3</ele>
        <time>2022-08-13T09:22:08Z</time>
      </trkpt>
      <trkpt lat="45.01564" lon="0.85965">
        <ele>197</ele>
        <time>2022-08-13T09:22:14Z</time>
      </trkpt>
      <trkpt lat="45.01565" lon="0.85966">
        <ele>197</ele>
        <time>2022-08-13T09:22:15Z</time>
      </trkpt>
      <trkpt lat="45.0157" lon="0.8598">
        <ele>196.5</ele>
        <time>2022-08-13T09:22:19Z</time>
      </trkpt>
      <trkpt lat="45.01579" lon="0.85999">
        <ele>195.8</ele>
        <time>2022-08-13T09:22:25Z</time>
      </trkpt>
      <trkpt lat="45.01591" lon="0.86027">
        <ele>195.2</ele>
        <time>2022-08-13T09:22:32Z</time>
      </trkpt>
      <trkpt lat="45.01607" lon="0.86063">
        <ele>194.6</ele>
        <time>2022-08-13T09:22:39Z</time>
      </trkpt>
      <trkpt lat="45.0162" lon="0.86091">
        <ele>195</ele>
        <time>2022-08-13T09:22:44Z</time>
      </trkpt>
      <trkpt lat="45.0163" lon="0.86115">
        <ele>196</ele>
        <time>2022-08-13T09:22:49Z</time>
      </trkpt>
      <trkpt lat="45.01641" lon="0.8614">
        <ele>197.5</ele>
        <time>2022-08-13T09:22:54Z</time>
      </trkpt>
      <trkpt lat="45.01654" lon="0.86168">
        <ele>199.6</ele>
        <time>2022-08-13T09:23:01Z</time>
      </trkpt>
      <trkpt lat="45.01662" lon="0.86186">
        <ele>200.9</ele>
        <time>2022-08-13T09:23:06Z</time>
      </trkpt>
      <trkpt lat="45.01672" lon="0.86205">
        <ele>202.4</ele>
        <time>2022-08-13T09:23:12Z</time>
      </trkpt>
      <trkpt lat="45.01683" lon="0.86229">
        <ele>203.6</ele>
        <time>2022-08-13T09:23:20Z</time>
      </trkpt>
      <trkpt lat="45.01691" lon="0.86246">
        <ele>204.7</ele>
        <time>2022-08-13T09:23:25Z</time>
      </trkpt>
      <trkpt lat="45.017" lon="0.86255">
        <ele>205.8</ele>
        <time>2022-08-13T09:23:30Z</time>
      </trkpt>
      <trkpt lat="45.01711" lon="0.86263">
        <ele>207</ele>
        <time>2022-08-13T09:23:36Z</time>
      </trkpt>
      <trkpt lat="45.01727" lon="0.86265">
        <ele>208.5</ele>
        <time>2022-08-13T09:23:44Z</time>
      </trkpt>
      <trkpt lat="45.01744" lon="0.8626">
        <ele>210.2</ele>
        <time>2022-08-13T09:23:53Z</time>
      </trkpt>
      <trkpt lat="45.01753" lon="0.86257">
        <ele>211.1</ele>
        <time>2022-08-13T09:23:59Z</time>
      </trkpt>
      <trkpt lat="45.01763" lon="0.86253">
        <ele>212.1</ele>
        <time>2022-08-13T09:24:06Z</time>
      </trkpt>
      <trkpt lat="45.01764" lon="0.86252">
        <ele>212.3</ele>
        <time>2022-08-13T09:24:07Z</time>
      </trkpt>
      <trkpt lat="45.01771" lon="0.86247">
        <ele>213</ele>
        <time>2022-08-13T09:24:11Z</time>
      </trkpt>
      <trkpt lat="45.01783" lon="0.86238">
        <ele>214.2</ele>
        <time>2022-08-13T09:24:18Z</time>
      </trkpt>
      <trkpt lat="45.01792" lon="0.86233">
        <ele>215</ele>
        <time>2022-08-13T09:24:23Z</time>
      </trkpt>
      <trkpt lat="45.01804" lon="0.86229">
        <ele>216</ele>
        <time>2022-08-13T09:24:29Z</time>
      </trkpt>
      <trkpt lat="45.01807" lon="0.86228">
        <ele>216.3</ele>
        <time>2022-08-13T09:24:31Z</time>
      </trkpt>
      <trkpt lat="45.01811" lon="0.86226">
        <ele>216.8</ele>
        <time>2022-08-13T09:24:34Z</time>
      </trkpt>
      <trkpt lat="45.01822" lon="0.86223">
        <ele>217.9</ele>
        <time>2022-08-13T09:24:40Z</time>
      </trkpt>
      <trkpt lat="45.01839" lon="0.86231">
        <ele>219.4</ele>
        <time>2022-08-13T09:24:47Z</time>
      </trkpt>
      <trkpt lat="45.0185" lon="0.86251">
        <ele>220.9</ele>
        <time>2022-08-13T09:24:54Z</time>
      </trkpt>
      <trkpt lat="45.01855" lon="0.86269">
        <ele>222</ele>
        <time>2022-08-13T09:25:01Z</time>
      </trkpt>
      <trkpt lat="45.01856" lon="0.86287">
        <ele>223</ele>
        <time>2022-08-13T09:25:09Z</time>
      </trkpt>
      <trkpt lat="45.01854" lon="0.86312">
        <ele>224.2</ele>
        <time>2022-08-13T09:25:18Z</time>
      </trkpt>
      <trkpt lat="45.01851" lon="0.86331">
        <ele>224.9</ele>
        <time>2022-08-13T09:25:25Z</time>
      </trkpt>
      <trkpt lat="45.01845" lon="0.86356">
        <ele>226.2</ele>
        <time>2022-08-13T09:25:34Z</time>
      </trkpt>
      <trkpt lat="45.0184" lon="0.86373">
        <ele>227.1</ele>
        <time>2022-08-13T09:25:40Z</time>
      </trkpt>
      <trkpt lat="45.01835" lon="0.8639">
        <ele>228</ele>
        <time>2022-08-13T09:25:46Z</time>
      </trkpt>
      <trkpt lat="45.01829" lon="0.86408">
        <ele>229</ele>
        <time>2022-08-13T09:25:52Z</time>
      </trkpt>
      <trkpt lat="45.01825" lon="0.86427">
        <ele>230</ele>
        <time>2022-08-13T09:25:58Z</time>
      </trkpt>
      <trkpt lat="45.01824" lon="0.86447">
        <ele>231</ele>
        <time>2022-08-13T09:26:04Z</time>
      </trkpt>
      <trkpt lat="45.01824" lon="0.86456">
        <ele>231.4</ele>
        <time>2022-08-13T09:26:07Z</time>
      </trkpt>
      <trkpt lat="45.01824" lon="0.86462">
        <ele>231.7</ele>
        <time>2022-08-13T09:26:09Z</time>
      </trkpt>
      <trkpt lat="45.01825" lon="0.86482">
        <ele>232.7</ele>
        <time>2022-08-13T09:26:15Z</time>
      </trkpt>
      <trkpt lat="45.01826" lon="0.86503">
        <ele>233.6</ele>
        <time>2022-08-13T09:26:21Z</time>
      </trkpt>
      <trkpt lat="45.01828" lon="0.86518">
        <ele>234.2</ele>
        <time>2022-08-13T09:26:26Z</time>
      </trkpt>
      <trkpt lat="45.01833" lon="0.86546">
        <ele>235.1</ele>
        <time>2022-08-13T09:26:34Z</time>
      </trkpt>
      <trkpt lat="45.01841" lon="0.86574">
        <ele>236</ele>
        <time>2022-08-13T09:26:42Z</time>
      </trkpt>
      <trkpt lat="45.01849" lon="0.86599">
        <ele>236.5</ele>
        <time>2022-08-13T09:26:50Z</time>
      </trkpt>
      <trkpt lat="45.01854" lon="0.86617">
        <ele>236.7</ele>
        <time>2022-08-13T09:26:55Z</time>
      </trkpt>
      <trkpt lat="45.01858" lon="0.86633">
        <ele>236.6</ele>
        <time>2022-08-13T09:26:59Z</time>
      </trkpt>
      <trkpt lat="45.01862" lon="0.86657">
        <ele>236.3</ele>
        <time>2022-08-13T09:27:04Z</time>
      </trkpt>
      <trkpt lat="45.01865" lon="0.86676">
        <ele>236</ele>
        <time>2022-08-13T09:27:07Z</time>
      </trkpt>
      <trkpt lat="45.01865" lon="0.86683">
        <ele>235.9</ele>
        <time>2022-08-13T09:27:08Z</time>
      </trkpt>
      <trkpt lat="45.01865" lon="0.86698">
        <ele>235.5</ele>
        <time>2022-08-13T09:27:10Z</time>
      </trkpt>
      <trkpt lat="45.0186" lon="0.86715">
        <ele>235.1</ele>
        <time>2022-08-13T09:27:12Z</time>
      </trkpt>
      <trkpt lat="45.01848" lon="0.86731">
        <ele>234.4</ele>
        <time>2022-08-13T09:27:15Z</time>
      </trkpt>
      <trkpt lat="45.01842" lon="0.86736">
        <ele>234</ele>
        <time>2022-08-13T09:27:16Z</time>
      </trkpt>
      <trkpt lat="45.01815" lon="0.8676">
        <ele>232.6</ele>
        <time>2022-08-13T09:27:20Z</time>
      </trkpt>
      <trkpt lat="45.0179" lon="0.86789">
        <ele>230.8</ele>
        <time>2022-08-13T09:27:24Z</time>
      </trkpt>
      <trkpt lat="45.01787" lon="0.86799">
        <ele>230.2</ele>
        <time>2022-08-13T09:27:25Z</time>
      </trkpt>
      <trkpt lat="45.01785" lon="0.86807">
        <ele>229.7</ele>
        <time>2022-08-13T09:27:26Z</time>
      </trkpt>
      <trkpt lat="45.01787" lon="0.86824">
        <ele>228.9</ele>
        <time>2022-08-13T09:27:28Z</time>
      </trkpt>
      <trkpt lat="45.01796" lon="0.86838">
        <ele>228.1</ele>
        <time>2022-08-13T09:27:30Z</time>
      </trkpt>
      <trkpt lat="45.01801" lon="0.86846">
        <ele>227.6</ele>
        <time>2022-08-13T09:27:31Z</time>
      </trkpt>
      <trkpt lat="45.01808" lon="0.8685">
        <ele>227.2</ele>
        <time>2022-08-13T09:27:32Z</time>
      </trkpt>
      <trkpt lat="45.01828" lon="0.86861">
        <ele>225.9</ele>
        <time>2022-08-13T09:27:35Z</time>
      </trkpt>
      <trkpt lat="45.01855" lon="0.86876">
        <ele>224.5</ele>
        <time>2022-08-13T09:27:39Z</time>
      </trkpt>
      <trkpt lat="45.01881" lon="0.86891">
        <ele>223.4</ele>
        <time>2022-08-13T09:27:43Z</time>
      </trkpt>
      <trkpt lat="45.01894" lon="0.86899">
        <ele>222.7</ele>
        <time>2022-08-13T09:27:45Z</time>
      </trkpt>
      <trkpt lat="45.01932" lon="0.86922">
        <ele>220.9</ele>
        <time>2022-08-13T09:27:51Z</time>
      </trkpt>
      <trkpt lat="45.01939" lon="0.86927">
        <ele>220.7</ele>
        <time>2022-08-13T09:27:52Z</time>
      </trkpt>
      <trkpt lat="45.01944" lon="0.86933">
        <ele>220.6</ele>
        <time>2022-08-13T09:27:53Z</time>
      </trkpt>
      <trkpt lat="45.01952" lon="0.86944">
        <ele>220.3</ele>
        <time>2022-08-13T09:27:55Z</time>
      </trkpt>
      <trkpt lat="45.01955" lon="0.86948">
        <ele>220.2</ele>
        <time>2022-08-13T09:27:56Z</time>
      </trkpt>
      <trkpt lat="45.01959" lon="0.86956">
        <ele>220</ele>
        <time>2022-08-13T09:27:57Z</time>
      </trkpt>
      <trkpt lat="45.01965" lon="0.86975">
        <ele>219.6</ele>
        <time>2022-08-13T09:28:00Z</time>
      </trkpt>
      <trkpt lat="45.01967" lon="0.8698">
        <ele>219.6</ele>
        <time>2022-08-13T09:28:01Z</time>
      </trkpt>
      <trkpt lat="45.01969" lon="0.86986">
        <ele>219.5</ele>
        <time>2022-08-13T09:28:02Z</time>
      </trkpt>
      <trkpt lat="45.01976" lon="0.87007">
        <ele>219.2</ele>
        <time>2022-08-13T09:28:06Z</time>
      </trkpt>
      <trkpt lat="45.01985" lon="0.87031">
        <ele>219.1</ele>
        <time>2022-08-13T09:28:11Z</time>
      </trkpt>
      <trkpt lat="45.02002" lon="0.87067">
        <ele>219.3</ele>
        <time>2022-08-13T09:28:18Z</time>
      </trkpt>
      <trkpt lat="45.02016" lon="0.87096">
        <ele>219.6</ele>
        <time>2022-08-13T09:28:24Z</time>
      </trkpt>
      <trkpt lat="45.02032" lon="0.87129">
        <ele>220.2</ele>
        <time>2022-08-13T09:28:31Z</time>
      </trkpt>
      <trkpt lat="45.02047" lon="0.87158">
        <ele>220.8</ele>
        <time>2022-08-13T09:28:37Z</time>
      </trkpt>
      <trkpt lat="45.02049" lon="0.87163">
        <ele>220.8</ele>
        <time>2022-08-13T09:28:38Z</time>
      </trkpt>
      <trkpt lat="45.02052" lon="0.87167">
        <ele>220.9</ele>
        <time>2022-08-13T09:28:39Z</time>
      </trkpt>
      <trkpt lat="45.02065" lon="0.87191">
        <ele>221.2</ele>
        <time>2022-08-13T09:28:44Z</time>
      </trkpt>
      <trkpt lat="45.02067" lon="0.87196">
        <ele>221.3</ele>
        <time>2022-08-13T09:28:45Z</time>
      </trkpt>
      <trkpt lat="45.02076" lon="0.87214">
        <ele>221.6</ele>
        <time>2022-08-13T09:28:49Z</time>
      </trkpt>
      <trkpt lat="45.0209" lon="0.87239">
        <ele>222.1</ele>
        <time>2022-08-13T09:28:56Z</time>
      </trkpt>
      <trkpt lat="45.02104" lon="0.87267">
        <ele>222.4</ele>
        <time>2022-08-13T09:29:03Z</time>
      </trkpt>
      <trkpt lat="45.02115" lon="0.87288">
        <ele>222.8</ele>
        <time>2022-08-13T09:29:09Z</time>
      </trkpt>
      <trkpt lat="45.02126" lon="0.87308">
        <ele>223</ele>
        <time>2022-08-13T09:29:15Z</time>
      </trkpt>
      <trkpt lat="45.02136" lon="0.87326">
        <ele>223.4</ele>
        <time>2022-08-13T09:29:20Z</time>
      </trkpt>
      <trkpt lat="45.02144" lon="0.87341">
        <ele>223.7</ele>
        <time>2022-08-13T09:29:25Z</time>
      </trkpt>
      <trkpt lat="45.02152" lon="0.8735">
        <ele>224</ele>
        <time>2022-08-13T09:29:30Z</time>
      </trkpt>
      <trkpt lat="45.02152" lon="0.8735">
        <ele>224</ele>
        <time>2022-08-13T09:29:32Z</time>
      </trkpt>
      <trkpt lat="45.02156" lon="0.87355">
        <ele>224.1</ele>
        <time>2022-08-13T09:29:34Z</time>
      </trkpt>
      <trkpt lat="45.0216" lon="0.87359">
        <ele>224.2</ele>
        <time>2022-08-13T09:29:36Z</time>
      </trkpt>
      <trkpt lat="45.02171" lon="0.87368">
        <ele>224.4</ele>
        <time>2022-08-13T09:29:41Z</time>
      </trkpt>
      <trkpt lat="45.02179" lon="0.87374">
        <ele>224.5</ele>
        <time>2022-08-13T09:29:46Z</time>
      </trkpt>
      <trkpt lat="45.02179" lon="0.87374">
        <ele>224.5</ele>
        <time>2022-08-13T09:29:47Z</time>
      </trkpt>
      <trkpt lat="45.02197" lon="0.87385">
        <ele>225</ele>
        <time>2022-08-13T09:29:53Z</time>
      </trkpt>
      <trkpt lat="45.02206" lon="0.87391">
        <ele>225.3</ele>
        <time>2022-08-13T09:29:56Z</time>
      </trkpt>
      <trkpt lat="45.0223" lon="0.87406">
        <ele>226.2</ele>
        <time>2022-08-13T09:30:02Z</time>
      </trkpt>
      <trkpt lat="45.02254" lon="0.87421">
        <ele>227.2</ele>
        <time>2022-08-13T09:30:07Z</time>
      </trkpt>
      <trkpt lat="45.02274" lon="0.87433">
        <ele>227.7</ele>
        <time>2022-08-13T09:30:12Z</time>
      </trkpt>
      <trkpt lat="45.02291" lon="0.87444">
        <ele>227.9</ele>
        <time>2022-08-13T09:30:18Z</time>
      </trkpt>
      <trkpt lat="45.0231" lon="0.87455">
        <ele>228.1</ele>
        <time>2022-08-13T09:30:23Z</time>
      </trkpt>
      <trkpt lat="45.0234" lon="0.87474">
        <ele>229</ele>
        <time>2022-08-13T09:30:28Z</time>
      </trkpt>
      <trkpt lat="45.02363" lon="0.87491">
        <ele>230.4</ele>
        <time>2022-08-13T09:30:33Z</time>
      </trkpt>
      <trkpt lat="45.02378" lon="0.87515">
        <ele>231.5</ele>
        <time>2022-08-13T09:30:38Z</time>
      </trkpt>
      <trkpt lat="45.02384" lon="0.87531">
        <ele>232.4</ele>
        <time>2022-08-13T09:30:43Z</time>
      </trkpt>
      <trkpt lat="45.0239" lon="0.87552">
        <ele>233.3</ele>
        <time>2022-08-13T09:30:49Z</time>
      </trkpt>
      <trkpt lat="45.02394" lon="0.87563">
        <ele>233.8</ele>
        <time>2022-08-13T09:30:53Z</time>
      </trkpt>
      <trkpt lat="45.02395" lon="0.87566">
        <ele>234</ele>
        <time>2022-08-13T09:30:54Z</time>
      </trkpt>
      <trkpt lat="45.024" lon="0.87581">
        <ele>234.7</ele>
        <time>2022-08-13T09:30:57Z</time>
      </trkpt>
      <trkpt lat="45.02409" lon="0.87605">
        <ele>235.7</ele>
        <time>2022-08-13T09:31:02Z</time>
      </trkpt>
      <trkpt lat="45.0242" lon="0.87628">
        <ele>236.7</ele>
        <time>2022-08-13T09:31:08Z</time>
      </trkpt>
      <trkpt lat="45.02431" lon="0.87645">
        <ele>237.5</ele>
        <time>2022-08-13T09:31:14Z</time>
      </trkpt>
      <trkpt lat="45.0244" lon="0.87657">
        <ele>238</ele>
        <time>2022-08-13T09:31:19Z</time>
      </trkpt>
      <trkpt lat="45.02449" lon="0.87672">
        <ele>238.4</ele>
        <time>2022-08-13T09:31:25Z</time>
      </trkpt>
      <trkpt lat="45.02456" lon="0.87688">
        <ele>238.4</ele>
        <time>2022-08-13T09:31:30Z</time>
      </trkpt>
      <trkpt lat="45.02462" lon="0.87703">
        <ele>238.3</ele>
        <time>2022-08-13T09:31:34Z</time>
      </trkpt>
      <trkpt lat="45.02471" lon="0.87725">
        <ele>238</ele>
        <time>2022-08-13T09:31:39Z</time>
      </trkpt>
      <trkpt lat="45.02491" lon="0.87769">
        <ele>237.8</ele>
        <time>2022-08-13T09:31:47Z</time>
      </trkpt>
      <trkpt lat="45.02498" lon="0.87784">
        <ele>237.8</ele>
        <time>2022-08-13T09:31:50Z</time>
      </trkpt>
      <trkpt lat="45.02502" lon="0.87794">
        <ele>237.8</ele>
        <time>2022-08-13T09:31:52Z</time>
      </trkpt>
      <trkpt lat="45.02514" lon="0.87822">
        <ele>237.7</ele>
        <time>2022-08-13T09:31:58Z</time>
      </trkpt>
      <trkpt lat="45.02522" lon="0.8784">
        <ele>237.8</ele>
        <time>2022-08-13T09:32:02Z</time>
      </trkpt>
      <trkpt lat="45.02533" lon="0.87865">
        <ele>238</ele>
        <time>2022-08-13T09:32:07Z</time>
      </trkpt>
      <trkpt lat="45.02546" lon="0.87894">
        <ele>238.6</ele>
        <time>2022-08-13T09:32:13Z</time>
      </trkpt>
      <trkpt lat="45.02555" lon="0.87915">
        <ele>239.4</ele>
        <time>2022-08-13T09:32:18Z</time>
      </trkpt>
      <trkpt lat="45.02565" lon="0.87938">
        <ele>240.2</ele>
        <time>2022-08-13T09:32:24Z</time>
      </trkpt>
      <trkpt lat="45.02571" lon="0.87949">
        <ele>240.6</ele>
        <time>2022-08-13T09:32:28Z</time>
      </trkpt>
      <trkpt lat="45.02579" lon="0.87968">
        <ele>241.3</ele>
        <time>2022-08-13T09:32:33Z</time>
      </trkpt>
      <trkpt lat="45.0259" lon="0.87993">
        <ele>241.8</ele>
        <time>2022-08-13T09:32:40Z</time>
      </trkpt>
      <trkpt lat="45.02598" lon="0.88012">
        <ele>241.8</ele>
        <time>2022-08-13T09:32:46Z</time>
      </trkpt>
      <trkpt lat="45.02602" lon="0.88024">
        <ele>241.8</ele>
        <time>2022-08-13T09:32:50Z</time>
      </trkpt>
      <trkpt lat="45.02604" lon="0.88029">
        <ele>241.8</ele>
        <time>2022-08-13T09:32:52Z</time>
      </trkpt>
      <trkpt lat="45.02612" lon="0.88047">
        <ele>242.1</ele>
        <time>2022-08-13T09:32:59Z</time>
      </trkpt>
      <trkpt lat="45.02615" lon="0.88055">
        <ele>242.2</ele>
        <time>2022-08-13T09:33:04Z</time>
      </trkpt>
      <trkpt lat="45.02626" lon="0.8808">
        <ele>242.9</ele>
        <time>2022-08-13T09:34:05Z</time>
      </trkpt>
      <trkpt lat="45.02625" lon="0.88081">
        <ele>243</ele>
        <time>2022-08-13T09:34:07Z</time>
      </trkpt>
      <trkpt lat="45.02629" lon="0.8809">
        <ele>243.5</ele>
        <time>2022-08-13T09:34:11Z</time>
      </trkpt>
      <trkpt lat="45.02632" lon="0.88095">
        <ele>243.8</ele>
        <time>2022-08-13T09:34:13Z</time>
      </trkpt>
      <trkpt lat="45.02641" lon="0.88114">
        <ele>244.6</ele>
        <time>2022-08-13T09:34:21Z</time>
      </trkpt>
      <trkpt lat="45.02646" lon="0.88131">
        <ele>245.2</ele>
        <time>2022-08-13T09:34:28Z</time>
      </trkpt>
      <trkpt lat="45.02643" lon="0.8815">
        <ele>245.9</ele>
        <time>2022-08-13T09:34:36Z</time>
      </trkpt>
      <trkpt lat="45.02637" lon="0.88169">
        <ele>246.9</ele>
        <time>2022-08-13T09:34:44Z</time>
      </trkpt>
      <trkpt lat="45.02633" lon="0.88192">
        <ele>247.9</ele>
        <time>2022-08-13T09:34:53Z</time>
      </trkpt>
      <trkpt lat="45.02634" lon="0.88212">
        <ele>248.8</ele>
        <time>2022-08-13T09:35:01Z</time>
      </trkpt>
      <trkpt lat="45.02639" lon="0.88231">
        <ele>249.5</ele>
        <time>2022-08-13T09:35:08Z</time>
      </trkpt>
      <trkpt lat="45.02645" lon="0.88253">
        <ele>250.4</ele>
        <time>2022-08-13T09:35:16Z</time>
      </trkpt>
      <trkpt lat="45.02653" lon="0.88284">
        <ele>251.8</ele>
        <time>2022-08-13T09:35:27Z</time>
      </trkpt>
      <trkpt lat="45.0266" lon="0.88309">
        <ele>253</ele>
        <time>2022-08-13T09:35:36Z</time>
      </trkpt>
      <trkpt lat="45.02668" lon="0.88337">
        <ele>254.4</ele>
        <time>2022-08-13T09:35:46Z</time>
      </trkpt>
      <trkpt lat="45.02676" lon="0.88365">
        <ele>255.6</ele>
        <time>2022-08-13T09:35:56Z</time>
      </trkpt>
      <trkpt lat="45.02684" lon="0.88394">
        <ele>256.8</ele>
        <time>2022-08-13T09:36:06Z</time>
      </trkpt>
      <trkpt lat="45.0268" lon="0.88407">
        <ele>257.2</ele>
        <time>2022-08-13T09:36:10Z</time>
      </trkpt>
      <trkpt lat="45.02661" lon="0.88424">
        <ele>257.4</ele>
        <time>2022-08-13T09:36:14Z</time>
      </trkpt>
      <trkpt lat="45.02635" lon="0.8845">
        <ele>257.6</ele>
        <time>2022-08-13T09:36:18Z</time>
      </trkpt>
      <trkpt lat="45.02605" lon="0.88482">
        <ele>257.9</ele>
        <time>2022-08-13T09:36:23Z</time>
      </trkpt>
      <trkpt lat="45.02589" lon="0.88499">
        <ele>258.1</ele>
        <time>2022-08-13T09:36:27Z</time>
      </trkpt>
      <trkpt lat="45.02562" lon="0.88527">
        <ele>258.3</ele>
        <time>2022-08-13T09:36:35Z</time>
      </trkpt>
      <trkpt lat="45.02539" lon="0.88552">
        <ele>258.6</ele>
        <time>2022-08-13T09:36:43Z</time>
      </trkpt>
      <trkpt lat="45.02518" lon="0.88575">
        <ele>258.8</ele>
        <time>2022-08-13T09:36:52Z</time>
      </trkpt>
      <trkpt lat="45.02501" lon="0.88595">
        <ele>259</ele>
        <time>2022-08-13T09:37:00Z</time>
      </trkpt>
      <trkpt lat="45.02479" lon="0.8862">
        <ele>259.2</ele>
        <time>2022-08-13T09:37:10Z</time>
      </trkpt>
      <trkpt lat="45.02457" lon="0.88645">
        <ele>259.4</ele>
        <time>2022-08-13T09:37:20Z</time>
      </trkpt>
      <trkpt lat="45.02446" lon="0.88657">
        <ele>259.5</ele>
        <time>2022-08-13T09:37:25Z</time>
      </trkpt>
      <trkpt lat="45.02432" lon="0.88673">
        <ele>259.7</ele>
        <time>2022-08-13T09:37:31Z</time>
      </trkpt>
      <trkpt lat="45.02428" lon="0.88678">
        <ele>259.7</ele>
        <time>2022-08-13T09:37:36Z</time>
      </trkpt>
      <trkpt lat="45.02423" lon="0.88684">
        <ele>259.8</ele>
        <time>2022-08-13T09:42:35Z</time>
      </trkpt>
      <trkpt lat="45.0242" lon="0.88689">
        <ele>259.8</ele>
        <time>2022-08-13T09:42:38Z</time>
      </trkpt>
      <trkpt lat="45.02411" lon="0.88701">
        <ele>259.9</ele>
        <time>2022-08-13T09:42:44Z</time>
      </trkpt>
      <trkpt lat="45.02402" lon="0.88713">
        <ele>260</ele>
        <time>2022-08-13T09:42:49Z</time>
      </trkpt>
      <trkpt lat="45.02385" lon="0.88735">
        <ele>260.2</ele>
        <time>2022-08-13T09:42:56Z</time>
      </trkpt>
      <trkpt lat="45.02367" lon="0.8876">
        <ele>260.4</ele>
        <time>2022-08-13T09:43:03Z</time>
      </trkpt>
      <trkpt lat="45.02356" lon="0.88778">
        <ele>260.5</ele>
        <time>2022-08-13T09:43:07Z</time>
      </trkpt>
      <trkpt lat="45.02357" lon="0.8879">
        <ele>260.6</ele>
        <time>2022-08-13T09:43:09Z</time>
      </trkpt>
      <trkpt lat="45.02357" lon="0.88802">
        <ele>260.6</ele>
        <time>2022-08-13T09:43:11Z</time>
      </trkpt>
      <trkpt lat="45.02359" lon="0.88828">
        <ele>260.8</ele>
        <time>2022-08-13T09:43:16Z</time>
      </trkpt>
      <trkpt lat="45.02364" lon="0.88853">
        <ele>260.9</ele>
        <time>2022-08-13T09:43:21Z</time>
      </trkpt>
      <trkpt lat="45.02368" lon="0.88877">
        <ele>261.1</ele>
        <time>2022-08-13T09:43:26Z</time>
      </trkpt>
      <trkpt lat="45.0237" lon="0.8891">
        <ele>261.2</ele>
        <time>2022-08-13T09:43:33Z</time>
      </trkpt>
      <trkpt lat="45.02369" lon="0.88942">
        <ele>261.4</ele>
        <time>2022-08-13T09:43:40Z</time>
      </trkpt>
      <trkpt lat="45.02357" lon="0.88968">
        <ele>261.3</ele>
        <time>2022-08-13T09:43:46Z</time>
      </trkpt>
      <trkpt lat="45.02334" lon="0.88993">
        <ele>261.2</ele>
        <time>2022-08-13T09:43:53Z</time>
      </trkpt>
      <trkpt lat="45.02322" lon="0.88998">
        <ele>261.1</ele>
        <time>2022-08-13T09:43:56Z</time>
      </trkpt>
      <trkpt lat="45.02314" lon="0.89002">
        <ele>261</ele>
        <time>2022-08-13T09:43:58Z</time>
      </trkpt>
      <trkpt lat="45.02294" lon="0.89011">
        <ele>261.2</ele>
        <time>2022-08-13T09:44:03Z</time>
      </trkpt>
      <trkpt lat="45.02265" lon="0.89032">
        <ele>261.7</ele>
        <time>2022-08-13T09:44:11Z</time>
      </trkpt>
      <trkpt lat="45.02228" lon="0.89058">
        <ele>261.4</ele>
        <time>2022-08-13T09:44:21Z</time>
      </trkpt>
      <trkpt lat="45.02219" lon="0.89063">
        <ele>261</ele>
        <time>2022-08-13T09:44:23Z</time>
      </trkpt>
      <trkpt lat="45.02206" lon="0.89071">
        <ele>260.2</ele>
        <time>2022-08-13T09:44:26Z</time>
      </trkpt>
      <trkpt lat="45.02197" lon="0.89077">
        <ele>259.5</ele>
        <time>2022-08-13T09:44:28Z</time>
      </trkpt>
      <trkpt lat="45.02186" lon="0.89083">
        <ele>258.7</ele>
        <time>2022-08-13T09:44:30Z</time>
      </trkpt>
      <trkpt lat="45.02146" lon="0.89107">
        <ele>257.2</ele>
        <time>2022-08-13T09:44:37Z</time>
      </trkpt>
      <trkpt lat="45.02116" lon="0.89125">
        <ele>257.1</ele>
        <time>2022-08-13T09:44:43Z</time>
      </trkpt>
      <trkpt lat="45.02084" lon="0.89147">
        <ele>256.3</ele>
        <time>2022-08-13T09:44:50Z</time>
      </trkpt>
      <trkpt lat="45.02045" lon="0.89185">
        <ele>255.7</ele>
        <time>2022-08-13T09:44:59Z</time>
      </trkpt>
      <trkpt lat="45.0203" lon="0.89199">
        <ele>255.5</ele>
        <time>2022-08-13T09:45:03Z</time>
      </trkpt>
      <trkpt lat="45.02026" lon="0.89203">
        <ele>255.4</ele>
        <time>2022-08-13T09:45:04Z</time>
      </trkpt>
      <trkpt lat="45.02001" lon="0.89226">
        <ele>255</ele>
        <time>2022-08-13T09:45:10Z</time>
      </trkpt>
      <trkpt lat="45.01975" lon="0.89245">
        <ele>254.7</ele>
        <time>2022-08-13T09:45:16Z</time>
      </trkpt>
      <trkpt lat="45.01971" lon="0.89247">
        <ele>254.6</ele>
        <time>2022-08-13T09:45:17Z</time>
      </trkpt>
      <trkpt lat="45.01942" lon="0.89258">
        <ele>254.6</ele>
        <time>2022-08-13T09:45:23Z</time>
      </trkpt>
      <trkpt lat="45.01925" lon="0.89267">
        <ele>254.6</ele>
        <time>2022-08-13T09:45:27Z</time>
      </trkpt>
      <trkpt lat="45.01916" lon="0.89269">
        <ele>254.6</ele>
        <time>2022-08-13T09:45:29Z</time>
      </trkpt>
      <trkpt lat="45.01888" lon="0.89268">
        <ele>254.4</ele>
        <time>2022-08-13T09:45:35Z</time>
      </trkpt>
      <trkpt lat="45.01861" lon="0.89266">
        <ele>254.4</ele>
        <time>2022-08-13T09:45:41Z</time>
      </trkpt>
      <trkpt lat="45.01824" lon="0.89262">
        <ele>254.7</ele>
        <time>2022-08-13T09:45:49Z</time>
      </trkpt>
      <trkpt lat="45.01793" lon="0.89253">
        <ele>255.2</ele>
        <time>2022-08-13T09:45:56Z</time>
      </trkpt>
      <trkpt lat="45.01789" lon="0.89254">
        <ele>255.2</ele>
        <time>2022-08-13T09:45:57Z</time>
      </trkpt>
      <trkpt lat="45.01777" lon="0.89256">
        <ele>255.4</ele>
        <time>2022-08-13T09:46:00Z</time>
      </trkpt>
      <trkpt lat="45.01762" lon="0.89261">
        <ele>255.5</ele>
        <time>2022-08-13T09:46:04Z</time>
      </trkpt>
      <trkpt lat="45.01736" lon="0.89268">
        <ele>255.3</ele>
        <time>2022-08-13T09:46:10Z</time>
      </trkpt>
      <trkpt lat="45.01728" lon="0.89274">
        <ele>255.1</ele>
        <time>2022-08-13T09:46:12Z</time>
      </trkpt>
      <trkpt lat="45.01716" lon="0.89285">
        <ele>254.7</ele>
        <time>2022-08-13T09:46:15Z</time>
      </trkpt>
      <trkpt lat="45.01703" lon="0.89297">
        <ele>254.1</ele>
        <time>2022-08-13T09:46:18Z</time>
      </trkpt>
      <trkpt lat="45.0169" lon="0.89305">
        <ele>253.5</ele>
        <time>2022-08-13T09:46:21Z</time>
      </trkpt>
      <trkpt lat="45.01676" lon="0.89312">
        <ele>252.8</ele>
        <time>2022-08-13T09:46:24Z</time>
      </trkpt>
      <trkpt lat="45.01667" lon="0.89317">
        <ele>252.3</ele>
        <time>2022-08-13T09:46:26Z</time>
      </trkpt>
      <trkpt lat="45.01662" lon="0.89319">
        <ele>252.1</ele>
        <time>2022-08-13T09:46:27Z</time>
      </trkpt>
      <trkpt lat="45.0163" lon="0.89331">
        <ele>250.6</ele>
        <time>2022-08-13T09:46:33Z</time>
      </trkpt>
      <trkpt lat="45.01608" lon="0.89342">
        <ele>249.7</ele>
        <time>2022-08-13T09:46:37Z</time>
      </trkpt>
      <trkpt lat="45.01597" lon="0.89348">
        <ele>249.2</ele>
        <time>2022-08-13T09:46:39Z</time>
      </trkpt>
      <trkpt lat="45.01553" lon="0.89375">
        <ele>247.7</ele>
        <time>2022-08-13T09:46:47Z</time>
      </trkpt>
      <trkpt lat="45.01506" lon="0.89407">
        <ele>246.5</ele>
        <time>2022-08-13T09:46:56Z</time>
      </trkpt>
      <trkpt lat="45.01463" lon="0.89443">
        <ele>245.5</ele>
        <time>2022-08-13T09:47:05Z</time>
      </trkpt>
      <trkpt lat="45.01412" lon="0.89479">
        <ele>245</ele>
        <time>2022-08-13T09:47:15Z</time>
      </trkpt>
      <trkpt lat="45.01369" lon="0.89512">
        <ele>244.9</ele>
        <time>2022-08-13T09:47:24Z</time>
      </trkpt>
      <trkpt lat="45.0135" lon="0.8953">
        <ele>245.2</ele>
        <time>2022-08-13T09:47:30Z</time>
      </trkpt>
      <trkpt lat="45.01344" lon="0.89537">
        <ele>245.4</ele>
        <time>2022-08-13T09:47:32Z</time>
      </trkpt>
      <trkpt lat="45.01332" lon="0.89553">
        <ele>245.7</ele>
        <time>2022-08-13T09:47:36Z</time>
      </trkpt>
      <trkpt lat="45.01324" lon="0.89564">
        <ele>245.9</ele>
        <time>2022-08-13T09:47:39Z</time>
      </trkpt>
      <trkpt lat="45.01323" lon="0.89566">
        <ele>246.5</ele>
        <time>2022-08-13T09:47:40Z</time>
      </trkpt>
      <trkpt lat="45.01316" lon="0.89555">
        <ele>246.3</ele>
        <time>2022-08-13T09:47:42Z</time>
      </trkpt>
      <trkpt lat="45.01313" lon="0.89548">
        <ele>246.3</ele>
        <time>2022-08-13T09:47:44Z</time>
      </trkpt>
      <trkpt lat="45.01314" lon="0.89543">
        <ele>246.2</ele>
        <time>2022-08-13T09:47:46Z</time>
      </trkpt>
      <trkpt lat="45.01314" lon="0.89539">
        <ele>245.9</ele>
        <time>2022-08-13T09:47:48Z</time>
      </trkpt>
      <trkpt lat="45.01314" lon="0.89536">
        <ele>245.9</ele>
        <time>2022-08-13T09:47:49Z</time>
      </trkpt>
      <trkpt lat="45.01314" lon="0.89524">
        <ele>245.8</ele>
        <time>2022-08-13T09:47:53Z</time>
      </trkpt>
      <trkpt lat="45.0131" lon="0.89512">
        <ele>245.5</ele>
        <time>2022-08-13T09:47:56Z</time>
      </trkpt>
      <trkpt lat="45.0131" lon="0.89508">
        <ele>245.5</ele>
        <time>2022-08-13T09:47:57Z</time>
      </trkpt>
      <trkpt lat="45.01302" lon="0.89482">
        <ele>244.6</ele>
        <time>2022-08-13T09:48:01Z</time>
      </trkpt>
      <trkpt lat="45.01286" lon="0.89475">
        <ele>244.3</ele>
        <time>2022-08-13T09:48:03Z</time>
      </trkpt>
      <trkpt lat="45.01275" lon="0.89463">
        <ele>243.2</ele>
        <time>2022-08-13T09:48:05Z</time>
      </trkpt>
      <trkpt lat="45.01268" lon="0.89457">
        <ele>243.1</ele>
        <time>2022-08-13T09:48:06Z</time>
      </trkpt>
      <trkpt lat="45.01262" lon="0.89453">
        <ele>242.7</ele>
        <time>2022-08-13T09:48:07Z</time>
      </trkpt>
      <trkpt lat="45.01249" lon="0.89441">
        <ele>241.5</ele>
        <time>2022-08-13T09:48:09Z</time>
      </trkpt>
      <trkpt lat="45.01229" lon="0.89431">
        <ele>240</ele>
        <time>2022-08-13T09:48:12Z</time>
      </trkpt>
      <trkpt lat="45.01223" lon="0.8943">
        <ele>239</ele>
        <time>2022-08-13T09:48:13Z</time>
      </trkpt>
      <trkpt lat="45.01214" lon="0.89428">
        <ele>237.8</ele>
        <time>2022-08-13T09:48:14Z</time>
      </trkpt>
      <trkpt lat="45.01213" lon="0.89433">
        <ele>237.7</ele>
        <time>2022-08-13T09:48:15Z</time>
      </trkpt>
      <trkpt lat="45.01212" lon="0.89441">
        <ele>238.9</ele>
        <time>2022-08-13T09:48:16Z</time>
      </trkpt>
      <trkpt lat="45.01208" lon="0.89445">
        <ele>238.9</ele>
        <time>2022-08-13T09:48:17Z</time>
      </trkpt>
      <trkpt lat="45.01199" lon="0.89449">
        <ele>237.6</ele>
        <time>2022-08-13T09:48:19Z</time>
      </trkpt>
      <trkpt lat="45.01179" lon="0.89448">
        <ele>236.3</ele>
        <time>2022-08-13T09:48:22Z</time>
      </trkpt>
      <trkpt lat="45.01172" lon="0.89446">
        <ele>235.5</ele>
        <time>2022-08-13T09:48:23Z</time>
      </trkpt>
      <trkpt lat="45.0116" lon="0.89432">
        <ele>233.3</ele>
        <time>2022-08-13T09:48:25Z</time>
      </trkpt>
      <trkpt lat="45.0114" lon="0.89418">
        <ele>229.7</ele>
        <time>2022-08-13T09:48:28Z</time>
      </trkpt>
      <trkpt lat="45.01132" lon="0.89414">
        <ele>229.6</ele>
        <time>2022-08-13T09:48:29Z</time>
      </trkpt>
      <trkpt lat="45.01126" lon="0.89413">
        <ele>228.7</ele>
        <time>2022-08-13T09:48:30Z</time>
      </trkpt>
      <trkpt lat="45.01109" lon="0.89409">
        <ele>227.7</ele>
        <time>2022-08-13T09:48:32Z</time>
      </trkpt>
      <trkpt lat="45.01077" lon="0.89396">
        <ele>223.4</ele>
        <time>2022-08-13T09:48:36Z</time>
      </trkpt>
      <trkpt lat="45.01062" lon="0.89391">
        <ele>222.4</ele>
        <time>2022-08-13T09:48:38Z</time>
      </trkpt>
      <trkpt lat="45.01055" lon="0.89387">
        <ele>221.2</ele>
        <time>2022-08-13T09:48:40Z</time>
      </trkpt>
      <trkpt lat="45.01045" lon="0.89383">
        <ele>220.1</ele>
        <time>2022-08-13T09:48:42Z</time>
      </trkpt>
      <trkpt lat="45.01037" lon="0.89377">
        <ele>219</ele>
        <time>2022-08-13T09:48:44Z</time>
      </trkpt>
      <trkpt lat="45.01026" lon="0.89368">
        <ele>217.6</ele>
        <time>2022-08-13T09:48:46Z</time>
      </trkpt>
      <trkpt lat="45.01026" lon="0.89366">
        <ele>217.6</ele>
        <time>2022-08-13T09:48:50Z</time>
      </trkpt>
      <trkpt lat="45.01026" lon="0.89358">
        <ele>217.4</ele>
        <time>2022-08-13T09:49:16Z</time>
      </trkpt>
      <trkpt lat="45.01026" lon="0.89351">
        <ele>217.2</ele>
        <time>2022-08-13T09:49:18Z</time>
      </trkpt>
      <trkpt lat="45.01025" lon="0.89331">
        <ele>216.7</ele>
        <time>2022-08-13T09:49:24Z</time>
      </trkpt>
      <trkpt lat="45.01023" lon="0.89306">
        <ele>215.9</ele>
        <time>2022-08-13T09:49:31Z</time>
      </trkpt>
      <trkpt lat="45.01021" lon="0.89283">
        <ele>215</ele>
        <time>2022-08-13T09:49:36Z</time>
      </trkpt>
      <trkpt lat="45.01019" lon="0.89248">
        <ele>213.5</ele>
        <time>2022-08-13T09:49:43Z</time>
      </trkpt>
      <trkpt lat="45.01015" lon="0.89202">
        <ele>211.6</ele>
        <time>2022-08-13T09:49:49Z</time>
      </trkpt>
      <trkpt lat="45.01009" lon="0.89174">
        <ele>210.5</ele>
        <time>2022-08-13T09:49:52Z</time>
      </trkpt>
      <trkpt lat="45.01003" lon="0.89156">
        <ele>209.7</ele>
        <time>2022-08-13T09:49:54Z</time>
      </trkpt>
      <trkpt lat="45.00998" lon="0.89143">
        <ele>209.1</ele>
        <time>2022-08-13T09:49:56Z</time>
      </trkpt>
      <trkpt lat="45.00997" lon="0.89139">
        <ele>209</ele>
        <time>2022-08-13T09:49:57Z</time>
      </trkpt>
      <trkpt lat="45.00996" lon="0.89136">
        <ele>208.4</ele>
        <time>2022-08-13T09:49:58Z</time>
      </trkpt>
      <trkpt lat="45.00975" lon="0.89148">
        <ele>208.5</ele>
        <time>2022-08-13T09:50:01Z</time>
      </trkpt>
      <trkpt lat="45.00967" lon="0.89152">
        <ele>208</ele>
        <time>2022-08-13T09:50:03Z</time>
      </trkpt>
      <trkpt lat="45.00956" lon="0.89158">
        <ele>207.7</ele>
        <time>2022-08-13T09:50:06Z</time>
      </trkpt>
      <trkpt lat="45.00953" lon="0.89161">
        <ele>208.1</ele>
        <time>2022-08-13T09:50:07Z</time>
      </trkpt>
      <trkpt lat="45.00944" lon="0.89165">
        <ele>207.8</ele>
        <time>2022-08-13T09:50:09Z</time>
      </trkpt>
      <trkpt lat="45.00941" lon="0.89169">
        <ele>207.8</ele>
        <time>2022-08-13T09:50:10Z</time>
      </trkpt>
      <trkpt lat="45.00929" lon="0.89176">
        <ele>207.6</ele>
        <time>2022-08-13T09:50:13Z</time>
      </trkpt>
      <trkpt lat="45.00924" lon="0.89178">
        <ele>207.8</ele>
        <time>2022-08-13T09:50:14Z</time>
      </trkpt>
      <trkpt lat="45.0092" lon="0.89181">
        <ele>207.6</ele>
        <time>2022-08-13T09:50:15Z</time>
      </trkpt>
      <trkpt lat="45.00907" lon="0.89187">
        <ele>207.4</ele>
        <time>2022-08-13T09:50:18Z</time>
      </trkpt>
      <trkpt lat="45.00902" lon="0.89189">
        <ele>207.4</ele>
        <time>2022-08-13T09:50:19Z</time>
      </trkpt>
      <trkpt lat="45.00878" lon="0.89204">
        <ele>207.5</ele>
        <time>2022-08-13T09:50:24Z</time>
      </trkpt>
      <trkpt lat="45.00874" lon="0.89207">
        <ele>207.4</ele>
        <time>2022-08-13T09:50:25Z</time>
      </trkpt>
      <trkpt lat="45.00852" lon="0.89222">
        <ele>207.5</ele>
        <time>2022-08-13T09:50:30Z</time>
      </trkpt>
      <trkpt lat="45.00847" lon="0.89225">
        <ele>207.4</ele>
        <time>2022-08-13T09:50:31Z</time>
      </trkpt>
      <trkpt lat="45.00818" lon="0.89239">
        <ele>207.6</ele>
        <time>2022-08-13T09:50:36Z</time>
      </trkpt>
      <trkpt lat="45.00813" lon="0.89243">
        <ele>207.6</ele>
        <time>2022-08-13T09:50:37Z</time>
      </trkpt>
      <trkpt lat="45.008" lon="0.89252">
        <ele>208</ele>
        <time>2022-08-13T09:50:40Z</time>
      </trkpt>
      <trkpt lat="45.00795" lon="0.89256">
        <ele>207.9</ele>
        <time>2022-08-13T09:50:41Z</time>
      </trkpt>
      <trkpt lat="45.00792" lon="0.89259">
        <ele>207.9</ele>
        <time>2022-08-13T09:50:42Z</time>
      </trkpt>
      <trkpt lat="45.00786" lon="0.8927">
        <ele>208.2</ele>
        <time>2022-08-13T09:50:44Z</time>
      </trkpt>
      <trkpt lat="45.00784" lon="0.89276">
        <ele>208.2</ele>
        <time>2022-08-13T09:50:45Z</time>
      </trkpt>
      <trkpt lat="45.00771" lon="0.89295">
        <ele>208.5</ele>
        <time>2022-08-13T09:50:49Z</time>
      </trkpt>
      <trkpt lat="45.0076" lon="0.89307">
        <ele>208.7</ele>
        <time>2022-08-13T09:50:52Z</time>
      </trkpt>
      <trkpt lat="45.00752" lon="0.89315">
        <ele>208.3</ele>
        <time>2022-08-13T09:50:54Z</time>
      </trkpt>
      <trkpt lat="45.00749" lon="0.89318">
        <ele>209.3</ele>
        <time>2022-08-13T09:50:55Z</time>
      </trkpt>
      <trkpt lat="45.00734" lon="0.89331">
        <ele>208.7</ele>
        <time>2022-08-13T09:50:58Z</time>
      </trkpt>
      <trkpt lat="45.00725" lon="0.89344">
        <ele>209.4</ele>
        <time>2022-08-13T09:51:00Z</time>
      </trkpt>
      <trkpt lat="45.00717" lon="0.89357">
        <ele>211.1</ele>
        <time>2022-08-13T09:51:02Z</time>
      </trkpt>
      <trkpt lat="45.00707" lon="0.89367">
        <ele>211.8</ele>
        <time>2022-08-13T09:51:04Z</time>
      </trkpt>
      <trkpt lat="45.00699" lon="0.89378">
        <ele>211</ele>
        <time>2022-08-13T09:51:06Z</time>
      </trkpt>
      <trkpt lat="45.00671" lon="0.89408">
        <ele>212.2</ele>
        <time>2022-08-13T09:51:12Z</time>
      </trkpt>
      <trkpt lat="45.00657" lon="0.89429">
        <ele>212.2</ele>
        <time>2022-08-13T09:51:16Z</time>
      </trkpt>
      <trkpt lat="45.00653" lon="0.89433">
        <ele>211.1</ele>
        <time>2022-08-13T09:51:17Z</time>
      </trkpt>
      <trkpt lat="45.00644" lon="0.89438">
        <ele>210.9</ele>
        <time>2022-08-13T09:51:19Z</time>
      </trkpt>
      <trkpt lat="45.00628" lon="0.89451">
        <ele>210.3</ele>
        <time>2022-08-13T09:51:23Z</time>
      </trkpt>
      <trkpt lat="45.00621" lon="0.89457">
        <ele>210.9</ele>
        <time>2022-08-13T09:51:25Z</time>
      </trkpt>
      <trkpt lat="45.00617" lon="0.89461">
        <ele>210.6</ele>
        <time>2022-08-13T09:51:26Z</time>
      </trkpt>
      <trkpt lat="45.00606" lon="0.89469">
        <ele>210.4</ele>
        <time>2022-08-13T09:51:29Z</time>
      </trkpt>
      <trkpt lat="45.00585" lon="0.89476">
        <ele>211</ele>
        <time>2022-08-13T09:51:33Z</time>
      </trkpt>
      <trkpt lat="45.00581" lon="0.89478">
        <ele>210.9</ele>
        <time>2022-08-13T09:51:34Z</time>
      </trkpt>
      <trkpt lat="45.00564" lon="0.89479">
        <ele>210.9</ele>
        <time>2022-08-13T09:51:37Z</time>
      </trkpt>
      <trkpt lat="45.00529" lon="0.8948">
        <ele>211.4</ele>
        <time>2022-08-13T09:51:44Z</time>
      </trkpt>
      <trkpt lat="45.00521" lon="0.8948">
        <ele>211.8</ele>
        <time>2022-08-13T09:51:48Z</time>
      </trkpt>
      <trkpt lat="45.00521" lon="0.89479">
        <ele>211.8</ele>
        <time>2022-08-13T09:51:49Z</time>
      </trkpt>
      <trkpt lat="45.00521" lon="0.89479">
        <ele>211.8</ele>
        <time>2022-08-13T09:51:51Z</time>
      </trkpt>
      <trkpt lat="45.00516" lon="0.89482">
        <ele>211.8</ele>
        <time>2022-08-13T09:52:02Z</time>
      </trkpt>
      <trkpt lat="45.00504" lon="0.89481">
        <ele>212.2</ele>
        <time>2022-08-13T09:52:05Z</time>
      </trkpt>
      <trkpt lat="45.00493" lon="0.89486">
        <ele>212.4</ele>
        <time>2022-08-13T09:52:08Z</time>
      </trkpt>
      <trkpt lat="45.0048" lon="0.89487">
        <ele>212.5</ele>
        <time>2022-08-13T09:52:13Z</time>
      </trkpt>
      <trkpt lat="45.00479" lon="0.89487">
        <ele>212.4</ele>
        <time>2022-08-13T09:52:14Z</time>
      </trkpt>
      <trkpt lat="45.00482" lon="0.8948">
        <ele>212.4</ele>
        <time>2022-08-13T09:52:17Z</time>
      </trkpt>
      <trkpt lat="45.00495" lon="0.89475">
        <ele>212.3</ele>
        <time>2022-08-13T09:52:22Z</time>
      </trkpt>
      <trkpt lat="45.00505" lon="0.89472">
        <ele>212.1</ele>
        <time>2022-08-13T09:52:25Z</time>
      </trkpt>
      <trkpt lat="45.00518" lon="0.89466">
        <ele>211.4</ele>
        <time>2022-08-13T09:52:29Z</time>
      </trkpt>
      <trkpt lat="45.00535" lon="0.89459">
        <ele>210.7</ele>
        <time>2022-08-13T09:52:34Z</time>
      </trkpt>
      <trkpt lat="45.00539" lon="0.89459">
        <ele>210.7</ele>
        <time>2022-08-13T09:52:35Z</time>
      </trkpt>
      <trkpt lat="45.00549" lon="0.89455">
        <ele>210.4</ele>
        <time>2022-08-13T09:52:38Z</time>
      </trkpt>
      <trkpt lat="45.00563" lon="0.89445">
        <ele>210</ele>
        <time>2022-08-13T09:52:43Z</time>
      </trkpt>
      <trkpt lat="45.00574" lon="0.89435">
        <ele>209.7</ele>
        <time>2022-08-13T09:52:47Z</time>
      </trkpt>
      <trkpt lat="45.00577" lon="0.89432">
        <ele>209.7</ele>
        <time>2022-08-13T09:52:48Z</time>
      </trkpt>
      <trkpt lat="45.0059" lon="0.89412">
        <ele>209.6</ele>
        <time>2022-08-13T09:52:53Z</time>
      </trkpt>
      <trkpt lat="45.00595" lon="0.89399">
        <ele>209.7</ele>
        <time>2022-08-13T09:52:56Z</time>
      </trkpt>
      <trkpt lat="45.00598" lon="0.89392">
        <ele>209.5</ele>
        <time>2022-08-13T09:52:58Z</time>
      </trkpt>
      <trkpt lat="45.00603" lon="0.89384">
        <ele>209.7</ele>
        <time>2022-08-13T09:53:00Z</time>
      </trkpt>
      <trkpt lat="45.00599" lon="0.89376">
        <ele>209.7</ele>
        <time>2022-08-13T09:53:02Z</time>
      </trkpt>
      <trkpt lat="45.00595" lon="0.89368">
        <ele>209.9</ele>
        <time>2022-08-13T09:53:04Z</time>
      </trkpt>
      <trkpt lat="45.0059" lon="0.89359">
        <ele>210</ele>
        <time>2022-08-13T09:53:06Z</time>
      </trkpt>
      <trkpt lat="45.00578" lon="0.89331">
        <ele>210.7</ele>
        <time>2022-08-13T09:53:11Z</time>
      </trkpt>
      <trkpt lat="45.00571" lon="0.89309">
        <ele>211.1</ele>
        <time>2022-08-13T09:53:16Z</time>
      </trkpt>
      <trkpt lat="45.00564" lon="0.89288">
        <ele>211.2</ele>
        <time>2022-08-13T09:53:21Z</time>
      </trkpt>
      <trkpt lat="45.00558" lon="0.89266">
        <ele>211.8</ele>
        <time>2022-08-13T09:53:27Z</time>
      </trkpt>
      <trkpt lat="45.00548" lon="0.89253">
        <ele>212.1</ele>
        <time>2022-08-13T09:53:32Z</time>
      </trkpt>
      <trkpt lat="45.00527" lon="0.89241">
        <ele>213.2</ele>
        <time>2022-08-13T09:53:40Z</time>
      </trkpt>
      <trkpt lat="45.00513" lon="0.89239">
        <ele>213.5</ele>
        <time>2022-08-13T09:53:45Z</time>
      </trkpt>
      <trkpt lat="45.00506" lon="0.89229">
        <ele>214.3</ele>
        <time>2022-08-13T09:53:49Z</time>
      </trkpt>
      <trkpt lat="45.00488" lon="0.89218">
        <ele>214.7</ele>
        <time>2022-08-13T09:53:56Z</time>
      </trkpt>
      <trkpt lat="45.00467" lon="0.89204">
        <ele>215.5</ele>
        <time>2022-08-13T09:54:04Z</time>
      </trkpt>
      <trkpt lat="45.0045" lon="0.89189">
        <ele>215.8</ele>
        <time>2022-08-13T09:54:11Z</time>
      </trkpt>
      <trkpt lat="45.00437" lon="0.89171">
        <ele>215.9</ele>
        <time>2022-08-13T09:54:17Z</time>
      </trkpt>
      <trkpt lat="45.00424" lon="0.89146">
        <ele>215.9</ele>
        <time>2022-08-13T09:54:25Z</time>
      </trkpt>
      <trkpt lat="45.00416" lon="0.89131">
        <ele>215.9</ele>
        <time>2022-08-13T09:54:30Z</time>
      </trkpt>
      <trkpt lat="45.00405" lon="0.89107">
        <ele>216.3</ele>
        <time>2022-08-13T09:54:37Z</time>
      </trkpt>
      <trkpt lat="45.00396" lon="0.89094">
        <ele>216.4</ele>
        <time>2022-08-13T09:54:42Z</time>
      </trkpt>
      <trkpt lat="45.00382" lon="0.89076">
        <ele>216.9</ele>
        <time>2022-08-13T09:54:49Z</time>
      </trkpt>
      <trkpt lat="45.00366" lon="0.89065">
        <ele>217.8</ele>
        <time>2022-08-13T09:54:56Z</time>
      </trkpt>
      <trkpt lat="45.00349" lon="0.89049">
        <ele>219.1</ele>
        <time>2022-08-13T09:55:04Z</time>
      </trkpt>
      <trkpt lat="45.00334" lon="0.89037">
        <ele>219.9</ele>
        <time>2022-08-13T09:55:10Z</time>
      </trkpt>
      <trkpt lat="45.00316" lon="0.89024">
        <ele>220.2</ele>
        <time>2022-08-13T09:55:17Z</time>
      </trkpt>
      <trkpt lat="45.00304" lon="0.89016">
        <ele>220.7</ele>
        <time>2022-08-13T09:55:22Z</time>
      </trkpt>
      <trkpt lat="45.00296" lon="0.89012">
        <ele>220.6</ele>
        <time>2022-08-13T09:55:26Z</time>
      </trkpt>
      <trkpt lat="45.00285" lon="0.89006">
        <ele>221.2</ele>
        <time>2022-08-13T09:55:31Z</time>
      </trkpt>
      <trkpt lat="45.0027" lon="0.89001">
        <ele>221.4</ele>
        <time>2022-08-13T09:55:36Z</time>
      </trkpt>
      <trkpt lat="45.00258" lon="0.88996">
        <ele>221.6</ele>
        <time>2022-08-13T09:55:40Z</time>
      </trkpt>
      <trkpt lat="45.00246" lon="0.88986">
        <ele>222.5</ele>
        <time>2022-08-13T09:55:45Z</time>
      </trkpt>
      <trkpt lat="45.00234" lon="0.8898">
        <ele>222.7</ele>
        <time>2022-08-13T09:55:50Z</time>
      </trkpt>
      <trkpt lat="45.00223" lon="0.88974">
        <ele>222.8</ele>
        <time>2022-08-13T09:55:54Z</time>
      </trkpt>
      <trkpt lat="45.00209" lon="0.8897">
        <ele>223.6</ele>
        <time>2022-08-13T09:55:59Z</time>
      </trkpt>
      <trkpt lat="45.00194" lon="0.88966">
        <ele>223.8</ele>
        <time>2022-08-13T09:56:04Z</time>
      </trkpt>
      <trkpt lat="45.00178" lon="0.88961">
        <ele>223.8</ele>
        <time>2022-08-13T09:56:09Z</time>
      </trkpt>
      <trkpt lat="45.00166" lon="0.8896">
        <ele>223.7</ele>
        <time>2022-08-13T09:56:13Z</time>
      </trkpt>
      <trkpt lat="45.00157" lon="0.88958">
        <ele>223.4</ele>
        <time>2022-08-13T09:56:16Z</time>
      </trkpt>
      <trkpt lat="45.00155" lon="0.88956">
        <ele>223.3</ele>
        <time>2022-08-13T09:56:17Z</time>
      </trkpt>
      <trkpt lat="45.00141" lon="0.88948">
        <ele>223.3</ele>
        <time>2022-08-13T09:56:22Z</time>
      </trkpt>
      <trkpt lat="45.00137" lon="0.88945">
        <ele>223.3</ele>
        <time>2022-08-13T09:56:25Z</time>
      </trkpt>
      <trkpt lat="45.00132" lon="0.88944">
        <ele>222.5</ele>
        <time>2022-08-13T09:56:29Z</time>
      </trkpt>
      <trkpt lat="45.00109" lon="0.88931">
        <ele>221.3</ele>
        <time>2022-08-13T09:56:51Z</time>
      </trkpt>
      <trkpt lat="45.00109" lon="0.88931">
        <ele>221.3</ele>
        <time>2022-08-13T09:56:54Z</time>
      </trkpt>
      <trkpt lat="45.00122" lon="0.88925">
        <ele>222</ele>
        <time>2022-08-13T09:57:05Z</time>
      </trkpt>
      <trkpt lat="45.00134" lon="0.88911">
        <ele>223.4</ele>
        <time>2022-08-13T09:57:12Z</time>
      </trkpt>
      <trkpt lat="45.00142" lon="0.88903">
        <ele>225.1</ele>
        <time>2022-08-13T09:57:16Z</time>
      </trkpt>
      <trkpt lat="45.00148" lon="0.88894">
        <ele>226</ele>
        <time>2022-08-13T09:57:21Z</time>
      </trkpt>
      <trkpt lat="45.00151" lon="0.88889">
        <ele>226</ele>
        <time>2022-08-13T09:57:23Z</time>
      </trkpt>
      <trkpt lat="45.00154" lon="0.88885">
        <ele>226.7</ele>
        <time>2022-08-13T09:57:25Z</time>
      </trkpt>
      <trkpt lat="45.00157" lon="0.88885">
        <ele>226.7</ele>
        <time>2022-08-13T09:57:26Z</time>
      </trkpt>
      <trkpt lat="45.00159" lon="0.88882">
        <ele>227.1</ele>
        <time>2022-08-13T09:57:28Z</time>
      </trkpt>
      <trkpt lat="45.00163" lon="0.8888">
        <ele>227.1</ele>
        <time>2022-08-13T09:57:30Z</time>
      </trkpt>
      <trkpt lat="45.00165" lon="0.88878">
        <ele>227.1</ele>
        <time>2022-08-13T09:57:31Z</time>
      </trkpt>
      <trkpt lat="45.00174" lon="0.88869">
        <ele>227.1</ele>
        <time>2022-08-13T09:57:36Z</time>
      </trkpt>
      <trkpt lat="45.00175" lon="0.88863">
        <ele>227.4</ele>
        <time>2022-08-13T09:57:38Z</time>
      </trkpt>
      <trkpt lat="45.00177" lon="0.88851">
        <ele>227.6</ele>
        <time>2022-08-13T09:57:41Z</time>
      </trkpt>
      <trkpt lat="45.00173" lon="0.88844">
        <ele>227.6</ele>
        <time>2022-08-13T09:57:43Z</time>
      </trkpt>
      <trkpt lat="45.00169" lon="0.88836">
        <ele>227.7</ele>
        <time>2022-08-13T09:57:45Z</time>
      </trkpt>
      <trkpt lat="45.00156" lon="0.88825">
        <ele>227.8</ele>
        <time>2022-08-13T09:57:50Z</time>
      </trkpt>
      <trkpt lat="45.00144" lon="0.88814">
        <ele>227.8</ele>
        <time>2022-08-13T09:57:55Z</time>
      </trkpt>
      <trkpt lat="45.0013" lon="0.88805">
        <ele>227.3</ele>
        <time>2022-08-13T09:58:00Z</time>
      </trkpt>
      <trkpt lat="45.00114" lon="0.88795">
        <ele>227.1</ele>
        <time>2022-08-13T09:58:05Z</time>
      </trkpt>
      <trkpt lat="45.00097" lon="0.88778">
        <ele>226.2</ele>
        <time>2022-08-13T09:58:12Z</time>
      </trkpt>
      <trkpt lat="45.00083" lon="0.88784">
        <ele>225.8</ele>
        <time>2022-08-13T09:58:17Z</time>
      </trkpt>
      <trkpt lat="45.00066" lon="0.88793">
        <ele>225.3</ele>
        <time>2022-08-13T09:58:22Z</time>
      </trkpt>
      <trkpt lat="45.00042" lon="0.88804">
        <ele>224.5</ele>
        <time>2022-08-13T09:58:29Z</time>
      </trkpt>
      <trkpt lat="45.00026" lon="0.88819">
        <ele>224</ele>
        <time>2022-08-13T09:58:34Z</time>
      </trkpt>
      <trkpt lat="45.00019" lon="0.88827">
        <ele>223.8</ele>
        <time>2022-08-13T09:58:36Z</time>
      </trkpt>
      <trkpt lat="45.00016" lon="0.88831">
        <ele>223.7</ele>
        <time>2022-08-13T09:58:37Z</time>
      </trkpt>
      <trkpt lat="45.00006" lon="0.88843">
        <ele>223.4</ele>
        <time>2022-08-13T09:58:40Z</time>
      </trkpt>
      <trkpt lat="44.99999" lon="0.8885">
        <ele>223.3</ele>
        <time>2022-08-13T09:58:42Z</time>
      </trkpt>
      <trkpt lat="44.99982" lon="0.8887">
        <ele>223</ele>
        <time>2022-08-13T09:58:47Z</time>
      </trkpt>
      <trkpt lat="44.99978" lon="0.88874">
        <ele>223</ele>
        <time>2022-08-13T09:58:48Z</time>
      </trkpt>
      <trkpt lat="44.99959" lon="0.8889">
        <ele>222.9</ele>
        <time>2022-08-13T09:58:53Z</time>
      </trkpt>
      <trkpt lat="44.99927" lon="0.88917">
        <ele>223.2</ele>
        <time>2022-08-13T09:59:01Z</time>
      </trkpt>
      <trkpt lat="44.99895" lon="0.88945">
        <ele>223.7</ele>
        <time>2022-08-13T09:59:09Z</time>
      </trkpt>
      <trkpt lat="44.99861" lon="0.88975">
        <ele>224.7</ele>
        <time>2022-08-13T09:59:18Z</time>
      </trkpt>
      <trkpt lat="44.99833" lon="0.88999">
        <ele>225.7</ele>
        <time>2022-08-13T09:59:26Z</time>
      </trkpt>
      <trkpt lat="44.99809" lon="0.89018">
        <ele>226.5</ele>
        <time>2022-08-13T09:59:33Z</time>
      </trkpt>
      <trkpt lat="44.99805" lon="0.8902">
        <ele>226.7</ele>
        <time>2022-08-13T09:59:34Z</time>
      </trkpt>
      <trkpt lat="44.99781" lon="0.89032">
        <ele>227.7</ele>
        <time>2022-08-13T09:59:41Z</time>
      </trkpt>
      <trkpt lat="44.99736" lon="0.89055">
        <ele>229.1</ele>
        <time>2022-08-13T09:59:53Z</time>
      </trkpt>
      <trkpt lat="44.99716" lon="0.89063">
        <ele>229.7</ele>
        <time>2022-08-13T09:59:58Z</time>
      </trkpt>
      <trkpt lat="44.99708" lon="0.89064">
        <ele>229.9</ele>
        <time>2022-08-13T10:00:00Z</time>
      </trkpt>
      <trkpt lat="44.99694" lon="0.89065">
        <ele>229.8</ele>
        <time>2022-08-13T10:00:03Z</time>
      </trkpt>
      <trkpt lat="44.99686" lon="0.89065">
        <ele>229.6</ele>
        <time>2022-08-13T10:00:05Z</time>
      </trkpt>
      <trkpt lat="44.99682" lon="0.89065">
        <ele>229.6</ele>
        <time>2022-08-13T10:00:06Z</time>
      </trkpt>
      <trkpt lat="44.99669" lon="0.89065">
        <ele>229.4</ele>
        <time>2022-08-13T10:00:09Z</time>
      </trkpt>
      <trkpt lat="44.99654" lon="0.89066">
        <ele>229</ele>
        <time>2022-08-13T10:00:13Z</time>
      </trkpt>
      <trkpt lat="44.99645" lon="0.89066">
        <ele>228.9</ele>
        <time>2022-08-13T10:00:15Z</time>
      </trkpt>
      <trkpt lat="44.9961" lon="0.89066">
        <ele>228.9</ele>
        <time>2022-08-13T10:00:23Z</time>
      </trkpt>
      <trkpt lat="44.99584" lon="0.8906">
        <ele>229.7</ele>
        <time>2022-08-13T10:00:29Z</time>
      </trkpt>
      <trkpt lat="44.99575" lon="0.89058">
        <ele>229.9</ele>
        <time>2022-08-13T10:00:31Z</time>
      </trkpt>
      <trkpt lat="44.99566" lon="0.89055">
        <ele>230</ele>
        <time>2022-08-13T10:00:33Z</time>
      </trkpt>
      <trkpt lat="44.99553" lon="0.89052">
        <ele>230.2</ele>
        <time>2022-08-13T10:00:36Z</time>
      </trkpt>
      <trkpt lat="44.99544" lon="0.8905">
        <ele>230.2</ele>
        <time>2022-08-13T10:00:38Z</time>
      </trkpt>
      <trkpt lat="44.99535" lon="0.89048">
        <ele>230</ele>
        <time>2022-08-13T10:00:40Z</time>
      </trkpt>
      <trkpt lat="44.99526" lon="0.89046">
        <ele>229.8</ele>
        <time>2022-08-13T10:00:42Z</time>
      </trkpt>
      <trkpt lat="44.99517" lon="0.89046">
        <ele>229.6</ele>
        <time>2022-08-13T10:00:44Z</time>
      </trkpt>
      <trkpt lat="44.99507" lon="0.89047">
        <ele>229.4</ele>
        <time>2022-08-13T10:00:46Z</time>
      </trkpt>
      <trkpt lat="44.99478" lon="0.89059">
        <ele>229</ele>
        <time>2022-08-13T10:00:53Z</time>
      </trkpt>
      <trkpt lat="44.9946" lon="0.89069">
        <ele>228.6</ele>
        <time>2022-08-13T10:00:59Z</time>
      </trkpt>
      <trkpt lat="44.99459" lon="0.89059">
        <ele>228.6</ele>
        <time>2022-08-13T10:01:00Z</time>
      </trkpt>
      <trkpt lat="44.99453" lon="0.89053">
        <ele>228.4</ele>
        <time>2022-08-13T10:01:02Z</time>
      </trkpt>
      <trkpt lat="44.99453" lon="0.89036">
        <ele>228.3</ele>
        <time>2022-08-13T10:01:05Z</time>
      </trkpt>
      <trkpt lat="44.99453" lon="0.89026">
        <ele>228.3</ele>
        <time>2022-08-13T10:01:07Z</time>
      </trkpt>
      <trkpt lat="44.99448" lon="0.88993">
        <ele>228</ele>
        <time>2022-08-13T10:01:12Z</time>
      </trkpt>
      <trkpt lat="44.99444" lon="0.88951">
        <ele>227.1</ele>
        <time>2022-08-13T10:01:18Z</time>
      </trkpt>
      <trkpt lat="44.99443" lon="0.8893">
        <ele>226.7</ele>
        <time>2022-08-13T10:01:21Z</time>
      </trkpt>
      <trkpt lat="44.99441" lon="0.88921">
        <ele>226.6</ele>
        <time>2022-08-13T10:01:22Z</time>
      </trkpt>
      <trkpt lat="44.99436" lon="0.88903">
        <ele>225.5</ele>
        <time>2022-08-13T10:01:25Z</time>
      </trkpt>
      <trkpt lat="44.99433" lon="0.889">
        <ele>225.5</ele>
        <time>2022-08-13T10:01:26Z</time>
      </trkpt>
      <trkpt lat="44.99426" lon="0.88886">
        <ele>224.9</ele>
        <time>2022-08-13T10:01:28Z</time>
      </trkpt>
      <trkpt lat="44.99418" lon="0.88872">
        <ele>224.9</ele>
        <time>2022-08-13T10:01:30Z</time>
      </trkpt>
      <trkpt lat="44.99415" lon="0.88863">
        <ele>224.3</ele>
        <time>2022-08-13T10:01:31Z</time>
      </trkpt>
      <trkpt lat="44.99407" lon="0.88834">
        <ele>223.2</ele>
        <time>2022-08-13T10:01:34Z</time>
      </trkpt>
      <trkpt lat="44.99402" lon="0.88809">
        <ele>222.4</ele>
        <time>2022-08-13T10:01:37Z</time>
      </trkpt>
      <trkpt lat="44.99401" lon="0.88801">
        <ele>222.4</ele>
        <time>2022-08-13T10:01:38Z</time>
      </trkpt>
      <trkpt lat="44.99402" lon="0.88794">
        <ele>221.6</ele>
        <time>2022-08-13T10:01:41Z</time>
      </trkpt>
      <trkpt lat="44.99403" lon="0.8879">
        <ele>221.6</ele>
        <time>2022-08-13T10:01:45Z</time>
      </trkpt>
      <trkpt lat="44.99404" lon="0.88782">
        <ele>221.2</ele>
        <time>2022-08-13T10:02:01Z</time>
      </trkpt>
      <trkpt lat="44.99404" lon="0.88769">
        <ele>221.2</ele>
        <time>2022-08-13T10:02:03Z</time>
      </trkpt>
      <trkpt lat="44.99405" lon="0.88755">
        <ele>221.2</ele>
        <time>2022-08-13T10:02:05Z</time>
      </trkpt>
      <trkpt lat="44.99409" lon="0.88722">
        <ele>222.4</ele>
        <time>2022-08-13T10:02:11Z</time>
      </trkpt>
      <trkpt lat="44.9941" lon="0.88695">
        <ele>223.4</ele>
        <time>2022-08-13T10:02:17Z</time>
      </trkpt>
      <trkpt lat="44.99413" lon="0.88664">
        <ele>224</ele>
        <time>2022-08-13T10:02:24Z</time>
      </trkpt>
      <trkpt lat="44.99416" lon="0.88634">
        <ele>225.5</ele>
        <time>2022-08-13T10:02:31Z</time>
      </trkpt>
      <trkpt lat="44.99418" lon="0.88624">
        <ele>226.2</ele>
        <time>2022-08-13T10:02:34Z</time>
      </trkpt>
      <trkpt lat="44.99419" lon="0.8862">
        <ele>226.3</ele>
        <time>2022-08-13T10:02:35Z</time>
      </trkpt>
      <trkpt lat="44.99419" lon="0.88613">
        <ele>226.3</ele>
        <time>2022-08-13T10:02:37Z</time>
      </trkpt>
      <trkpt lat="44.99418" lon="0.88603">
        <ele>226.9</ele>
        <time>2022-08-13T10:02:39Z</time>
      </trkpt>
      <trkpt lat="44.99414" lon="0.88598">
        <ele>227</ele>
        <time>2022-08-13T10:02:40Z</time>
      </trkpt>
      <trkpt lat="44.99408" lon="0.88587">
        <ele>227.6</ele>
        <time>2022-08-13T10:02:42Z</time>
      </trkpt>
      <trkpt lat="44.994" lon="0.88575">
        <ele>228.1</ele>
        <time>2022-08-13T10:02:45Z</time>
      </trkpt>
      <trkpt lat="44.99382" lon="0.88559">
        <ele>228.8</ele>
        <time>2022-08-13T10:02:51Z</time>
      </trkpt>
      <trkpt lat="44.9937" lon="0.88547">
        <ele>228.8</ele>
        <time>2022-08-13T10:02:56Z</time>
      </trkpt>
      <trkpt lat="44.99359" lon="0.88536">
        <ele>229.4</ele>
        <time>2022-08-13T10:03:01Z</time>
      </trkpt>
      <trkpt lat="44.99349" lon="0.8852">
        <ele>229.9</ele>
        <time>2022-08-13T10:03:07Z</time>
      </trkpt>
      <trkpt lat="44.99341" lon="0.88502">
        <ele>230.4</ele>
        <time>2022-08-13T10:03:13Z</time>
      </trkpt>
      <trkpt lat="44.99337" lon="0.88493">
        <ele>230.4</ele>
        <time>2022-08-13T10:03:17Z</time>
      </trkpt>
      <trkpt lat="44.99331" lon="0.88483">
        <ele>231</ele>
        <time>2022-08-13T10:03:21Z</time>
      </trkpt>
      <trkpt lat="44.99323" lon="0.8847">
        <ele>231.4</ele>
        <time>2022-08-13T10:03:26Z</time>
      </trkpt>
      <trkpt lat="44.99319" lon="0.8846">
        <ele>231.5</ele>
        <time>2022-08-13T10:03:30Z</time>
      </trkpt>
      <trkpt lat="44.99311" lon="0.88442">
        <ele>231.8</ele>
        <time>2022-08-13T10:03:36Z</time>
      </trkpt>
      <trkpt lat="44.99306" lon="0.88423">
        <ele>231.7</ele>
        <time>2022-08-13T10:03:41Z</time>
      </trkpt>
      <trkpt lat="44.99303" lon="0.88407">
        <ele>231.1</ele>
        <time>2022-08-13T10:03:45Z</time>
      </trkpt>
      <trkpt lat="44.99302" lon="0.88402">
        <ele>230.1</ele>
        <time>2022-08-13T10:03:46Z</time>
      </trkpt>
      <trkpt lat="44.99301" lon="0.88384">
        <ele>229.2</ele>
        <time>2022-08-13T10:03:51Z</time>
      </trkpt>
      <trkpt lat="44.99299" lon="0.88362">
        <ele>228.6</ele>
        <time>2022-08-13T10:03:54Z</time>
      </trkpt>
      <trkpt lat="44.99296" lon="0.88344">
        <ele>228.4</ele>
        <time>2022-08-13T10:03:56Z</time>
      </trkpt>
      <trkpt lat="44.99295" lon="0.88334">
        <ele>228.2</ele>
        <time>2022-08-13T10:03:57Z</time>
      </trkpt>
      <trkpt lat="44.99294" lon="0.8832">
        <ele>228.1</ele>
        <time>2022-08-13T10:03:59Z</time>
      </trkpt>
      <trkpt lat="44.99293" lon="0.88309">
        <ele>228.1</ele>
        <time>2022-08-13T10:04:00Z</time>
      </trkpt>
      <trkpt lat="44.99288" lon="0.88264">
        <ele>227.9</ele>
        <time>2022-08-13T10:04:05Z</time>
      </trkpt>
      <trkpt lat="44.99289" lon="0.88257">
        <ele>227.9</ele>
        <time>2022-08-13T10:04:06Z</time>
      </trkpt>
      <trkpt lat="44.99295" lon="0.88229">
        <ele>228.6</ele>
        <time>2022-08-13T10:04:11Z</time>
      </trkpt>
      <trkpt lat="44.993" lon="0.88219">
        <ele>228.3</ele>
        <time>2022-08-13T10:04:13Z</time>
      </trkpt>
      <trkpt lat="44.99302" lon="0.88209">
        <ele>228.7</ele>
        <time>2022-08-13T10:04:15Z</time>
      </trkpt>
      <trkpt lat="44.99309" lon="0.88189">
        <ele>228.6</ele>
        <time>2022-08-13T10:04:19Z</time>
      </trkpt>
      <trkpt lat="44.99314" lon="0.88177">
        <ele>228.9</ele>
        <time>2022-08-13T10:04:22Z</time>
      </trkpt>
      <trkpt lat="44.99316" lon="0.88173">
        <ele>228.9</ele>
        <time>2022-08-13T10:04:23Z</time>
      </trkpt>
      <trkpt lat="44.99322" lon="0.88148">
        <ele>228.5</ele>
        <time>2022-08-13T10:04:28Z</time>
      </trkpt>
      <trkpt lat="44.99323" lon="0.88146">
        <ele>228.8</ele>
        <time>2022-08-13T10:04:29Z</time>
      </trkpt>
      <trkpt lat="44.99324" lon="0.88133">
        <ele>228.8</ele>
        <time>2022-08-13T10:04:31Z</time>
      </trkpt>
      <trkpt lat="44.9933" lon="0.88107">
        <ele>228.8</ele>
        <time>2022-08-13T10:04:35Z</time>
      </trkpt>
      <trkpt lat="44.99331" lon="0.88095">
        <ele>228.5</ele>
        <time>2022-08-13T10:04:37Z</time>
      </trkpt>
      <trkpt lat="44.99334" lon="0.88084">
        <ele>227.5</ele>
        <time>2022-08-13T10:04:38Z</time>
      </trkpt>
      <trkpt lat="44.99337" lon="0.88076">
        <ele>227.1</ele>
        <time>2022-08-13T10:04:39Z</time>
      </trkpt>
      <trkpt lat="44.99344" lon="0.88063">
        <ele>227.1</ele>
        <time>2022-08-13T10:04:41Z</time>
      </trkpt>
      <trkpt lat="44.99352" lon="0.88052">
        <ele>225.9</ele>
        <time>2022-08-13T10:04:43Z</time>
      </trkpt>
      <trkpt lat="44.99355" lon="0.88035">
        <ele>225.5</ele>
        <time>2022-08-13T10:04:45Z</time>
      </trkpt>
      <trkpt lat="44.99358" lon="0.88022">
        <ele>224.4</ele>
        <time>2022-08-13T10:04:47Z</time>
      </trkpt>
      <trkpt lat="44.9936" lon="0.88004">
        <ele>223.9</ele>
        <time>2022-08-13T10:04:50Z</time>
      </trkpt>
      <trkpt lat="44.99364" lon="0.87982">
        <ele>223.3</ele>
        <time>2022-08-13T10:04:54Z</time>
      </trkpt>
      <trkpt lat="44.99366" lon="0.87967">
        <ele>222.7</ele>
        <time>2022-08-13T10:04:56Z</time>
      </trkpt>
      <trkpt lat="44.99369" lon="0.87955">
        <ele>222.1</ele>
        <time>2022-08-13T10:04:58Z</time>
      </trkpt>
      <trkpt lat="44.99375" lon="0.87932">
        <ele>221.1</ele>
        <time>2022-08-13T10:05:01Z</time>
      </trkpt>
      <trkpt lat="44.99379" lon="0.87927">
        <ele>221.1</ele>
        <time>2022-08-13T10:05:02Z</time>
      </trkpt>
      <trkpt lat="44.99382" lon="0.87923">
        <ele>219.9</ele>
        <time>2022-08-13T10:05:03Z</time>
      </trkpt>
      <trkpt lat="44.99385" lon="0.87917">
        <ele>219.9</ele>
        <time>2022-08-13T10:05:05Z</time>
      </trkpt>
      <trkpt lat="44.99388" lon="0.87915">
        <ele>219.9</ele>
        <time>2022-08-13T10:05:07Z</time>
      </trkpt>
      <trkpt lat="44.99389" lon="0.87912">
        <ele>219.9</ele>
        <time>2022-08-13T10:05:08Z</time>
      </trkpt>
      <trkpt lat="44.99389" lon="0.87908">
        <ele>219.1</ele>
        <time>2022-08-13T10:05:09Z</time>
      </trkpt>
      <trkpt lat="44.99388" lon="0.87897">
        <ele>219.1</ele>
        <time>2022-08-13T10:05:11Z</time>
      </trkpt>
      <trkpt lat="44.99387" lon="0.87894">
        <ele>219.2</ele>
        <time>2022-08-13T10:05:12Z</time>
      </trkpt>
      <trkpt lat="44.99384" lon="0.87891">
        <ele>218.5</ele>
        <time>2022-08-13T10:05:13Z</time>
      </trkpt>
      <trkpt lat="44.99377" lon="0.87883">
        <ele>219.1</ele>
        <time>2022-08-13T10:05:15Z</time>
      </trkpt>
      <trkpt lat="44.99354" lon="0.87859">
        <ele>219.3</ele>
        <time>2022-08-13T10:05:20Z</time>
      </trkpt>
      <trkpt lat="44.99341" lon="0.87845">
        <ele>219.3</ele>
        <time>2022-08-13T10:05:23Z</time>
      </trkpt>
      <trkpt lat="44.99333" lon="0.87841">
        <ele>220</ele>
        <time>2022-08-13T10:05:25Z</time>
      </trkpt>
      <trkpt lat="44.99328" lon="0.87837">
        <ele>219.6</ele>
        <time>2022-08-13T10:05:26Z</time>
      </trkpt>
      <trkpt lat="44.99316" lon="0.87821">
        <ele>219.9</ele>
        <time>2022-08-13T10:05:29Z</time>
      </trkpt>
      <trkpt lat="44.99299" lon="0.87809">
        <ele>220.6</ele>
        <time>2022-08-13T10:05:33Z</time>
      </trkpt>
      <trkpt lat="44.99293" lon="0.87804">
        <ele>221</ele>
        <time>2022-08-13T10:05:35Z</time>
      </trkpt>
      <trkpt lat="44.99289" lon="0.87799">
        <ele>221</ele>
        <time>2022-08-13T10:05:36Z</time>
      </trkpt>
      <trkpt lat="44.99269" lon="0.87778">
        <ele>221.7</ele>
        <time>2022-08-13T10:05:41Z</time>
      </trkpt>
      <trkpt lat="44.99251" lon="0.87762">
        <ele>221.6</ele>
        <time>2022-08-13T10:05:46Z</time>
      </trkpt>
      <trkpt lat="44.99235" lon="0.87748">
        <ele>223</ele>
        <time>2022-08-13T10:05:50Z</time>
      </trkpt>
      <trkpt lat="44.99219" lon="0.87728">
        <ele>224</ele>
        <time>2022-08-13T10:05:55Z</time>
      </trkpt>
      <trkpt lat="44.99215" lon="0.8772">
        <ele>224</ele>
        <time>2022-08-13T10:05:57Z</time>
      </trkpt>
      <trkpt lat="44.9921" lon="0.87712">
        <ele>224.9</ele>
        <time>2022-08-13T10:05:59Z</time>
      </trkpt>
      <trkpt lat="44.99207" lon="0.87711">
        <ele>224.9</ele>
        <time>2022-08-13T10:06:00Z</time>
      </trkpt>
      <trkpt lat="44.99197" lon="0.87703">
        <ele>225.4</ele>
        <time>2022-08-13T10:06:03Z</time>
      </trkpt>
      <trkpt lat="44.99196" lon="0.87701">
        <ele>225.5</ele>
        <time>2022-08-13T10:06:04Z</time>
      </trkpt>
      <trkpt lat="44.99194" lon="0.87692">
        <ele>225.5</ele>
        <time>2022-08-13T10:06:06Z</time>
      </trkpt>
      <trkpt lat="44.99193" lon="0.87677">
        <ele>225.6</ele>
        <time>2022-08-13T10:06:10Z</time>
      </trkpt>
      <trkpt lat="44.99195" lon="0.87662">
        <ele>225.9</ele>
        <time>2022-08-13T10:06:14Z</time>
      </trkpt>
      <trkpt lat="44.992" lon="0.87643">
        <ele>226.4</ele>
        <time>2022-08-13T10:06:19Z</time>
      </trkpt>
      <trkpt lat="44.99207" lon="0.87627">
        <ele>227</ele>
        <time>2022-08-13T10:06:24Z</time>
      </trkpt>
      <trkpt lat="44.99218" lon="0.87617">
        <ele>226.9</ele>
        <time>2022-08-13T10:06:29Z</time>
      </trkpt>
      <trkpt lat="44.99228" lon="0.87606">
        <ele>227.4</ele>
        <time>2022-08-13T10:06:34Z</time>
      </trkpt>
      <trkpt lat="44.99236" lon="0.87591">
        <ele>227.7</ele>
        <time>2022-08-13T10:06:39Z</time>
      </trkpt>
      <trkpt lat="44.99246" lon="0.8757">
        <ele>228.2</ele>
        <time>2022-08-13T10:06:45Z</time>
      </trkpt>
      <trkpt lat="44.99257" lon="0.87559">
        <ele>228.5</ele>
        <time>2022-08-13T10:06:50Z</time>
      </trkpt>
      <trkpt lat="44.99257" lon="0.87554">
        <ele>228.5</ele>
        <time>2022-08-13T10:06:51Z</time>
      </trkpt>
      <trkpt lat="44.99262" lon="0.8755">
        <ele>228.2</ele>
        <time>2022-08-13T10:06:53Z</time>
      </trkpt>
      <trkpt lat="44.99271" lon="0.87543">
        <ele>228.7</ele>
        <time>2022-08-13T10:06:57Z</time>
      </trkpt>
      <trkpt lat="44.99279" lon="0.87538">
        <ele>228.3</ele>
        <time>2022-08-13T10:07:01Z</time>
      </trkpt>
      <trkpt lat="44.99278" lon="0.87534">
        <ele>228.3</ele>
        <time>2022-08-13T10:07:02Z</time>
      </trkpt>
      <trkpt lat="44.99281" lon="0.8753">
        <ele>228.8</ele>
        <time>2022-08-13T10:07:04Z</time>
      </trkpt>
      <trkpt lat="44.99279" lon="0.87528">
        <ele>228.8</ele>
        <time>2022-08-13T10:07:05Z</time>
      </trkpt>
      <trkpt lat="44.99266" lon="0.87519">
        <ele>229.2</ele>
        <time>2022-08-13T10:07:11Z</time>
      </trkpt>
      <trkpt lat="44.99265" lon="0.8752">
        <ele>229.2</ele>
        <time>2022-08-13T10:07:12Z</time>
      </trkpt>
      <trkpt lat="44.99259" lon="0.87517">
        <ele>229.6</ele>
        <time>2022-08-13T10:07:14Z</time>
      </trkpt>
      <trkpt lat="44.99248" lon="0.87506">
        <ele>230.2</ele>
        <time>2022-08-13T10:07:19Z</time>
      </trkpt>
      <trkpt lat="44.99234" lon="0.8749">
        <ele>230.6</ele>
        <time>2022-08-13T10:07:25Z</time>
      </trkpt>
      <trkpt lat="44.99226" lon="0.87482">
        <ele>230.6</ele>
        <time>2022-08-13T10:07:29Z</time>
      </trkpt>
      <trkpt lat="44.99214" lon="0.87468">
        <ele>230.8</ele>
        <time>2022-08-13T10:07:35Z</time>
      </trkpt>
      <trkpt lat="44.99204" lon="0.87457">
        <ele>231</ele>
        <time>2022-08-13T10:07:40Z</time>
      </trkpt>
      <trkpt lat="44.99192" lon="0.87452">
        <ele>231.4</ele>
        <time>2022-08-13T10:07:44Z</time>
      </trkpt>
      <trkpt lat="44.99178" lon="0.87447">
        <ele>231.8</ele>
        <time>2022-08-13T10:07:49Z</time>
      </trkpt>
      <trkpt lat="44.99165" lon="0.87441">
        <ele>232.1</ele>
        <time>2022-08-13T10:07:54Z</time>
      </trkpt>
      <trkpt lat="44.9915" lon="0.87435">
        <ele>232.8</ele>
        <time>2022-08-13T10:07:59Z</time>
      </trkpt>
      <trkpt lat="44.99138" lon="0.87432">
        <ele>232.9</ele>
        <time>2022-08-13T10:08:03Z</time>
      </trkpt>
      <trkpt lat="44.99129" lon="0.87428">
        <ele>232.9</ele>
        <time>2022-08-13T10:08:06Z</time>
      </trkpt>
      <trkpt lat="44.99116" lon="0.87413">
        <ele>233</ele>
        <time>2022-08-13T10:08:11Z</time>
      </trkpt>
      <trkpt lat="44.99107" lon="0.8741">
        <ele>233.4</ele>
        <time>2022-08-13T10:08:15Z</time>
      </trkpt>
      <trkpt lat="44.99103" lon="0.87409">
        <ele>233.4</ele>
        <time>2022-08-13T10:08:16Z</time>
      </trkpt>
      <trkpt lat="44.99094" lon="0.87405">
        <ele>233.7</ele>
        <time>2022-08-13T10:08:18Z</time>
      </trkpt>
      <trkpt lat="44.9909" lon="0.87409">
        <ele>234.1</ele>
        <time>2022-08-13T10:08:19Z</time>
      </trkpt>
      <trkpt lat="44.99076" lon="0.87422">
        <ele>234</ele>
        <time>2022-08-13T10:08:24Z</time>
      </trkpt>
      <trkpt lat="44.99063" lon="0.87429">
        <ele>233.7</ele>
        <time>2022-08-13T10:08:28Z</time>
      </trkpt>
      <trkpt lat="44.99054" lon="0.87433">
        <ele>233.7</ele>
        <time>2022-08-13T10:08:32Z</time>
      </trkpt>
      <trkpt lat="44.99048" lon="0.87438">
        <ele>234.4</ele>
        <time>2022-08-13T10:08:35Z</time>
      </trkpt>
      <trkpt lat="44.99046" lon="0.87439">
        <ele>234.4</ele>
        <time>2022-08-13T10:08:36Z</time>
      </trkpt>
      <trkpt lat="44.99033" lon="0.87443">
        <ele>235.2</ele>
        <time>2022-08-13T10:08:41Z</time>
      </trkpt>
      <trkpt lat="44.9902" lon="0.87449">
        <ele>235.1</ele>
        <time>2022-08-13T10:08:46Z</time>
      </trkpt>
      <trkpt lat="44.99015" lon="0.87448">
        <ele>235.9</ele>
        <time>2022-08-13T10:08:48Z</time>
      </trkpt>
      <trkpt lat="44.99012" lon="0.87449">
        <ele>235.9</ele>
        <time>2022-08-13T10:08:49Z</time>
      </trkpt>
      <trkpt lat="44.99002" lon="0.87454">
        <ele>237</ele>
        <time>2022-08-13T10:08:53Z</time>
      </trkpt>
      <trkpt lat="44.98997" lon="0.87456">
        <ele>237</ele>
        <time>2022-08-13T10:08:55Z</time>
      </trkpt>
      <trkpt lat="44.98989" lon="0.87458">
        <ele>238.1</ele>
        <time>2022-08-13T10:08:58Z</time>
      </trkpt>
      <trkpt lat="44.98986" lon="0.87459">
        <ele>238.1</ele>
        <time>2022-08-13T10:08:59Z</time>
      </trkpt>
      <trkpt lat="44.9898" lon="0.87462">
        <ele>238.1</ele>
        <time>2022-08-13T10:09:02Z</time>
      </trkpt>
      <trkpt lat="44.98978" lon="0.87462">
        <ele>238.1</ele>
        <time>2022-08-13T10:09:03Z</time>
      </trkpt>
      <trkpt lat="44.98968" lon="0.87469">
        <ele>239.2</ele>
        <time>2022-08-13T10:09:08Z</time>
      </trkpt>
      <trkpt lat="44.98965" lon="0.87472">
        <ele>239.2</ele>
        <time>2022-08-13T10:09:10Z</time>
      </trkpt>
      <trkpt lat="44.98963" lon="0.87474">
        <ele>239.2</ele>
        <time>2022-08-13T10:09:12Z</time>
      </trkpt>
      <trkpt lat="44.98961" lon="0.87474">
        <ele>239.2</ele>
        <time>2022-08-13T10:09:13Z</time>
      </trkpt>
      <trkpt lat="44.98955" lon="0.87474">
        <ele>240.4</ele>
        <time>2022-08-13T10:09:15Z</time>
      </trkpt>
      <trkpt lat="44.98945" lon="0.87472">
        <ele>240.4</ele>
        <time>2022-08-13T10:09:18Z</time>
      </trkpt>
      <trkpt lat="44.98936" lon="0.87468">
        <ele>241.9</ele>
        <time>2022-08-13T10:09:23Z</time>
      </trkpt>
      <trkpt lat="44.98932" lon="0.87474">
        <ele>241.7</ele>
        <time>2022-08-13T10:09:27Z</time>
      </trkpt>
      <trkpt lat="44.9893" lon="0.87477">
        <ele>241.5</ele>
        <time>2022-08-13T10:09:28Z</time>
      </trkpt>
      <trkpt lat="44.98919" lon="0.87483">
        <ele>241.2</ele>
        <time>2022-08-13T10:09:35Z</time>
      </trkpt>
      <trkpt lat="44.98907" lon="0.87489">
        <ele>241.1</ele>
        <time>2022-08-13T10:09:40Z</time>
      </trkpt>
      <trkpt lat="44.98885" lon="0.87499">
        <ele>241.5</ele>
        <time>2022-08-13T10:09:48Z</time>
      </trkpt>
      <trkpt lat="44.98874" lon="0.87501">
        <ele>241.6</ele>
        <time>2022-08-13T10:09:53Z</time>
      </trkpt>
      <trkpt lat="44.98865" lon="0.87502">
        <ele>241.6</ele>
        <time>2022-08-13T10:09:56Z</time>
      </trkpt>
      <trkpt lat="44.98859" lon="0.87501">
        <ele>241.6</ele>
        <time>2022-08-13T10:09:59Z</time>
      </trkpt>
      <trkpt lat="44.98856" lon="0.875">
        <ele>241.6</ele>
        <time>2022-08-13T10:10:00Z</time>
      </trkpt>
      <trkpt lat="44.98845" lon="0.87498">
        <ele>241.7</ele>
        <time>2022-08-13T10:10:05Z</time>
      </trkpt>
      <trkpt lat="44.98842" lon="0.87497">
        <ele>241.7</ele>
        <time>2022-08-13T10:10:06Z</time>
      </trkpt>
      <trkpt lat="44.98837" lon="0.87495">
        <ele>241.7</ele>
        <time>2022-08-13T10:10:08Z</time>
      </trkpt>
      <trkpt lat="44.98823" lon="0.87491">
        <ele>241.7</ele>
        <time>2022-08-13T10:10:13Z</time>
      </trkpt>
      <trkpt lat="44.98805" lon="0.87487">
        <ele>241.8</ele>
        <time>2022-08-13T10:10:19Z</time>
      </trkpt>
      <trkpt lat="44.98779" lon="0.87483">
        <ele>242.3</ele>
        <time>2022-08-13T10:10:28Z</time>
      </trkpt>
      <trkpt lat="44.98761" lon="0.87479">
        <ele>242.7</ele>
        <time>2022-08-13T10:10:35Z</time>
      </trkpt>
      <trkpt lat="44.98739" lon="0.87475">
        <ele>243.1</ele>
        <time>2022-08-13T10:10:43Z</time>
      </trkpt>
      <trkpt lat="44.98721" lon="0.87477">
        <ele>243.5</ele>
        <time>2022-08-13T10:10:49Z</time>
      </trkpt>
      <trkpt lat="44.98721" lon="0.87497">
        <ele>243.2</ele>
        <time>2022-08-13T10:10:54Z</time>
      </trkpt>
      <trkpt lat="44.98719" lon="0.87537">
        <ele>243</ele>
        <time>2022-08-13T10:11:03Z</time>
      </trkpt>
      <trkpt lat="44.98717" lon="0.87555">
        <ele>243.1</ele>
        <time>2022-08-13T10:11:07Z</time>
      </trkpt>
      <trkpt lat="44.98713" lon="0.87586">
        <ele>243.4</ele>
        <time>2022-08-13T10:11:14Z</time>
      </trkpt>
      <trkpt lat="44.9871" lon="0.87609">
        <ele>243.5</ele>
        <time>2022-08-13T10:11:19Z</time>
      </trkpt>
      <trkpt lat="44.98707" lon="0.87632">
        <ele>243.7</ele>
        <time>2022-08-13T10:11:24Z</time>
      </trkpt>
      <trkpt lat="44.98701" lon="0.87675">
        <ele>243.9</ele>
        <time>2022-08-13T10:11:33Z</time>
      </trkpt>
      <trkpt lat="44.98696" lon="0.87718">
        <ele>244.2</ele>
        <time>2022-08-13T10:11:41Z</time>
      </trkpt>
      <trkpt lat="44.98689" lon="0.87768">
        <ele>244.4</ele>
        <time>2022-08-13T10:11:50Z</time>
      </trkpt>
      <trkpt lat="44.98688" lon="0.87774">
        <ele>244.4</ele>
        <time>2022-08-13T10:11:51Z</time>
      </trkpt>
      <trkpt lat="44.98687" lon="0.87779">
        <ele>244.4</ele>
        <time>2022-08-13T10:11:52Z</time>
      </trkpt>
      <trkpt lat="44.98677" lon="0.87786">
        <ele>243.7</ele>
        <time>2022-08-13T10:11:54Z</time>
      </trkpt>
      <trkpt lat="44.98673" lon="0.8779">
        <ele>243.5</ele>
        <time>2022-08-13T10:11:55Z</time>
      </trkpt>
      <trkpt lat="44.98645" lon="0.87806">
        <ele>242.8</ele>
        <time>2022-08-13T10:12:02Z</time>
      </trkpt>
      <trkpt lat="44.98619" lon="0.87819">
        <ele>242.8</ele>
        <time>2022-08-13T10:12:09Z</time>
      </trkpt>
      <trkpt lat="44.98581" lon="0.87838">
        <ele>243.3</ele>
        <time>2022-08-13T10:12:19Z</time>
      </trkpt>
      <trkpt lat="44.98545" lon="0.87851">
        <ele>243.4</ele>
        <time>2022-08-13T10:12:28Z</time>
      </trkpt>
      <trkpt lat="44.98537" lon="0.87853">
        <ele>243.4</ele>
        <time>2022-08-13T10:12:30Z</time>
      </trkpt>
      <trkpt lat="44.98529" lon="0.87856">
        <ele>243.4</ele>
        <time>2022-08-13T10:12:32Z</time>
      </trkpt>
      <trkpt lat="44.98496" lon="0.87866">
        <ele>243.5</ele>
        <time>2022-08-13T10:12:40Z</time>
      </trkpt>
      <trkpt lat="44.98458" lon="0.8788">
        <ele>244.2</ele>
        <time>2022-08-13T10:12:49Z</time>
      </trkpt>
      <trkpt lat="44.98448" lon="0.87884">
        <ele>244.4</ele>
        <time>2022-08-13T10:12:51Z</time>
      </trkpt>
      <trkpt lat="44.98439" lon="0.87888">
        <ele>244.4</ele>
        <time>2022-08-13T10:12:53Z</time>
      </trkpt>
      <trkpt lat="44.98413" lon="0.87899">
        <ele>244</ele>
        <time>2022-08-13T10:12:59Z</time>
      </trkpt>
      <trkpt lat="44.98389" lon="0.87912">
        <ele>243.8</ele>
        <time>2022-08-13T10:13:05Z</time>
      </trkpt>
      <trkpt lat="44.98363" lon="0.87927">
        <ele>242.3</ele>
        <time>2022-08-13T10:13:10Z</time>
      </trkpt>
      <trkpt lat="44.98358" lon="0.8793">
        <ele>242</ele>
        <time>2022-08-13T10:13:12Z</time>
      </trkpt>
      <trkpt lat="44.98355" lon="0.87933">
        <ele>241.9</ele>
        <time>2022-08-13T10:13:14Z</time>
      </trkpt>
      <trkpt lat="44.98353" lon="0.87934">
        <ele>241.8</ele>
        <time>2022-08-13T10:13:15Z</time>
      </trkpt>
      <trkpt lat="44.98351" lon="0.87935">
        <ele>241.7</ele>
        <time>2022-08-13T10:13:17Z</time>
      </trkpt>
      <trkpt lat="44.98348" lon="0.87926">
        <ele>241.3</ele>
        <time>2022-08-13T10:13:18Z</time>
      </trkpt>
      <trkpt lat="44.98359" lon="0.8793">
        <ele>240.9</ele>
        <time>2022-08-13T10:13:23Z</time>
      </trkpt>
      <trkpt lat="44.98363" lon="0.87927">
        <ele>240.7</ele>
        <time>2022-08-13T10:13:25Z</time>
      </trkpt>
      <trkpt lat="44.98367" lon="0.87925">
        <ele>241.1</ele>
        <time>2022-08-13T10:13:27Z</time>
      </trkpt>
      <trkpt lat="44.98362" lon="0.8789">
        <ele>241.1</ele>
        <time>2022-08-13T10:13:33Z</time>
      </trkpt>
      <trkpt lat="44.98363" lon="0.87871">
        <ele>241.3</ele>
        <time>2022-08-13T10:13:39Z</time>
      </trkpt>
      <trkpt lat="44.98361" lon="0.87851">
        <ele>240.2</ele>
        <time>2022-08-13T10:13:45Z</time>
      </trkpt>
      <trkpt lat="44.98361" lon="0.8784">
        <ele>240</ele>
        <time>2022-08-13T10:13:49Z</time>
      </trkpt>
      <trkpt lat="44.98362" lon="0.87836">
        <ele>240</ele>
        <time>2022-08-13T10:13:51Z</time>
      </trkpt>
      <trkpt lat="44.98361" lon="0.87819">
        <ele>238.6</ele>
        <time>2022-08-13T10:13:57Z</time>
      </trkpt>
      <trkpt lat="44.98361" lon="0.8781">
        <ele>238.5</ele>
        <time>2022-08-13T10:14:02Z</time>
      </trkpt>
      <trkpt lat="44.98361" lon="0.87784">
        <ele>237.2</ele>
        <time>2022-08-13T10:14:09Z</time>
      </trkpt>
      <trkpt lat="44.98362" lon="0.87757">
        <ele>236.4</ele>
        <time>2022-08-13T10:14:15Z</time>
      </trkpt>
      <trkpt lat="44.98361" lon="0.87731">
        <ele>234.3</ele>
        <time>2022-08-13T10:14:20Z</time>
      </trkpt>
      <trkpt lat="44.9836" lon="0.87721">
        <ele>234.1</ele>
        <time>2022-08-13T10:14:22Z</time>
      </trkpt>
      <trkpt lat="44.98362" lon="0.87718">
        <ele>232.4</ele>
        <time>2022-08-13T10:14:23Z</time>
      </trkpt>
      <trkpt lat="44.98365" lon="0.87716">
        <ele>232.9</ele>
        <time>2022-08-13T10:14:24Z</time>
      </trkpt>
      <trkpt lat="44.98369" lon="0.87717">
        <ele>232.7</ele>
        <time>2022-08-13T10:14:26Z</time>
      </trkpt>
      <trkpt lat="44.98381" lon="0.87719">
        <ele>233.2</ele>
        <time>2022-08-13T10:14:32Z</time>
      </trkpt>
      <trkpt lat="44.98393" lon="0.87718">
        <ele>233.9</ele>
        <time>2022-08-13T10:14:38Z</time>
      </trkpt>
      <trkpt lat="44.984" lon="0.87717">
        <ele>234.4</ele>
        <time>2022-08-13T10:14:41Z</time>
      </trkpt>
      <trkpt lat="44.98403" lon="0.87712">
        <ele>234.2</ele>
        <time>2022-08-13T10:14:43Z</time>
      </trkpt>
      <trkpt lat="44.98411" lon="0.87691">
        <ele>233.3</ele>
        <time>2022-08-13T10:14:49Z</time>
      </trkpt>
      <trkpt lat="44.98421" lon="0.87671">
        <ele>231.7</ele>
        <time>2022-08-13T10:14:55Z</time>
      </trkpt>
      <trkpt lat="44.98421" lon="0.87653">
        <ele>229.6</ele>
        <time>2022-08-13T10:14:59Z</time>
      </trkpt>
      <trkpt lat="44.98415" lon="0.87621">
        <ele>225.4</ele>
        <time>2022-08-13T10:15:06Z</time>
      </trkpt>
      <trkpt lat="44.98406" lon="0.87611">
        <ele>222.5</ele>
        <time>2022-08-13T10:15:10Z</time>
      </trkpt>
      <trkpt lat="44.98391" lon="0.8761">
        <ele>221.9</ele>
        <time>2022-08-13T10:15:15Z</time>
      </trkpt>
      <trkpt lat="44.98379" lon="0.8761">
        <ele>221.2</ele>
        <time>2022-08-13T10:15:20Z</time>
      </trkpt>
      <trkpt lat="44.98374" lon="0.8761">
        <ele>220.4</ele>
        <time>2022-08-13T10:15:25Z</time>
      </trkpt>
      <trkpt lat="44.98373" lon="0.87612">
        <ele>220.3</ele>
        <time>2022-08-13T10:15:26Z</time>
      </trkpt>
      <trkpt lat="44.98373" lon="0.87617">
        <ele>221.8</ele>
        <time>2022-08-13T10:15:29Z</time>
      </trkpt>
      <trkpt lat="44.98375" lon="0.87617">
        <ele>222.3</ele>
        <time>2022-08-13T10:15:30Z</time>
      </trkpt>
      <trkpt lat="44.98383" lon="0.87614">
        <ele>220.3</ele>
        <time>2022-08-13T10:15:33Z</time>
      </trkpt>
      <trkpt lat="44.98399" lon="0.8761">
        <ele>221</ele>
        <time>2022-08-13T10:15:38Z</time>
      </trkpt>
      <trkpt lat="44.98412" lon="0.87606">
        <ele>221.2</ele>
        <time>2022-08-13T10:15:43Z</time>
      </trkpt>
      <trkpt lat="44.98418" lon="0.876">
        <ele>221</ele>
        <time>2022-08-13T10:15:47Z</time>
      </trkpt>
      <trkpt lat="44.98418" lon="0.87597">
        <ele>218.9</ele>
        <time>2022-08-13T10:15:48Z</time>
      </trkpt>
      <trkpt lat="44.98416" lon="0.87592">
        <ele>218.7</ele>
        <time>2022-08-13T10:15:50Z</time>
      </trkpt>
      <trkpt lat="44.9841" lon="0.87584">
        <ele>218.1</ele>
        <time>2022-08-13T10:15:53Z</time>
      </trkpt>
      <trkpt lat="44.98407" lon="0.87576">
        <ele>216.1</ele>
        <time>2022-08-13T10:15:55Z</time>
      </trkpt>
      <trkpt lat="44.98403" lon="0.87566">
        <ele>215.9</ele>
        <time>2022-08-13T10:15:57Z</time>
      </trkpt>
      <trkpt lat="44.98395" lon="0.87552">
        <ele>214</ele>
        <time>2022-08-13T10:16:01Z</time>
      </trkpt>
      <trkpt lat="44.98382" lon="0.87545">
        <ele>211.5</ele>
        <time>2022-08-13T10:16:06Z</time>
      </trkpt>
      <trkpt lat="44.98379" lon="0.87544">
        <ele>211.3</ele>
        <time>2022-08-13T10:16:07Z</time>
      </trkpt>
      <trkpt lat="44.98372" lon="0.87543">
        <ele>210.7</ele>
        <time>2022-08-13T10:16:09Z</time>
      </trkpt>
      <trkpt lat="44.9836" lon="0.87536">
        <ele>210.1</ele>
        <time>2022-08-13T10:16:14Z</time>
      </trkpt>
      <trkpt lat="44.98359" lon="0.87534">
        <ele>209.9</ele>
        <time>2022-08-13T10:16:15Z</time>
      </trkpt>
      <trkpt lat="44.98355" lon="0.87525">
        <ele>207.7</ele>
        <time>2022-08-13T10:16:18Z</time>
      </trkpt>
      <trkpt lat="44.98354" lon="0.87524">
        <ele>207.6</ele>
        <time>2022-08-13T10:16:20Z</time>
      </trkpt>
      <trkpt lat="44.98337" lon="0.87478">
        <ele>210.3</ele>
        <time>2022-08-13T10:18:44Z</time>
      </trkpt>
      <trkpt lat="44.98321" lon="0.87479">
        <ele>210.1</ele>
        <time>2022-08-13T10:18:49Z</time>
      </trkpt>
      <trkpt lat="44.98316" lon="0.87477">
        <ele>209.9</ele>
        <time>2022-08-13T10:18:50Z</time>
      </trkpt>
      <trkpt lat="44.98305" lon="0.87474">
        <ele>209.5</ele>
        <time>2022-08-13T10:18:53Z</time>
      </trkpt>
      <trkpt lat="44.98289" lon="0.8747">
        <ele>208.4</ele>
        <time>2022-08-13T10:18:57Z</time>
      </trkpt>
      <trkpt lat="44.98274" lon="0.87466">
        <ele>207.4</ele>
        <time>2022-08-13T10:19:00Z</time>
      </trkpt>
      <trkpt lat="44.98268" lon="0.87464">
        <ele>207.3</ele>
        <time>2022-08-13T10:19:01Z</time>
      </trkpt>
      <trkpt lat="44.98257" lon="0.87462">
        <ele>206.3</ele>
        <time>2022-08-13T10:19:03Z</time>
      </trkpt>
      <trkpt lat="44.98239" lon="0.87459">
        <ele>204.3</ele>
        <time>2022-08-13T10:19:06Z</time>
      </trkpt>
      <trkpt lat="44.98207" lon="0.87455">
        <ele>201.6</ele>
        <time>2022-08-13T10:19:11Z</time>
      </trkpt>
      <trkpt lat="44.98193" lon="0.87454">
        <ele>200.2</ele>
        <time>2022-08-13T10:19:13Z</time>
      </trkpt>
      <trkpt lat="44.98183" lon="0.87457">
        <ele>198.7</ele>
        <time>2022-08-13T10:19:15Z</time>
      </trkpt>
      <trkpt lat="44.98174" lon="0.87463">
        <ele>196.8</ele>
        <time>2022-08-13T10:19:19Z</time>
      </trkpt>
      <trkpt lat="44.98172" lon="0.87464">
        <ele>196.6</ele>
        <time>2022-08-13T10:19:20Z</time>
      </trkpt>
      <trkpt lat="44.98161" lon="0.87474">
        <ele>194.6</ele>
        <time>2022-08-13T10:19:23Z</time>
      </trkpt>
      <trkpt lat="44.98159" lon="0.87499">
        <ele>193.8</ele>
        <time>2022-08-13T10:19:28Z</time>
      </trkpt>
      <trkpt lat="44.98156" lon="0.87511">
        <ele>193.3</ele>
        <time>2022-08-13T10:19:30Z</time>
      </trkpt>
      <trkpt lat="44.98148" lon="0.87527">
        <ele>192.6</ele>
        <time>2022-08-13T10:19:33Z</time>
      </trkpt>
      <trkpt lat="44.98131" lon="0.87554">
        <ele>191</ele>
        <time>2022-08-13T10:19:38Z</time>
      </trkpt>
      <trkpt lat="44.9811" lon="0.8758">
        <ele>189.5</ele>
        <time>2022-08-13T10:19:44Z</time>
      </trkpt>
      <trkpt lat="44.9807" lon="0.8763">
        <ele>188.1</ele>
        <time>2022-08-13T10:19:52Z</time>
      </trkpt>
      <trkpt lat="44.98066" lon="0.87635">
        <ele>188</ele>
        <time>2022-08-13T10:19:53Z</time>
      </trkpt>
      <trkpt lat="44.98045" lon="0.87661">
        <ele>187.6</ele>
        <time>2022-08-13T10:19:58Z</time>
      </trkpt>
      <trkpt lat="44.98032" lon="0.87673">
        <ele>187.4</ele>
        <time>2022-08-13T10:20:01Z</time>
      </trkpt>
      <trkpt lat="44.98023" lon="0.8768">
        <ele>187.3</ele>
        <time>2022-08-13T10:20:03Z</time>
      </trkpt>
      <trkpt lat="44.98004" lon="0.87689">
        <ele>187.1</ele>
        <time>2022-08-13T10:20:07Z</time>
      </trkpt>
      <trkpt lat="44.97989" lon="0.8769">
        <ele>187</ele>
        <time>2022-08-13T10:20:10Z</time>
      </trkpt>
      <trkpt lat="44.97958" lon="0.87687">
        <ele>186.9</ele>
        <time>2022-08-13T10:20:16Z</time>
      </trkpt>
      <trkpt lat="44.9792" lon="0.8768">
        <ele>186.4</ele>
        <time>2022-08-13T10:20:23Z</time>
      </trkpt>
      <trkpt lat="44.979" lon="0.87673">
        <ele>186</ele>
        <time>2022-08-13T10:20:27Z</time>
      </trkpt>
      <trkpt lat="44.9789" lon="0.87667">
        <ele>185.8</ele>
        <time>2022-08-13T10:20:29Z</time>
      </trkpt>
      <trkpt lat="44.97868" lon="0.8764">
        <ele>185.3</ele>
        <time>2022-08-13T10:20:34Z</time>
      </trkpt>
      <trkpt lat="44.97852" lon="0.87614">
        <ele>184.8</ele>
        <time>2022-08-13T10:20:38Z</time>
      </trkpt>
      <trkpt lat="44.97842" lon="0.87605">
        <ele>184.6</ele>
        <time>2022-08-13T10:20:40Z</time>
      </trkpt>
      <trkpt lat="44.9783" lon="0.87598">
        <ele>184.4</ele>
        <time>2022-08-13T10:20:42Z</time>
      </trkpt>
      <trkpt lat="44.97805" lon="0.87591">
        <ele>183.9</ele>
        <time>2022-08-13T10:20:46Z</time>
      </trkpt>
      <trkpt lat="44.97767" lon="0.87586">
        <ele>183.1</ele>
        <time>2022-08-13T10:20:52Z</time>
      </trkpt>
      <trkpt lat="44.97724" lon="0.87572">
        <ele>182.1</ele>
        <time>2022-08-13T10:20:59Z</time>
      </trkpt>
      <trkpt lat="44.97718" lon="0.87568">
        <ele>181.9</ele>
        <time>2022-08-13T10:21:00Z</time>
      </trkpt>
      <trkpt lat="44.977" lon="0.87555">
        <ele>181</ele>
        <time>2022-08-13T10:21:03Z</time>
      </trkpt>
      <trkpt lat="44.97653" lon="0.87505">
        <ele>178.9</ele>
        <time>2022-08-13T10:21:11Z</time>
      </trkpt>
      <trkpt lat="44.97623" lon="0.87468">
        <ele>177.1</ele>
        <time>2022-08-13T10:21:16Z</time>
      </trkpt>
      <trkpt lat="44.97602" lon="0.87449">
        <ele>176.4</ele>
        <time>2022-08-13T10:21:19Z</time>
      </trkpt>
      <trkpt lat="44.97595" lon="0.87445">
        <ele>176.2</ele>
        <time>2022-08-13T10:21:20Z</time>
      </trkpt>
      <trkpt lat="44.97542" lon="0.87422">
        <ele>174.6</ele>
        <time>2022-08-13T10:21:27Z</time>
      </trkpt>
      <trkpt lat="44.97504" lon="0.87403">
        <ele>173.3</ele>
        <time>2022-08-13T10:21:32Z</time>
      </trkpt>
      <trkpt lat="44.97498" lon="0.87395">
        <ele>173</ele>
        <time>2022-08-13T10:21:33Z</time>
      </trkpt>
      <trkpt lat="44.97465" lon="0.87358">
        <ele>171.6</ele>
        <time>2022-08-13T10:21:38Z</time>
      </trkpt>
      <trkpt lat="44.97433" lon="0.87323">
        <ele>170.5</ele>
        <time>2022-08-13T10:21:43Z</time>
      </trkpt>
      <trkpt lat="44.97417" lon="0.87317">
        <ele>169.9</ele>
        <time>2022-08-13T10:21:45Z</time>
      </trkpt>
      <trkpt lat="44.97401" lon="0.87312">
        <ele>169.1</ele>
        <time>2022-08-13T10:21:47Z</time>
      </trkpt>
      <trkpt lat="44.97384" lon="0.87306">
        <ele>168.3</ele>
        <time>2022-08-13T10:21:48Z</time>
      </trkpt>
      <trkpt lat="44.97368" lon="0.87301">
        <ele>167.4</ele>
        <time>2022-08-13T10:21:51Z</time>
      </trkpt>
      <trkpt lat="44.97335" lon="0.87294">
        <ele>165.6</ele>
        <time>2022-08-13T10:21:55Z</time>
      </trkpt>
      <trkpt lat="44.97317" lon="0.87297">
        <ele>164.7</ele>
        <time>2022-08-13T10:21:57Z</time>
      </trkpt>
      <trkpt lat="44.97284" lon="0.87313">
        <ele>162.7</ele>
        <time>2022-08-13T10:22:01Z</time>
      </trkpt>
      <trkpt lat="44.97251" lon="0.87332">
        <ele>160.8</ele>
        <time>2022-08-13T10:22:06Z</time>
      </trkpt>
      <trkpt lat="44.97246" lon="0.87334">
        <ele>160.5</ele>
        <time>2022-08-13T10:22:07Z</time>
      </trkpt>
      <trkpt lat="44.97242" lon="0.87337">
        <ele>160.3</ele>
        <time>2022-08-13T10:22:09Z</time>
      </trkpt>
      <trkpt lat="44.97245" lon="0.87335">
        <ele>160.4</ele>
        <time>2022-08-13T10:22:12Z</time>
      </trkpt>
      <trkpt lat="44.97245" lon="0.87335">
        <ele>160.4</ele>
        <time>2022-08-13T10:22:13Z</time>
      </trkpt>
      <trkpt lat="44.97245" lon="0.87335">
        <ele>160.4</ele>
        <time>2022-08-13T10:22:17Z</time>
      </trkpt>
      <trkpt lat="44.97253" lon="0.87372">
        <ele>165.2</ele>
        <time>2022-08-13T10:22:23Z</time>
      </trkpt>
      <trkpt lat="44.97255" lon="0.87374">
        <ele>165.2</ele>
        <time>2022-08-13T10:22:25Z</time>
      </trkpt>
      <trkpt lat="44.97257" lon="0.87378">
        <ele>166.9</ele>
        <time>2022-08-13T10:22:28Z</time>
      </trkpt>
      <trkpt lat="44.97259" lon="0.87382">
        <ele>168.7</ele>
        <time>2022-08-13T10:22:31Z</time>
      </trkpt>
      <trkpt lat="44.97262" lon="0.87386">
        <ele>168.8</ele>
        <time>2022-08-13T10:22:34Z</time>
      </trkpt>
      <trkpt lat="44.97266" lon="0.87396">
        <ele>170.6</ele>
        <time>2022-08-13T10:22:41Z</time>
      </trkpt>
      <trkpt lat="44.97267" lon="0.87398">
        <ele>170.6</ele>
        <time>2022-08-13T10:22:42Z</time>
      </trkpt>
      <trkpt lat="44.97272" lon="0.87406">
        <ele>172</ele>
        <time>2022-08-13T10:22:48Z</time>
      </trkpt>
      <trkpt lat="44.97272" lon="0.87407">
        <ele>172</ele>
        <time>2022-08-13T10:22:49Z</time>
      </trkpt>
      <trkpt lat="44.97278" lon="0.87419">
        <ele>173.5</ele>
        <time>2022-08-13T10:22:56Z</time>
      </trkpt>
      <trkpt lat="44.97282" lon="0.87429">
        <ele>176.4</ele>
        <time>2022-08-13T10:23:03Z</time>
      </trkpt>
      <trkpt lat="44.97286" lon="0.87439">
        <ele>176.4</ele>
        <time>2022-08-13T10:23:10Z</time>
      </trkpt>
      <trkpt lat="44.9729" lon="0.87449">
        <ele>178.6</ele>
        <time>2022-08-13T10:23:16Z</time>
      </trkpt>
      <trkpt lat="44.97296" lon="0.87461">
        <ele>179.6</ele>
        <time>2022-08-13T10:23:24Z</time>
      </trkpt>
      <trkpt lat="44.973" lon="0.87467">
        <ele>181.5</ele>
        <time>2022-08-13T10:23:30Z</time>
      </trkpt>
      <trkpt lat="44.973" lon="0.87469">
        <ele>181.6</ele>
        <time>2022-08-13T10:23:31Z</time>
      </trkpt>
      <trkpt lat="44.973" lon="0.8747">
        <ele>181.6</ele>
        <time>2022-08-13T10:23:32Z</time>
      </trkpt>
      <trkpt lat="44.97295" lon="0.87477">
        <ele>181.6</ele>
        <time>2022-08-13T10:23:37Z</time>
      </trkpt>
      <trkpt lat="44.97288" lon="0.87482">
        <ele>182.9</ele>
        <time>2022-08-13T10:23:43Z</time>
      </trkpt>
      <trkpt lat="44.97283" lon="0.87485">
        <ele>182.9</ele>
        <time>2022-08-13T10:23:48Z</time>
      </trkpt>
      <trkpt lat="44.97277" lon="0.87489">
        <ele>182</ele>
        <time>2022-08-13T10:23:54Z</time>
      </trkpt>
      <trkpt lat="44.97271" lon="0.87493">
        <ele>182</ele>
        <time>2022-08-13T10:24:00Z</time>
      </trkpt>
      <trkpt lat="44.97266" lon="0.87495">
        <ele>181.1</ele>
        <time>2022-08-13T10:24:05Z</time>
      </trkpt>
      <trkpt lat="44.97258" lon="0.87501">
        <ele>183.3</ele>
        <time>2022-08-13T10:24:13Z</time>
      </trkpt>
      <trkpt lat="44.97254" lon="0.87503">
        <ele>182.3</ele>
        <time>2022-08-13T10:24:17Z</time>
      </trkpt>
      <trkpt lat="44.97251" lon="0.87504">
        <ele>182.3</ele>
        <time>2022-08-13T10:24:19Z</time>
      </trkpt>
      <trkpt lat="44.9725" lon="0.87504">
        <ele>182.3</ele>
        <time>2022-08-13T10:24:20Z</time>
      </trkpt>
      <trkpt lat="44.97246" lon="0.87505">
        <ele>182.4</ele>
        <time>2022-08-13T10:24:24Z</time>
      </trkpt>
      <trkpt lat="44.97238" lon="0.87511">
        <ele>181.1</ele>
        <time>2022-08-13T10:24:31Z</time>
      </trkpt>
      <trkpt lat="44.97236" lon="0.87512">
        <ele>181.1</ele>
        <time>2022-08-13T10:24:33Z</time>
      </trkpt>
      <trkpt lat="44.97232" lon="0.87515">
        <ele>181.7</ele>
        <time>2022-08-13T10:24:37Z</time>
      </trkpt>
      <trkpt lat="44.97232" lon="0.87515">
        <ele>181.7</ele>
        <time>2022-08-13T10:24:38Z</time>
      </trkpt>
      <trkpt lat="44.97228" lon="0.87515">
        <ele>181.7</ele>
        <time>2022-08-13T10:25:50Z</time>
      </trkpt>
      <trkpt lat="44.97224" lon="0.87516">
        <ele>181.8</ele>
        <time>2022-08-13T10:25:52Z</time>
      </trkpt>
      <trkpt lat="44.97214" lon="0.8752">
        <ele>180.5</ele>
        <time>2022-08-13T10:25:55Z</time>
      </trkpt>
      <trkpt lat="44.97209" lon="0.87521">
        <ele>180.5</ele>
        <time>2022-08-13T10:25:56Z</time>
      </trkpt>
      <trkpt lat="44.97205" lon="0.87523">
        <ele>179.1</ele>
        <time>2022-08-13T10:25:57Z</time>
      </trkpt>
      <trkpt lat="44.972" lon="0.87529">
        <ele>179.2</ele>
        <time>2022-08-13T10:25:59Z</time>
      </trkpt>
      <trkpt lat="44.97199" lon="0.87545">
        <ele>181.3</ele>
        <time>2022-08-13T10:26:03Z</time>
      </trkpt>
      <trkpt lat="44.97196" lon="0.87554">
        <ele>181.6</ele>
        <time>2022-08-13T10:26:05Z</time>
      </trkpt>
      <trkpt lat="44.97193" lon="0.87558">
        <ele>181.6</ele>
        <time>2022-08-13T10:26:06Z</time>
      </trkpt>
      <trkpt lat="44.97187" lon="0.87572">
        <ele>183.7</ele>
        <time>2022-08-13T10:26:09Z</time>
      </trkpt>
      <trkpt lat="44.97186" lon="0.87578">
        <ele>183.8</ele>
        <time>2022-08-13T10:26:10Z</time>
      </trkpt>
      <trkpt lat="44.97183" lon="0.87584">
        <ele>184.6</ele>
        <time>2022-08-13T10:26:11Z</time>
      </trkpt>
      <trkpt lat="44.97173" lon="0.87595">
        <ele>184.6</ele>
        <time>2022-08-13T10:26:13Z</time>
      </trkpt>
      <trkpt lat="44.97162" lon="0.87598">
        <ele>183</ele>
        <time>2022-08-13T10:26:15Z</time>
      </trkpt>
      <trkpt lat="44.97158" lon="0.87596">
        <ele>181.3</ele>
        <time>2022-08-13T10:26:16Z</time>
      </trkpt>
      <trkpt lat="44.97151" lon="0.87595">
        <ele>181.3</ele>
        <time>2022-08-13T10:26:18Z</time>
      </trkpt>
      <trkpt lat="44.97148" lon="0.87596">
        <ele>181.3</ele>
        <time>2022-08-13T10:26:19Z</time>
      </trkpt>
      <trkpt lat="44.97143" lon="0.87598">
        <ele>179.4</ele>
        <time>2022-08-13T10:26:23Z</time>
      </trkpt>
      <trkpt lat="44.97137" lon="0.87603">
        <ele>182.2</ele>
        <time>2022-08-13T10:26:27Z</time>
      </trkpt>
      <trkpt lat="44.97132" lon="0.87607">
        <ele>180</ele>
        <time>2022-08-13T10:26:31Z</time>
      </trkpt>
      <trkpt lat="44.97131" lon="0.87606">
        <ele>180</ele>
        <time>2022-08-13T10:26:32Z</time>
      </trkpt>
      <trkpt lat="44.97128" lon="0.87608">
        <ele>180</ele>
        <time>2022-08-13T10:26:35Z</time>
      </trkpt>
      <trkpt lat="44.97125" lon="0.87611">
        <ele>180.1</ele>
        <time>2022-08-13T10:26:38Z</time>
      </trkpt>
      <trkpt lat="44.97119" lon="0.87618">
        <ele>181.7</ele>
        <time>2022-08-13T10:26:43Z</time>
      </trkpt>
      <trkpt lat="44.97114" lon="0.8763">
        <ele>181.7</ele>
        <time>2022-08-13T10:26:50Z</time>
      </trkpt>
      <trkpt lat="44.9711" lon="0.87636">
        <ele>183.8</ele>
        <time>2022-08-13T10:26:54Z</time>
      </trkpt>
      <trkpt lat="44.97107" lon="0.87638">
        <ele>183.8</ele>
        <time>2022-08-13T10:26:56Z</time>
      </trkpt>
      <trkpt lat="44.97102" lon="0.87643">
        <ele>183.9</ele>
        <time>2022-08-13T10:27:01Z</time>
      </trkpt>
      <trkpt lat="44.97097" lon="0.87648">
        <ele>182.7</ele>
        <time>2022-08-13T10:27:06Z</time>
      </trkpt>
      <trkpt lat="44.97092" lon="0.87652">
        <ele>186.2</ele>
        <time>2022-08-13T10:27:10Z</time>
      </trkpt>
      <trkpt lat="44.97089" lon="0.87657">
        <ele>186.2</ele>
        <time>2022-08-13T10:27:13Z</time>
      </trkpt>
      <trkpt lat="44.97087" lon="0.87659">
        <ele>184.9</ele>
        <time>2022-08-13T10:27:15Z</time>
      </trkpt>
      <trkpt lat="44.97084" lon="0.87662">
        <ele>184.9</ele>
        <time>2022-08-13T10:27:17Z</time>
      </trkpt>
      <trkpt lat="44.97083" lon="0.87664">
        <ele>184.9</ele>
        <time>2022-08-13T10:27:18Z</time>
      </trkpt>
      <trkpt lat="44.97074" lon="0.87672">
        <ele>187.6</ele>
        <time>2022-08-13T10:27:24Z</time>
      </trkpt>
      <trkpt lat="44.9706" lon="0.87678">
        <ele>186.4</ele>
        <time>2022-08-13T10:27:30Z</time>
      </trkpt>
      <trkpt lat="44.97051" lon="0.8768">
        <ele>186.5</ele>
        <time>2022-08-13T10:27:35Z</time>
      </trkpt>
      <trkpt lat="44.97037" lon="0.87685">
        <ele>187.3</ele>
        <time>2022-08-13T10:27:43Z</time>
      </trkpt>
      <trkpt lat="44.97026" lon="0.87688">
        <ele>186</ele>
        <time>2022-08-13T10:27:50Z</time>
      </trkpt>
      <trkpt lat="44.9702" lon="0.87696">
        <ele>186</ele>
        <time>2022-08-13T10:27:55Z</time>
      </trkpt>
      <trkpt lat="44.97018" lon="0.87699">
        <ele>186.1</ele>
        <time>2022-08-13T10:27:57Z</time>
      </trkpt>
      <trkpt lat="44.97016" lon="0.87704">
        <ele>189</ele>
        <time>2022-08-13T10:28:00Z</time>
      </trkpt>
      <trkpt lat="44.97011" lon="0.87709">
        <ele>187.7</ele>
        <time>2022-08-13T10:28:06Z</time>
      </trkpt>
      <trkpt lat="44.97004" lon="0.87716">
        <ele>187.8</ele>
        <time>2022-08-13T10:28:43Z</time>
      </trkpt>
      <trkpt lat="44.96998" lon="0.8772">
        <ele>188.3</ele>
        <time>2022-08-13T10:28:47Z</time>
      </trkpt>
      <trkpt lat="44.96996" lon="0.87722">
        <ele>188.3</ele>
        <time>2022-08-13T10:28:49Z</time>
      </trkpt>
      <trkpt lat="44.96993" lon="0.87726">
        <ele>188.4</ele>
        <time>2022-08-13T10:28:52Z</time>
      </trkpt>
      <trkpt lat="44.96979" lon="0.87742">
        <ele>188.5</ele>
        <time>2022-08-13T10:28:59Z</time>
      </trkpt>
      <trkpt lat="44.96971" lon="0.87755">
        <ele>188.6</ele>
        <time>2022-08-13T10:29:05Z</time>
      </trkpt>
      <trkpt lat="44.96958" lon="0.87764">
        <ele>186.9</ele>
        <time>2022-08-13T10:29:09Z</time>
      </trkpt>
      <trkpt lat="44.96953" lon="0.87773">
        <ele>186.5</ele>
        <time>2022-08-13T10:29:11Z</time>
      </trkpt>
      <trkpt lat="44.96948" lon="0.87785">
        <ele>186.5</ele>
        <time>2022-08-13T10:29:13Z</time>
      </trkpt>
      <trkpt lat="44.96939" lon="0.87811">
        <ele>186.5</ele>
        <time>2022-08-13T10:29:17Z</time>
      </trkpt>
      <trkpt lat="44.96936" lon="0.87818">
        <ele>186.5</ele>
        <time>2022-08-13T10:29:18Z</time>
      </trkpt>
      <trkpt lat="44.96934" lon="0.87823">
        <ele>187.2</ele>
        <time>2022-08-13T10:29:19Z</time>
      </trkpt>
      <trkpt lat="44.9693" lon="0.8783">
        <ele>187.2</ele>
        <time>2022-08-13T10:29:21Z</time>
      </trkpt>
      <trkpt lat="44.96925" lon="0.87853">
        <ele>185.4</ele>
        <time>2022-08-13T10:29:25Z</time>
      </trkpt>
      <trkpt lat="44.9692" lon="0.87872">
        <ele>185.8</ele>
        <time>2022-08-13T10:29:27Z</time>
      </trkpt>
      <trkpt lat="44.96916" lon="0.87884">
        <ele>182.9</ele>
        <time>2022-08-13T10:29:28Z</time>
      </trkpt>
      <trkpt lat="44.96913" lon="0.87905">
        <ele>183.3</ele>
        <time>2022-08-13T10:29:30Z</time>
      </trkpt>
      <trkpt lat="44.96909" lon="0.87914">
        <ele>183.9</ele>
        <time>2022-08-13T10:29:31Z</time>
      </trkpt>
      <trkpt lat="44.96901" lon="0.87936">
        <ele>181.2</ele>
        <time>2022-08-13T10:29:34Z</time>
      </trkpt>
      <trkpt lat="44.96898" lon="0.87942">
        <ele>181.2</ele>
        <time>2022-08-13T10:29:35Z</time>
      </trkpt>
      <trkpt lat="44.96893" lon="0.87953">
        <ele>177.6</ele>
        <time>2022-08-13T10:29:37Z</time>
      </trkpt>
      <trkpt lat="44.96891" lon="0.8796">
        <ele>178.2</ele>
        <time>2022-08-13T10:29:38Z</time>
      </trkpt>
      <trkpt lat="44.96888" lon="0.87973">
        <ele>178.3</ele>
        <time>2022-08-13T10:29:40Z</time>
      </trkpt>
      <trkpt lat="44.96886" lon="0.87986">
        <ele>178.8</ele>
        <time>2022-08-13T10:29:42Z</time>
      </trkpt>
      <trkpt lat="44.96885" lon="0.88016">
        <ele>179.3</ele>
        <time>2022-08-13T10:29:46Z</time>
      </trkpt>
      <trkpt lat="44.96884" lon="0.88023">
        <ele>179.3</ele>
        <time>2022-08-13T10:29:47Z</time>
      </trkpt>
      <trkpt lat="44.96883" lon="0.8803">
        <ele>179.4</ele>
        <time>2022-08-13T10:29:48Z</time>
      </trkpt>
      <trkpt lat="44.96883" lon="0.88044">
        <ele>179.5</ele>
        <time>2022-08-13T10:29:50Z</time>
      </trkpt>
      <trkpt lat="44.96883" lon="0.8805">
        <ele>179.3</ele>
        <time>2022-08-13T10:29:51Z</time>
      </trkpt>
      <trkpt lat="44.96884" lon="0.88077">
        <ele>178.5</ele>
        <time>2022-08-13T10:29:56Z</time>
      </trkpt>
      <trkpt lat="44.96884" lon="0.88089">
        <ele>177.2</ele>
        <time>2022-08-13T10:29:58Z</time>
      </trkpt>
      <trkpt lat="44.96883" lon="0.88094">
        <ele>177.3</ele>
        <time>2022-08-13T10:29:59Z</time>
      </trkpt>
      <trkpt lat="44.96883" lon="0.88099">
        <ele>175.8</ele>
        <time>2022-08-13T10:30:00Z</time>
      </trkpt>
      <trkpt lat="44.96885" lon="0.8811">
        <ele>175.9</ele>
        <time>2022-08-13T10:30:02Z</time>
      </trkpt>
      <trkpt lat="44.96886" lon="0.88125">
        <ele>173.9</ele>
        <time>2022-08-13T10:30:05Z</time>
      </trkpt>
      <trkpt lat="44.96888" lon="0.8813">
        <ele>173.9</ele>
        <time>2022-08-13T10:30:08Z</time>
      </trkpt>
      <trkpt lat="44.96896" lon="0.88143">
        <ele>174</ele>
        <time>2022-08-13T10:30:36Z</time>
      </trkpt>
      <trkpt lat="44.96889" lon="0.88147">
        <ele>171.6</ele>
        <time>2022-08-13T10:30:39Z</time>
      </trkpt>
      <trkpt lat="44.9688" lon="0.88145">
        <ele>168.8</ele>
        <time>2022-08-13T10:30:43Z</time>
      </trkpt>
      <trkpt lat="44.96879" lon="0.88144">
        <ele>168.9</ele>
        <time>2022-08-13T10:30:46Z</time>
      </trkpt>
      <trkpt lat="44.96875" lon="0.88146">
        <ele>168.9</ele>
        <time>2022-08-13T10:31:06Z</time>
      </trkpt>
      <trkpt lat="44.9687" lon="0.88156">
        <ele>166.2</ele>
        <time>2022-08-13T10:31:09Z</time>
      </trkpt>
      <trkpt lat="44.96868" lon="0.88159">
        <ele>163.2</ele>
        <time>2022-08-13T10:31:10Z</time>
      </trkpt>
      <trkpt lat="44.96862" lon="0.88165">
        <ele>160.1</ele>
        <time>2022-08-13T10:31:13Z</time>
      </trkpt>
      <trkpt lat="44.96861" lon="0.88169">
        <ele>160.1</ele>
        <time>2022-08-13T10:31:14Z</time>
      </trkpt>
      <trkpt lat="44.96862" lon="0.88173">
        <ele>160.1</ele>
        <time>2022-08-13T10:31:15Z</time>
      </trkpt>
      <trkpt lat="44.96865" lon="0.88183">
        <ele>157.2</ele>
        <time>2022-08-13T10:31:17Z</time>
      </trkpt>
      <trkpt lat="44.96869" lon="0.8819">
        <ele>159</ele>
        <time>2022-08-13T10:31:19Z</time>
      </trkpt>
      <trkpt lat="44.96869" lon="0.88191">
        <ele>159</ele>
        <time>2022-08-13T10:31:20Z</time>
      </trkpt>
      <trkpt lat="44.96861" lon="0.88192">
        <ele>157.3</ele>
        <time>2022-08-13T10:31:23Z</time>
      </trkpt>
      <trkpt lat="44.96848" lon="0.88195">
        <ele>155.2</ele>
        <time>2022-08-13T10:31:26Z</time>
      </trkpt>
      <trkpt lat="44.96846" lon="0.88196">
        <ele>155.3</ele>
        <time>2022-08-13T10:31:27Z</time>
      </trkpt>
      <trkpt lat="44.96846" lon="0.882">
        <ele>152.8</ele>
        <time>2022-08-13T10:31:29Z</time>
      </trkpt>
      <trkpt lat="44.96848" lon="0.88204">
        <ele>152.9</ele>
        <time>2022-08-13T10:31:30Z</time>
      </trkpt>
      <trkpt lat="44.96855" lon="0.88214">
        <ele>152.9</ele>
        <time>2022-08-13T10:31:32Z</time>
      </trkpt>
      <trkpt lat="44.96856" lon="0.88218">
        <ele>151.9</ele>
        <time>2022-08-13T10:31:34Z</time>
      </trkpt>
      <trkpt lat="44.96847" lon="0.88218">
        <ele>150.5</ele>
        <time>2022-08-13T10:31:37Z</time>
      </trkpt>
      <trkpt lat="44.96836" lon="0.88218">
        <ele>148.9</ele>
        <time>2022-08-13T10:31:40Z</time>
      </trkpt>
      <trkpt lat="44.96831" lon="0.88218">
        <ele>147.1</ele>
        <time>2022-08-13T10:31:41Z</time>
      </trkpt>
      <trkpt lat="44.96825" lon="0.88219">
        <ele>147.2</ele>
        <time>2022-08-13T10:31:42Z</time>
      </trkpt>
      <trkpt lat="44.96811" lon="0.8822">
        <ele>145.7</ele>
        <time>2022-08-13T10:31:45Z</time>
      </trkpt>
      <trkpt lat="44.96806" lon="0.88233">
        <ele>144.4</ele>
        <time>2022-08-13T10:31:48Z</time>
      </trkpt>
      <trkpt lat="44.96806" lon="0.88237">
        <ele>143.2</ele>
        <time>2022-08-13T10:31:49Z</time>
      </trkpt>
      <trkpt lat="44.96806" lon="0.88244">
        <ele>143.2</ele>
        <time>2022-08-13T10:31:51Z</time>
      </trkpt>
      <trkpt lat="44.96805" lon="0.88253">
        <ele>141.9</ele>
        <time>2022-08-13T10:31:54Z</time>
      </trkpt>
      <trkpt lat="44.96806" lon="0.88256">
        <ele>141.9</ele>
        <time>2022-08-13T10:31:55Z</time>
      </trkpt>
      <trkpt lat="44.96806" lon="0.88267">
        <ele>141.9</ele>
        <time>2022-08-13T10:31:56Z</time>
      </trkpt>
      <trkpt lat="44.96809" lon="0.88267">
        <ele>143</ele>
        <time>2022-08-13T10:31:58Z</time>
      </trkpt>
      <trkpt lat="44.96819" lon="0.88266">
        <ele>143</ele>
        <time>2022-08-13T10:32:03Z</time>
      </trkpt>
      <trkpt lat="44.96827" lon="0.88266">
        <ele>144</ele>
        <time>2022-08-13T10:32:07Z</time>
      </trkpt>
      <trkpt lat="44.9683" lon="0.88267">
        <ele>144</ele>
        <time>2022-08-13T10:32:09Z</time>
      </trkpt>
      <trkpt lat="44.96837" lon="0.88267">
        <ele>145.2</ele>
        <time>2022-08-13T10:32:13Z</time>
      </trkpt>
      <trkpt lat="44.96847" lon="0.88268">
        <ele>146.3</ele>
        <time>2022-08-13T10:32:20Z</time>
      </trkpt>
      <trkpt lat="44.96851" lon="0.88268">
        <ele>146.3</ele>
        <time>2022-08-13T10:32:23Z</time>
      </trkpt>
      <trkpt lat="44.96854" lon="0.88268">
        <ele>146.3</ele>
        <time>2022-08-13T10:32:26Z</time>
      </trkpt>
      <trkpt lat="44.96855" lon="0.88272">
        <ele>145.1</ele>
        <time>2022-08-13T10:32:29Z</time>
      </trkpt>
      <trkpt lat="44.96855" lon="0.88275">
        <ele>145.1</ele>
        <time>2022-08-13T10:32:30Z</time>
      </trkpt>
      <trkpt lat="44.96855" lon="0.88299">
        <ele>144.7</ele>
        <time>2022-08-13T10:32:34Z</time>
      </trkpt>
      <trkpt lat="44.96853" lon="0.8832">
        <ele>144.9</ele>
        <time>2022-08-13T10:32:39Z</time>
      </trkpt>
      <trkpt lat="44.9685" lon="0.88341">
        <ele>147.7</ele>
        <time>2022-08-13T10:32:45Z</time>
      </trkpt>
      <trkpt lat="44.96847" lon="0.88349">
        <ele>147.7</ele>
        <time>2022-08-13T10:32:50Z</time>
      </trkpt>
      <trkpt lat="44.96847" lon="0.8835">
        <ele>147.8</ele>
        <time>2022-08-13T10:32:51Z</time>
      </trkpt>
      <trkpt lat="44.96847" lon="0.88351">
        <ele>147.8</ele>
        <time>2022-08-13T10:32:52Z</time>
      </trkpt>
      <trkpt lat="44.96841" lon="0.88349">
        <ele>146.6</ele>
        <time>2022-08-13T10:33:37Z</time>
      </trkpt>
      <trkpt lat="44.96836" lon="0.88349">
        <ele>146.6</ele>
        <time>2022-08-13T10:33:39Z</time>
      </trkpt>
      <trkpt lat="44.96822" lon="0.8835">
        <ele>145.4</ele>
        <time>2022-08-13T10:33:45Z</time>
      </trkpt>
      <trkpt lat="44.96806" lon="0.8835">
        <ele>143.2</ele>
        <time>2022-08-13T10:33:50Z</time>
      </trkpt>
      <trkpt lat="44.96793" lon="0.88353">
        <ele>142.2</ele>
        <time>2022-08-13T10:33:53Z</time>
      </trkpt>
      <trkpt lat="44.96784" lon="0.88359">
        <ele>144.7</ele>
        <time>2022-08-13T10:33:55Z</time>
      </trkpt>
      <trkpt lat="44.96768" lon="0.88376">
        <ele>143.9</ele>
        <time>2022-08-13T10:33:59Z</time>
      </trkpt>
      <trkpt lat="44.96749" lon="0.88399">
        <ele>144.8</ele>
        <time>2022-08-13T10:34:04Z</time>
      </trkpt>
      <trkpt lat="44.96738" lon="0.88411">
        <ele>144.8</ele>
        <time>2022-08-13T10:34:07Z</time>
      </trkpt>
      <trkpt lat="44.96734" lon="0.88415">
        <ele>142.8</ele>
        <time>2022-08-13T10:34:08Z</time>
      </trkpt>
      <trkpt lat="44.96729" lon="0.88419">
        <ele>142.8</ele>
        <time>2022-08-13T10:34:09Z</time>
      </trkpt>
      <trkpt lat="44.96717" lon="0.88426">
        <ele>142.6</ele>
        <time>2022-08-13T10:34:11Z</time>
      </trkpt>
      <trkpt lat="44.96704" lon="0.88438">
        <ele>140.6</ele>
        <time>2022-08-13T10:34:13Z</time>
      </trkpt>
      <trkpt lat="44.96699" lon="0.88447">
        <ele>142.5</ele>
        <time>2022-08-13T10:34:14Z</time>
      </trkpt>
      <trkpt lat="44.96696" lon="0.88456">
        <ele>140.2</ele>
        <time>2022-08-13T10:34:15Z</time>
      </trkpt>
      <trkpt lat="44.96692" lon="0.88477">
        <ele>143.9</ele>
        <time>2022-08-13T10:34:17Z</time>
      </trkpt>
      <trkpt lat="44.9669" lon="0.88486">
        <ele>143.9</ele>
        <time>2022-08-13T10:34:18Z</time>
      </trkpt>
      <trkpt lat="44.96682" lon="0.88502">
        <ele>143.3</ele>
        <time>2022-08-13T10:34:20Z</time>
      </trkpt>
      <trkpt lat="44.96663" lon="0.88529">
        <ele>144.7</ele>
        <time>2022-08-13T10:34:24Z</time>
      </trkpt>
      <trkpt lat="44.96658" lon="0.88533">
        <ele>142.2</ele>
        <time>2022-08-13T10:34:25Z</time>
      </trkpt>
      <trkpt lat="44.96643" lon="0.88545">
        <ele>142.7</ele>
        <time>2022-08-13T10:34:28Z</time>
      </trkpt>
      <trkpt lat="44.96632" lon="0.8855">
        <ele>140.4</ele>
        <time>2022-08-13T10:34:30Z</time>
      </trkpt>
      <trkpt lat="44.96623" lon="0.88549">
        <ele>138.8</ele>
        <time>2022-08-13T10:34:32Z</time>
      </trkpt>
      <trkpt lat="44.96619" lon="0.88545">
        <ele>138.8</ele>
        <time>2022-08-13T10:34:33Z</time>
      </trkpt>
      <trkpt lat="44.96617" lon="0.88538">
        <ele>136.5</ele>
        <time>2022-08-13T10:34:34Z</time>
      </trkpt>
      <trkpt lat="44.96612" lon="0.88523">
        <ele>132.9</ele>
        <time>2022-08-13T10:34:36Z</time>
      </trkpt>
      <trkpt lat="44.96604" lon="0.88509">
        <ele>132.9</ele>
        <time>2022-08-13T10:34:38Z</time>
      </trkpt>
      <trkpt lat="44.96593" lon="0.885">
        <ele>130.7</ele>
        <time>2022-08-13T10:34:40Z</time>
      </trkpt>
      <trkpt lat="44.96587" lon="0.88487">
        <ele>130.7</ele>
        <time>2022-08-13T10:34:43Z</time>
      </trkpt>
      <trkpt lat="44.96575" lon="0.88457">
        <ele>128.8</ele>
        <time>2022-08-13T10:34:47Z</time>
      </trkpt>
      <trkpt lat="44.9657" lon="0.88451">
        <ele>128.4</ele>
        <time>2022-08-13T10:34:48Z</time>
      </trkpt>
      <trkpt lat="44.96571" lon="0.88449">
        <ele>128.7</ele>
        <time>2022-08-13T10:34:50Z</time>
      </trkpt>
      <trkpt lat="44.9657" lon="0.88446">
        <ele>129</ele>
        <time>2022-08-13T10:34:52Z</time>
      </trkpt>
      <trkpt lat="44.96566" lon="0.88439">
        <ele>130</ele>
        <time>2022-08-13T10:34:54Z</time>
      </trkpt>
      <trkpt lat="44.96559" lon="0.88419">
        <ele>133.1</ele>
        <time>2022-08-13T10:35:00Z</time>
      </trkpt>
      <trkpt lat="44.96554" lon="0.88401">
        <ele>136.7</ele>
        <time>2022-08-13T10:35:05Z</time>
      </trkpt>
      <trkpt lat="44.96555" lon="0.88398">
        <ele>136.6</ele>
        <time>2022-08-13T10:35:06Z</time>
      </trkpt>
      <trkpt lat="44.96565" lon="0.88382">
        <ele>136</ele>
        <time>2022-08-13T10:35:11Z</time>
      </trkpt>
      <trkpt lat="44.96577" lon="0.88374">
        <ele>135.2</ele>
        <time>2022-08-13T10:35:17Z</time>
      </trkpt>
      <trkpt lat="44.96585" lon="0.88368">
        <ele>136.2</ele>
        <time>2022-08-13T10:35:21Z</time>
      </trkpt>
      <trkpt lat="44.96585" lon="0.88368">
        <ele>136.2</ele>
        <time>2022-08-13T10:35:22Z</time>
      </trkpt>
    </trkseg>
  </trk>
</gpx>